<?xml version="1.0" encoding="UTF-8" standalone="no" ?>
<gpx xmlns="http://www.topografix.com/GPX/1/1" xmlns:xsi="http://www.w3.org/2001/XMLSchema-instance" xsi:schemaLocation="http://www.topografix.com/GPX/1/1 http://www.topografix.com/GPX/1/1/gpx.xsd" version="1.1" creator="VisuGPX - https://www.visugpx.com">
  <metadata>
    <name>2018-02-19 Bike ride-Amberieux-Savigneux O 33k</name>
    <desc><![CDATA[2018-02-19 Bike ride-Amberieux-Savigneux O 33k]]></desc>
  </metadata>
  <wpt lat="45.9245" lon="4.73698">
    <ele>174</ele>
    <name><![CDATA[2018-02-19 10:51 (Start)]]></name>
  </wpt>
  <wpt lat="45.92465" lon="4.73711">
    <ele>174</ele>
    <name><![CDATA[2018-02-19 10:51 (End)]]></name>
  </wpt>
  <trk>
    <name><![CDATA[2018-02-19 10:51]]></name>
    <trkseg>
      <trkpt lat="45.9245" lon="4.73698">
        <ele>174</ele>
        <time>2018-02-19T09:51:10.024Z</time>
      </trkpt>
      <trkpt lat="45.92469" lon="4.73716">
        <ele>174</ele>
        <time>2018-02-19T09:51:10.26Z</time>
      </trkpt>
      <trkpt lat="45.92473" lon="4.73716">
        <ele>174</ele>
        <time>2018-02-19T09:51:11.26Z</time>
      </trkpt>
      <trkpt lat="45.92466" lon="4.73731">
        <ele>174</ele>
        <time>2018-02-19T09:51:12.26Z</time>
      </trkpt>
      <trkpt lat="45.92471" lon="4.73726">
        <ele>174</ele>
        <time>2018-02-19T09:51:13.26Z</time>
      </trkpt>
      <trkpt lat="45.92471" lon="4.73711">
        <ele>174</ele>
        <time>2018-02-19T09:51:14Z</time>
      </trkpt>
      <trkpt lat="45.92475" lon="4.737">
        <ele>174</ele>
        <time>2018-02-19T09:51:32Z</time>
      </trkpt>
      <trkpt lat="45.92474" lon="4.73697">
        <ele>174</ele>
        <time>2018-02-19T09:51:33Z</time>
      </trkpt>
      <trkpt lat="45.92473" lon="4.73686">
        <ele>174</ele>
        <time>2018-02-19T09:51:36Z</time>
      </trkpt>
      <trkpt lat="45.92473" lon="4.73683">
        <ele>174</ele>
        <time>2018-02-19T09:51:37Z</time>
      </trkpt>
      <trkpt lat="45.92474" lon="4.73671">
        <ele>174</ele>
        <time>2018-02-19T09:51:40Z</time>
      </trkpt>
      <trkpt lat="45.92474" lon="4.73666">
        <ele>174</ele>
        <time>2018-02-19T09:51:41Z</time>
      </trkpt>
      <trkpt lat="45.92472" lon="4.73657">
        <ele>174</ele>
        <time>2018-02-19T09:51:44Z</time>
      </trkpt>
      <trkpt lat="45.92472" lon="4.73652">
        <ele>174</ele>
        <time>2018-02-19T09:51:45Z</time>
      </trkpt>
      <trkpt lat="45.92475" lon="4.73641">
        <ele>174</ele>
        <time>2018-02-19T09:51:48Z</time>
      </trkpt>
      <trkpt lat="45.92478" lon="4.73639">
        <ele>174</ele>
        <time>2018-02-19T09:51:49Z</time>
      </trkpt>
      <trkpt lat="45.92486" lon="4.73638">
        <ele>174</ele>
        <time>2018-02-19T09:51:52Z</time>
      </trkpt>
      <trkpt lat="45.92489" lon="4.73638">
        <ele>174</ele>
        <time>2018-02-19T09:51:53Z</time>
      </trkpt>
      <trkpt lat="45.92497" lon="4.73637">
        <ele>174</ele>
        <time>2018-02-19T09:51:56Z</time>
      </trkpt>
      <trkpt lat="45.925" lon="4.73637">
        <ele>174</ele>
        <time>2018-02-19T09:51:57Z</time>
      </trkpt>
      <trkpt lat="45.92508" lon="4.73637">
        <ele>174</ele>
        <time>2018-02-19T09:52:00Z</time>
      </trkpt>
      <trkpt lat="45.92511" lon="4.73636">
        <ele>173</ele>
        <time>2018-02-19T09:52:01Z</time>
      </trkpt>
      <trkpt lat="45.92518" lon="4.73636">
        <ele>173</ele>
        <time>2018-02-19T09:52:03Z</time>
      </trkpt>
      <trkpt lat="45.92521" lon="4.73636">
        <ele>173</ele>
        <time>2018-02-19T09:52:04Z</time>
      </trkpt>
      <trkpt lat="45.92529" lon="4.73634">
        <ele>173</ele>
        <time>2018-02-19T09:52:06Z</time>
      </trkpt>
      <trkpt lat="45.92532" lon="4.73634">
        <ele>173</ele>
        <time>2018-02-19T09:52:07Z</time>
      </trkpt>
      <trkpt lat="45.92539" lon="4.73634">
        <ele>173</ele>
        <time>2018-02-19T09:52:09Z</time>
      </trkpt>
      <trkpt lat="45.92543" lon="4.73633">
        <ele>173</ele>
        <time>2018-02-19T09:52:10Z</time>
      </trkpt>
      <trkpt lat="45.9255" lon="4.73631">
        <ele>173</ele>
        <time>2018-02-19T09:52:12Z</time>
      </trkpt>
      <trkpt lat="45.92554" lon="4.73629">
        <ele>173</ele>
        <time>2018-02-19T09:52:13Z</time>
      </trkpt>
      <trkpt lat="45.9256" lon="4.73626">
        <ele>173</ele>
        <time>2018-02-19T09:52:15Z</time>
      </trkpt>
      <trkpt lat="45.92564" lon="4.73626">
        <ele>173</ele>
        <time>2018-02-19T09:52:16Z</time>
      </trkpt>
      <trkpt lat="45.92571" lon="4.73624">
        <ele>173</ele>
        <time>2018-02-19T09:52:18Z</time>
      </trkpt>
      <trkpt lat="45.92575" lon="4.73624">
        <ele>173</ele>
        <time>2018-02-19T09:52:19Z</time>
      </trkpt>
      <trkpt lat="45.92582" lon="4.73622">
        <ele>173</ele>
        <time>2018-02-19T09:52:21Z</time>
      </trkpt>
      <trkpt lat="45.92586" lon="4.73621">
        <ele>173</ele>
        <time>2018-02-19T09:52:22Z</time>
      </trkpt>
      <trkpt lat="45.92593" lon="4.73621">
        <ele>173</ele>
        <time>2018-02-19T09:52:24Z</time>
      </trkpt>
      <trkpt lat="45.92596" lon="4.7362">
        <ele>173</ele>
        <time>2018-02-19T09:52:25Z</time>
      </trkpt>
      <trkpt lat="45.92602" lon="4.7362">
        <ele>173</ele>
        <time>2018-02-19T09:52:26Z</time>
      </trkpt>
      <trkpt lat="45.92606" lon="4.7362">
        <ele>173</ele>
        <time>2018-02-19T09:52:27Z</time>
      </trkpt>
      <trkpt lat="45.92614" lon="4.73624">
        <ele>173</ele>
        <time>2018-02-19T09:52:29Z</time>
      </trkpt>
      <trkpt lat="45.92618" lon="4.73626">
        <ele>173</ele>
        <time>2018-02-19T09:52:30Z</time>
      </trkpt>
      <trkpt lat="45.92625" lon="4.73634">
        <ele>173</ele>
        <time>2018-02-19T09:52:32Z</time>
      </trkpt>
      <trkpt lat="45.92627" lon="4.73639">
        <ele>173</ele>
        <time>2018-02-19T09:52:33Z</time>
      </trkpt>
      <trkpt lat="45.9263" lon="4.7365">
        <ele>173</ele>
        <time>2018-02-19T09:52:35Z</time>
      </trkpt>
      <trkpt lat="45.92632" lon="4.73655">
        <ele>173</ele>
        <time>2018-02-19T09:52:36Z</time>
      </trkpt>
      <trkpt lat="45.92637" lon="4.73665">
        <ele>173</ele>
        <time>2018-02-19T09:52:38Z</time>
      </trkpt>
      <trkpt lat="45.9264" lon="4.7367">
        <ele>173</ele>
        <time>2018-02-19T09:52:39Z</time>
      </trkpt>
      <trkpt lat="45.92643" lon="4.73676">
        <ele>173</ele>
        <time>2018-02-19T09:52:40Z</time>
      </trkpt>
      <trkpt lat="45.92646" lon="4.73681">
        <ele>173</ele>
        <time>2018-02-19T09:52:41Z</time>
      </trkpt>
      <trkpt lat="45.92649" lon="4.73686">
        <ele>173</ele>
        <time>2018-02-19T09:52:42Z</time>
      </trkpt>
      <trkpt lat="45.92652" lon="4.7369">
        <ele>173</ele>
        <time>2018-02-19T09:52:43Z</time>
      </trkpt>
      <trkpt lat="45.92659" lon="4.73693">
        <ele>173</ele>
        <time>2018-02-19T09:52:44Z</time>
      </trkpt>
      <trkpt lat="45.92662" lon="4.73696">
        <ele>173</ele>
        <time>2018-02-19T09:52:45Z</time>
      </trkpt>
      <trkpt lat="45.9267" lon="4.737">
        <ele>174</ele>
        <time>2018-02-19T09:52:47Z</time>
      </trkpt>
      <trkpt lat="45.92674" lon="4.73702">
        <ele>174</ele>
        <time>2018-02-19T09:52:48Z</time>
      </trkpt>
      <trkpt lat="45.92679" lon="4.73704">
        <ele>173</ele>
        <time>2018-02-19T09:52:49Z</time>
      </trkpt>
      <trkpt lat="45.92684" lon="4.73705">
        <ele>173</ele>
        <time>2018-02-19T09:52:50Z</time>
      </trkpt>
      <trkpt lat="45.92692" lon="4.73709">
        <ele>173</ele>
        <time>2018-02-19T09:52:52Z</time>
      </trkpt>
      <trkpt lat="45.92696" lon="4.73709">
        <ele>173</ele>
        <time>2018-02-19T09:52:53Z</time>
      </trkpt>
      <trkpt lat="45.92701" lon="4.7371">
        <ele>173</ele>
        <time>2018-02-19T09:52:54Z</time>
      </trkpt>
      <trkpt lat="45.92706" lon="4.73711">
        <ele>173</ele>
        <time>2018-02-19T09:52:55Z</time>
      </trkpt>
      <trkpt lat="45.92711" lon="4.73712">
        <ele>173</ele>
        <time>2018-02-19T09:52:56Z</time>
      </trkpt>
      <trkpt lat="45.92717" lon="4.73713">
        <ele>173</ele>
        <time>2018-02-19T09:52:57Z</time>
      </trkpt>
      <trkpt lat="45.92721" lon="4.73714">
        <ele>173</ele>
        <time>2018-02-19T09:52:58Z</time>
      </trkpt>
      <trkpt lat="45.92726" lon="4.73715">
        <ele>173</ele>
        <time>2018-02-19T09:52:59Z</time>
      </trkpt>
      <trkpt lat="45.92732" lon="4.73716">
        <ele>173</ele>
        <time>2018-02-19T09:53:00Z</time>
      </trkpt>
      <trkpt lat="45.92737" lon="4.73718">
        <ele>173</ele>
        <time>2018-02-19T09:53:01Z</time>
      </trkpt>
      <trkpt lat="45.92745" lon="4.73719">
        <ele>173</ele>
        <time>2018-02-19T09:53:03Z</time>
      </trkpt>
      <trkpt lat="45.9275" lon="4.73721">
        <ele>173</ele>
        <time>2018-02-19T09:53:04Z</time>
      </trkpt>
      <trkpt lat="45.92757" lon="4.73721">
        <ele>172</ele>
        <time>2018-02-19T09:53:06Z</time>
      </trkpt>
      <trkpt lat="45.9276" lon="4.73721">
        <ele>172</ele>
        <time>2018-02-19T09:53:07Z</time>
      </trkpt>
      <trkpt lat="45.92765" lon="4.73724">
        <ele>172</ele>
        <time>2018-02-19T09:53:08Z</time>
      </trkpt>
      <trkpt lat="45.92769" lon="4.73727">
        <ele>172</ele>
        <time>2018-02-19T09:53:09Z</time>
      </trkpt>
      <trkpt lat="45.92776" lon="4.73731">
        <ele>172</ele>
        <time>2018-02-19T09:53:11Z</time>
      </trkpt>
      <trkpt lat="45.9278" lon="4.73734">
        <ele>172</ele>
        <time>2018-02-19T09:53:12Z</time>
      </trkpt>
      <trkpt lat="45.92784" lon="4.73743">
        <ele>172</ele>
        <time>2018-02-19T09:53:14Z</time>
      </trkpt>
      <trkpt lat="45.92786" lon="4.73748">
        <ele>172</ele>
        <time>2018-02-19T09:53:15Z</time>
      </trkpt>
      <trkpt lat="45.92793" lon="4.73754">
        <ele>173</ele>
        <time>2018-02-19T09:53:17Z</time>
      </trkpt>
      <trkpt lat="45.92796" lon="4.73757">
        <ele>173</ele>
        <time>2018-02-19T09:53:18Z</time>
      </trkpt>
      <trkpt lat="45.92804" lon="4.73762">
        <ele>173</ele>
        <time>2018-02-19T09:53:20Z</time>
      </trkpt>
      <trkpt lat="45.92809" lon="4.73765">
        <ele>173</ele>
        <time>2018-02-19T09:53:21Z</time>
      </trkpt>
      <trkpt lat="45.92817" lon="4.7377">
        <ele>173</ele>
        <time>2018-02-19T09:53:23Z</time>
      </trkpt>
      <trkpt lat="45.92823" lon="4.73772">
        <ele>173</ele>
        <time>2018-02-19T09:53:24Z</time>
      </trkpt>
      <trkpt lat="45.92828" lon="4.73776">
        <ele>173</ele>
        <time>2018-02-19T09:53:25Z</time>
      </trkpt>
      <trkpt lat="45.92833" lon="4.73778">
        <ele>173</ele>
        <time>2018-02-19T09:53:26Z</time>
      </trkpt>
      <trkpt lat="45.92838" lon="4.73781">
        <ele>173</ele>
        <time>2018-02-19T09:53:27Z</time>
      </trkpt>
      <trkpt lat="45.92842" lon="4.73785">
        <ele>173</ele>
        <time>2018-02-19T09:53:28Z</time>
      </trkpt>
      <trkpt lat="45.92846" lon="4.73789">
        <ele>173</ele>
        <time>2018-02-19T09:53:29Z</time>
      </trkpt>
      <trkpt lat="45.92851" lon="4.73792">
        <ele>173</ele>
        <time>2018-02-19T09:53:30Z</time>
      </trkpt>
      <trkpt lat="45.92854" lon="4.738">
        <ele>173</ele>
        <time>2018-02-19T09:53:31Z</time>
      </trkpt>
      <trkpt lat="45.92858" lon="4.73804">
        <ele>173</ele>
        <time>2018-02-19T09:53:32Z</time>
      </trkpt>
      <trkpt lat="45.92859" lon="4.73812">
        <ele>173</ele>
        <time>2018-02-19T09:53:33Z</time>
      </trkpt>
      <trkpt lat="45.92861" lon="4.73819">
        <ele>173</ele>
        <time>2018-02-19T09:53:34Z</time>
      </trkpt>
      <trkpt lat="45.92863" lon="4.73826">
        <ele>173</ele>
        <time>2018-02-19T09:53:35Z</time>
      </trkpt>
      <trkpt lat="45.92865" lon="4.73834">
        <ele>173</ele>
        <time>2018-02-19T09:53:36Z</time>
      </trkpt>
      <trkpt lat="45.92868" lon="4.73841">
        <ele>173</ele>
        <time>2018-02-19T09:53:37Z</time>
      </trkpt>
      <trkpt lat="45.92869" lon="4.73849">
        <ele>173</ele>
        <time>2018-02-19T09:53:38Z</time>
      </trkpt>
      <trkpt lat="45.92872" lon="4.73856">
        <ele>173</ele>
        <time>2018-02-19T09:53:39Z</time>
      </trkpt>
      <trkpt lat="45.92874" lon="4.73865">
        <ele>173</ele>
        <time>2018-02-19T09:53:40Z</time>
      </trkpt>
      <trkpt lat="45.92875" lon="4.73872">
        <ele>173</ele>
        <time>2018-02-19T09:53:41Z</time>
      </trkpt>
      <trkpt lat="45.92876" lon="4.7388">
        <ele>173</ele>
        <time>2018-02-19T09:53:42Z</time>
      </trkpt>
      <trkpt lat="45.92879" lon="4.73888">
        <ele>173</ele>
        <time>2018-02-19T09:53:43Z</time>
      </trkpt>
      <trkpt lat="45.92878" lon="4.73897">
        <ele>173</ele>
        <time>2018-02-19T09:53:44Z</time>
      </trkpt>
      <trkpt lat="45.92878" lon="4.73905">
        <ele>173</ele>
        <time>2018-02-19T09:53:45Z</time>
      </trkpt>
      <trkpt lat="45.92878" lon="4.73912">
        <ele>173</ele>
        <time>2018-02-19T09:53:46Z</time>
      </trkpt>
      <trkpt lat="45.92878" lon="4.73919">
        <ele>172</ele>
        <time>2018-02-19T09:53:47Z</time>
      </trkpt>
      <trkpt lat="45.92878" lon="4.73927">
        <ele>172</ele>
        <time>2018-02-19T09:53:48Z</time>
      </trkpt>
      <trkpt lat="45.92879" lon="4.73934">
        <ele>172</ele>
        <time>2018-02-19T09:53:49Z</time>
      </trkpt>
      <trkpt lat="45.92879" lon="4.73941">
        <ele>172</ele>
        <time>2018-02-19T09:53:50Z</time>
      </trkpt>
      <trkpt lat="45.9288" lon="4.73948">
        <ele>172</ele>
        <time>2018-02-19T09:53:51Z</time>
      </trkpt>
      <trkpt lat="45.9288" lon="4.73955">
        <ele>172</ele>
        <time>2018-02-19T09:53:52Z</time>
      </trkpt>
      <trkpt lat="45.9288" lon="4.73963">
        <ele>172</ele>
        <time>2018-02-19T09:53:53Z</time>
      </trkpt>
      <trkpt lat="45.92879" lon="4.73969">
        <ele>172</ele>
        <time>2018-02-19T09:53:54Z</time>
      </trkpt>
      <trkpt lat="45.9288" lon="4.73976">
        <ele>172</ele>
        <time>2018-02-19T09:53:55Z</time>
      </trkpt>
      <trkpt lat="45.9288" lon="4.73983">
        <ele>172</ele>
        <time>2018-02-19T09:53:56Z</time>
      </trkpt>
      <trkpt lat="45.92879" lon="4.73989">
        <ele>172</ele>
        <time>2018-02-19T09:53:57Z</time>
      </trkpt>
      <trkpt lat="45.92877" lon="4.73997">
        <ele>172</ele>
        <time>2018-02-19T09:53:58Z</time>
      </trkpt>
      <trkpt lat="45.92875" lon="4.74002">
        <ele>172</ele>
        <time>2018-02-19T09:53:59Z</time>
      </trkpt>
      <trkpt lat="45.92874" lon="4.74009">
        <ele>172</ele>
        <time>2018-02-19T09:54:00Z</time>
      </trkpt>
      <trkpt lat="45.92873" lon="4.74016">
        <ele>172</ele>
        <time>2018-02-19T09:54:01Z</time>
      </trkpt>
      <trkpt lat="45.92872" lon="4.74022">
        <ele>172</ele>
        <time>2018-02-19T09:54:02Z</time>
      </trkpt>
      <trkpt lat="45.92871" lon="4.74029">
        <ele>172</ele>
        <time>2018-02-19T09:54:03Z</time>
      </trkpt>
      <trkpt lat="45.92868" lon="4.74034">
        <ele>172</ele>
        <time>2018-02-19T09:54:04Z</time>
      </trkpt>
      <trkpt lat="45.92864" lon="4.74042">
        <ele>172</ele>
        <time>2018-02-19T09:54:05Z</time>
      </trkpt>
      <trkpt lat="45.92858" lon="4.74046">
        <ele>172</ele>
        <time>2018-02-19T09:54:06Z</time>
      </trkpt>
      <trkpt lat="45.92855" lon="4.74051">
        <ele>172</ele>
        <time>2018-02-19T09:54:07Z</time>
      </trkpt>
      <trkpt lat="45.92851" lon="4.74056">
        <ele>172</ele>
        <time>2018-02-19T09:54:08Z</time>
      </trkpt>
      <trkpt lat="45.92846" lon="4.74065">
        <ele>172</ele>
        <time>2018-02-19T09:54:10Z</time>
      </trkpt>
      <trkpt lat="45.92843" lon="4.74068">
        <ele>172</ele>
        <time>2018-02-19T09:54:11Z</time>
      </trkpt>
      <trkpt lat="45.92841" lon="4.74073">
        <ele>172</ele>
        <time>2018-02-19T09:54:12Z</time>
      </trkpt>
      <trkpt lat="45.92834" lon="4.74079">
        <ele>171</ele>
        <time>2018-02-19T09:54:13Z</time>
      </trkpt>
      <trkpt lat="45.92831" lon="4.74083">
        <ele>171</ele>
        <time>2018-02-19T09:54:14Z</time>
      </trkpt>
      <trkpt lat="45.92828" lon="4.74088">
        <ele>171</ele>
        <time>2018-02-19T09:54:15Z</time>
      </trkpt>
      <trkpt lat="45.92823" lon="4.74093">
        <ele>171</ele>
        <time>2018-02-19T09:54:16Z</time>
      </trkpt>
      <trkpt lat="45.92819" lon="4.74098">
        <ele>171</ele>
        <time>2018-02-19T09:54:17Z</time>
      </trkpt>
      <trkpt lat="45.92816" lon="4.74103">
        <ele>172</ele>
        <time>2018-02-19T09:54:18Z</time>
      </trkpt>
      <trkpt lat="45.92812" lon="4.74108">
        <ele>172</ele>
        <time>2018-02-19T09:54:19Z</time>
      </trkpt>
      <trkpt lat="45.92809" lon="4.74112">
        <ele>172</ele>
        <time>2018-02-19T09:54:20Z</time>
      </trkpt>
      <trkpt lat="45.92805" lon="4.74117">
        <ele>172</ele>
        <time>2018-02-19T09:54:21Z</time>
      </trkpt>
      <trkpt lat="45.928" lon="4.74122">
        <ele>172</ele>
        <time>2018-02-19T09:54:22Z</time>
      </trkpt>
      <trkpt lat="45.92797" lon="4.74127">
        <ele>172</ele>
        <time>2018-02-19T09:54:23Z</time>
      </trkpt>
      <trkpt lat="45.92792" lon="4.74131">
        <ele>172</ele>
        <time>2018-02-19T09:54:24Z</time>
      </trkpt>
      <trkpt lat="45.92788" lon="4.74136">
        <ele>172</ele>
        <time>2018-02-19T09:54:25Z</time>
      </trkpt>
      <trkpt lat="45.92782" lon="4.7414">
        <ele>172</ele>
        <time>2018-02-19T09:54:26Z</time>
      </trkpt>
      <trkpt lat="45.92778" lon="4.74144">
        <ele>172</ele>
        <time>2018-02-19T09:54:27Z</time>
      </trkpt>
      <trkpt lat="45.92774" lon="4.74149">
        <ele>172</ele>
        <time>2018-02-19T09:54:28Z</time>
      </trkpt>
      <trkpt lat="45.9277" lon="4.74153">
        <ele>172</ele>
        <time>2018-02-19T09:54:29Z</time>
      </trkpt>
      <trkpt lat="45.92765" lon="4.74157">
        <ele>172</ele>
        <time>2018-02-19T09:54:30Z</time>
      </trkpt>
      <trkpt lat="45.9276" lon="4.74164">
        <ele>172</ele>
        <time>2018-02-19T09:54:31Z</time>
      </trkpt>
      <trkpt lat="45.92755" lon="4.74169">
        <ele>172</ele>
        <time>2018-02-19T09:54:32Z</time>
      </trkpt>
      <trkpt lat="45.92751" lon="4.74173">
        <ele>172</ele>
        <time>2018-02-19T09:54:33Z</time>
      </trkpt>
      <trkpt lat="45.92746" lon="4.74178">
        <ele>172</ele>
        <time>2018-02-19T09:54:34Z</time>
      </trkpt>
      <trkpt lat="45.92743" lon="4.74182">
        <ele>172</ele>
        <time>2018-02-19T09:54:35Z</time>
      </trkpt>
      <trkpt lat="45.92739" lon="4.74188">
        <ele>172</ele>
        <time>2018-02-19T09:54:36Z</time>
      </trkpt>
      <trkpt lat="45.92736" lon="4.74192">
        <ele>171</ele>
        <time>2018-02-19T09:54:37Z</time>
      </trkpt>
      <trkpt lat="45.92731" lon="4.74198">
        <ele>171</ele>
        <time>2018-02-19T09:54:38Z</time>
      </trkpt>
      <trkpt lat="45.92726" lon="4.74202">
        <ele>171</ele>
        <time>2018-02-19T09:54:39Z</time>
      </trkpt>
      <trkpt lat="45.92722" lon="4.74208">
        <ele>171</ele>
        <time>2018-02-19T09:54:40Z</time>
      </trkpt>
      <trkpt lat="45.92718" lon="4.74214">
        <ele>171</ele>
        <time>2018-02-19T09:54:41Z</time>
      </trkpt>
      <trkpt lat="45.92714" lon="4.74219">
        <ele>171</ele>
        <time>2018-02-19T09:54:42Z</time>
      </trkpt>
      <trkpt lat="45.9271" lon="4.74224">
        <ele>171</ele>
        <time>2018-02-19T09:54:43Z</time>
      </trkpt>
      <trkpt lat="45.92707" lon="4.7423">
        <ele>171</ele>
        <time>2018-02-19T09:54:44Z</time>
      </trkpt>
      <trkpt lat="45.92702" lon="4.74235">
        <ele>171</ele>
        <time>2018-02-19T09:54:45Z</time>
      </trkpt>
      <trkpt lat="45.92698" lon="4.7424">
        <ele>171</ele>
        <time>2018-02-19T09:54:46Z</time>
      </trkpt>
      <trkpt lat="45.92695" lon="4.74246">
        <ele>171</ele>
        <time>2018-02-19T09:54:47Z</time>
      </trkpt>
      <trkpt lat="45.92691" lon="4.74253">
        <ele>171</ele>
        <time>2018-02-19T09:54:48Z</time>
      </trkpt>
      <trkpt lat="45.92687" lon="4.74259">
        <ele>171</ele>
        <time>2018-02-19T09:54:49Z</time>
      </trkpt>
      <trkpt lat="45.92684" lon="4.74265">
        <ele>171</ele>
        <time>2018-02-19T09:54:50Z</time>
      </trkpt>
      <trkpt lat="45.9268" lon="4.74272">
        <ele>171</ele>
        <time>2018-02-19T09:54:51Z</time>
      </trkpt>
      <trkpt lat="45.92676" lon="4.74277">
        <ele>171</ele>
        <time>2018-02-19T09:54:52Z</time>
      </trkpt>
      <trkpt lat="45.92674" lon="4.74282">
        <ele>171</ele>
        <time>2018-02-19T09:54:53Z</time>
      </trkpt>
      <trkpt lat="45.92671" lon="4.74288">
        <ele>171</ele>
        <time>2018-02-19T09:54:54Z</time>
      </trkpt>
      <trkpt lat="45.92668" lon="4.74294">
        <ele>171</ele>
        <time>2018-02-19T09:54:55Z</time>
      </trkpt>
      <trkpt lat="45.92665" lon="4.743">
        <ele>171</ele>
        <time>2018-02-19T09:54:56Z</time>
      </trkpt>
      <trkpt lat="45.92661" lon="4.74306">
        <ele>171</ele>
        <time>2018-02-19T09:54:57Z</time>
      </trkpt>
      <trkpt lat="45.92658" lon="4.74312">
        <ele>171</ele>
        <time>2018-02-19T09:54:58Z</time>
      </trkpt>
      <trkpt lat="45.92655" lon="4.74319">
        <ele>171</ele>
        <time>2018-02-19T09:54:59Z</time>
      </trkpt>
      <trkpt lat="45.92652" lon="4.74325">
        <ele>171</ele>
        <time>2018-02-19T09:55:00Z</time>
      </trkpt>
      <trkpt lat="45.92649" lon="4.74331">
        <ele>171</ele>
        <time>2018-02-19T09:55:01Z</time>
      </trkpt>
      <trkpt lat="45.92644" lon="4.74337">
        <ele>171</ele>
        <time>2018-02-19T09:55:02Z</time>
      </trkpt>
      <trkpt lat="45.92642" lon="4.74344">
        <ele>171</ele>
        <time>2018-02-19T09:55:03Z</time>
      </trkpt>
      <trkpt lat="45.92639" lon="4.7435">
        <ele>171</ele>
        <time>2018-02-19T09:55:04Z</time>
      </trkpt>
      <trkpt lat="45.92636" lon="4.74356">
        <ele>171</ele>
        <time>2018-02-19T09:55:05Z</time>
      </trkpt>
      <trkpt lat="45.92632" lon="4.74363">
        <ele>171</ele>
        <time>2018-02-19T09:55:06Z</time>
      </trkpt>
      <trkpt lat="45.92628" lon="4.7437">
        <ele>171</ele>
        <time>2018-02-19T09:55:07Z</time>
      </trkpt>
      <trkpt lat="45.92625" lon="4.74376">
        <ele>170</ele>
        <time>2018-02-19T09:55:08Z</time>
      </trkpt>
      <trkpt lat="45.92622" lon="4.74381">
        <ele>170</ele>
        <time>2018-02-19T09:55:09Z</time>
      </trkpt>
      <trkpt lat="45.92616" lon="4.74387">
        <ele>170</ele>
        <time>2018-02-19T09:55:10Z</time>
      </trkpt>
      <trkpt lat="45.92613" lon="4.74393">
        <ele>170</ele>
        <time>2018-02-19T09:55:11Z</time>
      </trkpt>
      <trkpt lat="45.92609" lon="4.74399">
        <ele>170</ele>
        <time>2018-02-19T09:55:12Z</time>
      </trkpt>
      <trkpt lat="45.92605" lon="4.74407">
        <ele>170</ele>
        <time>2018-02-19T09:55:13Z</time>
      </trkpt>
      <trkpt lat="45.92603" lon="4.74413">
        <ele>170</ele>
        <time>2018-02-19T09:55:14Z</time>
      </trkpt>
      <trkpt lat="45.92599" lon="4.7442">
        <ele>170</ele>
        <time>2018-02-19T09:55:15Z</time>
      </trkpt>
      <trkpt lat="45.92595" lon="4.74427">
        <ele>170</ele>
        <time>2018-02-19T09:55:16Z</time>
      </trkpt>
      <trkpt lat="45.92592" lon="4.74434">
        <ele>170</ele>
        <time>2018-02-19T09:55:17Z</time>
      </trkpt>
      <trkpt lat="45.92588" lon="4.7444">
        <ele>170</ele>
        <time>2018-02-19T09:55:18Z</time>
      </trkpt>
      <trkpt lat="45.92585" lon="4.74446">
        <ele>170</ele>
        <time>2018-02-19T09:55:19Z</time>
      </trkpt>
      <trkpt lat="45.92581" lon="4.74453">
        <ele>170</ele>
        <time>2018-02-19T09:55:20Z</time>
      </trkpt>
      <trkpt lat="45.92578" lon="4.74459">
        <ele>170</ele>
        <time>2018-02-19T09:55:21Z</time>
      </trkpt>
      <trkpt lat="45.92575" lon="4.74466">
        <ele>170</ele>
        <time>2018-02-19T09:55:22Z</time>
      </trkpt>
      <trkpt lat="45.92572" lon="4.74473">
        <ele>170</ele>
        <time>2018-02-19T09:55:23Z</time>
      </trkpt>
      <trkpt lat="45.92569" lon="4.7448">
        <ele>170</ele>
        <time>2018-02-19T09:55:24Z</time>
      </trkpt>
      <trkpt lat="45.92566" lon="4.74486">
        <ele>170</ele>
        <time>2018-02-19T09:55:25Z</time>
      </trkpt>
      <trkpt lat="45.92562" lon="4.74491">
        <ele>170</ele>
        <time>2018-02-19T09:55:26Z</time>
      </trkpt>
      <trkpt lat="45.92558" lon="4.74498">
        <ele>170</ele>
        <time>2018-02-19T09:55:27Z</time>
      </trkpt>
      <trkpt lat="45.92555" lon="4.74504">
        <ele>170</ele>
        <time>2018-02-19T09:55:28Z</time>
      </trkpt>
      <trkpt lat="45.92551" lon="4.74511">
        <ele>170</ele>
        <time>2018-02-19T09:55:29Z</time>
      </trkpt>
      <trkpt lat="45.92548" lon="4.74518">
        <ele>170</ele>
        <time>2018-02-19T09:55:30Z</time>
      </trkpt>
      <trkpt lat="45.92544" lon="4.74525">
        <ele>170</ele>
        <time>2018-02-19T09:55:31Z</time>
      </trkpt>
      <trkpt lat="45.9254" lon="4.74532">
        <ele>171</ele>
        <time>2018-02-19T09:55:32Z</time>
      </trkpt>
      <trkpt lat="45.92536" lon="4.74538">
        <ele>171</ele>
        <time>2018-02-19T09:55:33Z</time>
      </trkpt>
      <trkpt lat="45.92532" lon="4.74545">
        <ele>171</ele>
        <time>2018-02-19T09:55:34Z</time>
      </trkpt>
      <trkpt lat="45.92528" lon="4.7455">
        <ele>171</ele>
        <time>2018-02-19T09:55:35Z</time>
      </trkpt>
      <trkpt lat="45.92524" lon="4.74557">
        <ele>171</ele>
        <time>2018-02-19T09:55:36Z</time>
      </trkpt>
      <trkpt lat="45.9252" lon="4.74563">
        <ele>171</ele>
        <time>2018-02-19T09:55:37Z</time>
      </trkpt>
      <trkpt lat="45.92516" lon="4.74569">
        <ele>171</ele>
        <time>2018-02-19T09:55:38Z</time>
      </trkpt>
      <trkpt lat="45.92512" lon="4.74574">
        <ele>171</ele>
        <time>2018-02-19T09:55:39Z</time>
      </trkpt>
      <trkpt lat="45.92508" lon="4.74579">
        <ele>171</ele>
        <time>2018-02-19T09:55:40Z</time>
      </trkpt>
      <trkpt lat="45.92502" lon="4.74584">
        <ele>171</ele>
        <time>2018-02-19T09:55:41Z</time>
      </trkpt>
      <trkpt lat="45.92497" lon="4.74589">
        <ele>171</ele>
        <time>2018-02-19T09:55:42Z</time>
      </trkpt>
      <trkpt lat="45.92493" lon="4.74595">
        <ele>171</ele>
        <time>2018-02-19T09:55:43Z</time>
      </trkpt>
      <trkpt lat="45.92488" lon="4.74601">
        <ele>171</ele>
        <time>2018-02-19T09:55:44Z</time>
      </trkpt>
      <trkpt lat="45.92483" lon="4.74608">
        <ele>171</ele>
        <time>2018-02-19T09:55:45Z</time>
      </trkpt>
      <trkpt lat="45.92477" lon="4.74615">
        <ele>171</ele>
        <time>2018-02-19T09:55:46Z</time>
      </trkpt>
      <trkpt lat="45.92473" lon="4.7462">
        <ele>171</ele>
        <time>2018-02-19T09:55:47Z</time>
      </trkpt>
      <trkpt lat="45.92468" lon="4.74626">
        <ele>171</ele>
        <time>2018-02-19T09:55:48Z</time>
      </trkpt>
      <trkpt lat="45.92464" lon="4.74633">
        <ele>171</ele>
        <time>2018-02-19T09:55:49Z</time>
      </trkpt>
      <trkpt lat="45.92459" lon="4.74639">
        <ele>171</ele>
        <time>2018-02-19T09:55:50Z</time>
      </trkpt>
      <trkpt lat="45.92455" lon="4.74646">
        <ele>171</ele>
        <time>2018-02-19T09:55:51Z</time>
      </trkpt>
      <trkpt lat="45.92451" lon="4.74652">
        <ele>171</ele>
        <time>2018-02-19T09:55:52Z</time>
      </trkpt>
      <trkpt lat="45.92447" lon="4.7466">
        <ele>171</ele>
        <time>2018-02-19T09:55:53Z</time>
      </trkpt>
      <trkpt lat="45.92443" lon="4.74667">
        <ele>171</ele>
        <time>2018-02-19T09:55:54Z</time>
      </trkpt>
      <trkpt lat="45.92441" lon="4.74674">
        <ele>171</ele>
        <time>2018-02-19T09:55:55Z</time>
      </trkpt>
      <trkpt lat="45.92438" lon="4.74682">
        <ele>171</ele>
        <time>2018-02-19T09:55:56Z</time>
      </trkpt>
      <trkpt lat="45.92435" lon="4.74689">
        <ele>171</ele>
        <time>2018-02-19T09:55:57Z</time>
      </trkpt>
      <trkpt lat="45.92432" lon="4.74697">
        <ele>171</ele>
        <time>2018-02-19T09:55:58Z</time>
      </trkpt>
      <trkpt lat="45.92429" lon="4.74704">
        <ele>171</ele>
        <time>2018-02-19T09:55:59Z</time>
      </trkpt>
      <trkpt lat="45.92427" lon="4.74712">
        <ele>171</ele>
        <time>2018-02-19T09:56:00Z</time>
      </trkpt>
      <trkpt lat="45.92424" lon="4.7472">
        <ele>171</ele>
        <time>2018-02-19T09:56:01Z</time>
      </trkpt>
      <trkpt lat="45.92421" lon="4.74728">
        <ele>171</ele>
        <time>2018-02-19T09:56:02Z</time>
      </trkpt>
      <trkpt lat="45.92419" lon="4.74736">
        <ele>171</ele>
        <time>2018-02-19T09:56:03Z</time>
      </trkpt>
      <trkpt lat="45.92417" lon="4.74743">
        <ele>172</ele>
        <time>2018-02-19T09:56:04Z</time>
      </trkpt>
      <trkpt lat="45.92414" lon="4.74751">
        <ele>172</ele>
        <time>2018-02-19T09:56:05Z</time>
      </trkpt>
      <trkpt lat="45.92412" lon="4.74758">
        <ele>172</ele>
        <time>2018-02-19T09:56:06Z</time>
      </trkpt>
      <trkpt lat="45.92409" lon="4.74766">
        <ele>172</ele>
        <time>2018-02-19T09:56:07Z</time>
      </trkpt>
      <trkpt lat="45.92407" lon="4.74773">
        <ele>171</ele>
        <time>2018-02-19T09:56:08Z</time>
      </trkpt>
      <trkpt lat="45.92405" lon="4.74781">
        <ele>171</ele>
        <time>2018-02-19T09:56:09Z</time>
      </trkpt>
      <trkpt lat="45.92403" lon="4.74789">
        <ele>171</ele>
        <time>2018-02-19T09:56:10Z</time>
      </trkpt>
      <trkpt lat="45.924" lon="4.74798">
        <ele>171</ele>
        <time>2018-02-19T09:56:11Z</time>
      </trkpt>
      <trkpt lat="45.92397" lon="4.74807">
        <ele>171</ele>
        <time>2018-02-19T09:56:12Z</time>
      </trkpt>
      <trkpt lat="45.92396" lon="4.74815">
        <ele>171</ele>
        <time>2018-02-19T09:56:13Z</time>
      </trkpt>
      <trkpt lat="45.92394" lon="4.74823">
        <ele>171</ele>
        <time>2018-02-19T09:56:14Z</time>
      </trkpt>
      <trkpt lat="45.92391" lon="4.74831">
        <ele>171</ele>
        <time>2018-02-19T09:56:15Z</time>
      </trkpt>
      <trkpt lat="45.92389" lon="4.7484">
        <ele>171</ele>
        <time>2018-02-19T09:56:16Z</time>
      </trkpt>
      <trkpt lat="45.92388" lon="4.74849">
        <ele>171</ele>
        <time>2018-02-19T09:56:17Z</time>
      </trkpt>
      <trkpt lat="45.92385" lon="4.74857">
        <ele>171</ele>
        <time>2018-02-19T09:56:18Z</time>
      </trkpt>
      <trkpt lat="45.92383" lon="4.74865">
        <ele>171</ele>
        <time>2018-02-19T09:56:19Z</time>
      </trkpt>
      <trkpt lat="45.9238" lon="4.74872">
        <ele>171</ele>
        <time>2018-02-19T09:56:20Z</time>
      </trkpt>
      <trkpt lat="45.92377" lon="4.7488">
        <ele>171</ele>
        <time>2018-02-19T09:56:21Z</time>
      </trkpt>
      <trkpt lat="45.92375" lon="4.74888">
        <ele>171</ele>
        <time>2018-02-19T09:56:22Z</time>
      </trkpt>
      <trkpt lat="45.9237" lon="4.74894">
        <ele>171</ele>
        <time>2018-02-19T09:56:23Z</time>
      </trkpt>
      <trkpt lat="45.92367" lon="4.74901">
        <ele>171</ele>
        <time>2018-02-19T09:56:24Z</time>
      </trkpt>
      <trkpt lat="45.92364" lon="4.74908">
        <ele>171</ele>
        <time>2018-02-19T09:56:25Z</time>
      </trkpt>
      <trkpt lat="45.92363" lon="4.74917">
        <ele>170</ele>
        <time>2018-02-19T09:56:26Z</time>
      </trkpt>
      <trkpt lat="45.92361" lon="4.74924">
        <ele>170</ele>
        <time>2018-02-19T09:56:27Z</time>
      </trkpt>
      <trkpt lat="45.92358" lon="4.74932">
        <ele>170</ele>
        <time>2018-02-19T09:56:28Z</time>
      </trkpt>
      <trkpt lat="45.92355" lon="4.74939">
        <ele>170</ele>
        <time>2018-02-19T09:56:29Z</time>
      </trkpt>
      <trkpt lat="45.92353" lon="4.74947">
        <ele>170</ele>
        <time>2018-02-19T09:56:30Z</time>
      </trkpt>
      <trkpt lat="45.92351" lon="4.74954">
        <ele>170</ele>
        <time>2018-02-19T09:56:31Z</time>
      </trkpt>
      <trkpt lat="45.92349" lon="4.7496">
        <ele>170</ele>
        <time>2018-02-19T09:56:32Z</time>
      </trkpt>
      <trkpt lat="45.92346" lon="4.74968">
        <ele>170</ele>
        <time>2018-02-19T09:56:33Z</time>
      </trkpt>
      <trkpt lat="45.92344" lon="4.74976">
        <ele>170</ele>
        <time>2018-02-19T09:56:34Z</time>
      </trkpt>
      <trkpt lat="45.92341" lon="4.74982">
        <ele>170</ele>
        <time>2018-02-19T09:56:35Z</time>
      </trkpt>
      <trkpt lat="45.92338" lon="4.74989">
        <ele>170</ele>
        <time>2018-02-19T09:56:36Z</time>
      </trkpt>
      <trkpt lat="45.92335" lon="4.74997">
        <ele>170</ele>
        <time>2018-02-19T09:56:37Z</time>
      </trkpt>
      <trkpt lat="45.92332" lon="4.75003">
        <ele>170</ele>
        <time>2018-02-19T09:56:38Z</time>
      </trkpt>
      <trkpt lat="45.9233" lon="4.75011">
        <ele>171</ele>
        <time>2018-02-19T09:56:39Z</time>
      </trkpt>
      <trkpt lat="45.92325" lon="4.75019">
        <ele>171</ele>
        <time>2018-02-19T09:56:40Z</time>
      </trkpt>
      <trkpt lat="45.92322" lon="4.75026">
        <ele>171</ele>
        <time>2018-02-19T09:56:41Z</time>
      </trkpt>
      <trkpt lat="45.92317" lon="4.75032">
        <ele>171</ele>
        <time>2018-02-19T09:56:42Z</time>
      </trkpt>
      <trkpt lat="45.92313" lon="4.75039">
        <ele>172</ele>
        <time>2018-02-19T09:56:43Z</time>
      </trkpt>
      <trkpt lat="45.92308" lon="4.75046">
        <ele>172</ele>
        <time>2018-02-19T09:56:44Z</time>
      </trkpt>
      <trkpt lat="45.92305" lon="4.75052">
        <ele>172</ele>
        <time>2018-02-19T09:56:45Z</time>
      </trkpt>
      <trkpt lat="45.92301" lon="4.75058">
        <ele>172</ele>
        <time>2018-02-19T09:56:46Z</time>
      </trkpt>
      <trkpt lat="45.92297" lon="4.75063">
        <ele>172</ele>
        <time>2018-02-19T09:56:47Z</time>
      </trkpt>
      <trkpt lat="45.92294" lon="4.75068">
        <ele>172</ele>
        <time>2018-02-19T09:56:48Z</time>
      </trkpt>
      <trkpt lat="45.92291" lon="4.75072">
        <ele>172</ele>
        <time>2018-02-19T09:56:49Z</time>
      </trkpt>
      <trkpt lat="45.92286" lon="4.75077">
        <ele>172</ele>
        <time>2018-02-19T09:56:50Z</time>
      </trkpt>
      <trkpt lat="45.92281" lon="4.75081">
        <ele>172</ele>
        <time>2018-02-19T09:56:51Z</time>
      </trkpt>
      <trkpt lat="45.92278" lon="4.75085">
        <ele>173</ele>
        <time>2018-02-19T09:56:52Z</time>
      </trkpt>
      <trkpt lat="45.92273" lon="4.7509">
        <ele>173</ele>
        <time>2018-02-19T09:56:53Z</time>
      </trkpt>
      <trkpt lat="45.92268" lon="4.75095">
        <ele>173</ele>
        <time>2018-02-19T09:56:54Z</time>
      </trkpt>
      <trkpt lat="45.92263" lon="4.751">
        <ele>173</ele>
        <time>2018-02-19T09:56:55Z</time>
      </trkpt>
      <trkpt lat="45.92259" lon="4.75106">
        <ele>174</ele>
        <time>2018-02-19T09:56:56Z</time>
      </trkpt>
      <trkpt lat="45.92255" lon="4.75111">
        <ele>174</ele>
        <time>2018-02-19T09:56:57Z</time>
      </trkpt>
      <trkpt lat="45.9225" lon="4.75116">
        <ele>174</ele>
        <time>2018-02-19T09:56:58Z</time>
      </trkpt>
      <trkpt lat="45.92247" lon="4.75121">
        <ele>174</ele>
        <time>2018-02-19T09:56:59Z</time>
      </trkpt>
      <trkpt lat="45.92243" lon="4.75125">
        <ele>174</ele>
        <time>2018-02-19T09:57:00Z</time>
      </trkpt>
      <trkpt lat="45.9224" lon="4.75131">
        <ele>174</ele>
        <time>2018-02-19T09:57:01Z</time>
      </trkpt>
      <trkpt lat="45.92236" lon="4.75136">
        <ele>174</ele>
        <time>2018-02-19T09:57:02Z</time>
      </trkpt>
      <trkpt lat="45.92233" lon="4.75141">
        <ele>174</ele>
        <time>2018-02-19T09:57:03Z</time>
      </trkpt>
      <trkpt lat="45.92229" lon="4.75147">
        <ele>174</ele>
        <time>2018-02-19T09:57:04Z</time>
      </trkpt>
      <trkpt lat="45.92226" lon="4.75152">
        <ele>174</ele>
        <time>2018-02-19T09:57:05Z</time>
      </trkpt>
      <trkpt lat="45.92223" lon="4.75159">
        <ele>174</ele>
        <time>2018-02-19T09:57:06Z</time>
      </trkpt>
      <trkpt lat="45.92221" lon="4.75166">
        <ele>174</ele>
        <time>2018-02-19T09:57:07Z</time>
      </trkpt>
      <trkpt lat="45.92218" lon="4.75173">
        <ele>175</ele>
        <time>2018-02-19T09:57:08Z</time>
      </trkpt>
      <trkpt lat="45.92216" lon="4.75179">
        <ele>175</ele>
        <time>2018-02-19T09:57:09Z</time>
      </trkpt>
      <trkpt lat="45.92214" lon="4.75186">
        <ele>175</ele>
        <time>2018-02-19T09:57:10Z</time>
      </trkpt>
      <trkpt lat="45.92212" lon="4.75192">
        <ele>175</ele>
        <time>2018-02-19T09:57:11Z</time>
      </trkpt>
      <trkpt lat="45.9221" lon="4.75199">
        <ele>175</ele>
        <time>2018-02-19T09:57:12Z</time>
      </trkpt>
      <trkpt lat="45.92209" lon="4.75206">
        <ele>175</ele>
        <time>2018-02-19T09:57:13Z</time>
      </trkpt>
      <trkpt lat="45.92208" lon="4.75218">
        <ele>175</ele>
        <time>2018-02-19T09:57:15Z</time>
      </trkpt>
      <trkpt lat="45.92207" lon="4.75226">
        <ele>175</ele>
        <time>2018-02-19T09:57:16Z</time>
      </trkpt>
      <trkpt lat="45.92206" lon="4.75233">
        <ele>175</ele>
        <time>2018-02-19T09:57:17Z</time>
      </trkpt>
      <trkpt lat="45.92206" lon="4.75239">
        <ele>175</ele>
        <time>2018-02-19T09:57:18Z</time>
      </trkpt>
      <trkpt lat="45.92206" lon="4.75245">
        <ele>175</ele>
        <time>2018-02-19T09:57:19Z</time>
      </trkpt>
      <trkpt lat="45.92205" lon="4.75252">
        <ele>175</ele>
        <time>2018-02-19T09:57:20Z</time>
      </trkpt>
      <trkpt lat="45.92205" lon="4.75259">
        <ele>175</ele>
        <time>2018-02-19T09:57:21Z</time>
      </trkpt>
      <trkpt lat="45.92205" lon="4.75265">
        <ele>176</ele>
        <time>2018-02-19T09:57:22Z</time>
      </trkpt>
      <trkpt lat="45.92205" lon="4.75272">
        <ele>176</ele>
        <time>2018-02-19T09:57:23Z</time>
      </trkpt>
      <trkpt lat="45.92205" lon="4.75278">
        <ele>176</ele>
        <time>2018-02-19T09:57:24Z</time>
      </trkpt>
      <trkpt lat="45.92205" lon="4.75289">
        <ele>176</ele>
        <time>2018-02-19T09:57:26Z</time>
      </trkpt>
      <trkpt lat="45.92206" lon="4.75296">
        <ele>176</ele>
        <time>2018-02-19T09:57:27Z</time>
      </trkpt>
      <trkpt lat="45.92207" lon="4.75303">
        <ele>176</ele>
        <time>2018-02-19T09:57:28Z</time>
      </trkpt>
      <trkpt lat="45.92206" lon="4.75309">
        <ele>176</ele>
        <time>2018-02-19T09:57:29Z</time>
      </trkpt>
      <trkpt lat="45.92203" lon="4.7532">
        <ele>176</ele>
        <time>2018-02-19T09:57:31Z</time>
      </trkpt>
      <trkpt lat="45.92202" lon="4.75331">
        <ele>176</ele>
        <time>2018-02-19T09:57:32Z</time>
      </trkpt>
      <trkpt lat="45.92199" lon="4.75342">
        <ele>177</ele>
        <time>2018-02-19T09:57:34Z</time>
      </trkpt>
      <trkpt lat="45.922" lon="4.75347">
        <ele>177</ele>
        <time>2018-02-19T09:57:35Z</time>
      </trkpt>
      <trkpt lat="45.92198" lon="4.75358">
        <ele>177</ele>
        <time>2018-02-19T09:57:37Z</time>
      </trkpt>
      <trkpt lat="45.92197" lon="4.75363">
        <ele>177</ele>
        <time>2018-02-19T09:57:38Z</time>
      </trkpt>
      <trkpt lat="45.92195" lon="4.75374">
        <ele>177</ele>
        <time>2018-02-19T09:57:40Z</time>
      </trkpt>
      <trkpt lat="45.92192" lon="4.75379">
        <ele>177</ele>
        <time>2018-02-19T09:57:41Z</time>
      </trkpt>
      <trkpt lat="45.92189" lon="4.75386">
        <ele>177</ele>
        <time>2018-02-19T09:57:42Z</time>
      </trkpt>
      <trkpt lat="45.92189" lon="4.75393">
        <ele>177</ele>
        <time>2018-02-19T09:57:43Z</time>
      </trkpt>
      <trkpt lat="45.92187" lon="4.754">
        <ele>177</ele>
        <time>2018-02-19T09:57:44Z</time>
      </trkpt>
      <trkpt lat="45.92184" lon="4.75406">
        <ele>177</ele>
        <time>2018-02-19T09:57:45Z</time>
      </trkpt>
      <trkpt lat="45.92182" lon="4.75411">
        <ele>177</ele>
        <time>2018-02-19T09:57:46Z</time>
      </trkpt>
      <trkpt lat="45.9218" lon="4.75417">
        <ele>177</ele>
        <time>2018-02-19T09:57:47Z</time>
      </trkpt>
      <trkpt lat="45.92177" lon="4.75425">
        <ele>177</ele>
        <time>2018-02-19T09:57:48Z</time>
      </trkpt>
      <trkpt lat="45.92176" lon="4.7543">
        <ele>177</ele>
        <time>2018-02-19T09:57:49Z</time>
      </trkpt>
      <trkpt lat="45.92173" lon="4.75436">
        <ele>177</ele>
        <time>2018-02-19T09:57:50Z</time>
      </trkpt>
      <trkpt lat="45.92171" lon="4.75442">
        <ele>177</ele>
        <time>2018-02-19T09:57:51Z</time>
      </trkpt>
      <trkpt lat="45.92168" lon="4.75451">
        <ele>176</ele>
        <time>2018-02-19T09:57:53Z</time>
      </trkpt>
      <trkpt lat="45.92165" lon="4.75457">
        <ele>176</ele>
        <time>2018-02-19T09:57:54Z</time>
      </trkpt>
      <trkpt lat="45.92163" lon="4.75463">
        <ele>176</ele>
        <time>2018-02-19T09:57:55Z</time>
      </trkpt>
      <trkpt lat="45.92161" lon="4.7547">
        <ele>176</ele>
        <time>2018-02-19T09:57:56Z</time>
      </trkpt>
      <trkpt lat="45.92158" lon="4.75477">
        <ele>176</ele>
        <time>2018-02-19T09:57:57Z</time>
      </trkpt>
      <trkpt lat="45.92153" lon="4.75485">
        <ele>176</ele>
        <time>2018-02-19T09:57:58Z</time>
      </trkpt>
      <trkpt lat="45.92151" lon="4.75491">
        <ele>175</ele>
        <time>2018-02-19T09:57:59Z</time>
      </trkpt>
      <trkpt lat="45.92148" lon="4.75498">
        <ele>175</ele>
        <time>2018-02-19T09:58:00Z</time>
      </trkpt>
      <trkpt lat="45.92147" lon="4.75505">
        <ele>175</ele>
        <time>2018-02-19T09:58:01Z</time>
      </trkpt>
      <trkpt lat="45.92143" lon="4.75511">
        <ele>174</ele>
        <time>2018-02-19T09:58:02Z</time>
      </trkpt>
      <trkpt lat="45.92141" lon="4.75518">
        <ele>174</ele>
        <time>2018-02-19T09:58:03Z</time>
      </trkpt>
      <trkpt lat="45.92139" lon="4.75525">
        <ele>174</ele>
        <time>2018-02-19T09:58:04Z</time>
      </trkpt>
      <trkpt lat="45.92136" lon="4.75531">
        <ele>174</ele>
        <time>2018-02-19T09:58:05Z</time>
      </trkpt>
      <trkpt lat="45.92133" lon="4.75537">
        <ele>174</ele>
        <time>2018-02-19T09:58:06Z</time>
      </trkpt>
      <trkpt lat="45.9213" lon="4.75544">
        <ele>174</ele>
        <time>2018-02-19T09:58:07Z</time>
      </trkpt>
      <trkpt lat="45.92126" lon="4.7555">
        <ele>174</ele>
        <time>2018-02-19T09:58:08Z</time>
      </trkpt>
      <trkpt lat="45.92122" lon="4.75556">
        <ele>174</ele>
        <time>2018-02-19T09:58:09Z</time>
      </trkpt>
      <trkpt lat="45.92118" lon="4.75562">
        <ele>174</ele>
        <time>2018-02-19T09:58:10Z</time>
      </trkpt>
      <trkpt lat="45.92114" lon="4.75567">
        <ele>174</ele>
        <time>2018-02-19T09:58:11Z</time>
      </trkpt>
      <trkpt lat="45.92114" lon="4.75574">
        <ele>174</ele>
        <time>2018-02-19T09:58:12Z</time>
      </trkpt>
      <trkpt lat="45.92115" lon="4.7558">
        <ele>174</ele>
        <time>2018-02-19T09:58:13Z</time>
      </trkpt>
      <trkpt lat="45.92118" lon="4.75587">
        <ele>174</ele>
        <time>2018-02-19T09:58:14Z</time>
      </trkpt>
      <trkpt lat="45.92122" lon="4.75592">
        <ele>174</ele>
        <time>2018-02-19T09:58:15Z</time>
      </trkpt>
      <trkpt lat="45.92126" lon="4.75596">
        <ele>174</ele>
        <time>2018-02-19T09:58:16Z</time>
      </trkpt>
      <trkpt lat="45.9213" lon="4.756">
        <ele>174</ele>
        <time>2018-02-19T09:58:17Z</time>
      </trkpt>
      <trkpt lat="45.92135" lon="4.75605">
        <ele>174</ele>
        <time>2018-02-19T09:58:18Z</time>
      </trkpt>
      <trkpt lat="45.92139" lon="4.75609">
        <ele>174</ele>
        <time>2018-02-19T09:58:19Z</time>
      </trkpt>
      <trkpt lat="45.92144" lon="4.75612">
        <ele>174</ele>
        <time>2018-02-19T09:58:20Z</time>
      </trkpt>
      <trkpt lat="45.92148" lon="4.75616">
        <ele>174</ele>
        <time>2018-02-19T09:58:21Z</time>
      </trkpt>
      <trkpt lat="45.92153" lon="4.7562">
        <ele>174</ele>
        <time>2018-02-19T09:58:22Z</time>
      </trkpt>
      <trkpt lat="45.92158" lon="4.75624">
        <ele>174</ele>
        <time>2018-02-19T09:58:23Z</time>
      </trkpt>
      <trkpt lat="45.92163" lon="4.75628">
        <ele>174</ele>
        <time>2018-02-19T09:58:24Z</time>
      </trkpt>
      <trkpt lat="45.92168" lon="4.75634">
        <ele>174</ele>
        <time>2018-02-19T09:58:25Z</time>
      </trkpt>
      <trkpt lat="45.92172" lon="4.75639">
        <ele>174</ele>
        <time>2018-02-19T09:58:26Z</time>
      </trkpt>
      <trkpt lat="45.92177" lon="4.75644">
        <ele>174</ele>
        <time>2018-02-19T09:58:27Z</time>
      </trkpt>
      <trkpt lat="45.92181" lon="4.75649">
        <ele>174</ele>
        <time>2018-02-19T09:58:28Z</time>
      </trkpt>
      <trkpt lat="45.92186" lon="4.75653">
        <ele>174</ele>
        <time>2018-02-19T09:58:29Z</time>
      </trkpt>
      <trkpt lat="45.9219" lon="4.75658">
        <ele>174</ele>
        <time>2018-02-19T09:58:30Z</time>
      </trkpt>
      <trkpt lat="45.92194" lon="4.75663">
        <ele>174</ele>
        <time>2018-02-19T09:58:31Z</time>
      </trkpt>
      <trkpt lat="45.92198" lon="4.75666">
        <ele>174</ele>
        <time>2018-02-19T09:58:32Z</time>
      </trkpt>
      <trkpt lat="45.92203" lon="4.75671">
        <ele>174</ele>
        <time>2018-02-19T09:58:33Z</time>
      </trkpt>
      <trkpt lat="45.92207" lon="4.75674">
        <ele>174</ele>
        <time>2018-02-19T09:58:34Z</time>
      </trkpt>
      <trkpt lat="45.92211" lon="4.75682">
        <ele>174</ele>
        <time>2018-02-19T09:58:35Z</time>
      </trkpt>
      <trkpt lat="45.92216" lon="4.75687">
        <ele>174</ele>
        <time>2018-02-19T09:58:36Z</time>
      </trkpt>
      <trkpt lat="45.92221" lon="4.75692">
        <ele>174</ele>
        <time>2018-02-19T09:58:37Z</time>
      </trkpt>
      <trkpt lat="45.92225" lon="4.75696">
        <ele>174</ele>
        <time>2018-02-19T09:58:38Z</time>
      </trkpt>
      <trkpt lat="45.92228" lon="4.75699">
        <ele>174</ele>
        <time>2018-02-19T09:58:39Z</time>
      </trkpt>
      <trkpt lat="45.92232" lon="4.75704">
        <ele>174</ele>
        <time>2018-02-19T09:58:40Z</time>
      </trkpt>
      <trkpt lat="45.92235" lon="4.75708">
        <ele>174</ele>
        <time>2018-02-19T09:58:41Z</time>
      </trkpt>
      <trkpt lat="45.92239" lon="4.75713">
        <ele>174</ele>
        <time>2018-02-19T09:58:42Z</time>
      </trkpt>
      <trkpt lat="45.9224" lon="4.75719">
        <ele>174</ele>
        <time>2018-02-19T09:58:43Z</time>
      </trkpt>
      <trkpt lat="45.92243" lon="4.75726">
        <ele>174</ele>
        <time>2018-02-19T09:58:44Z</time>
      </trkpt>
      <trkpt lat="45.92245" lon="4.75733">
        <ele>174</ele>
        <time>2018-02-19T09:58:45Z</time>
      </trkpt>
      <trkpt lat="45.92247" lon="4.75739">
        <ele>174</ele>
        <time>2018-02-19T09:58:46Z</time>
      </trkpt>
      <trkpt lat="45.92248" lon="4.75746">
        <ele>174</ele>
        <time>2018-02-19T09:58:47Z</time>
      </trkpt>
      <trkpt lat="45.92249" lon="4.75752">
        <ele>174</ele>
        <time>2018-02-19T09:58:48Z</time>
      </trkpt>
      <trkpt lat="45.92251" lon="4.75764">
        <ele>174</ele>
        <time>2018-02-19T09:58:50Z</time>
      </trkpt>
      <trkpt lat="45.92252" lon="4.75769">
        <ele>174</ele>
        <time>2018-02-19T09:58:51Z</time>
      </trkpt>
      <trkpt lat="45.92254" lon="4.7578">
        <ele>174</ele>
        <time>2018-02-19T09:58:53Z</time>
      </trkpt>
      <trkpt lat="45.92256" lon="4.75786">
        <ele>174</ele>
        <time>2018-02-19T09:58:54Z</time>
      </trkpt>
      <trkpt lat="45.92259" lon="4.75794">
        <ele>174</ele>
        <time>2018-02-19T09:58:55Z</time>
      </trkpt>
      <trkpt lat="45.9226" lon="4.758">
        <ele>174</ele>
        <time>2018-02-19T09:58:56Z</time>
      </trkpt>
      <trkpt lat="45.92264" lon="4.75811">
        <ele>174</ele>
        <time>2018-02-19T09:58:58Z</time>
      </trkpt>
      <trkpt lat="45.92266" lon="4.75815">
        <ele>174</ele>
        <time>2018-02-19T09:58:59Z</time>
      </trkpt>
      <trkpt lat="45.9227" lon="4.75819">
        <ele>174</ele>
        <time>2018-02-19T09:59:00Z</time>
      </trkpt>
      <trkpt lat="45.92274" lon="4.75823">
        <ele>174</ele>
        <time>2018-02-19T09:59:01Z</time>
      </trkpt>
      <trkpt lat="45.92278" lon="4.75827">
        <ele>174</ele>
        <time>2018-02-19T09:59:02Z</time>
      </trkpt>
      <trkpt lat="45.92283" lon="4.75831">
        <ele>174</ele>
        <time>2018-02-19T09:59:03Z</time>
      </trkpt>
      <trkpt lat="45.92289" lon="4.75833">
        <ele>174</ele>
        <time>2018-02-19T09:59:04Z</time>
      </trkpt>
      <trkpt lat="45.92294" lon="4.75837">
        <ele>173</ele>
        <time>2018-02-19T09:59:05Z</time>
      </trkpt>
      <trkpt lat="45.92298" lon="4.75841">
        <ele>173</ele>
        <time>2018-02-19T09:59:06Z</time>
      </trkpt>
      <trkpt lat="45.92303" lon="4.75844">
        <ele>173</ele>
        <time>2018-02-19T09:59:07Z</time>
      </trkpt>
      <trkpt lat="45.92307" lon="4.75847">
        <ele>173</ele>
        <time>2018-02-19T09:59:08Z</time>
      </trkpt>
      <trkpt lat="45.92312" lon="4.75849">
        <ele>173</ele>
        <time>2018-02-19T09:59:09Z</time>
      </trkpt>
      <trkpt lat="45.92317" lon="4.75852">
        <ele>174</ele>
        <time>2018-02-19T09:59:10Z</time>
      </trkpt>
      <trkpt lat="45.92323" lon="4.75855">
        <ele>174</ele>
        <time>2018-02-19T09:59:11Z</time>
      </trkpt>
      <trkpt lat="45.92328" lon="4.7586">
        <ele>173</ele>
        <time>2018-02-19T09:59:12Z</time>
      </trkpt>
      <trkpt lat="45.92333" lon="4.75863">
        <ele>173</ele>
        <time>2018-02-19T09:59:13Z</time>
      </trkpt>
      <trkpt lat="45.92338" lon="4.75866">
        <ele>173</ele>
        <time>2018-02-19T09:59:14Z</time>
      </trkpt>
      <trkpt lat="45.92343" lon="4.7587">
        <ele>173</ele>
        <time>2018-02-19T09:59:15Z</time>
      </trkpt>
      <trkpt lat="45.92348" lon="4.75873">
        <ele>173</ele>
        <time>2018-02-19T09:59:16Z</time>
      </trkpt>
      <trkpt lat="45.92353" lon="4.75877">
        <ele>173</ele>
        <time>2018-02-19T09:59:17Z</time>
      </trkpt>
      <trkpt lat="45.92358" lon="4.75882">
        <ele>173</ele>
        <time>2018-02-19T09:59:18Z</time>
      </trkpt>
      <trkpt lat="45.92363" lon="4.75886">
        <ele>173</ele>
        <time>2018-02-19T09:59:19Z</time>
      </trkpt>
      <trkpt lat="45.92368" lon="4.75888">
        <ele>173</ele>
        <time>2018-02-19T09:59:20Z</time>
      </trkpt>
      <trkpt lat="45.92373" lon="4.75894">
        <ele>173</ele>
        <time>2018-02-19T09:59:21Z</time>
      </trkpt>
      <trkpt lat="45.92378" lon="4.75896">
        <ele>173</ele>
        <time>2018-02-19T09:59:22Z</time>
      </trkpt>
      <trkpt lat="45.92383" lon="4.759">
        <ele>173</ele>
        <time>2018-02-19T09:59:23Z</time>
      </trkpt>
      <trkpt lat="45.92387" lon="4.75903">
        <ele>173</ele>
        <time>2018-02-19T09:59:24Z</time>
      </trkpt>
      <trkpt lat="45.92392" lon="4.75907">
        <ele>173</ele>
        <time>2018-02-19T09:59:25Z</time>
      </trkpt>
      <trkpt lat="45.92396" lon="4.7591">
        <ele>173</ele>
        <time>2018-02-19T09:59:26Z</time>
      </trkpt>
      <trkpt lat="45.92401" lon="4.75913">
        <ele>172</ele>
        <time>2018-02-19T09:59:27Z</time>
      </trkpt>
      <trkpt lat="45.92405" lon="4.75916">
        <ele>172</ele>
        <time>2018-02-19T09:59:28Z</time>
      </trkpt>
      <trkpt lat="45.9241" lon="4.75919">
        <ele>172</ele>
        <time>2018-02-19T09:59:29Z</time>
      </trkpt>
      <trkpt lat="45.92414" lon="4.75922">
        <ele>172</ele>
        <time>2018-02-19T09:59:30Z</time>
      </trkpt>
      <trkpt lat="45.92419" lon="4.75926">
        <ele>172</ele>
        <time>2018-02-19T09:59:31Z</time>
      </trkpt>
      <trkpt lat="45.92423" lon="4.75929">
        <ele>172</ele>
        <time>2018-02-19T09:59:32Z</time>
      </trkpt>
      <trkpt lat="45.92428" lon="4.75931">
        <ele>172</ele>
        <time>2018-02-19T09:59:33Z</time>
      </trkpt>
      <trkpt lat="45.92432" lon="4.75935">
        <ele>172</ele>
        <time>2018-02-19T09:59:34Z</time>
      </trkpt>
      <trkpt lat="45.92437" lon="4.75938">
        <ele>172</ele>
        <time>2018-02-19T09:59:35Z</time>
      </trkpt>
      <trkpt lat="45.92441" lon="4.7594">
        <ele>172</ele>
        <time>2018-02-19T09:59:36Z</time>
      </trkpt>
      <trkpt lat="45.92445" lon="4.75943">
        <ele>172</ele>
        <time>2018-02-19T09:59:37Z</time>
      </trkpt>
      <trkpt lat="45.92449" lon="4.75947">
        <ele>172</ele>
        <time>2018-02-19T09:59:38Z</time>
      </trkpt>
      <trkpt lat="45.92453" lon="4.7595">
        <ele>172</ele>
        <time>2018-02-19T09:59:39Z</time>
      </trkpt>
      <trkpt lat="45.92461" lon="4.75956">
        <ele>172</ele>
        <time>2018-02-19T09:59:41Z</time>
      </trkpt>
      <trkpt lat="45.92464" lon="4.75958">
        <ele>172</ele>
        <time>2018-02-19T09:59:42Z</time>
      </trkpt>
      <trkpt lat="45.92471" lon="4.75963">
        <ele>172</ele>
        <time>2018-02-19T09:59:44Z</time>
      </trkpt>
      <trkpt lat="45.92474" lon="4.75966">
        <ele>172</ele>
        <time>2018-02-19T09:59:45Z</time>
      </trkpt>
      <trkpt lat="45.92481" lon="4.75972">
        <ele>172</ele>
        <time>2018-02-19T09:59:47Z</time>
      </trkpt>
      <trkpt lat="45.92484" lon="4.75975">
        <ele>172</ele>
        <time>2018-02-19T09:59:48Z</time>
      </trkpt>
      <trkpt lat="45.92491" lon="4.75981">
        <ele>172</ele>
        <time>2018-02-19T09:59:50Z</time>
      </trkpt>
      <trkpt lat="45.92494" lon="4.75984">
        <ele>172</ele>
        <time>2018-02-19T09:59:51Z</time>
      </trkpt>
      <trkpt lat="45.92501" lon="4.75989">
        <ele>172</ele>
        <time>2018-02-19T09:59:53Z</time>
      </trkpt>
      <trkpt lat="45.92505" lon="4.75991">
        <ele>172</ele>
        <time>2018-02-19T09:59:54Z</time>
      </trkpt>
      <trkpt lat="45.92512" lon="4.75997">
        <ele>172</ele>
        <time>2018-02-19T09:59:56Z</time>
      </trkpt>
      <trkpt lat="45.92517" lon="4.76">
        <ele>172</ele>
        <time>2018-02-19T09:59:57Z</time>
      </trkpt>
      <trkpt lat="45.92521" lon="4.76003">
        <ele>172</ele>
        <time>2018-02-19T09:59:58Z</time>
      </trkpt>
      <trkpt lat="45.92525" lon="4.76006">
        <ele>172</ele>
        <time>2018-02-19T09:59:59Z</time>
      </trkpt>
      <trkpt lat="45.92529" lon="4.7601">
        <ele>172</ele>
        <time>2018-02-19T10:00:00Z</time>
      </trkpt>
      <trkpt lat="45.92534" lon="4.76012">
        <ele>172</ele>
        <time>2018-02-19T10:00:01Z</time>
      </trkpt>
      <trkpt lat="45.92538" lon="4.76015">
        <ele>172</ele>
        <time>2018-02-19T10:00:02Z</time>
      </trkpt>
      <trkpt lat="45.92542" lon="4.76018">
        <ele>172</ele>
        <time>2018-02-19T10:00:03Z</time>
      </trkpt>
      <trkpt lat="45.9255" lon="4.76023">
        <ele>172</ele>
        <time>2018-02-19T10:00:05Z</time>
      </trkpt>
      <trkpt lat="45.92554" lon="4.76026">
        <ele>172</ele>
        <time>2018-02-19T10:00:06Z</time>
      </trkpt>
      <trkpt lat="45.92558" lon="4.76029">
        <ele>172</ele>
        <time>2018-02-19T10:00:07Z</time>
      </trkpt>
      <trkpt lat="45.92563" lon="4.76034">
        <ele>172</ele>
        <time>2018-02-19T10:00:08Z</time>
      </trkpt>
      <trkpt lat="45.92567" lon="4.76036">
        <ele>172</ele>
        <time>2018-02-19T10:00:09Z</time>
      </trkpt>
      <trkpt lat="45.92572" lon="4.7604">
        <ele>172</ele>
        <time>2018-02-19T10:00:10Z</time>
      </trkpt>
      <trkpt lat="45.92577" lon="4.76043">
        <ele>171</ele>
        <time>2018-02-19T10:00:11Z</time>
      </trkpt>
      <trkpt lat="45.92582" lon="4.76047">
        <ele>171</ele>
        <time>2018-02-19T10:00:12Z</time>
      </trkpt>
      <trkpt lat="45.92587" lon="4.7605">
        <ele>171</ele>
        <time>2018-02-19T10:00:13Z</time>
      </trkpt>
      <trkpt lat="45.92591" lon="4.76054">
        <ele>171</ele>
        <time>2018-02-19T10:00:14Z</time>
      </trkpt>
      <trkpt lat="45.92596" lon="4.76057">
        <ele>171</ele>
        <time>2018-02-19T10:00:15Z</time>
      </trkpt>
      <trkpt lat="45.92601" lon="4.76061">
        <ele>171</ele>
        <time>2018-02-19T10:00:16Z</time>
      </trkpt>
      <trkpt lat="45.92606" lon="4.76065">
        <ele>171</ele>
        <time>2018-02-19T10:00:17Z</time>
      </trkpt>
      <trkpt lat="45.92612" lon="4.76069">
        <ele>171</ele>
        <time>2018-02-19T10:00:18Z</time>
      </trkpt>
      <trkpt lat="45.92617" lon="4.76072">
        <ele>171</ele>
        <time>2018-02-19T10:00:19Z</time>
      </trkpt>
      <trkpt lat="45.92623" lon="4.76076">
        <ele>171</ele>
        <time>2018-02-19T10:00:20Z</time>
      </trkpt>
      <trkpt lat="45.92628" lon="4.76079">
        <ele>170</ele>
        <time>2018-02-19T10:00:21Z</time>
      </trkpt>
      <trkpt lat="45.92633" lon="4.76083">
        <ele>170</ele>
        <time>2018-02-19T10:00:22Z</time>
      </trkpt>
      <trkpt lat="45.92639" lon="4.76088">
        <ele>170</ele>
        <time>2018-02-19T10:00:23Z</time>
      </trkpt>
      <trkpt lat="45.92645" lon="4.76092">
        <ele>170</ele>
        <time>2018-02-19T10:00:24Z</time>
      </trkpt>
      <trkpt lat="45.92651" lon="4.76095">
        <ele>170</ele>
        <time>2018-02-19T10:00:25Z</time>
      </trkpt>
      <trkpt lat="45.92657" lon="4.76099">
        <ele>170</ele>
        <time>2018-02-19T10:00:26Z</time>
      </trkpt>
      <trkpt lat="45.92663" lon="4.76102">
        <ele>170</ele>
        <time>2018-02-19T10:00:27Z</time>
      </trkpt>
      <trkpt lat="45.9267" lon="4.76106">
        <ele>169</ele>
        <time>2018-02-19T10:00:28Z</time>
      </trkpt>
      <trkpt lat="45.92676" lon="4.7611">
        <ele>169</ele>
        <time>2018-02-19T10:00:29Z</time>
      </trkpt>
      <trkpt lat="45.92683" lon="4.76114">
        <ele>169</ele>
        <time>2018-02-19T10:00:30Z</time>
      </trkpt>
      <trkpt lat="45.92689" lon="4.76119">
        <ele>169</ele>
        <time>2018-02-19T10:00:31Z</time>
      </trkpt>
      <trkpt lat="45.92695" lon="4.76123">
        <ele>169</ele>
        <time>2018-02-19T10:00:32Z</time>
      </trkpt>
      <trkpt lat="45.92701" lon="4.76128">
        <ele>169</ele>
        <time>2018-02-19T10:00:33Z</time>
      </trkpt>
      <trkpt lat="45.92708" lon="4.76132">
        <ele>169</ele>
        <time>2018-02-19T10:00:34Z</time>
      </trkpt>
      <trkpt lat="45.92714" lon="4.76137">
        <ele>168</ele>
        <time>2018-02-19T10:00:35Z</time>
      </trkpt>
      <trkpt lat="45.92721" lon="4.76142">
        <ele>168</ele>
        <time>2018-02-19T10:00:36Z</time>
      </trkpt>
      <trkpt lat="45.92727" lon="4.76147">
        <ele>168</ele>
        <time>2018-02-19T10:00:37Z</time>
      </trkpt>
      <trkpt lat="45.92734" lon="4.76151">
        <ele>168</ele>
        <time>2018-02-19T10:00:38Z</time>
      </trkpt>
      <trkpt lat="45.9274" lon="4.76155">
        <ele>168</ele>
        <time>2018-02-19T10:00:39Z</time>
      </trkpt>
      <trkpt lat="45.92745" lon="4.7616">
        <ele>167</ele>
        <time>2018-02-19T10:00:40Z</time>
      </trkpt>
      <trkpt lat="45.92751" lon="4.76164">
        <ele>167</ele>
        <time>2018-02-19T10:00:41Z</time>
      </trkpt>
      <trkpt lat="45.92756" lon="4.76169">
        <ele>167</ele>
        <time>2018-02-19T10:00:42Z</time>
      </trkpt>
      <trkpt lat="45.92762" lon="4.76173">
        <ele>167</ele>
        <time>2018-02-19T10:00:43Z</time>
      </trkpt>
      <trkpt lat="45.92767" lon="4.76178">
        <ele>167</ele>
        <time>2018-02-19T10:00:44Z</time>
      </trkpt>
      <trkpt lat="45.92771" lon="4.76183">
        <ele>167</ele>
        <time>2018-02-19T10:00:45Z</time>
      </trkpt>
      <trkpt lat="45.92776" lon="4.76186">
        <ele>168</ele>
        <time>2018-02-19T10:00:46Z</time>
      </trkpt>
      <trkpt lat="45.92781" lon="4.7619">
        <ele>168</ele>
        <time>2018-02-19T10:00:47Z</time>
      </trkpt>
      <trkpt lat="45.92785" lon="4.76195">
        <ele>168</ele>
        <time>2018-02-19T10:00:48Z</time>
      </trkpt>
      <trkpt lat="45.92789" lon="4.762">
        <ele>168</ele>
        <time>2018-02-19T10:00:49Z</time>
      </trkpt>
      <trkpt lat="45.92794" lon="4.76204">
        <ele>168</ele>
        <time>2018-02-19T10:00:50Z</time>
      </trkpt>
      <trkpt lat="45.92799" lon="4.76208">
        <ele>168</ele>
        <time>2018-02-19T10:00:51Z</time>
      </trkpt>
      <trkpt lat="45.92804" lon="4.76213">
        <ele>168</ele>
        <time>2018-02-19T10:00:52Z</time>
      </trkpt>
      <trkpt lat="45.92808" lon="4.7622">
        <ele>168</ele>
        <time>2018-02-19T10:00:53Z</time>
      </trkpt>
      <trkpt lat="45.92814" lon="4.76225">
        <ele>168</ele>
        <time>2018-02-19T10:00:54Z</time>
      </trkpt>
      <trkpt lat="45.92818" lon="4.7623">
        <ele>168</ele>
        <time>2018-02-19T10:00:55Z</time>
      </trkpt>
      <trkpt lat="45.92823" lon="4.76234">
        <ele>168</ele>
        <time>2018-02-19T10:00:56Z</time>
      </trkpt>
      <trkpt lat="45.92828" lon="4.76238">
        <ele>168</ele>
        <time>2018-02-19T10:00:57Z</time>
      </trkpt>
      <trkpt lat="45.92833" lon="4.76242">
        <ele>169</ele>
        <time>2018-02-19T10:00:58Z</time>
      </trkpt>
      <trkpt lat="45.92838" lon="4.76247">
        <ele>169</ele>
        <time>2018-02-19T10:00:59Z</time>
      </trkpt>
      <trkpt lat="45.92842" lon="4.76252">
        <ele>169</ele>
        <time>2018-02-19T10:01:00Z</time>
      </trkpt>
      <trkpt lat="45.92847" lon="4.76257">
        <ele>169</ele>
        <time>2018-02-19T10:01:01Z</time>
      </trkpt>
      <trkpt lat="45.92852" lon="4.76262">
        <ele>169</ele>
        <time>2018-02-19T10:01:02Z</time>
      </trkpt>
      <trkpt lat="45.92858" lon="4.76266">
        <ele>169</ele>
        <time>2018-02-19T10:01:03Z</time>
      </trkpt>
      <trkpt lat="45.92863" lon="4.7627">
        <ele>169</ele>
        <time>2018-02-19T10:01:04Z</time>
      </trkpt>
      <trkpt lat="45.92868" lon="4.76277">
        <ele>169</ele>
        <time>2018-02-19T10:01:05Z</time>
      </trkpt>
      <trkpt lat="45.92873" lon="4.76282">
        <ele>169</ele>
        <time>2018-02-19T10:01:06Z</time>
      </trkpt>
      <trkpt lat="45.92878" lon="4.76289">
        <ele>169</ele>
        <time>2018-02-19T10:01:07Z</time>
      </trkpt>
      <trkpt lat="45.92883" lon="4.76294">
        <ele>169</ele>
        <time>2018-02-19T10:01:08Z</time>
      </trkpt>
      <trkpt lat="45.92888" lon="4.76299">
        <ele>169</ele>
        <time>2018-02-19T10:01:09Z</time>
      </trkpt>
      <trkpt lat="45.92893" lon="4.76303">
        <ele>169</ele>
        <time>2018-02-19T10:01:10Z</time>
      </trkpt>
      <trkpt lat="45.92897" lon="4.76308">
        <ele>169</ele>
        <time>2018-02-19T10:01:11Z</time>
      </trkpt>
      <trkpt lat="45.92902" lon="4.76312">
        <ele>169</ele>
        <time>2018-02-19T10:01:12Z</time>
      </trkpt>
      <trkpt lat="45.92906" lon="4.76318">
        <ele>169</ele>
        <time>2018-02-19T10:01:13Z</time>
      </trkpt>
      <trkpt lat="45.9291" lon="4.76321">
        <ele>169</ele>
        <time>2018-02-19T10:01:14Z</time>
      </trkpt>
      <trkpt lat="45.92914" lon="4.76325">
        <ele>169</ele>
        <time>2018-02-19T10:01:15Z</time>
      </trkpt>
      <trkpt lat="45.92918" lon="4.76329">
        <ele>169</ele>
        <time>2018-02-19T10:01:16Z</time>
      </trkpt>
      <trkpt lat="45.92923" lon="4.76334">
        <ele>169</ele>
        <time>2018-02-19T10:01:17Z</time>
      </trkpt>
      <trkpt lat="45.92927" lon="4.76338">
        <ele>169</ele>
        <time>2018-02-19T10:01:18Z</time>
      </trkpt>
      <trkpt lat="45.92932" lon="4.76343">
        <ele>169</ele>
        <time>2018-02-19T10:01:19Z</time>
      </trkpt>
      <trkpt lat="45.92936" lon="4.76347">
        <ele>169</ele>
        <time>2018-02-19T10:01:20Z</time>
      </trkpt>
      <trkpt lat="45.92941" lon="4.76352">
        <ele>169</ele>
        <time>2018-02-19T10:01:21Z</time>
      </trkpt>
      <trkpt lat="45.92946" lon="4.76356">
        <ele>169</ele>
        <time>2018-02-19T10:01:22Z</time>
      </trkpt>
      <trkpt lat="45.92951" lon="4.76361">
        <ele>169</ele>
        <time>2018-02-19T10:01:23Z</time>
      </trkpt>
      <trkpt lat="45.92956" lon="4.76365">
        <ele>169</ele>
        <time>2018-02-19T10:01:24Z</time>
      </trkpt>
      <trkpt lat="45.9296" lon="4.76369">
        <ele>169</ele>
        <time>2018-02-19T10:01:25Z</time>
      </trkpt>
      <trkpt lat="45.92965" lon="4.76374">
        <ele>169</ele>
        <time>2018-02-19T10:01:26Z</time>
      </trkpt>
      <trkpt lat="45.9297" lon="4.76378">
        <ele>169</ele>
        <time>2018-02-19T10:01:27Z</time>
      </trkpt>
      <trkpt lat="45.92974" lon="4.76383">
        <ele>169</ele>
        <time>2018-02-19T10:01:28Z</time>
      </trkpt>
      <trkpt lat="45.92979" lon="4.76387">
        <ele>169</ele>
        <time>2018-02-19T10:01:29Z</time>
      </trkpt>
      <trkpt lat="45.92984" lon="4.76392">
        <ele>169</ele>
        <time>2018-02-19T10:01:30Z</time>
      </trkpt>
      <trkpt lat="45.92989" lon="4.76397">
        <ele>169</ele>
        <time>2018-02-19T10:01:31Z</time>
      </trkpt>
      <trkpt lat="45.92993" lon="4.76401">
        <ele>169</ele>
        <time>2018-02-19T10:01:32Z</time>
      </trkpt>
      <trkpt lat="45.92997" lon="4.76406">
        <ele>169</ele>
        <time>2018-02-19T10:01:33Z</time>
      </trkpt>
      <trkpt lat="45.93001" lon="4.76411">
        <ele>169</ele>
        <time>2018-02-19T10:01:34Z</time>
      </trkpt>
      <trkpt lat="45.93005" lon="4.76414">
        <ele>169</ele>
        <time>2018-02-19T10:01:35Z</time>
      </trkpt>
      <trkpt lat="45.9301" lon="4.76418">
        <ele>169</ele>
        <time>2018-02-19T10:01:36Z</time>
      </trkpt>
      <trkpt lat="45.93013" lon="4.76422">
        <ele>169</ele>
        <time>2018-02-19T10:01:37Z</time>
      </trkpt>
      <trkpt lat="45.93018" lon="4.76427">
        <ele>169</ele>
        <time>2018-02-19T10:01:38Z</time>
      </trkpt>
      <trkpt lat="45.93022" lon="4.76432">
        <ele>169</ele>
        <time>2018-02-19T10:01:39Z</time>
      </trkpt>
      <trkpt lat="45.93026" lon="4.76437">
        <ele>169</ele>
        <time>2018-02-19T10:01:40Z</time>
      </trkpt>
      <trkpt lat="45.93031" lon="4.7644">
        <ele>169</ele>
        <time>2018-02-19T10:01:41Z</time>
      </trkpt>
      <trkpt lat="45.93036" lon="4.76445">
        <ele>169</ele>
        <time>2018-02-19T10:01:42Z</time>
      </trkpt>
      <trkpt lat="45.9304" lon="4.76449">
        <ele>169</ele>
        <time>2018-02-19T10:01:43Z</time>
      </trkpt>
      <trkpt lat="45.93044" lon="4.76453">
        <ele>169</ele>
        <time>2018-02-19T10:01:44Z</time>
      </trkpt>
      <trkpt lat="45.93049" lon="4.76458">
        <ele>169</ele>
        <time>2018-02-19T10:01:45Z</time>
      </trkpt>
      <trkpt lat="45.93053" lon="4.76462">
        <ele>169</ele>
        <time>2018-02-19T10:01:46Z</time>
      </trkpt>
      <trkpt lat="45.93057" lon="4.76466">
        <ele>169</ele>
        <time>2018-02-19T10:01:47Z</time>
      </trkpt>
      <trkpt lat="45.93062" lon="4.76471">
        <ele>169</ele>
        <time>2018-02-19T10:01:48Z</time>
      </trkpt>
      <trkpt lat="45.93066" lon="4.76475">
        <ele>169</ele>
        <time>2018-02-19T10:01:49Z</time>
      </trkpt>
      <trkpt lat="45.9307" lon="4.76479">
        <ele>169</ele>
        <time>2018-02-19T10:01:50Z</time>
      </trkpt>
      <trkpt lat="45.93076" lon="4.76483">
        <ele>169</ele>
        <time>2018-02-19T10:01:51Z</time>
      </trkpt>
      <trkpt lat="45.93081" lon="4.76487">
        <ele>170</ele>
        <time>2018-02-19T10:01:52Z</time>
      </trkpt>
      <trkpt lat="45.93085" lon="4.76491">
        <ele>170</ele>
        <time>2018-02-19T10:01:53Z</time>
      </trkpt>
      <trkpt lat="45.9309" lon="4.76496">
        <ele>170</ele>
        <time>2018-02-19T10:01:54Z</time>
      </trkpt>
      <trkpt lat="45.93094" lon="4.765">
        <ele>170</ele>
        <time>2018-02-19T10:01:55Z</time>
      </trkpt>
      <trkpt lat="45.93098" lon="4.76504">
        <ele>170</ele>
        <time>2018-02-19T10:01:56Z</time>
      </trkpt>
      <trkpt lat="45.93103" lon="4.76508">
        <ele>170</ele>
        <time>2018-02-19T10:01:57Z</time>
      </trkpt>
      <trkpt lat="45.93107" lon="4.76513">
        <ele>170</ele>
        <time>2018-02-19T10:01:58Z</time>
      </trkpt>
      <trkpt lat="45.93111" lon="4.76518">
        <ele>170</ele>
        <time>2018-02-19T10:01:59Z</time>
      </trkpt>
      <trkpt lat="45.93116" lon="4.76522">
        <ele>170</ele>
        <time>2018-02-19T10:02:00Z</time>
      </trkpt>
      <trkpt lat="45.9312" lon="4.76526">
        <ele>170</ele>
        <time>2018-02-19T10:02:01Z</time>
      </trkpt>
      <trkpt lat="45.93125" lon="4.7653">
        <ele>170</ele>
        <time>2018-02-19T10:02:02Z</time>
      </trkpt>
      <trkpt lat="45.9313" lon="4.76533">
        <ele>170</ele>
        <time>2018-02-19T10:02:03Z</time>
      </trkpt>
      <trkpt lat="45.93134" lon="4.76536">
        <ele>170</ele>
        <time>2018-02-19T10:02:04Z</time>
      </trkpt>
      <trkpt lat="45.93138" lon="4.7654">
        <ele>170</ele>
        <time>2018-02-19T10:02:05Z</time>
      </trkpt>
      <trkpt lat="45.93142" lon="4.76544">
        <ele>170</ele>
        <time>2018-02-19T10:02:06Z</time>
      </trkpt>
      <trkpt lat="45.93146" lon="4.76548">
        <ele>170</ele>
        <time>2018-02-19T10:02:07Z</time>
      </trkpt>
      <trkpt lat="45.93151" lon="4.76552">
        <ele>170</ele>
        <time>2018-02-19T10:02:08Z</time>
      </trkpt>
      <trkpt lat="45.93155" lon="4.76557">
        <ele>170</ele>
        <time>2018-02-19T10:02:09Z</time>
      </trkpt>
      <trkpt lat="45.93159" lon="4.76562">
        <ele>170</ele>
        <time>2018-02-19T10:02:10Z</time>
      </trkpt>
      <trkpt lat="45.93164" lon="4.76566">
        <ele>170</ele>
        <time>2018-02-19T10:02:11Z</time>
      </trkpt>
      <trkpt lat="45.93168" lon="4.7657">
        <ele>170</ele>
        <time>2018-02-19T10:02:12Z</time>
      </trkpt>
      <trkpt lat="45.93172" lon="4.76575">
        <ele>170</ele>
        <time>2018-02-19T10:02:13Z</time>
      </trkpt>
      <trkpt lat="45.93177" lon="4.7658">
        <ele>170</ele>
        <time>2018-02-19T10:02:14Z</time>
      </trkpt>
      <trkpt lat="45.93181" lon="4.76584">
        <ele>171</ele>
        <time>2018-02-19T10:02:15Z</time>
      </trkpt>
      <trkpt lat="45.93185" lon="4.76586">
        <ele>171</ele>
        <time>2018-02-19T10:02:16Z</time>
      </trkpt>
      <trkpt lat="45.93189" lon="4.76593">
        <ele>170</ele>
        <time>2018-02-19T10:02:17Z</time>
      </trkpt>
      <trkpt lat="45.93193" lon="4.76597">
        <ele>170</ele>
        <time>2018-02-19T10:02:18Z</time>
      </trkpt>
      <trkpt lat="45.93197" lon="4.76601">
        <ele>170</ele>
        <time>2018-02-19T10:02:19Z</time>
      </trkpt>
      <trkpt lat="45.93201" lon="4.76604">
        <ele>170</ele>
        <time>2018-02-19T10:02:20Z</time>
      </trkpt>
      <trkpt lat="45.93205" lon="4.76608">
        <ele>170</ele>
        <time>2018-02-19T10:02:21Z</time>
      </trkpt>
      <trkpt lat="45.9321" lon="4.76613">
        <ele>170</ele>
        <time>2018-02-19T10:02:22Z</time>
      </trkpt>
      <trkpt lat="45.93213" lon="4.76617">
        <ele>170</ele>
        <time>2018-02-19T10:02:23Z</time>
      </trkpt>
      <trkpt lat="45.93218" lon="4.76621">
        <ele>170</ele>
        <time>2018-02-19T10:02:24Z</time>
      </trkpt>
      <trkpt lat="45.93221" lon="4.76624">
        <ele>170</ele>
        <time>2018-02-19T10:02:25Z</time>
      </trkpt>
      <trkpt lat="45.93225" lon="4.76629">
        <ele>170</ele>
        <time>2018-02-19T10:02:26Z</time>
      </trkpt>
      <trkpt lat="45.93229" lon="4.76635">
        <ele>171</ele>
        <time>2018-02-19T10:02:27Z</time>
      </trkpt>
      <trkpt lat="45.93233" lon="4.76639">
        <ele>171</ele>
        <time>2018-02-19T10:02:28Z</time>
      </trkpt>
      <trkpt lat="45.93237" lon="4.76643">
        <ele>171</ele>
        <time>2018-02-19T10:02:29Z</time>
      </trkpt>
      <trkpt lat="45.93241" lon="4.76649">
        <ele>171</ele>
        <time>2018-02-19T10:02:30Z</time>
      </trkpt>
      <trkpt lat="45.93245" lon="4.76652">
        <ele>171</ele>
        <time>2018-02-19T10:02:31Z</time>
      </trkpt>
      <trkpt lat="45.93249" lon="4.76657">
        <ele>171</ele>
        <time>2018-02-19T10:02:32Z</time>
      </trkpt>
      <trkpt lat="45.93254" lon="4.76659">
        <ele>171</ele>
        <time>2018-02-19T10:02:33Z</time>
      </trkpt>
      <trkpt lat="45.93259" lon="4.76663">
        <ele>171</ele>
        <time>2018-02-19T10:02:34Z</time>
      </trkpt>
      <trkpt lat="45.93263" lon="4.76667">
        <ele>171</ele>
        <time>2018-02-19T10:02:35Z</time>
      </trkpt>
      <trkpt lat="45.93268" lon="4.76671">
        <ele>172</ele>
        <time>2018-02-19T10:02:36Z</time>
      </trkpt>
      <trkpt lat="45.93272" lon="4.76674">
        <ele>172</ele>
        <time>2018-02-19T10:02:37Z</time>
      </trkpt>
      <trkpt lat="45.93276" lon="4.76678">
        <ele>172</ele>
        <time>2018-02-19T10:02:38Z</time>
      </trkpt>
      <trkpt lat="45.9328" lon="4.76683">
        <ele>172</ele>
        <time>2018-02-19T10:02:39Z</time>
      </trkpt>
      <trkpt lat="45.93284" lon="4.76686">
        <ele>172</ele>
        <time>2018-02-19T10:02:40Z</time>
      </trkpt>
      <trkpt lat="45.93287" lon="4.7669">
        <ele>172</ele>
        <time>2018-02-19T10:02:41Z</time>
      </trkpt>
      <trkpt lat="45.9329" lon="4.76695">
        <ele>172</ele>
        <time>2018-02-19T10:02:42Z</time>
      </trkpt>
      <trkpt lat="45.93295" lon="4.76699">
        <ele>172</ele>
        <time>2018-02-19T10:02:43Z</time>
      </trkpt>
      <trkpt lat="45.93299" lon="4.76703">
        <ele>172</ele>
        <time>2018-02-19T10:02:44Z</time>
      </trkpt>
      <trkpt lat="45.93304" lon="4.76708">
        <ele>172</ele>
        <time>2018-02-19T10:02:45Z</time>
      </trkpt>
      <trkpt lat="45.93308" lon="4.76713">
        <ele>172</ele>
        <time>2018-02-19T10:02:46Z</time>
      </trkpt>
      <trkpt lat="45.93312" lon="4.76718">
        <ele>172</ele>
        <time>2018-02-19T10:02:47Z</time>
      </trkpt>
      <trkpt lat="45.93316" lon="4.76724">
        <ele>172</ele>
        <time>2018-02-19T10:02:48Z</time>
      </trkpt>
      <trkpt lat="45.93321" lon="4.76729">
        <ele>172</ele>
        <time>2018-02-19T10:02:49Z</time>
      </trkpt>
      <trkpt lat="45.93324" lon="4.76735">
        <ele>172</ele>
        <time>2018-02-19T10:02:50Z</time>
      </trkpt>
      <trkpt lat="45.93329" lon="4.76739">
        <ele>172</ele>
        <time>2018-02-19T10:02:51Z</time>
      </trkpt>
      <trkpt lat="45.93333" lon="4.76743">
        <ele>173</ele>
        <time>2018-02-19T10:02:52Z</time>
      </trkpt>
      <trkpt lat="45.93337" lon="4.76748">
        <ele>173</ele>
        <time>2018-02-19T10:02:53Z</time>
      </trkpt>
      <trkpt lat="45.93342" lon="4.76751">
        <ele>173</ele>
        <time>2018-02-19T10:02:54Z</time>
      </trkpt>
      <trkpt lat="45.93345" lon="4.76755">
        <ele>172</ele>
        <time>2018-02-19T10:02:55Z</time>
      </trkpt>
      <trkpt lat="45.93349" lon="4.76758">
        <ele>172</ele>
        <time>2018-02-19T10:02:56Z</time>
      </trkpt>
      <trkpt lat="45.93353" lon="4.76762">
        <ele>172</ele>
        <time>2018-02-19T10:02:57Z</time>
      </trkpt>
      <trkpt lat="45.93357" lon="4.76766">
        <ele>172</ele>
        <time>2018-02-19T10:02:58Z</time>
      </trkpt>
      <trkpt lat="45.93361" lon="4.7677">
        <ele>172</ele>
        <time>2018-02-19T10:02:59Z</time>
      </trkpt>
      <trkpt lat="45.93365" lon="4.76774">
        <ele>172</ele>
        <time>2018-02-19T10:03:00Z</time>
      </trkpt>
      <trkpt lat="45.9337" lon="4.76778">
        <ele>172</ele>
        <time>2018-02-19T10:03:01Z</time>
      </trkpt>
      <trkpt lat="45.93374" lon="4.76783">
        <ele>172</ele>
        <time>2018-02-19T10:03:02Z</time>
      </trkpt>
      <trkpt lat="45.93378" lon="4.76788">
        <ele>172</ele>
        <time>2018-02-19T10:03:03Z</time>
      </trkpt>
      <trkpt lat="45.93382" lon="4.76792">
        <ele>172</ele>
        <time>2018-02-19T10:03:04Z</time>
      </trkpt>
      <trkpt lat="45.93385" lon="4.76796">
        <ele>172</ele>
        <time>2018-02-19T10:03:05Z</time>
      </trkpt>
      <trkpt lat="45.93389" lon="4.76801">
        <ele>172</ele>
        <time>2018-02-19T10:03:06Z</time>
      </trkpt>
      <trkpt lat="45.93393" lon="4.76807">
        <ele>172</ele>
        <time>2018-02-19T10:03:07Z</time>
      </trkpt>
      <trkpt lat="45.93397" lon="4.76812">
        <ele>172</ele>
        <time>2018-02-19T10:03:08Z</time>
      </trkpt>
      <trkpt lat="45.93401" lon="4.76818">
        <ele>172</ele>
        <time>2018-02-19T10:03:09Z</time>
      </trkpt>
      <trkpt lat="45.93405" lon="4.76824">
        <ele>172</ele>
        <time>2018-02-19T10:03:10Z</time>
      </trkpt>
      <trkpt lat="45.93409" lon="4.7683">
        <ele>172</ele>
        <time>2018-02-19T10:03:11Z</time>
      </trkpt>
      <trkpt lat="45.93413" lon="4.76836">
        <ele>172</ele>
        <time>2018-02-19T10:03:12Z</time>
      </trkpt>
      <trkpt lat="45.93416" lon="4.76842">
        <ele>172</ele>
        <time>2018-02-19T10:03:13Z</time>
      </trkpt>
      <trkpt lat="45.93419" lon="4.76848">
        <ele>171</ele>
        <time>2018-02-19T10:03:14Z</time>
      </trkpt>
      <trkpt lat="45.93422" lon="4.76854">
        <ele>171</ele>
        <time>2018-02-19T10:03:15Z</time>
      </trkpt>
      <trkpt lat="45.93425" lon="4.7686">
        <ele>171</ele>
        <time>2018-02-19T10:03:16Z</time>
      </trkpt>
      <trkpt lat="45.93427" lon="4.76866">
        <ele>171</ele>
        <time>2018-02-19T10:03:17Z</time>
      </trkpt>
      <trkpt lat="45.9343" lon="4.76873">
        <ele>171</ele>
        <time>2018-02-19T10:03:18Z</time>
      </trkpt>
      <trkpt lat="45.93433" lon="4.76878">
        <ele>171</ele>
        <time>2018-02-19T10:03:19Z</time>
      </trkpt>
      <trkpt lat="45.93435" lon="4.76885">
        <ele>171</ele>
        <time>2018-02-19T10:03:20Z</time>
      </trkpt>
      <trkpt lat="45.93437" lon="4.76891">
        <ele>170</ele>
        <time>2018-02-19T10:03:21Z</time>
      </trkpt>
      <trkpt lat="45.93439" lon="4.769">
        <ele>170</ele>
        <time>2018-02-19T10:03:22Z</time>
      </trkpt>
      <trkpt lat="45.93441" lon="4.76906">
        <ele>170</ele>
        <time>2018-02-19T10:03:23Z</time>
      </trkpt>
      <trkpt lat="45.93443" lon="4.76913">
        <ele>170</ele>
        <time>2018-02-19T10:03:24Z</time>
      </trkpt>
      <trkpt lat="45.93444" lon="4.76919">
        <ele>170</ele>
        <time>2018-02-19T10:03:25Z</time>
      </trkpt>
      <trkpt lat="45.93447" lon="4.76927">
        <ele>170</ele>
        <time>2018-02-19T10:03:26Z</time>
      </trkpt>
      <trkpt lat="45.93448" lon="4.76934">
        <ele>170</ele>
        <time>2018-02-19T10:03:27Z</time>
      </trkpt>
      <trkpt lat="45.93449" lon="4.76941">
        <ele>170</ele>
        <time>2018-02-19T10:03:28Z</time>
      </trkpt>
      <trkpt lat="45.93451" lon="4.76947">
        <ele>170</ele>
        <time>2018-02-19T10:03:29Z</time>
      </trkpt>
      <trkpt lat="45.93452" lon="4.76955">
        <ele>170</ele>
        <time>2018-02-19T10:03:30Z</time>
      </trkpt>
      <trkpt lat="45.93452" lon="4.76961">
        <ele>170</ele>
        <time>2018-02-19T10:03:31Z</time>
      </trkpt>
      <trkpt lat="45.93453" lon="4.76968">
        <ele>170</ele>
        <time>2018-02-19T10:03:32Z</time>
      </trkpt>
      <trkpt lat="45.93454" lon="4.76976">
        <ele>170</ele>
        <time>2018-02-19T10:03:33Z</time>
      </trkpt>
      <trkpt lat="45.93456" lon="4.76983">
        <ele>170</ele>
        <time>2018-02-19T10:03:34Z</time>
      </trkpt>
      <trkpt lat="45.93457" lon="4.7699">
        <ele>170</ele>
        <time>2018-02-19T10:03:35Z</time>
      </trkpt>
      <trkpt lat="45.93458" lon="4.76997">
        <ele>170</ele>
        <time>2018-02-19T10:03:36Z</time>
      </trkpt>
      <trkpt lat="45.93459" lon="4.77004">
        <ele>170</ele>
        <time>2018-02-19T10:03:37Z</time>
      </trkpt>
      <trkpt lat="45.9346" lon="4.77012">
        <ele>170</ele>
        <time>2018-02-19T10:03:38Z</time>
      </trkpt>
      <trkpt lat="45.93461" lon="4.77019">
        <ele>170</ele>
        <time>2018-02-19T10:03:39Z</time>
      </trkpt>
      <trkpt lat="45.93462" lon="4.77026">
        <ele>170</ele>
        <time>2018-02-19T10:03:40Z</time>
      </trkpt>
      <trkpt lat="45.93463" lon="4.77033">
        <ele>170</ele>
        <time>2018-02-19T10:03:41Z</time>
      </trkpt>
      <trkpt lat="45.93464" lon="4.77039">
        <ele>170</ele>
        <time>2018-02-19T10:03:42Z</time>
      </trkpt>
      <trkpt lat="45.93466" lon="4.77047">
        <ele>170</ele>
        <time>2018-02-19T10:03:43Z</time>
      </trkpt>
      <trkpt lat="45.93467" lon="4.77054">
        <ele>170</ele>
        <time>2018-02-19T10:03:44Z</time>
      </trkpt>
      <trkpt lat="45.93468" lon="4.77061">
        <ele>170</ele>
        <time>2018-02-19T10:03:45Z</time>
      </trkpt>
      <trkpt lat="45.93469" lon="4.77068">
        <ele>170</ele>
        <time>2018-02-19T10:03:46Z</time>
      </trkpt>
      <trkpt lat="45.93471" lon="4.77074">
        <ele>170</ele>
        <time>2018-02-19T10:03:47Z</time>
      </trkpt>
      <trkpt lat="45.93472" lon="4.7708">
        <ele>170</ele>
        <time>2018-02-19T10:03:48Z</time>
      </trkpt>
      <trkpt lat="45.93474" lon="4.77087">
        <ele>169</ele>
        <time>2018-02-19T10:03:49Z</time>
      </trkpt>
      <trkpt lat="45.93476" lon="4.77093">
        <ele>169</ele>
        <time>2018-02-19T10:03:50Z</time>
      </trkpt>
      <trkpt lat="45.93477" lon="4.771">
        <ele>169</ele>
        <time>2018-02-19T10:03:51Z</time>
      </trkpt>
      <trkpt lat="45.93478" lon="4.77107">
        <ele>169</ele>
        <time>2018-02-19T10:03:52Z</time>
      </trkpt>
      <trkpt lat="45.93479" lon="4.77114">
        <ele>169</ele>
        <time>2018-02-19T10:03:53Z</time>
      </trkpt>
      <trkpt lat="45.9348" lon="4.77121">
        <ele>169</ele>
        <time>2018-02-19T10:03:54Z</time>
      </trkpt>
      <trkpt lat="45.93481" lon="4.77128">
        <ele>169</ele>
        <time>2018-02-19T10:03:55Z</time>
      </trkpt>
      <trkpt lat="45.93482" lon="4.77134">
        <ele>169</ele>
        <time>2018-02-19T10:03:56Z</time>
      </trkpt>
      <trkpt lat="45.93484" lon="4.7714">
        <ele>169</ele>
        <time>2018-02-19T10:03:57Z</time>
      </trkpt>
      <trkpt lat="45.93486" lon="4.77147">
        <ele>169</ele>
        <time>2018-02-19T10:03:58Z</time>
      </trkpt>
      <trkpt lat="45.93487" lon="4.77154">
        <ele>169</ele>
        <time>2018-02-19T10:03:59Z</time>
      </trkpt>
      <trkpt lat="45.93489" lon="4.77161">
        <ele>169</ele>
        <time>2018-02-19T10:04:00Z</time>
      </trkpt>
      <trkpt lat="45.9349" lon="4.77167">
        <ele>169</ele>
        <time>2018-02-19T10:04:01Z</time>
      </trkpt>
      <trkpt lat="45.93491" lon="4.77173">
        <ele>169</ele>
        <time>2018-02-19T10:04:02Z</time>
      </trkpt>
      <trkpt lat="45.93492" lon="4.77181">
        <ele>169</ele>
        <time>2018-02-19T10:04:03Z</time>
      </trkpt>
      <trkpt lat="45.93493" lon="4.77187">
        <ele>169</ele>
        <time>2018-02-19T10:04:04Z</time>
      </trkpt>
      <trkpt lat="45.93494" lon="4.77192">
        <ele>169</ele>
        <time>2018-02-19T10:04:05Z</time>
      </trkpt>
      <trkpt lat="45.93495" lon="4.772">
        <ele>169</ele>
        <time>2018-02-19T10:04:06Z</time>
      </trkpt>
      <trkpt lat="45.93496" lon="4.77207">
        <ele>169</ele>
        <time>2018-02-19T10:04:07Z</time>
      </trkpt>
      <trkpt lat="45.93498" lon="4.77213">
        <ele>169</ele>
        <time>2018-02-19T10:04:08Z</time>
      </trkpt>
      <trkpt lat="45.93501" lon="4.77225">
        <ele>169</ele>
        <time>2018-02-19T10:04:10Z</time>
      </trkpt>
      <trkpt lat="45.93503" lon="4.77233">
        <ele>169</ele>
        <time>2018-02-19T10:04:11Z</time>
      </trkpt>
      <trkpt lat="45.93504" lon="4.7724">
        <ele>169</ele>
        <time>2018-02-19T10:04:12Z</time>
      </trkpt>
      <trkpt lat="45.93506" lon="4.77248">
        <ele>170</ele>
        <time>2018-02-19T10:04:13Z</time>
      </trkpt>
      <trkpt lat="45.93508" lon="4.77254">
        <ele>170</ele>
        <time>2018-02-19T10:04:14Z</time>
      </trkpt>
      <trkpt lat="45.93509" lon="4.77261">
        <ele>170</ele>
        <time>2018-02-19T10:04:15Z</time>
      </trkpt>
      <trkpt lat="45.93511" lon="4.77268">
        <ele>170</ele>
        <time>2018-02-19T10:04:16Z</time>
      </trkpt>
      <trkpt lat="45.93513" lon="4.77275">
        <ele>170</ele>
        <time>2018-02-19T10:04:17Z</time>
      </trkpt>
      <trkpt lat="45.93514" lon="4.77282">
        <ele>170</ele>
        <time>2018-02-19T10:04:18Z</time>
      </trkpt>
      <trkpt lat="45.93516" lon="4.7729">
        <ele>170</ele>
        <time>2018-02-19T10:04:19Z</time>
      </trkpt>
      <trkpt lat="45.93517" lon="4.77297">
        <ele>170</ele>
        <time>2018-02-19T10:04:20Z</time>
      </trkpt>
      <trkpt lat="45.93519" lon="4.77304">
        <ele>170</ele>
        <time>2018-02-19T10:04:21Z</time>
      </trkpt>
      <trkpt lat="45.9352" lon="4.77311">
        <ele>170</ele>
        <time>2018-02-19T10:04:22Z</time>
      </trkpt>
      <trkpt lat="45.93522" lon="4.77317">
        <ele>170</ele>
        <time>2018-02-19T10:04:23Z</time>
      </trkpt>
      <trkpt lat="45.93524" lon="4.77324">
        <ele>170</ele>
        <time>2018-02-19T10:04:24Z</time>
      </trkpt>
      <trkpt lat="45.93525" lon="4.77331">
        <ele>170</ele>
        <time>2018-02-19T10:04:25Z</time>
      </trkpt>
      <trkpt lat="45.93527" lon="4.77338">
        <ele>170</ele>
        <time>2018-02-19T10:04:26Z</time>
      </trkpt>
      <trkpt lat="45.93528" lon="4.77345">
        <ele>170</ele>
        <time>2018-02-19T10:04:27Z</time>
      </trkpt>
      <trkpt lat="45.93529" lon="4.77352">
        <ele>170</ele>
        <time>2018-02-19T10:04:28Z</time>
      </trkpt>
      <trkpt lat="45.93532" lon="4.77361">
        <ele>170</ele>
        <time>2018-02-19T10:04:29Z</time>
      </trkpt>
      <trkpt lat="45.93533" lon="4.77368">
        <ele>170</ele>
        <time>2018-02-19T10:04:30Z</time>
      </trkpt>
      <trkpt lat="45.93535" lon="4.77374">
        <ele>170</ele>
        <time>2018-02-19T10:04:31Z</time>
      </trkpt>
      <trkpt lat="45.93537" lon="4.7738">
        <ele>170</ele>
        <time>2018-02-19T10:04:32Z</time>
      </trkpt>
      <trkpt lat="45.93539" lon="4.77386">
        <ele>170</ele>
        <time>2018-02-19T10:04:33Z</time>
      </trkpt>
      <trkpt lat="45.9354" lon="4.77393">
        <ele>170</ele>
        <time>2018-02-19T10:04:34Z</time>
      </trkpt>
      <trkpt lat="45.93542" lon="4.774">
        <ele>170</ele>
        <time>2018-02-19T10:04:35Z</time>
      </trkpt>
      <trkpt lat="45.93544" lon="4.77408">
        <ele>170</ele>
        <time>2018-02-19T10:04:36Z</time>
      </trkpt>
      <trkpt lat="45.93545" lon="4.77414">
        <ele>170</ele>
        <time>2018-02-19T10:04:37Z</time>
      </trkpt>
      <trkpt lat="45.93546" lon="4.77423">
        <ele>170</ele>
        <time>2018-02-19T10:04:38Z</time>
      </trkpt>
      <trkpt lat="45.93548" lon="4.7743">
        <ele>169</ele>
        <time>2018-02-19T10:04:39Z</time>
      </trkpt>
      <trkpt lat="45.93549" lon="4.77436">
        <ele>169</ele>
        <time>2018-02-19T10:04:40Z</time>
      </trkpt>
      <trkpt lat="45.93551" lon="4.77443">
        <ele>169</ele>
        <time>2018-02-19T10:04:41Z</time>
      </trkpt>
      <trkpt lat="45.93552" lon="4.77451">
        <ele>169</ele>
        <time>2018-02-19T10:04:42Z</time>
      </trkpt>
      <trkpt lat="45.93554" lon="4.77458">
        <ele>169</ele>
        <time>2018-02-19T10:04:43Z</time>
      </trkpt>
      <trkpt lat="45.93555" lon="4.77465">
        <ele>169</ele>
        <time>2018-02-19T10:04:44Z</time>
      </trkpt>
      <trkpt lat="45.93557" lon="4.77472">
        <ele>169</ele>
        <time>2018-02-19T10:04:45Z</time>
      </trkpt>
      <trkpt lat="45.93558" lon="4.77481">
        <ele>169</ele>
        <time>2018-02-19T10:04:46Z</time>
      </trkpt>
      <trkpt lat="45.93559" lon="4.77487">
        <ele>169</ele>
        <time>2018-02-19T10:04:47Z</time>
      </trkpt>
      <trkpt lat="45.93561" lon="4.77494">
        <ele>169</ele>
        <time>2018-02-19T10:04:48Z</time>
      </trkpt>
      <trkpt lat="45.93563" lon="4.77502">
        <ele>169</ele>
        <time>2018-02-19T10:04:49Z</time>
      </trkpt>
      <trkpt lat="45.93565" lon="4.77509">
        <ele>169</ele>
        <time>2018-02-19T10:04:50Z</time>
      </trkpt>
      <trkpt lat="45.93565" lon="4.77518">
        <ele>169</ele>
        <time>2018-02-19T10:04:51Z</time>
      </trkpt>
      <trkpt lat="45.93567" lon="4.77524">
        <ele>169</ele>
        <time>2018-02-19T10:04:52Z</time>
      </trkpt>
      <trkpt lat="45.93569" lon="4.77532">
        <ele>169</ele>
        <time>2018-02-19T10:04:53Z</time>
      </trkpt>
      <trkpt lat="45.93571" lon="4.77539">
        <ele>169</ele>
        <time>2018-02-19T10:04:54Z</time>
      </trkpt>
      <trkpt lat="45.93574" lon="4.77548">
        <ele>169</ele>
        <time>2018-02-19T10:04:55Z</time>
      </trkpt>
      <trkpt lat="45.93576" lon="4.77555">
        <ele>169</ele>
        <time>2018-02-19T10:04:56Z</time>
      </trkpt>
      <trkpt lat="45.93578" lon="4.77562">
        <ele>169</ele>
        <time>2018-02-19T10:04:57Z</time>
      </trkpt>
      <trkpt lat="45.9358" lon="4.77569">
        <ele>170</ele>
        <time>2018-02-19T10:04:58Z</time>
      </trkpt>
      <trkpt lat="45.93582" lon="4.77576">
        <ele>170</ele>
        <time>2018-02-19T10:04:59Z</time>
      </trkpt>
      <trkpt lat="45.93584" lon="4.77583">
        <ele>170</ele>
        <time>2018-02-19T10:05:00Z</time>
      </trkpt>
      <trkpt lat="45.93586" lon="4.77591">
        <ele>170</ele>
        <time>2018-02-19T10:05:01Z</time>
      </trkpt>
      <trkpt lat="45.93588" lon="4.77598">
        <ele>170</ele>
        <time>2018-02-19T10:05:02Z</time>
      </trkpt>
      <trkpt lat="45.93591" lon="4.77604">
        <ele>170</ele>
        <time>2018-02-19T10:05:03Z</time>
      </trkpt>
      <trkpt lat="45.93593" lon="4.77611">
        <ele>170</ele>
        <time>2018-02-19T10:05:04Z</time>
      </trkpt>
      <trkpt lat="45.93595" lon="4.77618">
        <ele>170</ele>
        <time>2018-02-19T10:05:05Z</time>
      </trkpt>
      <trkpt lat="45.93598" lon="4.77625">
        <ele>170</ele>
        <time>2018-02-19T10:05:06Z</time>
      </trkpt>
      <trkpt lat="45.936" lon="4.77631">
        <ele>169</ele>
        <time>2018-02-19T10:05:07Z</time>
      </trkpt>
      <trkpt lat="45.93601" lon="4.77637">
        <ele>169</ele>
        <time>2018-02-19T10:05:08Z</time>
      </trkpt>
      <trkpt lat="45.93604" lon="4.77644">
        <ele>169</ele>
        <time>2018-02-19T10:05:09Z</time>
      </trkpt>
      <trkpt lat="45.93607" lon="4.77651">
        <ele>169</ele>
        <time>2018-02-19T10:05:10Z</time>
      </trkpt>
      <trkpt lat="45.9361" lon="4.77657">
        <ele>169</ele>
        <time>2018-02-19T10:05:11Z</time>
      </trkpt>
      <trkpt lat="45.93613" lon="4.77663">
        <ele>169</ele>
        <time>2018-02-19T10:05:12Z</time>
      </trkpt>
      <trkpt lat="45.93616" lon="4.7767">
        <ele>169</ele>
        <time>2018-02-19T10:05:13Z</time>
      </trkpt>
      <trkpt lat="45.9362" lon="4.77677">
        <ele>169</ele>
        <time>2018-02-19T10:05:14Z</time>
      </trkpt>
      <trkpt lat="45.93623" lon="4.77683">
        <ele>169</ele>
        <time>2018-02-19T10:05:15Z</time>
      </trkpt>
      <trkpt lat="45.93626" lon="4.77689">
        <ele>169</ele>
        <time>2018-02-19T10:05:16Z</time>
      </trkpt>
      <trkpt lat="45.93628" lon="4.77696">
        <ele>169</ele>
        <time>2018-02-19T10:05:17Z</time>
      </trkpt>
      <trkpt lat="45.93631" lon="4.77702">
        <ele>169</ele>
        <time>2018-02-19T10:05:18Z</time>
      </trkpt>
      <trkpt lat="45.93634" lon="4.77707">
        <ele>170</ele>
        <time>2018-02-19T10:05:19Z</time>
      </trkpt>
      <trkpt lat="45.93638" lon="4.77712">
        <ele>170</ele>
        <time>2018-02-19T10:05:20Z</time>
      </trkpt>
      <trkpt lat="45.93641" lon="4.77717">
        <ele>170</ele>
        <time>2018-02-19T10:05:21Z</time>
      </trkpt>
      <trkpt lat="45.93644" lon="4.77722">
        <ele>170</ele>
        <time>2018-02-19T10:05:22Z</time>
      </trkpt>
      <trkpt lat="45.93648" lon="4.77729">
        <ele>170</ele>
        <time>2018-02-19T10:05:23Z</time>
      </trkpt>
      <trkpt lat="45.93652" lon="4.77737">
        <ele>170</ele>
        <time>2018-02-19T10:05:25Z</time>
      </trkpt>
      <trkpt lat="45.93655" lon="4.77743">
        <ele>170</ele>
        <time>2018-02-19T10:05:26Z</time>
      </trkpt>
      <trkpt lat="45.93661" lon="4.77751">
        <ele>171</ele>
        <time>2018-02-19T10:05:28Z</time>
      </trkpt>
      <trkpt lat="45.93664" lon="4.77755">
        <ele>171</ele>
        <time>2018-02-19T10:05:29Z</time>
      </trkpt>
      <trkpt lat="45.93668" lon="4.77763">
        <ele>170</ele>
        <time>2018-02-19T10:05:31Z</time>
      </trkpt>
      <trkpt lat="45.9367" lon="4.77767">
        <ele>170</ele>
        <time>2018-02-19T10:05:32Z</time>
      </trkpt>
      <trkpt lat="45.93675" lon="4.77774">
        <ele>170</ele>
        <time>2018-02-19T10:05:34Z</time>
      </trkpt>
      <trkpt lat="45.93677" lon="4.77778">
        <ele>170</ele>
        <time>2018-02-19T10:05:35Z</time>
      </trkpt>
      <trkpt lat="45.93682" lon="4.77785">
        <ele>170</ele>
        <time>2018-02-19T10:05:37Z</time>
      </trkpt>
      <trkpt lat="45.93685" lon="4.77789">
        <ele>170</ele>
        <time>2018-02-19T10:05:38Z</time>
      </trkpt>
      <trkpt lat="45.9369" lon="4.77797">
        <ele>169</ele>
        <time>2018-02-19T10:05:40Z</time>
      </trkpt>
      <trkpt lat="45.93693" lon="4.778">
        <ele>169</ele>
        <time>2018-02-19T10:05:41Z</time>
      </trkpt>
      <trkpt lat="45.93698" lon="4.77806">
        <ele>169</ele>
        <time>2018-02-19T10:05:43Z</time>
      </trkpt>
      <trkpt lat="45.93701" lon="4.77809">
        <ele>169</ele>
        <time>2018-02-19T10:05:44Z</time>
      </trkpt>
      <trkpt lat="45.93706" lon="4.77814">
        <ele>169</ele>
        <time>2018-02-19T10:05:46Z</time>
      </trkpt>
      <trkpt lat="45.93708" lon="4.77817">
        <ele>169</ele>
        <time>2018-02-19T10:05:47Z</time>
      </trkpt>
      <trkpt lat="45.93713" lon="4.77824">
        <ele>169</ele>
        <time>2018-02-19T10:05:49Z</time>
      </trkpt>
      <trkpt lat="45.93715" lon="4.77827">
        <ele>169</ele>
        <time>2018-02-19T10:05:50Z</time>
      </trkpt>
      <trkpt lat="45.93721" lon="4.77835">
        <ele>167</ele>
        <time>2018-02-19T10:05:53Z</time>
      </trkpt>
      <trkpt lat="45.93723" lon="4.77837">
        <ele>167</ele>
        <time>2018-02-19T10:05:54Z</time>
      </trkpt>
      <trkpt lat="45.93728" lon="4.77844">
        <ele>167</ele>
        <time>2018-02-19T10:05:56Z</time>
      </trkpt>
      <trkpt lat="45.93731" lon="4.77847">
        <ele>167</ele>
        <time>2018-02-19T10:05:57Z</time>
      </trkpt>
      <trkpt lat="45.93736" lon="4.77854">
        <ele>167</ele>
        <time>2018-02-19T10:05:59Z</time>
      </trkpt>
      <trkpt lat="45.93739" lon="4.77857">
        <ele>167</ele>
        <time>2018-02-19T10:06:00Z</time>
      </trkpt>
      <trkpt lat="45.93744" lon="4.77865">
        <ele>167</ele>
        <time>2018-02-19T10:06:02Z</time>
      </trkpt>
      <trkpt lat="45.93747" lon="4.77868">
        <ele>167</ele>
        <time>2018-02-19T10:06:03Z</time>
      </trkpt>
      <trkpt lat="45.93754" lon="4.77876">
        <ele>166</ele>
        <time>2018-02-19T10:06:05Z</time>
      </trkpt>
      <trkpt lat="45.93757" lon="4.7788">
        <ele>166</ele>
        <time>2018-02-19T10:06:06Z</time>
      </trkpt>
      <trkpt lat="45.93763" lon="4.77887">
        <ele>166</ele>
        <time>2018-02-19T10:06:08Z</time>
      </trkpt>
      <trkpt lat="45.93765" lon="4.77891">
        <ele>166</ele>
        <time>2018-02-19T10:06:09Z</time>
      </trkpt>
      <trkpt lat="45.93771" lon="4.77898">
        <ele>166</ele>
        <time>2018-02-19T10:06:11Z</time>
      </trkpt>
      <trkpt lat="45.93774" lon="4.77902">
        <ele>166</ele>
        <time>2018-02-19T10:06:12Z</time>
      </trkpt>
      <trkpt lat="45.93779" lon="4.77911">
        <ele>166</ele>
        <time>2018-02-19T10:06:14Z</time>
      </trkpt>
      <trkpt lat="45.93782" lon="4.77915">
        <ele>166</ele>
        <time>2018-02-19T10:06:15Z</time>
      </trkpt>
      <trkpt lat="45.93788" lon="4.77923">
        <ele>168</ele>
        <time>2018-02-19T10:06:17Z</time>
      </trkpt>
      <trkpt lat="45.93791" lon="4.77927">
        <ele>168</ele>
        <time>2018-02-19T10:06:18Z</time>
      </trkpt>
      <trkpt lat="45.93798" lon="4.77934">
        <ele>168</ele>
        <time>2018-02-19T10:06:20Z</time>
      </trkpt>
      <trkpt lat="45.93801" lon="4.77938">
        <ele>169</ele>
        <time>2018-02-19T10:06:21Z</time>
      </trkpt>
      <trkpt lat="45.93807" lon="4.77946">
        <ele>169</ele>
        <time>2018-02-19T10:06:23Z</time>
      </trkpt>
      <trkpt lat="45.9381" lon="4.77951">
        <ele>169</ele>
        <time>2018-02-19T10:06:24Z</time>
      </trkpt>
      <trkpt lat="45.93814" lon="4.77955">
        <ele>170</ele>
        <time>2018-02-19T10:06:25Z</time>
      </trkpt>
      <trkpt lat="45.93818" lon="4.77959">
        <ele>170</ele>
        <time>2018-02-19T10:06:26Z</time>
      </trkpt>
      <trkpt lat="45.93822" lon="4.77965">
        <ele>171</ele>
        <time>2018-02-19T10:06:27Z</time>
      </trkpt>
      <trkpt lat="45.93825" lon="4.77969">
        <ele>172</ele>
        <time>2018-02-19T10:06:28Z</time>
      </trkpt>
      <trkpt lat="45.93829" lon="4.77975">
        <ele>172</ele>
        <time>2018-02-19T10:06:29Z</time>
      </trkpt>
      <trkpt lat="45.93832" lon="4.7798">
        <ele>173</ele>
        <time>2018-02-19T10:06:30Z</time>
      </trkpt>
      <trkpt lat="45.93835" lon="4.77984">
        <ele>178</ele>
        <time>2018-02-19T10:06:31Z</time>
      </trkpt>
      <trkpt lat="45.93837" lon="4.7799">
        <ele>179</ele>
        <time>2018-02-19T10:06:32Z</time>
      </trkpt>
      <trkpt lat="45.9384" lon="4.77996">
        <ele>179</ele>
        <time>2018-02-19T10:06:33Z</time>
      </trkpt>
      <trkpt lat="45.93841" lon="4.78003">
        <ele>180</ele>
        <time>2018-02-19T10:06:34Z</time>
      </trkpt>
      <trkpt lat="45.93841" lon="4.7801">
        <ele>181</ele>
        <time>2018-02-19T10:06:35Z</time>
      </trkpt>
      <trkpt lat="45.93842" lon="4.78016">
        <ele>181</ele>
        <time>2018-02-19T10:06:36Z</time>
      </trkpt>
      <trkpt lat="45.93842" lon="4.78023">
        <ele>182</ele>
        <time>2018-02-19T10:06:37Z</time>
      </trkpt>
      <trkpt lat="45.93845" lon="4.78029">
        <ele>182</ele>
        <time>2018-02-19T10:06:38Z</time>
      </trkpt>
      <trkpt lat="45.93847" lon="4.7804">
        <ele>182</ele>
        <time>2018-02-19T10:06:40Z</time>
      </trkpt>
      <trkpt lat="45.93848" lon="4.78046">
        <ele>183</ele>
        <time>2018-02-19T10:06:41Z</time>
      </trkpt>
      <trkpt lat="45.93848" lon="4.78058">
        <ele>182</ele>
        <time>2018-02-19T10:06:43Z</time>
      </trkpt>
      <trkpt lat="45.93846" lon="4.78063">
        <ele>182</ele>
        <time>2018-02-19T10:06:44Z</time>
      </trkpt>
      <trkpt lat="45.93844" lon="4.78075">
        <ele>182</ele>
        <time>2018-02-19T10:06:46Z</time>
      </trkpt>
      <trkpt lat="45.93842" lon="4.78081">
        <ele>181</ele>
        <time>2018-02-19T10:06:47Z</time>
      </trkpt>
      <trkpt lat="45.9384" lon="4.78093">
        <ele>182</ele>
        <time>2018-02-19T10:06:49Z</time>
      </trkpt>
      <trkpt lat="45.93839" lon="4.78097">
        <ele>183</ele>
        <time>2018-02-19T10:06:50Z</time>
      </trkpt>
      <trkpt lat="45.93841" lon="4.78105">
        <ele>184</ele>
        <time>2018-02-19T10:06:51Z</time>
      </trkpt>
      <trkpt lat="45.9384" lon="4.7811">
        <ele>184</ele>
        <time>2018-02-19T10:06:52Z</time>
      </trkpt>
      <trkpt lat="45.93839" lon="4.78122">
        <ele>184</ele>
        <time>2018-02-19T10:06:54Z</time>
      </trkpt>
      <trkpt lat="45.93837" lon="4.78128">
        <ele>184</ele>
        <time>2018-02-19T10:06:55Z</time>
      </trkpt>
      <trkpt lat="45.93835" lon="4.78134">
        <ele>184</ele>
        <time>2018-02-19T10:06:56Z</time>
      </trkpt>
      <trkpt lat="45.93835" lon="4.78141">
        <ele>184</ele>
        <time>2018-02-19T10:06:57Z</time>
      </trkpt>
      <trkpt lat="45.93832" lon="4.78147">
        <ele>180</ele>
        <time>2018-02-19T10:06:58Z</time>
      </trkpt>
      <trkpt lat="45.9383" lon="4.78154">
        <ele>181</ele>
        <time>2018-02-19T10:06:59Z</time>
      </trkpt>
      <trkpt lat="45.93827" lon="4.78163">
        <ele>181</ele>
        <time>2018-02-19T10:07:00Z</time>
      </trkpt>
      <trkpt lat="45.93825" lon="4.78169">
        <ele>182</ele>
        <time>2018-02-19T10:07:01Z</time>
      </trkpt>
      <trkpt lat="45.93824" lon="4.78175">
        <ele>182</ele>
        <time>2018-02-19T10:07:02Z</time>
      </trkpt>
      <trkpt lat="45.93822" lon="4.78181">
        <ele>182</ele>
        <time>2018-02-19T10:07:03Z</time>
      </trkpt>
      <trkpt lat="45.9382" lon="4.78188">
        <ele>182</ele>
        <time>2018-02-19T10:07:04Z</time>
      </trkpt>
      <trkpt lat="45.9382" lon="4.78195">
        <ele>182</ele>
        <time>2018-02-19T10:07:05Z</time>
      </trkpt>
      <trkpt lat="45.93816" lon="4.78207">
        <ele>182</ele>
        <time>2018-02-19T10:07:07Z</time>
      </trkpt>
      <trkpt lat="45.93815" lon="4.78213">
        <ele>182</ele>
        <time>2018-02-19T10:07:08Z</time>
      </trkpt>
      <trkpt lat="45.93813" lon="4.7822">
        <ele>182</ele>
        <time>2018-02-19T10:07:09Z</time>
      </trkpt>
      <trkpt lat="45.93811" lon="4.78226">
        <ele>182</ele>
        <time>2018-02-19T10:07:10Z</time>
      </trkpt>
      <trkpt lat="45.9381" lon="4.78232">
        <ele>182</ele>
        <time>2018-02-19T10:07:11Z</time>
      </trkpt>
      <trkpt lat="45.93805" lon="4.78237">
        <ele>182</ele>
        <time>2018-02-19T10:07:12Z</time>
      </trkpt>
      <trkpt lat="45.93801" lon="4.78248">
        <ele>182</ele>
        <time>2018-02-19T10:07:14Z</time>
      </trkpt>
      <trkpt lat="45.93795" lon="4.78253">
        <ele>183</ele>
        <time>2018-02-19T10:07:15Z</time>
      </trkpt>
      <trkpt lat="45.93794" lon="4.7826">
        <ele>183</ele>
        <time>2018-02-19T10:07:16Z</time>
      </trkpt>
      <trkpt lat="45.93792" lon="4.78269">
        <ele>183</ele>
        <time>2018-02-19T10:07:17Z</time>
      </trkpt>
      <trkpt lat="45.9379" lon="4.78277">
        <ele>183</ele>
        <time>2018-02-19T10:07:18Z</time>
      </trkpt>
      <trkpt lat="45.93788" lon="4.78285">
        <ele>183</ele>
        <time>2018-02-19T10:07:19Z</time>
      </trkpt>
      <trkpt lat="45.93787" lon="4.78292">
        <ele>183</ele>
        <time>2018-02-19T10:07:20Z</time>
      </trkpt>
      <trkpt lat="45.93785" lon="4.78299">
        <ele>183</ele>
        <time>2018-02-19T10:07:21Z</time>
      </trkpt>
      <trkpt lat="45.93783" lon="4.78306">
        <ele>183</ele>
        <time>2018-02-19T10:07:22Z</time>
      </trkpt>
      <trkpt lat="45.93782" lon="4.78315">
        <ele>183</ele>
        <time>2018-02-19T10:07:23Z</time>
      </trkpt>
      <trkpt lat="45.9378" lon="4.78323">
        <ele>183</ele>
        <time>2018-02-19T10:07:24Z</time>
      </trkpt>
      <trkpt lat="45.93778" lon="4.78331">
        <ele>183</ele>
        <time>2018-02-19T10:07:25Z</time>
      </trkpt>
      <trkpt lat="45.93778" lon="4.78339">
        <ele>183</ele>
        <time>2018-02-19T10:07:26Z</time>
      </trkpt>
      <trkpt lat="45.93775" lon="4.78346">
        <ele>183</ele>
        <time>2018-02-19T10:07:27Z</time>
      </trkpt>
      <trkpt lat="45.93773" lon="4.78353">
        <ele>183</ele>
        <time>2018-02-19T10:07:28Z</time>
      </trkpt>
      <trkpt lat="45.93772" lon="4.78361">
        <ele>183</ele>
        <time>2018-02-19T10:07:29Z</time>
      </trkpt>
      <trkpt lat="45.93769" lon="4.78367">
        <ele>183</ele>
        <time>2018-02-19T10:07:30Z</time>
      </trkpt>
      <trkpt lat="45.93768" lon="4.78375">
        <ele>183</ele>
        <time>2018-02-19T10:07:31Z</time>
      </trkpt>
      <trkpt lat="45.93766" lon="4.78383">
        <ele>183</ele>
        <time>2018-02-19T10:07:32Z</time>
      </trkpt>
      <trkpt lat="45.93763" lon="4.78391">
        <ele>183</ele>
        <time>2018-02-19T10:07:33Z</time>
      </trkpt>
      <trkpt lat="45.9376" lon="4.78399">
        <ele>183</ele>
        <time>2018-02-19T10:07:34Z</time>
      </trkpt>
      <trkpt lat="45.93761" lon="4.78406">
        <ele>182</ele>
        <time>2018-02-19T10:07:35Z</time>
      </trkpt>
      <trkpt lat="45.93759" lon="4.78415">
        <ele>182</ele>
        <time>2018-02-19T10:07:36Z</time>
      </trkpt>
      <trkpt lat="45.93756" lon="4.78422">
        <ele>182</ele>
        <time>2018-02-19T10:07:37Z</time>
      </trkpt>
      <trkpt lat="45.93753" lon="4.7843">
        <ele>183</ele>
        <time>2018-02-19T10:07:38Z</time>
      </trkpt>
      <trkpt lat="45.93752" lon="4.78439">
        <ele>183</ele>
        <time>2018-02-19T10:07:39Z</time>
      </trkpt>
      <trkpt lat="45.93751" lon="4.78446">
        <ele>183</ele>
        <time>2018-02-19T10:07:40Z</time>
      </trkpt>
      <trkpt lat="45.93749" lon="4.78455">
        <ele>180</ele>
        <time>2018-02-19T10:07:41Z</time>
      </trkpt>
      <trkpt lat="45.93747" lon="4.78464">
        <ele>180</ele>
        <time>2018-02-19T10:07:42Z</time>
      </trkpt>
      <trkpt lat="45.93745" lon="4.78473">
        <ele>180</ele>
        <time>2018-02-19T10:07:43Z</time>
      </trkpt>
      <trkpt lat="45.93742" lon="4.78484">
        <ele>180</ele>
        <time>2018-02-19T10:07:44Z</time>
      </trkpt>
      <trkpt lat="45.9374" lon="4.78493">
        <ele>180</ele>
        <time>2018-02-19T10:07:45Z</time>
      </trkpt>
      <trkpt lat="45.93737" lon="4.78503">
        <ele>180</ele>
        <time>2018-02-19T10:07:46Z</time>
      </trkpt>
      <trkpt lat="45.93734" lon="4.78513">
        <ele>179</ele>
        <time>2018-02-19T10:07:47Z</time>
      </trkpt>
      <trkpt lat="45.93732" lon="4.78522">
        <ele>179</ele>
        <time>2018-02-19T10:07:48Z</time>
      </trkpt>
      <trkpt lat="45.93729" lon="4.78532">
        <ele>178</ele>
        <time>2018-02-19T10:07:49Z</time>
      </trkpt>
      <trkpt lat="45.93726" lon="4.78541">
        <ele>178</ele>
        <time>2018-02-19T10:07:50Z</time>
      </trkpt>
      <trkpt lat="45.93724" lon="4.78551">
        <ele>178</ele>
        <time>2018-02-19T10:07:51Z</time>
      </trkpt>
      <trkpt lat="45.93723" lon="4.7856">
        <ele>178</ele>
        <time>2018-02-19T10:07:52Z</time>
      </trkpt>
      <trkpt lat="45.9372" lon="4.7857">
        <ele>178</ele>
        <time>2018-02-19T10:07:53Z</time>
      </trkpt>
      <trkpt lat="45.93715" lon="4.78578">
        <ele>178</ele>
        <time>2018-02-19T10:07:54Z</time>
      </trkpt>
      <trkpt lat="45.93713" lon="4.78587">
        <ele>177</ele>
        <time>2018-02-19T10:07:55Z</time>
      </trkpt>
      <trkpt lat="45.93711" lon="4.78596">
        <ele>176</ele>
        <time>2018-02-19T10:07:56Z</time>
      </trkpt>
      <trkpt lat="45.93709" lon="4.78602">
        <ele>176</ele>
        <time>2018-02-19T10:07:57Z</time>
      </trkpt>
      <trkpt lat="45.93708" lon="4.78611">
        <ele>176</ele>
        <time>2018-02-19T10:07:58Z</time>
      </trkpt>
      <trkpt lat="45.93707" lon="4.78618">
        <ele>176</ele>
        <time>2018-02-19T10:07:59Z</time>
      </trkpt>
      <trkpt lat="45.93709" lon="4.78629">
        <ele>176</ele>
        <time>2018-02-19T10:08:01Z</time>
      </trkpt>
      <trkpt lat="45.93713" lon="4.78633">
        <ele>176</ele>
        <time>2018-02-19T10:08:02Z</time>
      </trkpt>
      <trkpt lat="45.9372" lon="4.78632">
        <ele>177</ele>
        <time>2018-02-19T10:08:04Z</time>
      </trkpt>
      <trkpt lat="45.93723" lon="4.7863">
        <ele>177</ele>
        <time>2018-02-19T10:08:05Z</time>
      </trkpt>
      <trkpt lat="45.93731" lon="4.78626">
        <ele>177</ele>
        <time>2018-02-19T10:08:07Z</time>
      </trkpt>
      <trkpt lat="45.93734" lon="4.78623">
        <ele>177</ele>
        <time>2018-02-19T10:08:08Z</time>
      </trkpt>
      <trkpt lat="45.93741" lon="4.78622">
        <ele>177</ele>
        <time>2018-02-19T10:08:10Z</time>
      </trkpt>
      <trkpt lat="45.93744" lon="4.78621">
        <ele>177</ele>
        <time>2018-02-19T10:08:11Z</time>
      </trkpt>
      <trkpt lat="45.93752" lon="4.7862">
        <ele>181</ele>
        <time>2018-02-19T10:08:14Z</time>
      </trkpt>
      <trkpt lat="45.93755" lon="4.78619">
        <ele>181</ele>
        <time>2018-02-19T10:08:15Z</time>
      </trkpt>
      <trkpt lat="45.93763" lon="4.78616">
        <ele>181</ele>
        <time>2018-02-19T10:08:18Z</time>
      </trkpt>
      <trkpt lat="45.93766" lon="4.78614">
        <ele>181</ele>
        <time>2018-02-19T10:08:19Z</time>
      </trkpt>
      <trkpt lat="45.93773" lon="4.78611">
        <ele>181</ele>
        <time>2018-02-19T10:08:22Z</time>
      </trkpt>
      <trkpt lat="45.93776" lon="4.7861">
        <ele>181</ele>
        <time>2018-02-19T10:08:23Z</time>
      </trkpt>
      <trkpt lat="45.93783" lon="4.78608">
        <ele>182</ele>
        <time>2018-02-19T10:08:25Z</time>
      </trkpt>
      <trkpt lat="45.93786" lon="4.78608">
        <ele>182</ele>
        <time>2018-02-19T10:08:26Z</time>
      </trkpt>
      <trkpt lat="45.93794" lon="4.78605">
        <ele>182</ele>
        <time>2018-02-19T10:08:29Z</time>
      </trkpt>
      <trkpt lat="45.93797" lon="4.78604">
        <ele>182</ele>
        <time>2018-02-19T10:08:30Z</time>
      </trkpt>
      <trkpt lat="45.93803" lon="4.78602">
        <ele>183</ele>
        <time>2018-02-19T10:08:32Z</time>
      </trkpt>
      <trkpt lat="45.93806" lon="4.78602">
        <ele>183</ele>
        <time>2018-02-19T10:08:33Z</time>
      </trkpt>
      <trkpt lat="45.93815" lon="4.786">
        <ele>184</ele>
        <time>2018-02-19T10:08:36Z</time>
      </trkpt>
      <trkpt lat="45.93818" lon="4.786">
        <ele>184</ele>
        <time>2018-02-19T10:08:37Z</time>
      </trkpt>
      <trkpt lat="45.93826" lon="4.78597">
        <ele>185</ele>
        <time>2018-02-19T10:08:40Z</time>
      </trkpt>
      <trkpt lat="45.93829" lon="4.78596">
        <ele>185</ele>
        <time>2018-02-19T10:08:41Z</time>
      </trkpt>
      <trkpt lat="45.93838" lon="4.78594">
        <ele>187</ele>
        <time>2018-02-19T10:08:44Z</time>
      </trkpt>
      <trkpt lat="45.9384" lon="4.78593">
        <ele>187</ele>
        <time>2018-02-19T10:08:45Z</time>
      </trkpt>
      <trkpt lat="45.93847" lon="4.78591">
        <ele>188</ele>
        <time>2018-02-19T10:08:48Z</time>
      </trkpt>
      <trkpt lat="45.93849" lon="4.78591">
        <ele>188</ele>
        <time>2018-02-19T10:08:49Z</time>
      </trkpt>
      <trkpt lat="45.93856" lon="4.7859">
        <ele>188</ele>
        <time>2018-02-19T10:08:52Z</time>
      </trkpt>
      <trkpt lat="45.93858" lon="4.7859">
        <ele>188</ele>
        <time>2018-02-19T10:08:53Z</time>
      </trkpt>
      <trkpt lat="45.93867" lon="4.78587">
        <ele>188</ele>
        <time>2018-02-19T10:08:57Z</time>
      </trkpt>
      <trkpt lat="45.93868" lon="4.78586">
        <ele>189</ele>
        <time>2018-02-19T10:08:58Z</time>
      </trkpt>
      <trkpt lat="45.93875" lon="4.78583">
        <ele>191</ele>
        <time>2018-02-19T10:09:01Z</time>
      </trkpt>
      <trkpt lat="45.93878" lon="4.78582">
        <ele>191</ele>
        <time>2018-02-19T10:09:02Z</time>
      </trkpt>
      <trkpt lat="45.93885" lon="4.7858">
        <ele>191</ele>
        <time>2018-02-19T10:09:06Z</time>
      </trkpt>
      <trkpt lat="45.93887" lon="4.78579">
        <ele>192</ele>
        <time>2018-02-19T10:09:07Z</time>
      </trkpt>
      <trkpt lat="45.93894" lon="4.78575">
        <ele>192</ele>
        <time>2018-02-19T10:09:12Z</time>
      </trkpt>
      <trkpt lat="45.93896" lon="4.78574">
        <ele>192</ele>
        <time>2018-02-19T10:09:13Z</time>
      </trkpt>
      <trkpt lat="45.93905" lon="4.78569">
        <ele>192</ele>
        <time>2018-02-19T10:09:17Z</time>
      </trkpt>
      <trkpt lat="45.93907" lon="4.78568">
        <ele>192</ele>
        <time>2018-02-19T10:09:18Z</time>
      </trkpt>
      <trkpt lat="45.93914" lon="4.78561">
        <ele>192</ele>
        <time>2018-02-19T10:09:21Z</time>
      </trkpt>
      <trkpt lat="45.93917" lon="4.7856">
        <ele>196</ele>
        <time>2018-02-19T10:09:22Z</time>
      </trkpt>
      <trkpt lat="45.93924" lon="4.78563">
        <ele>196</ele>
        <time>2018-02-19T10:09:25Z</time>
      </trkpt>
      <trkpt lat="45.93925" lon="4.78565">
        <ele>196</ele>
        <time>2018-02-19T10:09:26Z</time>
      </trkpt>
      <trkpt lat="45.93928" lon="4.78573">
        <ele>195</ele>
        <time>2018-02-19T10:09:28Z</time>
      </trkpt>
      <trkpt lat="45.93929" lon="4.78577">
        <ele>195</ele>
        <time>2018-02-19T10:09:29Z</time>
      </trkpt>
      <trkpt lat="45.93931" lon="4.78587">
        <ele>195</ele>
        <time>2018-02-19T10:09:31Z</time>
      </trkpt>
      <trkpt lat="45.93933" lon="4.78592">
        <ele>195</ele>
        <time>2018-02-19T10:09:32Z</time>
      </trkpt>
      <trkpt lat="45.93935" lon="4.78604">
        <ele>195</ele>
        <time>2018-02-19T10:09:35Z</time>
      </trkpt>
      <trkpt lat="45.93935" lon="4.78608">
        <ele>196</ele>
        <time>2018-02-19T10:09:36Z</time>
      </trkpt>
      <trkpt lat="45.93937" lon="4.78619">
        <ele>196</ele>
        <time>2018-02-19T10:09:38Z</time>
      </trkpt>
      <trkpt lat="45.93938" lon="4.78624">
        <ele>196</ele>
        <time>2018-02-19T10:09:39Z</time>
      </trkpt>
      <trkpt lat="45.93939" lon="4.78634">
        <ele>195</ele>
        <time>2018-02-19T10:09:41Z</time>
      </trkpt>
      <trkpt lat="45.93939" lon="4.78639">
        <ele>195</ele>
        <time>2018-02-19T10:09:42Z</time>
      </trkpt>
      <trkpt lat="45.93941" lon="4.7865">
        <ele>195</ele>
        <time>2018-02-19T10:09:44Z</time>
      </trkpt>
      <trkpt lat="45.93941" lon="4.78655">
        <ele>195</ele>
        <time>2018-02-19T10:09:45Z</time>
      </trkpt>
      <trkpt lat="45.93942" lon="4.78665">
        <ele>195</ele>
        <time>2018-02-19T10:09:47Z</time>
      </trkpt>
      <trkpt lat="45.93943" lon="4.7867">
        <ele>194</ele>
        <time>2018-02-19T10:09:48Z</time>
      </trkpt>
      <trkpt lat="45.93943" lon="4.7868">
        <ele>194</ele>
        <time>2018-02-19T10:09:50Z</time>
      </trkpt>
      <trkpt lat="45.93943" lon="4.78685">
        <ele>194</ele>
        <time>2018-02-19T10:09:51Z</time>
      </trkpt>
      <trkpt lat="45.93943" lon="4.78695">
        <ele>194</ele>
        <time>2018-02-19T10:09:53Z</time>
      </trkpt>
      <trkpt lat="45.93943" lon="4.78701">
        <ele>194</ele>
        <time>2018-02-19T10:09:54Z</time>
      </trkpt>
      <trkpt lat="45.93944" lon="4.78712">
        <ele>194</ele>
        <time>2018-02-19T10:09:56Z</time>
      </trkpt>
      <trkpt lat="45.93944" lon="4.78718">
        <ele>194</ele>
        <time>2018-02-19T10:09:57Z</time>
      </trkpt>
      <trkpt lat="45.93944" lon="4.78729">
        <ele>194</ele>
        <time>2018-02-19T10:09:59Z</time>
      </trkpt>
      <trkpt lat="45.93944" lon="4.78735">
        <ele>194</ele>
        <time>2018-02-19T10:10:00Z</time>
      </trkpt>
      <trkpt lat="45.93945" lon="4.78746">
        <ele>194</ele>
        <time>2018-02-19T10:10:02Z</time>
      </trkpt>
      <trkpt lat="45.93946" lon="4.78752">
        <ele>194</ele>
        <time>2018-02-19T10:10:03Z</time>
      </trkpt>
      <trkpt lat="45.93946" lon="4.78764">
        <ele>194</ele>
        <time>2018-02-19T10:10:05Z</time>
      </trkpt>
      <trkpt lat="45.93946" lon="4.78771">
        <ele>194</ele>
        <time>2018-02-19T10:10:06Z</time>
      </trkpt>
      <trkpt lat="45.93943" lon="4.78778">
        <ele>194</ele>
        <time>2018-02-19T10:10:07Z</time>
      </trkpt>
      <trkpt lat="45.93944" lon="4.78784">
        <ele>194</ele>
        <time>2018-02-19T10:10:08Z</time>
      </trkpt>
      <trkpt lat="45.93943" lon="4.78791">
        <ele>194</ele>
        <time>2018-02-19T10:10:09Z</time>
      </trkpt>
      <trkpt lat="45.93944" lon="4.78798">
        <ele>194</ele>
        <time>2018-02-19T10:10:10Z</time>
      </trkpt>
      <trkpt lat="45.93945" lon="4.7881">
        <ele>194</ele>
        <time>2018-02-19T10:10:12Z</time>
      </trkpt>
      <trkpt lat="45.93945" lon="4.78815">
        <ele>194</ele>
        <time>2018-02-19T10:10:13Z</time>
      </trkpt>
      <trkpt lat="45.93944" lon="4.78828">
        <ele>194</ele>
        <time>2018-02-19T10:10:15Z</time>
      </trkpt>
      <trkpt lat="45.93944" lon="4.78834">
        <ele>194</ele>
        <time>2018-02-19T10:10:16Z</time>
      </trkpt>
      <trkpt lat="45.93944" lon="4.78846">
        <ele>194</ele>
        <time>2018-02-19T10:10:18Z</time>
      </trkpt>
      <trkpt lat="45.93945" lon="4.78852">
        <ele>194</ele>
        <time>2018-02-19T10:10:19Z</time>
      </trkpt>
      <trkpt lat="45.93943" lon="4.78865">
        <ele>194</ele>
        <time>2018-02-19T10:10:21Z</time>
      </trkpt>
      <trkpt lat="45.93944" lon="4.78871">
        <ele>194</ele>
        <time>2018-02-19T10:10:22Z</time>
      </trkpt>
      <trkpt lat="45.93944" lon="4.78884">
        <ele>194</ele>
        <time>2018-02-19T10:10:24Z</time>
      </trkpt>
      <trkpt lat="45.93944" lon="4.7889">
        <ele>194</ele>
        <time>2018-02-19T10:10:25Z</time>
      </trkpt>
      <trkpt lat="45.93944" lon="4.78902">
        <ele>193</ele>
        <time>2018-02-19T10:10:27Z</time>
      </trkpt>
      <trkpt lat="45.93944" lon="4.78908">
        <ele>193</ele>
        <time>2018-02-19T10:10:28Z</time>
      </trkpt>
      <trkpt lat="45.93944" lon="4.78919">
        <ele>193</ele>
        <time>2018-02-19T10:10:30Z</time>
      </trkpt>
      <trkpt lat="45.93945" lon="4.78925">
        <ele>193</ele>
        <time>2018-02-19T10:10:31Z</time>
      </trkpt>
      <trkpt lat="45.93945" lon="4.78936">
        <ele>194</ele>
        <time>2018-02-19T10:10:33Z</time>
      </trkpt>
      <trkpt lat="45.93945" lon="4.78942">
        <ele>194</ele>
        <time>2018-02-19T10:10:34Z</time>
      </trkpt>
      <trkpt lat="45.93945" lon="4.78954">
        <ele>194</ele>
        <time>2018-02-19T10:10:36Z</time>
      </trkpt>
      <trkpt lat="45.93945" lon="4.7896">
        <ele>194</ele>
        <time>2018-02-19T10:10:37Z</time>
      </trkpt>
      <trkpt lat="45.93946" lon="4.78965">
        <ele>194</ele>
        <time>2018-02-19T10:10:38Z</time>
      </trkpt>
      <trkpt lat="45.93945" lon="4.78974">
        <ele>194</ele>
        <time>2018-02-19T10:10:39Z</time>
      </trkpt>
      <trkpt lat="45.93947" lon="4.78986">
        <ele>194</ele>
        <time>2018-02-19T10:10:41Z</time>
      </trkpt>
      <trkpt lat="45.93948" lon="4.78991">
        <ele>194</ele>
        <time>2018-02-19T10:10:42Z</time>
      </trkpt>
      <trkpt lat="45.93947" lon="4.79002">
        <ele>195</ele>
        <time>2018-02-19T10:10:44Z</time>
      </trkpt>
      <trkpt lat="45.93947" lon="4.79008">
        <ele>195</ele>
        <time>2018-02-19T10:10:45Z</time>
      </trkpt>
      <trkpt lat="45.93946" lon="4.79019">
        <ele>195</ele>
        <time>2018-02-19T10:10:47Z</time>
      </trkpt>
      <trkpt lat="45.93946" lon="4.79024">
        <ele>195</ele>
        <time>2018-02-19T10:10:48Z</time>
      </trkpt>
      <trkpt lat="45.93947" lon="4.79031">
        <ele>195</ele>
        <time>2018-02-19T10:10:49Z</time>
      </trkpt>
      <trkpt lat="45.93948" lon="4.79037">
        <ele>196</ele>
        <time>2018-02-19T10:10:50Z</time>
      </trkpt>
      <trkpt lat="45.93949" lon="4.79045">
        <ele>196</ele>
        <time>2018-02-19T10:10:51Z</time>
      </trkpt>
      <trkpt lat="45.9395" lon="4.79051">
        <ele>196</ele>
        <time>2018-02-19T10:10:52Z</time>
      </trkpt>
      <trkpt lat="45.9395" lon="4.79062">
        <ele>196</ele>
        <time>2018-02-19T10:10:54Z</time>
      </trkpt>
      <trkpt lat="45.9395" lon="4.79068">
        <ele>196</ele>
        <time>2018-02-19T10:10:55Z</time>
      </trkpt>
      <trkpt lat="45.93951" lon="4.79074">
        <ele>196</ele>
        <time>2018-02-19T10:10:56Z</time>
      </trkpt>
      <trkpt lat="45.93952" lon="4.79082">
        <ele>196</ele>
        <time>2018-02-19T10:10:57Z</time>
      </trkpt>
      <trkpt lat="45.93953" lon="4.79088">
        <ele>197</ele>
        <time>2018-02-19T10:10:58Z</time>
      </trkpt>
      <trkpt lat="45.93952" lon="4.79096">
        <ele>197</ele>
        <time>2018-02-19T10:10:59Z</time>
      </trkpt>
      <trkpt lat="45.93953" lon="4.79106">
        <ele>197</ele>
        <time>2018-02-19T10:11:01Z</time>
      </trkpt>
      <trkpt lat="45.93953" lon="4.79112">
        <ele>197</ele>
        <time>2018-02-19T10:11:02Z</time>
      </trkpt>
      <trkpt lat="45.93953" lon="4.79123">
        <ele>197</ele>
        <time>2018-02-19T10:11:04Z</time>
      </trkpt>
      <trkpt lat="45.93953" lon="4.79129">
        <ele>197</ele>
        <time>2018-02-19T10:11:05Z</time>
      </trkpt>
      <trkpt lat="45.93953" lon="4.7914">
        <ele>197</ele>
        <time>2018-02-19T10:11:07Z</time>
      </trkpt>
      <trkpt lat="45.93953" lon="4.79146">
        <ele>197</ele>
        <time>2018-02-19T10:11:08Z</time>
      </trkpt>
      <trkpt lat="45.93953" lon="4.79159">
        <ele>197</ele>
        <time>2018-02-19T10:11:10Z</time>
      </trkpt>
      <trkpt lat="45.93953" lon="4.79165">
        <ele>197</ele>
        <time>2018-02-19T10:11:11Z</time>
      </trkpt>
      <trkpt lat="45.93953" lon="4.79176">
        <ele>197</ele>
        <time>2018-02-19T10:11:13Z</time>
      </trkpt>
      <trkpt lat="45.93954" lon="4.79182">
        <ele>197</ele>
        <time>2018-02-19T10:11:14Z</time>
      </trkpt>
      <trkpt lat="45.93954" lon="4.79193">
        <ele>197</ele>
        <time>2018-02-19T10:11:16Z</time>
      </trkpt>
      <trkpt lat="45.93954" lon="4.79199">
        <ele>197</ele>
        <time>2018-02-19T10:11:17Z</time>
      </trkpt>
      <trkpt lat="45.93954" lon="4.79208">
        <ele>197</ele>
        <time>2018-02-19T10:11:19Z</time>
      </trkpt>
      <trkpt lat="45.93953" lon="4.79214">
        <ele>197</ele>
        <time>2018-02-19T10:11:20Z</time>
      </trkpt>
      <trkpt lat="45.93953" lon="4.79225">
        <ele>197</ele>
        <time>2018-02-19T10:11:22Z</time>
      </trkpt>
      <trkpt lat="45.93952" lon="4.79231">
        <ele>197</ele>
        <time>2018-02-19T10:11:23Z</time>
      </trkpt>
      <trkpt lat="45.93952" lon="4.79242">
        <ele>197</ele>
        <time>2018-02-19T10:11:25Z</time>
      </trkpt>
      <trkpt lat="45.93952" lon="4.79247">
        <ele>197</ele>
        <time>2018-02-19T10:11:26Z</time>
      </trkpt>
      <trkpt lat="45.93952" lon="4.79259">
        <ele>198</ele>
        <time>2018-02-19T10:11:28Z</time>
      </trkpt>
      <trkpt lat="45.93952" lon="4.79264">
        <ele>198</ele>
        <time>2018-02-19T10:11:29Z</time>
      </trkpt>
      <trkpt lat="45.93952" lon="4.79276">
        <ele>198</ele>
        <time>2018-02-19T10:11:31Z</time>
      </trkpt>
      <trkpt lat="45.93953" lon="4.79282">
        <ele>198</ele>
        <time>2018-02-19T10:11:32Z</time>
      </trkpt>
      <trkpt lat="45.93953" lon="4.79293">
        <ele>198</ele>
        <time>2018-02-19T10:11:34Z</time>
      </trkpt>
      <trkpt lat="45.93954" lon="4.79298">
        <ele>199</ele>
        <time>2018-02-19T10:11:35Z</time>
      </trkpt>
      <trkpt lat="45.93954" lon="4.79309">
        <ele>199</ele>
        <time>2018-02-19T10:11:37Z</time>
      </trkpt>
      <trkpt lat="45.93954" lon="4.79314">
        <ele>199</ele>
        <time>2018-02-19T10:11:38Z</time>
      </trkpt>
      <trkpt lat="45.93955" lon="4.79325">
        <ele>199</ele>
        <time>2018-02-19T10:11:40Z</time>
      </trkpt>
      <trkpt lat="45.93955" lon="4.7933">
        <ele>199</ele>
        <time>2018-02-19T10:11:41Z</time>
      </trkpt>
      <trkpt lat="45.93955" lon="4.7934">
        <ele>200</ele>
        <time>2018-02-19T10:11:43Z</time>
      </trkpt>
      <trkpt lat="45.93955" lon="4.79345">
        <ele>201</ele>
        <time>2018-02-19T10:11:44Z</time>
      </trkpt>
      <trkpt lat="45.93956" lon="4.79355">
        <ele>201</ele>
        <time>2018-02-19T10:11:46Z</time>
      </trkpt>
      <trkpt lat="45.93956" lon="4.7936">
        <ele>201</ele>
        <time>2018-02-19T10:11:47Z</time>
      </trkpt>
      <trkpt lat="45.93956" lon="4.7937">
        <ele>201</ele>
        <time>2018-02-19T10:11:49Z</time>
      </trkpt>
      <trkpt lat="45.93956" lon="4.79376">
        <ele>201</ele>
        <time>2018-02-19T10:11:50Z</time>
      </trkpt>
      <trkpt lat="45.93957" lon="4.79387">
        <ele>201</ele>
        <time>2018-02-19T10:11:52Z</time>
      </trkpt>
      <trkpt lat="45.93957" lon="4.79393">
        <ele>201</ele>
        <time>2018-02-19T10:11:53Z</time>
      </trkpt>
      <trkpt lat="45.93957" lon="4.79405">
        <ele>201</ele>
        <time>2018-02-19T10:11:55Z</time>
      </trkpt>
      <trkpt lat="45.93957" lon="4.7941">
        <ele>202</ele>
        <time>2018-02-19T10:11:56Z</time>
      </trkpt>
      <trkpt lat="45.93956" lon="4.79421">
        <ele>203</ele>
        <time>2018-02-19T10:11:58Z</time>
      </trkpt>
      <trkpt lat="45.93956" lon="4.79426">
        <ele>203</ele>
        <time>2018-02-19T10:11:59Z</time>
      </trkpt>
      <trkpt lat="45.93955" lon="4.79435">
        <ele>203</ele>
        <time>2018-02-19T10:12:01Z</time>
      </trkpt>
      <trkpt lat="45.93955" lon="4.79441">
        <ele>203</ele>
        <time>2018-02-19T10:12:02Z</time>
      </trkpt>
      <trkpt lat="45.93954" lon="4.7945">
        <ele>203</ele>
        <time>2018-02-19T10:12:04Z</time>
      </trkpt>
      <trkpt lat="45.93954" lon="4.79454">
        <ele>203</ele>
        <time>2018-02-19T10:12:05Z</time>
      </trkpt>
      <trkpt lat="45.93953" lon="4.79463">
        <ele>203</ele>
        <time>2018-02-19T10:12:07Z</time>
      </trkpt>
      <trkpt lat="45.93953" lon="4.79469">
        <ele>203</ele>
        <time>2018-02-19T10:12:08Z</time>
      </trkpt>
      <trkpt lat="45.93953" lon="4.79479">
        <ele>203</ele>
        <time>2018-02-19T10:12:10Z</time>
      </trkpt>
      <trkpt lat="45.93953" lon="4.79485">
        <ele>203</ele>
        <time>2018-02-19T10:12:11Z</time>
      </trkpt>
      <trkpt lat="45.93954" lon="4.79494">
        <ele>203</ele>
        <time>2018-02-19T10:12:13Z</time>
      </trkpt>
      <trkpt lat="45.93954" lon="4.79499">
        <ele>203</ele>
        <time>2018-02-19T10:12:14Z</time>
      </trkpt>
      <trkpt lat="45.93955" lon="4.79508">
        <ele>204</ele>
        <time>2018-02-19T10:12:16Z</time>
      </trkpt>
      <trkpt lat="45.93956" lon="4.79514">
        <ele>204</ele>
        <time>2018-02-19T10:12:17Z</time>
      </trkpt>
      <trkpt lat="45.93956" lon="4.79524">
        <ele>204</ele>
        <time>2018-02-19T10:12:19Z</time>
      </trkpt>
      <trkpt lat="45.93956" lon="4.79529">
        <ele>205</ele>
        <time>2018-02-19T10:12:20Z</time>
      </trkpt>
      <trkpt lat="45.93957" lon="4.79539">
        <ele>205</ele>
        <time>2018-02-19T10:12:22Z</time>
      </trkpt>
      <trkpt lat="45.93957" lon="4.79544">
        <ele>205</ele>
        <time>2018-02-19T10:12:23Z</time>
      </trkpt>
      <trkpt lat="45.93959" lon="4.79554">
        <ele>205</ele>
        <time>2018-02-19T10:12:25Z</time>
      </trkpt>
      <trkpt lat="45.93959" lon="4.79559">
        <ele>205</ele>
        <time>2018-02-19T10:12:26Z</time>
      </trkpt>
      <trkpt lat="45.93959" lon="4.79568">
        <ele>206</ele>
        <time>2018-02-19T10:12:28Z</time>
      </trkpt>
      <trkpt lat="45.9396" lon="4.79573">
        <ele>206</ele>
        <time>2018-02-19T10:12:29Z</time>
      </trkpt>
      <trkpt lat="45.9396" lon="4.79582">
        <ele>206</ele>
        <time>2018-02-19T10:12:31Z</time>
      </trkpt>
      <trkpt lat="45.93961" lon="4.79587">
        <ele>207</ele>
        <time>2018-02-19T10:12:32Z</time>
      </trkpt>
      <trkpt lat="45.93962" lon="4.79596">
        <ele>207</ele>
        <time>2018-02-19T10:12:34Z</time>
      </trkpt>
      <trkpt lat="45.93962" lon="4.796">
        <ele>207</ele>
        <time>2018-02-19T10:12:35Z</time>
      </trkpt>
      <trkpt lat="45.93964" lon="4.7961">
        <ele>207</ele>
        <time>2018-02-19T10:12:37Z</time>
      </trkpt>
      <trkpt lat="45.93964" lon="4.79614">
        <ele>207</ele>
        <time>2018-02-19T10:12:38Z</time>
      </trkpt>
      <trkpt lat="45.93964" lon="4.79623">
        <ele>207</ele>
        <time>2018-02-19T10:12:40Z</time>
      </trkpt>
      <trkpt lat="45.93964" lon="4.79628">
        <ele>207</ele>
        <time>2018-02-19T10:12:41Z</time>
      </trkpt>
      <trkpt lat="45.93964" lon="4.79637">
        <ele>207</ele>
        <time>2018-02-19T10:12:43Z</time>
      </trkpt>
      <trkpt lat="45.93963" lon="4.79642">
        <ele>207</ele>
        <time>2018-02-19T10:12:44Z</time>
      </trkpt>
      <trkpt lat="45.93963" lon="4.79652">
        <ele>207</ele>
        <time>2018-02-19T10:12:46Z</time>
      </trkpt>
      <trkpt lat="45.93963" lon="4.79657">
        <ele>207</ele>
        <time>2018-02-19T10:12:47Z</time>
      </trkpt>
      <trkpt lat="45.93964" lon="4.79667">
        <ele>207</ele>
        <time>2018-02-19T10:12:49Z</time>
      </trkpt>
      <trkpt lat="45.93965" lon="4.79671">
        <ele>207</ele>
        <time>2018-02-19T10:12:50Z</time>
      </trkpt>
      <trkpt lat="45.93968" lon="4.79679">
        <ele>207</ele>
        <time>2018-02-19T10:12:52Z</time>
      </trkpt>
      <trkpt lat="45.93969" lon="4.79684">
        <ele>207</ele>
        <time>2018-02-19T10:12:53Z</time>
      </trkpt>
      <trkpt lat="45.93969" lon="4.79694">
        <ele>207</ele>
        <time>2018-02-19T10:12:55Z</time>
      </trkpt>
      <trkpt lat="45.93968" lon="4.79698">
        <ele>207</ele>
        <time>2018-02-19T10:12:56Z</time>
      </trkpt>
      <trkpt lat="45.93968" lon="4.79708">
        <ele>207</ele>
        <time>2018-02-19T10:12:58Z</time>
      </trkpt>
      <trkpt lat="45.93967" lon="4.79713">
        <ele>207</ele>
        <time>2018-02-19T10:12:59Z</time>
      </trkpt>
      <trkpt lat="45.93968" lon="4.79724">
        <ele>207</ele>
        <time>2018-02-19T10:13:01Z</time>
      </trkpt>
      <trkpt lat="45.93969" lon="4.79729">
        <ele>207</ele>
        <time>2018-02-19T10:13:02Z</time>
      </trkpt>
      <trkpt lat="45.93969" lon="4.79738">
        <ele>207</ele>
        <time>2018-02-19T10:13:04Z</time>
      </trkpt>
      <trkpt lat="45.9397" lon="4.79742">
        <ele>207</ele>
        <time>2018-02-19T10:13:05Z</time>
      </trkpt>
      <trkpt lat="45.93971" lon="4.79751">
        <ele>206</ele>
        <time>2018-02-19T10:13:07Z</time>
      </trkpt>
      <trkpt lat="45.93972" lon="4.79756">
        <ele>206</ele>
        <time>2018-02-19T10:13:08Z</time>
      </trkpt>
      <trkpt lat="45.93973" lon="4.79768">
        <ele>206</ele>
        <time>2018-02-19T10:13:10Z</time>
      </trkpt>
      <trkpt lat="45.93973" lon="4.79773">
        <ele>206</ele>
        <time>2018-02-19T10:13:11Z</time>
      </trkpt>
      <trkpt lat="45.93972" lon="4.79784">
        <ele>206</ele>
        <time>2018-02-19T10:13:13Z</time>
      </trkpt>
      <trkpt lat="45.93972" lon="4.79789">
        <ele>206</ele>
        <time>2018-02-19T10:13:14Z</time>
      </trkpt>
      <trkpt lat="45.93971" lon="4.798">
        <ele>206</ele>
        <time>2018-02-19T10:13:16Z</time>
      </trkpt>
      <trkpt lat="45.9397" lon="4.79805">
        <ele>206</ele>
        <time>2018-02-19T10:13:17Z</time>
      </trkpt>
      <trkpt lat="45.93968" lon="4.79816">
        <ele>207</ele>
        <time>2018-02-19T10:13:19Z</time>
      </trkpt>
      <trkpt lat="45.93967" lon="4.79822">
        <ele>207</ele>
        <time>2018-02-19T10:13:20Z</time>
      </trkpt>
      <trkpt lat="45.93965" lon="4.79834">
        <ele>206</ele>
        <time>2018-02-19T10:13:22Z</time>
      </trkpt>
      <trkpt lat="45.93964" lon="4.7984">
        <ele>206</ele>
        <time>2018-02-19T10:13:23Z</time>
      </trkpt>
      <trkpt lat="45.93962" lon="4.79851">
        <ele>206</ele>
        <time>2018-02-19T10:13:25Z</time>
      </trkpt>
      <trkpt lat="45.93961" lon="4.79857">
        <ele>206</ele>
        <time>2018-02-19T10:13:26Z</time>
      </trkpt>
      <trkpt lat="45.93959" lon="4.79869">
        <ele>206</ele>
        <time>2018-02-19T10:13:28Z</time>
      </trkpt>
      <trkpt lat="45.93958" lon="4.79876">
        <ele>206</ele>
        <time>2018-02-19T10:13:29Z</time>
      </trkpt>
      <trkpt lat="45.93956" lon="4.79882">
        <ele>206</ele>
        <time>2018-02-19T10:13:30Z</time>
      </trkpt>
      <trkpt lat="45.93955" lon="4.79888">
        <ele>205</ele>
        <time>2018-02-19T10:13:31Z</time>
      </trkpt>
      <trkpt lat="45.93952" lon="4.79895">
        <ele>205</ele>
        <time>2018-02-19T10:13:32Z</time>
      </trkpt>
      <trkpt lat="45.93953" lon="4.79902">
        <ele>205</ele>
        <time>2018-02-19T10:13:33Z</time>
      </trkpt>
      <trkpt lat="45.93951" lon="4.79909">
        <ele>205</ele>
        <time>2018-02-19T10:13:34Z</time>
      </trkpt>
      <trkpt lat="45.9395" lon="4.79916">
        <ele>205</ele>
        <time>2018-02-19T10:13:35Z</time>
      </trkpt>
      <trkpt lat="45.9395" lon="4.79923">
        <ele>205</ele>
        <time>2018-02-19T10:13:36Z</time>
      </trkpt>
      <trkpt lat="45.93949" lon="4.7993">
        <ele>205</ele>
        <time>2018-02-19T10:13:37Z</time>
      </trkpt>
      <trkpt lat="45.93948" lon="4.79937">
        <ele>205</ele>
        <time>2018-02-19T10:13:38Z</time>
      </trkpt>
      <trkpt lat="45.93945" lon="4.79945">
        <ele>205</ele>
        <time>2018-02-19T10:13:39Z</time>
      </trkpt>
      <trkpt lat="45.93945" lon="4.79951">
        <ele>205</ele>
        <time>2018-02-19T10:13:40Z</time>
      </trkpt>
      <trkpt lat="45.93945" lon="4.79958">
        <ele>205</ele>
        <time>2018-02-19T10:13:41Z</time>
      </trkpt>
      <trkpt lat="45.93942" lon="4.79969">
        <ele>205</ele>
        <time>2018-02-19T10:13:43Z</time>
      </trkpt>
      <trkpt lat="45.93941" lon="4.79974">
        <ele>205</ele>
        <time>2018-02-19T10:13:44Z</time>
      </trkpt>
      <trkpt lat="45.9394" lon="4.79985">
        <ele>204</ele>
        <time>2018-02-19T10:13:46Z</time>
      </trkpt>
      <trkpt lat="45.9394" lon="4.79992">
        <ele>204</ele>
        <time>2018-02-19T10:13:47Z</time>
      </trkpt>
      <trkpt lat="45.93939" lon="4.80004">
        <ele>205</ele>
        <time>2018-02-19T10:13:49Z</time>
      </trkpt>
      <trkpt lat="45.93939" lon="4.8001">
        <ele>206</ele>
        <time>2018-02-19T10:13:50Z</time>
      </trkpt>
      <trkpt lat="45.93938" lon="4.80022">
        <ele>206</ele>
        <time>2018-02-19T10:13:52Z</time>
      </trkpt>
      <trkpt lat="45.93937" lon="4.80028">
        <ele>206</ele>
        <time>2018-02-19T10:13:53Z</time>
      </trkpt>
      <trkpt lat="45.93936" lon="4.8004">
        <ele>207</ele>
        <time>2018-02-19T10:13:55Z</time>
      </trkpt>
      <trkpt lat="45.93935" lon="4.80046">
        <ele>207</ele>
        <time>2018-02-19T10:13:56Z</time>
      </trkpt>
      <trkpt lat="45.93936" lon="4.80059">
        <ele>207</ele>
        <time>2018-02-19T10:13:58Z</time>
      </trkpt>
      <trkpt lat="45.93936" lon="4.80065">
        <ele>207</ele>
        <time>2018-02-19T10:13:59Z</time>
      </trkpt>
      <trkpt lat="45.93936" lon="4.80078">
        <ele>207</ele>
        <time>2018-02-19T10:14:01Z</time>
      </trkpt>
      <trkpt lat="45.93937" lon="4.80084">
        <ele>208</ele>
        <time>2018-02-19T10:14:02Z</time>
      </trkpt>
      <trkpt lat="45.93938" lon="4.80095">
        <ele>208</ele>
        <time>2018-02-19T10:14:04Z</time>
      </trkpt>
      <trkpt lat="45.93938" lon="4.801">
        <ele>208</ele>
        <time>2018-02-19T10:14:05Z</time>
      </trkpt>
      <trkpt lat="45.93938" lon="4.80113">
        <ele>208</ele>
        <time>2018-02-19T10:14:07Z</time>
      </trkpt>
      <trkpt lat="45.93939" lon="4.80118">
        <ele>208</ele>
        <time>2018-02-19T10:14:08Z</time>
      </trkpt>
      <trkpt lat="45.93942" lon="4.8013">
        <ele>208</ele>
        <time>2018-02-19T10:14:10Z</time>
      </trkpt>
      <trkpt lat="45.93942" lon="4.80137">
        <ele>208</ele>
        <time>2018-02-19T10:14:11Z</time>
      </trkpt>
      <trkpt lat="45.93942" lon="4.80145">
        <ele>208</ele>
        <time>2018-02-19T10:14:12Z</time>
      </trkpt>
      <trkpt lat="45.93941" lon="4.80152">
        <ele>208</ele>
        <time>2018-02-19T10:14:13Z</time>
      </trkpt>
      <trkpt lat="45.93944" lon="4.80158">
        <ele>208</ele>
        <time>2018-02-19T10:14:14Z</time>
      </trkpt>
      <trkpt lat="45.93947" lon="4.80165">
        <ele>208</ele>
        <time>2018-02-19T10:14:15Z</time>
      </trkpt>
      <trkpt lat="45.93949" lon="4.8017">
        <ele>206</ele>
        <time>2018-02-19T10:14:16Z</time>
      </trkpt>
      <trkpt lat="45.93948" lon="4.80178">
        <ele>206</ele>
        <time>2018-02-19T10:14:17Z</time>
      </trkpt>
      <trkpt lat="45.9395" lon="4.80186">
        <ele>206</ele>
        <time>2018-02-19T10:14:19Z</time>
      </trkpt>
      <trkpt lat="45.93951" lon="4.80192">
        <ele>205</ele>
        <time>2018-02-19T10:14:20Z</time>
      </trkpt>
      <trkpt lat="45.93953" lon="4.80203">
        <ele>205</ele>
        <time>2018-02-19T10:14:22Z</time>
      </trkpt>
      <trkpt lat="45.93954" lon="4.80208">
        <ele>205</ele>
        <time>2018-02-19T10:14:23Z</time>
      </trkpt>
      <trkpt lat="45.93956" lon="4.8022">
        <ele>205</ele>
        <time>2018-02-19T10:14:25Z</time>
      </trkpt>
      <trkpt lat="45.93958" lon="4.80225">
        <ele>205</ele>
        <time>2018-02-19T10:14:26Z</time>
      </trkpt>
      <trkpt lat="45.93961" lon="4.80237">
        <ele>204</ele>
        <time>2018-02-19T10:14:28Z</time>
      </trkpt>
      <trkpt lat="45.93963" lon="4.80243">
        <ele>204</ele>
        <time>2018-02-19T10:14:29Z</time>
      </trkpt>
      <trkpt lat="45.93966" lon="4.80253">
        <ele>202</ele>
        <time>2018-02-19T10:14:31Z</time>
      </trkpt>
      <trkpt lat="45.93968" lon="4.80259">
        <ele>202</ele>
        <time>2018-02-19T10:14:32Z</time>
      </trkpt>
      <trkpt lat="45.9397" lon="4.80265">
        <ele>202</ele>
        <time>2018-02-19T10:14:33Z</time>
      </trkpt>
      <trkpt lat="45.93972" lon="4.80271">
        <ele>202</ele>
        <time>2018-02-19T10:14:34Z</time>
      </trkpt>
      <trkpt lat="45.93975" lon="4.80282">
        <ele>203</ele>
        <time>2018-02-19T10:14:36Z</time>
      </trkpt>
      <trkpt lat="45.93976" lon="4.80288">
        <ele>203</ele>
        <time>2018-02-19T10:14:37Z</time>
      </trkpt>
      <trkpt lat="45.9398" lon="4.80297">
        <ele>203</ele>
        <time>2018-02-19T10:14:39Z</time>
      </trkpt>
      <trkpt lat="45.93983" lon="4.80302">
        <ele>203</ele>
        <time>2018-02-19T10:14:40Z</time>
      </trkpt>
      <trkpt lat="45.93985" lon="4.80311">
        <ele>203</ele>
        <time>2018-02-19T10:14:42Z</time>
      </trkpt>
      <trkpt lat="45.93986" lon="4.80315">
        <ele>204</ele>
        <time>2018-02-19T10:14:43Z</time>
      </trkpt>
      <trkpt lat="45.9399" lon="4.80327">
        <ele>204</ele>
        <time>2018-02-19T10:14:46Z</time>
      </trkpt>
      <trkpt lat="45.93991" lon="4.8033">
        <ele>205</ele>
        <time>2018-02-19T10:14:47Z</time>
      </trkpt>
      <trkpt lat="45.93994" lon="4.80341">
        <ele>206</ele>
        <time>2018-02-19T10:14:50Z</time>
      </trkpt>
      <trkpt lat="45.93995" lon="4.80344">
        <ele>206</ele>
        <time>2018-02-19T10:14:51Z</time>
      </trkpt>
      <trkpt lat="45.93998" lon="4.80355">
        <ele>206</ele>
        <time>2018-02-19T10:14:54Z</time>
      </trkpt>
      <trkpt lat="45.93998" lon="4.80359">
        <ele>207</ele>
        <time>2018-02-19T10:14:55Z</time>
      </trkpt>
      <trkpt lat="45.94001" lon="4.80369">
        <ele>215</ele>
        <time>2018-02-19T10:14:58Z</time>
      </trkpt>
      <trkpt lat="45.94002" lon="4.80371">
        <ele>215</ele>
        <time>2018-02-19T10:14:59Z</time>
      </trkpt>
      <trkpt lat="45.94006" lon="4.80383">
        <ele>217</ele>
        <time>2018-02-19T10:15:03Z</time>
      </trkpt>
      <trkpt lat="45.94006" lon="4.80384">
        <ele>217</ele>
        <time>2018-02-19T10:15:04Z</time>
      </trkpt>
      <trkpt lat="45.9401" lon="4.80393">
        <ele>217</ele>
        <time>2018-02-19T10:15:07Z</time>
      </trkpt>
      <trkpt lat="45.94011" lon="4.80397">
        <ele>217</ele>
        <time>2018-02-19T10:15:08Z</time>
      </trkpt>
      <trkpt lat="45.94014" lon="4.80407">
        <ele>218</ele>
        <time>2018-02-19T10:15:11Z</time>
      </trkpt>
      <trkpt lat="45.94015" lon="4.8041">
        <ele>218</ele>
        <time>2018-02-19T10:15:12Z</time>
      </trkpt>
      <trkpt lat="45.94019" lon="4.80421">
        <ele>221</ele>
        <time>2018-02-19T10:15:17Z</time>
      </trkpt>
      <trkpt lat="45.94019" lon="4.80422">
        <ele>221</ele>
        <time>2018-02-19T10:15:18Z</time>
      </trkpt>
      <trkpt lat="45.94016" lon="4.80432">
        <ele>221</ele>
        <time>2018-02-19T10:15:23Z</time>
      </trkpt>
      <trkpt lat="45.94014" lon="4.80435">
        <ele>221</ele>
        <time>2018-02-19T10:15:24Z</time>
      </trkpt>
      <trkpt lat="45.94014" lon="4.80446">
        <ele>222</ele>
        <time>2018-02-19T10:15:27Z</time>
      </trkpt>
      <trkpt lat="45.94015" lon="4.8045">
        <ele>223</ele>
        <time>2018-02-19T10:15:28Z</time>
      </trkpt>
      <trkpt lat="45.94014" lon="4.80459">
        <ele>223</ele>
        <time>2018-02-19T10:15:31Z</time>
      </trkpt>
      <trkpt lat="45.94014" lon="4.80463">
        <ele>223</ele>
        <time>2018-02-19T10:15:32Z</time>
      </trkpt>
      <trkpt lat="45.94015" lon="4.80474">
        <ele>223</ele>
        <time>2018-02-19T10:15:36Z</time>
      </trkpt>
      <trkpt lat="45.94016" lon="4.80478">
        <ele>223</ele>
        <time>2018-02-19T10:15:37Z</time>
      </trkpt>
      <trkpt lat="45.94015" lon="4.80488">
        <ele>222</ele>
        <time>2018-02-19T10:15:40Z</time>
      </trkpt>
      <trkpt lat="45.94015" lon="4.80492">
        <ele>222</ele>
        <time>2018-02-19T10:15:41Z</time>
      </trkpt>
      <trkpt lat="45.94016" lon="4.80501">
        <ele>222</ele>
        <time>2018-02-19T10:15:44Z</time>
      </trkpt>
      <trkpt lat="45.94015" lon="4.80505">
        <ele>222</ele>
        <time>2018-02-19T10:15:45Z</time>
      </trkpt>
      <trkpt lat="45.94016" lon="4.80516">
        <ele>223</ele>
        <time>2018-02-19T10:15:48Z</time>
      </trkpt>
      <trkpt lat="45.94016" lon="4.8052">
        <ele>224</ele>
        <time>2018-02-19T10:15:49Z</time>
      </trkpt>
      <trkpt lat="45.94017" lon="4.80529">
        <ele>224</ele>
        <time>2018-02-19T10:15:51Z</time>
      </trkpt>
      <trkpt lat="45.94018" lon="4.80533">
        <ele>224</ele>
        <time>2018-02-19T10:15:52Z</time>
      </trkpt>
      <trkpt lat="45.94018" lon="4.80543">
        <ele>225</ele>
        <time>2018-02-19T10:15:55Z</time>
      </trkpt>
      <trkpt lat="45.94018" lon="4.80547">
        <ele>224</ele>
        <time>2018-02-19T10:15:56Z</time>
      </trkpt>
      <trkpt lat="45.94017" lon="4.80556">
        <ele>224</ele>
        <time>2018-02-19T10:15:58Z</time>
      </trkpt>
      <trkpt lat="45.94018" lon="4.80561">
        <ele>224</ele>
        <time>2018-02-19T10:15:59Z</time>
      </trkpt>
      <trkpt lat="45.94018" lon="4.80572">
        <ele>223</ele>
        <time>2018-02-19T10:16:02Z</time>
      </trkpt>
      <trkpt lat="45.94018" lon="4.80575">
        <ele>223</ele>
        <time>2018-02-19T10:16:03Z</time>
      </trkpt>
      <trkpt lat="45.94016" lon="4.80584">
        <ele>222</ele>
        <time>2018-02-19T10:16:05Z</time>
      </trkpt>
      <trkpt lat="45.94016" lon="4.80587">
        <ele>222</ele>
        <time>2018-02-19T10:16:06Z</time>
      </trkpt>
      <trkpt lat="45.94018" lon="4.80597">
        <ele>223</ele>
        <time>2018-02-19T10:16:08Z</time>
      </trkpt>
      <trkpt lat="45.9402" lon="4.80601">
        <ele>223</ele>
        <time>2018-02-19T10:16:09Z</time>
      </trkpt>
      <trkpt lat="45.94021" lon="4.80613">
        <ele>224</ele>
        <time>2018-02-19T10:16:13Z</time>
      </trkpt>
      <trkpt lat="45.94021" lon="4.80615">
        <ele>224</ele>
        <time>2018-02-19T10:16:14Z</time>
      </trkpt>
      <trkpt lat="45.94024" lon="4.80625">
        <ele>225</ele>
        <time>2018-02-19T10:16:17Z</time>
      </trkpt>
      <trkpt lat="45.94025" lon="4.80629">
        <ele>225</ele>
        <time>2018-02-19T10:16:18Z</time>
      </trkpt>
      <trkpt lat="45.94028" lon="4.8064">
        <ele>225</ele>
        <time>2018-02-19T10:16:21Z</time>
      </trkpt>
      <trkpt lat="45.94028" lon="4.80644">
        <ele>225</ele>
        <time>2018-02-19T10:16:22Z</time>
      </trkpt>
      <trkpt lat="45.94029" lon="4.80654">
        <ele>224</ele>
        <time>2018-02-19T10:16:25Z</time>
      </trkpt>
      <trkpt lat="45.94029" lon="4.80657">
        <ele>224</ele>
        <time>2018-02-19T10:16:26Z</time>
      </trkpt>
      <trkpt lat="45.94027" lon="4.80668">
        <ele>224</ele>
        <time>2018-02-19T10:16:29Z</time>
      </trkpt>
      <trkpt lat="45.94027" lon="4.80671">
        <ele>224</ele>
        <time>2018-02-19T10:16:30Z</time>
      </trkpt>
      <trkpt lat="45.94029" lon="4.80683">
        <ele>225</ele>
        <time>2018-02-19T10:16:33Z</time>
      </trkpt>
      <trkpt lat="45.9403" lon="4.80687">
        <ele>225</ele>
        <time>2018-02-19T10:16:34Z</time>
      </trkpt>
      <trkpt lat="45.94032" lon="4.80699">
        <ele>225</ele>
        <time>2018-02-19T10:16:37Z</time>
      </trkpt>
      <trkpt lat="45.94033" lon="4.80702">
        <ele>226</ele>
        <time>2018-02-19T10:16:38Z</time>
      </trkpt>
      <trkpt lat="45.94034" lon="4.80714">
        <ele>226</ele>
        <time>2018-02-19T10:16:41Z</time>
      </trkpt>
      <trkpt lat="45.94035" lon="4.80718">
        <ele>226</ele>
        <time>2018-02-19T10:16:42Z</time>
      </trkpt>
      <trkpt lat="45.94035" lon="4.80728">
        <ele>226</ele>
        <time>2018-02-19T10:16:45Z</time>
      </trkpt>
      <trkpt lat="45.94036" lon="4.80732">
        <ele>226</ele>
        <time>2018-02-19T10:16:46Z</time>
      </trkpt>
      <trkpt lat="45.94038" lon="4.80741">
        <ele>226</ele>
        <time>2018-02-19T10:16:48Z</time>
      </trkpt>
      <trkpt lat="45.9404" lon="4.80744">
        <ele>227</ele>
        <time>2018-02-19T10:16:49Z</time>
      </trkpt>
      <trkpt lat="45.94042" lon="4.80754">
        <ele>228</ele>
        <time>2018-02-19T10:16:52Z</time>
      </trkpt>
      <trkpt lat="45.94043" lon="4.80758">
        <ele>228</ele>
        <time>2018-02-19T10:16:53Z</time>
      </trkpt>
      <trkpt lat="45.94044" lon="4.80768">
        <ele>228</ele>
        <time>2018-02-19T10:16:57Z</time>
      </trkpt>
      <trkpt lat="45.94044" lon="4.80771">
        <ele>228</ele>
        <time>2018-02-19T10:16:58Z</time>
      </trkpt>
      <trkpt lat="45.94044" lon="4.80782">
        <ele>228</ele>
        <time>2018-02-19T10:17:01Z</time>
      </trkpt>
      <trkpt lat="45.94045" lon="4.80785">
        <ele>228</ele>
        <time>2018-02-19T10:17:02Z</time>
      </trkpt>
      <trkpt lat="45.94047" lon="4.80795">
        <ele>229</ele>
        <time>2018-02-19T10:17:05Z</time>
      </trkpt>
      <trkpt lat="45.94047" lon="4.80799">
        <ele>229</ele>
        <time>2018-02-19T10:17:06Z</time>
      </trkpt>
      <trkpt lat="45.94049" lon="4.80807">
        <ele>229</ele>
        <time>2018-02-19T10:17:08Z</time>
      </trkpt>
      <trkpt lat="45.9405" lon="4.80811">
        <ele>229</ele>
        <time>2018-02-19T10:17:09Z</time>
      </trkpt>
      <trkpt lat="45.94051" lon="4.80821">
        <ele>230</ele>
        <time>2018-02-19T10:17:11Z</time>
      </trkpt>
      <trkpt lat="45.94051" lon="4.80825">
        <ele>230</ele>
        <time>2018-02-19T10:17:12Z</time>
      </trkpt>
      <trkpt lat="45.94052" lon="4.80834">
        <ele>231</ele>
        <time>2018-02-19T10:17:14Z</time>
      </trkpt>
      <trkpt lat="45.94053" lon="4.80838">
        <ele>231</ele>
        <time>2018-02-19T10:17:15Z</time>
      </trkpt>
      <trkpt lat="45.94053" lon="4.80848">
        <ele>230</ele>
        <time>2018-02-19T10:17:18Z</time>
      </trkpt>
      <trkpt lat="45.94052" lon="4.80852">
        <ele>230</ele>
        <time>2018-02-19T10:17:19Z</time>
      </trkpt>
      <trkpt lat="45.94052" lon="4.80861">
        <ele>230</ele>
        <time>2018-02-19T10:17:22Z</time>
      </trkpt>
      <trkpt lat="45.94052" lon="4.80865">
        <ele>230</ele>
        <time>2018-02-19T10:17:23Z</time>
      </trkpt>
      <trkpt lat="45.94053" lon="4.80874">
        <ele>230</ele>
        <time>2018-02-19T10:17:26Z</time>
      </trkpt>
      <trkpt lat="45.94053" lon="4.80877">
        <ele>230</ele>
        <time>2018-02-19T10:17:27Z</time>
      </trkpt>
      <trkpt lat="45.94054" lon="4.80889">
        <ele>230</ele>
        <time>2018-02-19T10:17:30Z</time>
      </trkpt>
      <trkpt lat="45.94055" lon="4.80893">
        <ele>230</ele>
        <time>2018-02-19T10:17:31Z</time>
      </trkpt>
      <trkpt lat="45.94057" lon="4.80903">
        <ele>231</ele>
        <time>2018-02-19T10:17:34Z</time>
      </trkpt>
      <trkpt lat="45.94058" lon="4.80905">
        <ele>231</ele>
        <time>2018-02-19T10:17:35Z</time>
      </trkpt>
      <trkpt lat="45.94058" lon="4.80916">
        <ele>232</ele>
        <time>2018-02-19T10:17:40Z</time>
      </trkpt>
      <trkpt lat="45.94059" lon="4.80919">
        <ele>232</ele>
        <time>2018-02-19T10:17:41Z</time>
      </trkpt>
      <trkpt lat="45.94063" lon="4.8093">
        <ele>233</ele>
        <time>2018-02-19T10:17:44Z</time>
      </trkpt>
      <trkpt lat="45.94063" lon="4.80934">
        <ele>233</ele>
        <time>2018-02-19T10:17:45Z</time>
      </trkpt>
      <trkpt lat="45.94066" lon="4.80944">
        <ele>232</ele>
        <time>2018-02-19T10:17:48Z</time>
      </trkpt>
      <trkpt lat="45.94067" lon="4.80948">
        <ele>232</ele>
        <time>2018-02-19T10:17:49Z</time>
      </trkpt>
      <trkpt lat="45.94069" lon="4.80961">
        <ele>232</ele>
        <time>2018-02-19T10:17:53Z</time>
      </trkpt>
      <trkpt lat="45.94069" lon="4.80964">
        <ele>233</ele>
        <time>2018-02-19T10:17:54Z</time>
      </trkpt>
      <trkpt lat="45.9407" lon="4.80973">
        <ele>233</ele>
        <time>2018-02-19T10:17:57Z</time>
      </trkpt>
      <trkpt lat="45.94071" lon="4.80977">
        <ele>234</ele>
        <time>2018-02-19T10:17:58Z</time>
      </trkpt>
      <trkpt lat="45.94074" lon="4.80989">
        <ele>235</ele>
        <time>2018-02-19T10:18:01Z</time>
      </trkpt>
      <trkpt lat="45.94075" lon="4.80993">
        <ele>236</ele>
        <time>2018-02-19T10:18:02Z</time>
      </trkpt>
      <trkpt lat="45.94078" lon="4.81003">
        <ele>238</ele>
        <time>2018-02-19T10:18:05Z</time>
      </trkpt>
      <trkpt lat="45.94078" lon="4.81006">
        <ele>237</ele>
        <time>2018-02-19T10:18:06Z</time>
      </trkpt>
      <trkpt lat="45.9408" lon="4.81016">
        <ele>236</ele>
        <time>2018-02-19T10:18:09Z</time>
      </trkpt>
      <trkpt lat="45.9408" lon="4.81019">
        <ele>235</ele>
        <time>2018-02-19T10:18:10Z</time>
      </trkpt>
      <trkpt lat="45.94083" lon="4.81029">
        <ele>234</ele>
        <time>2018-02-19T10:18:13Z</time>
      </trkpt>
      <trkpt lat="45.94084" lon="4.81032">
        <ele>244</ele>
        <time>2018-02-19T10:18:14Z</time>
      </trkpt>
      <trkpt lat="45.94088" lon="4.8104">
        <ele>244</ele>
        <time>2018-02-19T10:18:17Z</time>
      </trkpt>
      <trkpt lat="45.94089" lon="4.81043">
        <ele>244</ele>
        <time>2018-02-19T10:18:18Z</time>
      </trkpt>
      <trkpt lat="45.94093" lon="4.81054">
        <ele>243</ele>
        <time>2018-02-19T10:18:22Z</time>
      </trkpt>
      <trkpt lat="45.94094" lon="4.81056">
        <ele>243</ele>
        <time>2018-02-19T10:18:23Z</time>
      </trkpt>
      <trkpt lat="45.94097" lon="4.81065">
        <ele>243</ele>
        <time>2018-02-19T10:18:27Z</time>
      </trkpt>
      <trkpt lat="45.94099" lon="4.81068">
        <ele>243</ele>
        <time>2018-02-19T10:18:28Z</time>
      </trkpt>
      <trkpt lat="45.94104" lon="4.81077">
        <ele>243</ele>
        <time>2018-02-19T10:18:32Z</time>
      </trkpt>
      <trkpt lat="45.94105" lon="4.81079">
        <ele>243</ele>
        <time>2018-02-19T10:18:33Z</time>
      </trkpt>
      <trkpt lat="45.94111" lon="4.81087">
        <ele>242</ele>
        <time>2018-02-19T10:18:37Z</time>
      </trkpt>
      <trkpt lat="45.94112" lon="4.8109">
        <ele>242</ele>
        <time>2018-02-19T10:18:38Z</time>
      </trkpt>
      <trkpt lat="45.94117" lon="4.81099">
        <ele>243</ele>
        <time>2018-02-19T10:18:42Z</time>
      </trkpt>
      <trkpt lat="45.94118" lon="4.811">
        <ele>243</ele>
        <time>2018-02-19T10:18:43Z</time>
      </trkpt>
      <trkpt lat="45.94122" lon="4.81109">
        <ele>243</ele>
        <time>2018-02-19T10:18:48Z</time>
      </trkpt>
      <trkpt lat="45.94123" lon="4.81112">
        <ele>243</ele>
        <time>2018-02-19T10:18:49Z</time>
      </trkpt>
      <trkpt lat="45.94129" lon="4.81119">
        <ele>244</ele>
        <time>2018-02-19T10:18:53Z</time>
      </trkpt>
      <trkpt lat="45.9413" lon="4.8112">
        <ele>244</ele>
        <time>2018-02-19T10:18:54Z</time>
      </trkpt>
      <trkpt lat="45.94134" lon="4.81128">
        <ele>244</ele>
        <time>2018-02-19T10:18:57Z</time>
      </trkpt>
      <trkpt lat="45.94135" lon="4.81131">
        <ele>244</ele>
        <time>2018-02-19T10:18:58Z</time>
      </trkpt>
      <trkpt lat="45.94139" lon="4.81142">
        <ele>244</ele>
        <time>2018-02-19T10:19:03Z</time>
      </trkpt>
      <trkpt lat="45.9414" lon="4.81145">
        <ele>244</ele>
        <time>2018-02-19T10:19:04Z</time>
      </trkpt>
      <trkpt lat="45.94144" lon="4.81155">
        <ele>245</ele>
        <time>2018-02-19T10:19:07Z</time>
      </trkpt>
      <trkpt lat="45.94146" lon="4.81158">
        <ele>245</ele>
        <time>2018-02-19T10:19:08Z</time>
      </trkpt>
      <trkpt lat="45.94149" lon="4.81169">
        <ele>245</ele>
        <time>2018-02-19T10:19:11Z</time>
      </trkpt>
      <trkpt lat="45.9415" lon="4.81172">
        <ele>245</ele>
        <time>2018-02-19T10:19:12Z</time>
      </trkpt>
      <trkpt lat="45.94153" lon="4.81183">
        <ele>245</ele>
        <time>2018-02-19T10:19:16Z</time>
      </trkpt>
      <trkpt lat="45.94154" lon="4.81186">
        <ele>245</ele>
        <time>2018-02-19T10:19:17Z</time>
      </trkpt>
      <trkpt lat="45.94157" lon="4.81196">
        <ele>245</ele>
        <time>2018-02-19T10:19:21Z</time>
      </trkpt>
      <trkpt lat="45.94158" lon="4.81199">
        <ele>245</ele>
        <time>2018-02-19T10:19:22Z</time>
      </trkpt>
      <trkpt lat="45.94162" lon="4.81209">
        <ele>245</ele>
        <time>2018-02-19T10:19:26Z</time>
      </trkpt>
      <trkpt lat="45.94163" lon="4.81212">
        <ele>245</ele>
        <time>2018-02-19T10:19:27Z</time>
      </trkpt>
      <trkpt lat="45.94165" lon="4.81224">
        <ele>246</ele>
        <time>2018-02-19T10:19:31Z</time>
      </trkpt>
      <trkpt lat="45.94165" lon="4.81227">
        <ele>246</ele>
        <time>2018-02-19T10:19:32Z</time>
      </trkpt>
      <trkpt lat="45.94169" lon="4.81237">
        <ele>252</ele>
        <time>2018-02-19T10:19:37Z</time>
      </trkpt>
      <trkpt lat="45.9417" lon="4.8124">
        <ele>252</ele>
        <time>2018-02-19T10:19:38Z</time>
      </trkpt>
      <trkpt lat="45.94173" lon="4.81252">
        <ele>252</ele>
        <time>2018-02-19T10:19:43Z</time>
      </trkpt>
      <trkpt lat="45.94173" lon="4.81255">
        <ele>252</ele>
        <time>2018-02-19T10:19:44Z</time>
      </trkpt>
      <trkpt lat="45.94172" lon="4.81267">
        <ele>254</ele>
        <time>2018-02-19T10:19:47Z</time>
      </trkpt>
      <trkpt lat="45.94171" lon="4.8127">
        <ele>254</ele>
        <time>2018-02-19T10:19:48Z</time>
      </trkpt>
      <trkpt lat="45.94171" lon="4.81281">
        <ele>255</ele>
        <time>2018-02-19T10:19:51Z</time>
      </trkpt>
      <trkpt lat="45.94171" lon="4.81285">
        <ele>255</ele>
        <time>2018-02-19T10:19:52Z</time>
      </trkpt>
      <trkpt lat="45.94171" lon="4.81295">
        <ele>256</ele>
        <time>2018-02-19T10:19:55Z</time>
      </trkpt>
      <trkpt lat="45.94171" lon="4.81298">
        <ele>256</ele>
        <time>2018-02-19T10:19:56Z</time>
      </trkpt>
      <trkpt lat="45.94173" lon="4.81309">
        <ele>255</ele>
        <time>2018-02-19T10:20:01Z</time>
      </trkpt>
      <trkpt lat="45.94173" lon="4.81311">
        <ele>255</ele>
        <time>2018-02-19T10:20:02Z</time>
      </trkpt>
      <trkpt lat="45.94171" lon="4.81323">
        <ele>254</ele>
        <time>2018-02-19T10:20:06Z</time>
      </trkpt>
      <trkpt lat="45.94171" lon="4.81326">
        <ele>254</ele>
        <time>2018-02-19T10:20:07Z</time>
      </trkpt>
      <trkpt lat="45.94169" lon="4.81338">
        <ele>254</ele>
        <time>2018-02-19T10:20:11Z</time>
      </trkpt>
      <trkpt lat="45.94168" lon="4.81343">
        <ele>255</ele>
        <time>2018-02-19T10:20:12Z</time>
      </trkpt>
      <trkpt lat="45.94169" lon="4.81355">
        <ele>256</ele>
        <time>2018-02-19T10:20:16Z</time>
      </trkpt>
      <trkpt lat="45.94168" lon="4.81359">
        <ele>257</ele>
        <time>2018-02-19T10:20:17Z</time>
      </trkpt>
      <trkpt lat="45.94166" lon="4.81369">
        <ele>251</ele>
        <time>2018-02-19T10:20:20Z</time>
      </trkpt>
      <trkpt lat="45.94166" lon="4.81373">
        <ele>251</ele>
        <time>2018-02-19T10:20:21Z</time>
      </trkpt>
      <trkpt lat="45.94167" lon="4.81384">
        <ele>258</ele>
        <time>2018-02-19T10:20:24Z</time>
      </trkpt>
      <trkpt lat="45.94167" lon="4.81386">
        <ele>258</ele>
        <time>2018-02-19T10:20:25Z</time>
      </trkpt>
      <trkpt lat="45.94167" lon="4.81398">
        <ele>258</ele>
        <time>2018-02-19T10:20:29Z</time>
      </trkpt>
      <trkpt lat="45.94167" lon="4.81402">
        <ele>257</ele>
        <time>2018-02-19T10:20:30Z</time>
      </trkpt>
      <trkpt lat="45.94166" lon="4.81413">
        <ele>255</ele>
        <time>2018-02-19T10:20:33Z</time>
      </trkpt>
      <trkpt lat="45.94165" lon="4.81417">
        <ele>256</ele>
        <time>2018-02-19T10:20:34Z</time>
      </trkpt>
      <trkpt lat="45.94164" lon="4.81428">
        <ele>256</ele>
        <time>2018-02-19T10:20:37Z</time>
      </trkpt>
      <trkpt lat="45.94164" lon="4.81431">
        <ele>256</ele>
        <time>2018-02-19T10:20:38Z</time>
      </trkpt>
      <trkpt lat="45.94163" lon="4.81441">
        <ele>256</ele>
        <time>2018-02-19T10:20:41Z</time>
      </trkpt>
      <trkpt lat="45.94163" lon="4.81444">
        <ele>257</ele>
        <time>2018-02-19T10:20:42Z</time>
      </trkpt>
      <trkpt lat="45.94161" lon="4.81456">
        <ele>257</ele>
        <time>2018-02-19T10:20:46Z</time>
      </trkpt>
      <trkpt lat="45.94161" lon="4.81459">
        <ele>257</ele>
        <time>2018-02-19T10:20:47Z</time>
      </trkpt>
      <trkpt lat="45.94162" lon="4.81469">
        <ele>258</ele>
        <time>2018-02-19T10:20:50Z</time>
      </trkpt>
      <trkpt lat="45.94162" lon="4.81472">
        <ele>258</ele>
        <time>2018-02-19T10:20:51Z</time>
      </trkpt>
      <trkpt lat="45.94163" lon="4.81485">
        <ele>260</ele>
        <time>2018-02-19T10:20:55Z</time>
      </trkpt>
      <trkpt lat="45.94163" lon="4.81488">
        <ele>260</ele>
        <time>2018-02-19T10:20:56Z</time>
      </trkpt>
      <trkpt lat="45.94161" lon="4.815">
        <ele>263</ele>
        <time>2018-02-19T10:20:59Z</time>
      </trkpt>
      <trkpt lat="45.9416" lon="4.81505">
        <ele>263</ele>
        <time>2018-02-19T10:21:00Z</time>
      </trkpt>
      <trkpt lat="45.9416" lon="4.81515">
        <ele>263</ele>
        <time>2018-02-19T10:21:02Z</time>
      </trkpt>
      <trkpt lat="45.9416" lon="4.81519">
        <ele>263</ele>
        <time>2018-02-19T10:21:03Z</time>
      </trkpt>
      <trkpt lat="45.94162" lon="4.8153">
        <ele>264</ele>
        <time>2018-02-19T10:21:05Z</time>
      </trkpt>
      <trkpt lat="45.94162" lon="4.81533">
        <ele>264</ele>
        <time>2018-02-19T10:21:06Z</time>
      </trkpt>
      <trkpt lat="45.94162" lon="4.81544">
        <ele>264</ele>
        <time>2018-02-19T10:21:09Z</time>
      </trkpt>
      <trkpt lat="45.94162" lon="4.81547">
        <ele>264</ele>
        <time>2018-02-19T10:21:10Z</time>
      </trkpt>
      <trkpt lat="45.94164" lon="4.81559">
        <ele>265</ele>
        <time>2018-02-19T10:21:13Z</time>
      </trkpt>
      <trkpt lat="45.94164" lon="4.81563">
        <ele>265</ele>
        <time>2018-02-19T10:21:14Z</time>
      </trkpt>
      <trkpt lat="45.94163" lon="4.81576">
        <ele>266</ele>
        <time>2018-02-19T10:21:18Z</time>
      </trkpt>
      <trkpt lat="45.94163" lon="4.81581">
        <ele>266</ele>
        <time>2018-02-19T10:21:19Z</time>
      </trkpt>
      <trkpt lat="45.94165" lon="4.81589">
        <ele>267</ele>
        <time>2018-02-19T10:21:21Z</time>
      </trkpt>
      <trkpt lat="45.94166" lon="4.81593">
        <ele>267</ele>
        <time>2018-02-19T10:21:22Z</time>
      </trkpt>
      <trkpt lat="45.94169" lon="4.81605">
        <ele>267</ele>
        <time>2018-02-19T10:21:25Z</time>
      </trkpt>
      <trkpt lat="45.94169" lon="4.81609">
        <ele>267</ele>
        <time>2018-02-19T10:21:26Z</time>
      </trkpt>
      <trkpt lat="45.94168" lon="4.81621">
        <ele>267</ele>
        <time>2018-02-19T10:21:30Z</time>
      </trkpt>
      <trkpt lat="45.94167" lon="4.81625">
        <ele>267</ele>
        <time>2018-02-19T10:21:31Z</time>
      </trkpt>
      <trkpt lat="45.94168" lon="4.81635">
        <ele>268</ele>
        <time>2018-02-19T10:21:33Z</time>
      </trkpt>
      <trkpt lat="45.9417" lon="4.81641">
        <ele>268</ele>
        <time>2018-02-19T10:21:34Z</time>
      </trkpt>
      <trkpt lat="45.94172" lon="4.8165">
        <ele>268</ele>
        <time>2018-02-19T10:21:37Z</time>
      </trkpt>
      <trkpt lat="45.94174" lon="4.81654">
        <ele>268</ele>
        <time>2018-02-19T10:21:38Z</time>
      </trkpt>
      <trkpt lat="45.94178" lon="4.81663">
        <ele>268</ele>
        <time>2018-02-19T10:21:40Z</time>
      </trkpt>
      <trkpt lat="45.9418" lon="4.81667">
        <ele>268</ele>
        <time>2018-02-19T10:21:41Z</time>
      </trkpt>
      <trkpt lat="45.94184" lon="4.81675">
        <ele>268</ele>
        <time>2018-02-19T10:21:43Z</time>
      </trkpt>
      <trkpt lat="45.94186" lon="4.81679">
        <ele>267</ele>
        <time>2018-02-19T10:21:44Z</time>
      </trkpt>
      <trkpt lat="45.94188" lon="4.81687">
        <ele>267</ele>
        <time>2018-02-19T10:21:46Z</time>
      </trkpt>
      <trkpt lat="45.94189" lon="4.81692">
        <ele>267</ele>
        <time>2018-02-19T10:21:47Z</time>
      </trkpt>
      <trkpt lat="45.9419" lon="4.81703">
        <ele>267</ele>
        <time>2018-02-19T10:21:49Z</time>
      </trkpt>
      <trkpt lat="45.9419" lon="4.81709">
        <ele>267</ele>
        <time>2018-02-19T10:21:50Z</time>
      </trkpt>
      <trkpt lat="45.94189" lon="4.81721">
        <ele>267</ele>
        <time>2018-02-19T10:21:52Z</time>
      </trkpt>
      <trkpt lat="45.9419" lon="4.81727">
        <ele>267</ele>
        <time>2018-02-19T10:21:53Z</time>
      </trkpt>
      <trkpt lat="45.94192" lon="4.81739">
        <ele>267</ele>
        <time>2018-02-19T10:21:55Z</time>
      </trkpt>
      <trkpt lat="45.94194" lon="4.81744">
        <ele>266</ele>
        <time>2018-02-19T10:21:56Z</time>
      </trkpt>
      <trkpt lat="45.94199" lon="4.81754">
        <ele>266</ele>
        <time>2018-02-19T10:21:58Z</time>
      </trkpt>
      <trkpt lat="45.94202" lon="4.81758">
        <ele>266</ele>
        <time>2018-02-19T10:21:59Z</time>
      </trkpt>
      <trkpt lat="45.94205" lon="4.81767">
        <ele>266</ele>
        <time>2018-02-19T10:22:01Z</time>
      </trkpt>
      <trkpt lat="45.94205" lon="4.81773">
        <ele>266</ele>
        <time>2018-02-19T10:22:02Z</time>
      </trkpt>
      <trkpt lat="45.94205" lon="4.81784">
        <ele>266</ele>
        <time>2018-02-19T10:22:04Z</time>
      </trkpt>
      <trkpt lat="45.94205" lon="4.8179">
        <ele>266</ele>
        <time>2018-02-19T10:22:05Z</time>
      </trkpt>
      <trkpt lat="45.94205" lon="4.81799">
        <ele>266</ele>
        <time>2018-02-19T10:22:07Z</time>
      </trkpt>
      <trkpt lat="45.94206" lon="4.81804">
        <ele>266</ele>
        <time>2018-02-19T10:22:08Z</time>
      </trkpt>
      <trkpt lat="45.94209" lon="4.81816">
        <ele>266</ele>
        <time>2018-02-19T10:22:11Z</time>
      </trkpt>
      <trkpt lat="45.94209" lon="4.81818">
        <ele>266</ele>
        <time>2018-02-19T10:22:12Z</time>
      </trkpt>
      <trkpt lat="45.94209" lon="4.81831">
        <ele>266</ele>
        <time>2018-02-19T10:22:15Z</time>
      </trkpt>
      <trkpt lat="45.94209" lon="4.81835">
        <ele>265</ele>
        <time>2018-02-19T10:22:16Z</time>
      </trkpt>
      <trkpt lat="45.9421" lon="4.81844">
        <ele>265</ele>
        <time>2018-02-19T10:22:18Z</time>
      </trkpt>
      <trkpt lat="45.94211" lon="4.81849">
        <ele>265</ele>
        <time>2018-02-19T10:22:19Z</time>
      </trkpt>
      <trkpt lat="45.94212" lon="4.8186">
        <ele>265</ele>
        <time>2018-02-19T10:22:21Z</time>
      </trkpt>
      <trkpt lat="45.94212" lon="4.81865">
        <ele>265</ele>
        <time>2018-02-19T10:22:22Z</time>
      </trkpt>
      <trkpt lat="45.94214" lon="4.81876">
        <ele>265</ele>
        <time>2018-02-19T10:22:24Z</time>
      </trkpt>
      <trkpt lat="45.94215" lon="4.81881">
        <ele>265</ele>
        <time>2018-02-19T10:22:25Z</time>
      </trkpt>
      <trkpt lat="45.94217" lon="4.81891">
        <ele>265</ele>
        <time>2018-02-19T10:22:27Z</time>
      </trkpt>
      <trkpt lat="45.94217" lon="4.81897">
        <ele>265</ele>
        <time>2018-02-19T10:22:28Z</time>
      </trkpt>
      <trkpt lat="45.94219" lon="4.81907">
        <ele>265</ele>
        <time>2018-02-19T10:22:30Z</time>
      </trkpt>
      <trkpt lat="45.9422" lon="4.81912">
        <ele>264</ele>
        <time>2018-02-19T10:22:31Z</time>
      </trkpt>
      <trkpt lat="45.94222" lon="4.81922">
        <ele>264</ele>
        <time>2018-02-19T10:22:33Z</time>
      </trkpt>
      <trkpt lat="45.94223" lon="4.81927">
        <ele>264</ele>
        <time>2018-02-19T10:22:34Z</time>
      </trkpt>
      <trkpt lat="45.94226" lon="4.81936">
        <ele>264</ele>
        <time>2018-02-19T10:22:36Z</time>
      </trkpt>
      <trkpt lat="45.94227" lon="4.81941">
        <ele>264</ele>
        <time>2018-02-19T10:22:37Z</time>
      </trkpt>
      <trkpt lat="45.94228" lon="4.81951">
        <ele>264</ele>
        <time>2018-02-19T10:22:39Z</time>
      </trkpt>
      <trkpt lat="45.9423" lon="4.81957">
        <ele>264</ele>
        <time>2018-02-19T10:22:40Z</time>
      </trkpt>
      <trkpt lat="45.94232" lon="4.81967">
        <ele>264</ele>
        <time>2018-02-19T10:22:42Z</time>
      </trkpt>
      <trkpt lat="45.94233" lon="4.81973">
        <ele>264</ele>
        <time>2018-02-19T10:22:43Z</time>
      </trkpt>
      <trkpt lat="45.94236" lon="4.81985">
        <ele>263</ele>
        <time>2018-02-19T10:22:45Z</time>
      </trkpt>
      <trkpt lat="45.94237" lon="4.81991">
        <ele>263</ele>
        <time>2018-02-19T10:22:46Z</time>
      </trkpt>
      <trkpt lat="45.94239" lon="4.82003">
        <ele>263</ele>
        <time>2018-02-19T10:22:48Z</time>
      </trkpt>
      <trkpt lat="45.9424" lon="4.82009">
        <ele>263</ele>
        <time>2018-02-19T10:22:49Z</time>
      </trkpt>
      <trkpt lat="45.94241" lon="4.82019">
        <ele>263</ele>
        <time>2018-02-19T10:22:51Z</time>
      </trkpt>
      <trkpt lat="45.94242" lon="4.82024">
        <ele>263</ele>
        <time>2018-02-19T10:22:52Z</time>
      </trkpt>
      <trkpt lat="45.94244" lon="4.82035">
        <ele>263</ele>
        <time>2018-02-19T10:22:54Z</time>
      </trkpt>
      <trkpt lat="45.94245" lon="4.8204">
        <ele>263</ele>
        <time>2018-02-19T10:22:55Z</time>
      </trkpt>
      <trkpt lat="45.94246" lon="4.82047">
        <ele>263</ele>
        <time>2018-02-19T10:22:56Z</time>
      </trkpt>
      <trkpt lat="45.94247" lon="4.82053">
        <ele>263</ele>
        <time>2018-02-19T10:22:57Z</time>
      </trkpt>
      <trkpt lat="45.94247" lon="4.8206">
        <ele>263</ele>
        <time>2018-02-19T10:22:58Z</time>
      </trkpt>
      <trkpt lat="45.94248" lon="4.82066">
        <ele>263</ele>
        <time>2018-02-19T10:22:59Z</time>
      </trkpt>
      <trkpt lat="45.94251" lon="4.82074">
        <ele>262</ele>
        <time>2018-02-19T10:23:00Z</time>
      </trkpt>
      <trkpt lat="45.94252" lon="4.82079">
        <ele>262</ele>
        <time>2018-02-19T10:23:01Z</time>
      </trkpt>
      <trkpt lat="45.94254" lon="4.82089">
        <ele>262</ele>
        <time>2018-02-19T10:23:03Z</time>
      </trkpt>
      <trkpt lat="45.94255" lon="4.82094">
        <ele>262</ele>
        <time>2018-02-19T10:23:04Z</time>
      </trkpt>
      <trkpt lat="45.94257" lon="4.82103">
        <ele>262</ele>
        <time>2018-02-19T10:23:06Z</time>
      </trkpt>
      <trkpt lat="45.94259" lon="4.82107">
        <ele>263</ele>
        <time>2018-02-19T10:23:07Z</time>
      </trkpt>
      <trkpt lat="45.94261" lon="4.82118">
        <ele>263</ele>
        <time>2018-02-19T10:23:09Z</time>
      </trkpt>
      <trkpt lat="45.94263" lon="4.82125">
        <ele>263</ele>
        <time>2018-02-19T10:23:10Z</time>
      </trkpt>
      <trkpt lat="45.94265" lon="4.82135">
        <ele>263</ele>
        <time>2018-02-19T10:23:12Z</time>
      </trkpt>
      <trkpt lat="45.94267" lon="4.82141">
        <ele>263</ele>
        <time>2018-02-19T10:23:13Z</time>
      </trkpt>
      <trkpt lat="45.94268" lon="4.82151">
        <ele>263</ele>
        <time>2018-02-19T10:23:15Z</time>
      </trkpt>
      <trkpt lat="45.94269" lon="4.82157">
        <ele>263</ele>
        <time>2018-02-19T10:23:16Z</time>
      </trkpt>
      <trkpt lat="45.9427" lon="4.82167">
        <ele>263</ele>
        <time>2018-02-19T10:23:18Z</time>
      </trkpt>
      <trkpt lat="45.94273" lon="4.82172">
        <ele>264</ele>
        <time>2018-02-19T10:23:19Z</time>
      </trkpt>
      <trkpt lat="45.94274" lon="4.82179">
        <ele>264</ele>
        <time>2018-02-19T10:23:20Z</time>
      </trkpt>
      <trkpt lat="45.94276" lon="4.82185">
        <ele>264</ele>
        <time>2018-02-19T10:23:21Z</time>
      </trkpt>
      <trkpt lat="45.94279" lon="4.82196">
        <ele>264</ele>
        <time>2018-02-19T10:23:23Z</time>
      </trkpt>
      <trkpt lat="45.9428" lon="4.82202">
        <ele>264</ele>
        <time>2018-02-19T10:23:24Z</time>
      </trkpt>
      <trkpt lat="45.94282" lon="4.82214">
        <ele>264</ele>
        <time>2018-02-19T10:23:26Z</time>
      </trkpt>
      <trkpt lat="45.94283" lon="4.8222">
        <ele>264</ele>
        <time>2018-02-19T10:23:27Z</time>
      </trkpt>
      <trkpt lat="45.94284" lon="4.82232">
        <ele>264</ele>
        <time>2018-02-19T10:23:29Z</time>
      </trkpt>
      <trkpt lat="45.94284" lon="4.82237">
        <ele>264</ele>
        <time>2018-02-19T10:23:30Z</time>
      </trkpt>
      <trkpt lat="45.94284" lon="4.82248">
        <ele>264</ele>
        <time>2018-02-19T10:23:32Z</time>
      </trkpt>
      <trkpt lat="45.94284" lon="4.82254">
        <ele>265</ele>
        <time>2018-02-19T10:23:33Z</time>
      </trkpt>
      <trkpt lat="45.94284" lon="4.82265">
        <ele>265</ele>
        <time>2018-02-19T10:23:35Z</time>
      </trkpt>
      <trkpt lat="45.94284" lon="4.82271">
        <ele>265</ele>
        <time>2018-02-19T10:23:36Z</time>
      </trkpt>
      <trkpt lat="45.94285" lon="4.82277">
        <ele>265</ele>
        <time>2018-02-19T10:23:37Z</time>
      </trkpt>
      <trkpt lat="45.94284" lon="4.82285">
        <ele>265</ele>
        <time>2018-02-19T10:23:38Z</time>
      </trkpt>
      <trkpt lat="45.94284" lon="4.82292">
        <ele>265</ele>
        <time>2018-02-19T10:23:39Z</time>
      </trkpt>
      <trkpt lat="45.94285" lon="4.82298">
        <ele>265</ele>
        <time>2018-02-19T10:23:40Z</time>
      </trkpt>
      <trkpt lat="45.94285" lon="4.8231">
        <ele>265</ele>
        <time>2018-02-19T10:23:42Z</time>
      </trkpt>
      <trkpt lat="45.94285" lon="4.82316">
        <ele>265</ele>
        <time>2018-02-19T10:23:43Z</time>
      </trkpt>
      <trkpt lat="45.94285" lon="4.82327">
        <ele>265</ele>
        <time>2018-02-19T10:23:45Z</time>
      </trkpt>
      <trkpt lat="45.94286" lon="4.82332">
        <ele>265</ele>
        <time>2018-02-19T10:23:46Z</time>
      </trkpt>
      <trkpt lat="45.94287" lon="4.82342">
        <ele>264</ele>
        <time>2018-02-19T10:23:48Z</time>
      </trkpt>
      <trkpt lat="45.94287" lon="4.82348">
        <ele>264</ele>
        <time>2018-02-19T10:23:49Z</time>
      </trkpt>
      <trkpt lat="45.94288" lon="4.82358">
        <ele>264</ele>
        <time>2018-02-19T10:23:51Z</time>
      </trkpt>
      <trkpt lat="45.94288" lon="4.82363">
        <ele>264</ele>
        <time>2018-02-19T10:23:52Z</time>
      </trkpt>
      <trkpt lat="45.94289" lon="4.82374">
        <ele>264</ele>
        <time>2018-02-19T10:23:54Z</time>
      </trkpt>
      <trkpt lat="45.94289" lon="4.8238">
        <ele>264</ele>
        <time>2018-02-19T10:23:55Z</time>
      </trkpt>
      <trkpt lat="45.94289" lon="4.82391">
        <ele>264</ele>
        <time>2018-02-19T10:23:57Z</time>
      </trkpt>
      <trkpt lat="45.94289" lon="4.82396">
        <ele>264</ele>
        <time>2018-02-19T10:23:58Z</time>
      </trkpt>
      <trkpt lat="45.94289" lon="4.82406">
        <ele>264</ele>
        <time>2018-02-19T10:24:00Z</time>
      </trkpt>
      <trkpt lat="45.94289" lon="4.82411">
        <ele>264</ele>
        <time>2018-02-19T10:24:01Z</time>
      </trkpt>
      <trkpt lat="45.9429" lon="4.82421">
        <ele>264</ele>
        <time>2018-02-19T10:24:03Z</time>
      </trkpt>
      <trkpt lat="45.9429" lon="4.82427">
        <ele>264</ele>
        <time>2018-02-19T10:24:04Z</time>
      </trkpt>
      <trkpt lat="45.9429" lon="4.82437">
        <ele>264</ele>
        <time>2018-02-19T10:24:06Z</time>
      </trkpt>
      <trkpt lat="45.94291" lon="4.82442">
        <ele>264</ele>
        <time>2018-02-19T10:24:07Z</time>
      </trkpt>
      <trkpt lat="45.94291" lon="4.82453">
        <ele>264</ele>
        <time>2018-02-19T10:24:09Z</time>
      </trkpt>
      <trkpt lat="45.94291" lon="4.82459">
        <ele>264</ele>
        <time>2018-02-19T10:24:10Z</time>
      </trkpt>
      <trkpt lat="45.94291" lon="4.82471">
        <ele>264</ele>
        <time>2018-02-19T10:24:12Z</time>
      </trkpt>
      <trkpt lat="45.94291" lon="4.82476">
        <ele>264</ele>
        <time>2018-02-19T10:24:13Z</time>
      </trkpt>
      <trkpt lat="45.94291" lon="4.82485">
        <ele>264</ele>
        <time>2018-02-19T10:24:15Z</time>
      </trkpt>
      <trkpt lat="45.94291" lon="4.8249">
        <ele>264</ele>
        <time>2018-02-19T10:24:16Z</time>
      </trkpt>
      <trkpt lat="45.94291" lon="4.82501">
        <ele>264</ele>
        <time>2018-02-19T10:24:18Z</time>
      </trkpt>
      <trkpt lat="45.9429" lon="4.82506">
        <ele>264</ele>
        <time>2018-02-19T10:24:19Z</time>
      </trkpt>
      <trkpt lat="45.9429" lon="4.82517">
        <ele>264</ele>
        <time>2018-02-19T10:24:21Z</time>
      </trkpt>
      <trkpt lat="45.9429" lon="4.82522">
        <ele>264</ele>
        <time>2018-02-19T10:24:22Z</time>
      </trkpt>
      <trkpt lat="45.9429" lon="4.82533">
        <ele>264</ele>
        <time>2018-02-19T10:24:24Z</time>
      </trkpt>
      <trkpt lat="45.9429" lon="4.82539">
        <ele>264</ele>
        <time>2018-02-19T10:24:25Z</time>
      </trkpt>
      <trkpt lat="45.9429" lon="4.82549">
        <ele>264</ele>
        <time>2018-02-19T10:24:27Z</time>
      </trkpt>
      <trkpt lat="45.9429" lon="4.82554">
        <ele>264</ele>
        <time>2018-02-19T10:24:28Z</time>
      </trkpt>
      <trkpt lat="45.9429" lon="4.82564">
        <ele>264</ele>
        <time>2018-02-19T10:24:30Z</time>
      </trkpt>
      <trkpt lat="45.94289" lon="4.8257">
        <ele>265</ele>
        <time>2018-02-19T10:24:31Z</time>
      </trkpt>
      <trkpt lat="45.94289" lon="4.82581">
        <ele>265</ele>
        <time>2018-02-19T10:24:33Z</time>
      </trkpt>
      <trkpt lat="45.94289" lon="4.82586">
        <ele>265</ele>
        <time>2018-02-19T10:24:34Z</time>
      </trkpt>
      <trkpt lat="45.94289" lon="4.82597">
        <ele>265</ele>
        <time>2018-02-19T10:24:36Z</time>
      </trkpt>
      <trkpt lat="45.94289" lon="4.82602">
        <ele>265</ele>
        <time>2018-02-19T10:24:37Z</time>
      </trkpt>
      <trkpt lat="45.9429" lon="4.82611">
        <ele>265</ele>
        <time>2018-02-19T10:24:39Z</time>
      </trkpt>
      <trkpt lat="45.9429" lon="4.82615">
        <ele>265</ele>
        <time>2018-02-19T10:24:40Z</time>
      </trkpt>
      <trkpt lat="45.9429" lon="4.82624">
        <ele>265</ele>
        <time>2018-02-19T10:24:42Z</time>
      </trkpt>
      <trkpt lat="45.9429" lon="4.8263">
        <ele>265</ele>
        <time>2018-02-19T10:24:43Z</time>
      </trkpt>
      <trkpt lat="45.9429" lon="4.82642">
        <ele>265</ele>
        <time>2018-02-19T10:24:45Z</time>
      </trkpt>
      <trkpt lat="45.94289" lon="4.82648">
        <ele>265</ele>
        <time>2018-02-19T10:24:46Z</time>
      </trkpt>
      <trkpt lat="45.94289" lon="4.8266">
        <ele>265</ele>
        <time>2018-02-19T10:24:48Z</time>
      </trkpt>
      <trkpt lat="45.94289" lon="4.82666">
        <ele>265</ele>
        <time>2018-02-19T10:24:49Z</time>
      </trkpt>
      <trkpt lat="45.94289" lon="4.82677">
        <ele>265</ele>
        <time>2018-02-19T10:24:51Z</time>
      </trkpt>
      <trkpt lat="45.94289" lon="4.82682">
        <ele>265</ele>
        <time>2018-02-19T10:24:52Z</time>
      </trkpt>
      <trkpt lat="45.94289" lon="4.82689">
        <ele>265</ele>
        <time>2018-02-19T10:24:53Z</time>
      </trkpt>
      <trkpt lat="45.94288" lon="4.82696">
        <ele>265</ele>
        <time>2018-02-19T10:24:54Z</time>
      </trkpt>
      <trkpt lat="45.94288" lon="4.82702">
        <ele>265</ele>
        <time>2018-02-19T10:24:55Z</time>
      </trkpt>
      <trkpt lat="45.94288" lon="4.82709">
        <ele>265</ele>
        <time>2018-02-19T10:24:56Z</time>
      </trkpt>
      <trkpt lat="45.94288" lon="4.82716">
        <ele>265</ele>
        <time>2018-02-19T10:24:57Z</time>
      </trkpt>
      <trkpt lat="45.94287" lon="4.82722">
        <ele>265</ele>
        <time>2018-02-19T10:24:58Z</time>
      </trkpt>
      <trkpt lat="45.94287" lon="4.82729">
        <ele>265</ele>
        <time>2018-02-19T10:24:59Z</time>
      </trkpt>
      <trkpt lat="45.94287" lon="4.82735">
        <ele>265</ele>
        <time>2018-02-19T10:25:00Z</time>
      </trkpt>
      <trkpt lat="45.94287" lon="4.82743">
        <ele>265</ele>
        <time>2018-02-19T10:25:01Z</time>
      </trkpt>
      <trkpt lat="45.94287" lon="4.82749">
        <ele>265</ele>
        <time>2018-02-19T10:25:02Z</time>
      </trkpt>
      <trkpt lat="45.94287" lon="4.82761">
        <ele>265</ele>
        <time>2018-02-19T10:25:04Z</time>
      </trkpt>
      <trkpt lat="45.94287" lon="4.82768">
        <ele>265</ele>
        <time>2018-02-19T10:25:05Z</time>
      </trkpt>
      <trkpt lat="45.94285" lon="4.8278">
        <ele>265</ele>
        <time>2018-02-19T10:25:07Z</time>
      </trkpt>
      <trkpt lat="45.94285" lon="4.82786">
        <ele>265</ele>
        <time>2018-02-19T10:25:08Z</time>
      </trkpt>
      <trkpt lat="45.94285" lon="4.82799">
        <ele>265</ele>
        <time>2018-02-19T10:25:10Z</time>
      </trkpt>
      <trkpt lat="45.94286" lon="4.82805">
        <ele>265</ele>
        <time>2018-02-19T10:25:11Z</time>
      </trkpt>
      <trkpt lat="45.94286" lon="4.82817">
        <ele>265</ele>
        <time>2018-02-19T10:25:13Z</time>
      </trkpt>
      <trkpt lat="45.94285" lon="4.82824">
        <ele>265</ele>
        <time>2018-02-19T10:25:14Z</time>
      </trkpt>
      <trkpt lat="45.94285" lon="4.82831">
        <ele>265</ele>
        <time>2018-02-19T10:25:15Z</time>
      </trkpt>
      <trkpt lat="45.94284" lon="4.82839">
        <ele>265</ele>
        <time>2018-02-19T10:25:16Z</time>
      </trkpt>
      <trkpt lat="45.94283" lon="4.82846">
        <ele>265</ele>
        <time>2018-02-19T10:25:17Z</time>
      </trkpt>
      <trkpt lat="45.94283" lon="4.82852">
        <ele>265</ele>
        <time>2018-02-19T10:25:18Z</time>
      </trkpt>
      <trkpt lat="45.94282" lon="4.82862">
        <ele>265</ele>
        <time>2018-02-19T10:25:20Z</time>
      </trkpt>
      <trkpt lat="45.94282" lon="4.82867">
        <ele>265</ele>
        <time>2018-02-19T10:25:21Z</time>
      </trkpt>
      <trkpt lat="45.94282" lon="4.82878">
        <ele>265</ele>
        <time>2018-02-19T10:25:23Z</time>
      </trkpt>
      <trkpt lat="45.94282" lon="4.82884">
        <ele>265</ele>
        <time>2018-02-19T10:25:24Z</time>
      </trkpt>
      <trkpt lat="45.94281" lon="4.82897">
        <ele>265</ele>
        <time>2018-02-19T10:25:26Z</time>
      </trkpt>
      <trkpt lat="45.9428" lon="4.82903">
        <ele>265</ele>
        <time>2018-02-19T10:25:27Z</time>
      </trkpt>
      <trkpt lat="45.9428" lon="4.82915">
        <ele>265</ele>
        <time>2018-02-19T10:25:29Z</time>
      </trkpt>
      <trkpt lat="45.94278" lon="4.82922">
        <ele>265</ele>
        <time>2018-02-19T10:25:30Z</time>
      </trkpt>
      <trkpt lat="45.94277" lon="4.82929">
        <ele>265</ele>
        <time>2018-02-19T10:25:31Z</time>
      </trkpt>
      <trkpt lat="45.94276" lon="4.82936">
        <ele>265</ele>
        <time>2018-02-19T10:25:32Z</time>
      </trkpt>
      <trkpt lat="45.94276" lon="4.82942">
        <ele>265</ele>
        <time>2018-02-19T10:25:33Z</time>
      </trkpt>
      <trkpt lat="45.94275" lon="4.8295">
        <ele>265</ele>
        <time>2018-02-19T10:25:34Z</time>
      </trkpt>
      <trkpt lat="45.94277" lon="4.82956">
        <ele>265</ele>
        <time>2018-02-19T10:25:35Z</time>
      </trkpt>
      <trkpt lat="45.94279" lon="4.82961">
        <ele>265</ele>
        <time>2018-02-19T10:25:36Z</time>
      </trkpt>
      <trkpt lat="45.94281" lon="4.82968">
        <ele>265</ele>
        <time>2018-02-19T10:25:37Z</time>
      </trkpt>
      <trkpt lat="45.94282" lon="4.82974">
        <ele>265</ele>
        <time>2018-02-19T10:25:38Z</time>
      </trkpt>
      <trkpt lat="45.94284" lon="4.8298">
        <ele>265</ele>
        <time>2018-02-19T10:25:39Z</time>
      </trkpt>
      <trkpt lat="45.94286" lon="4.82985">
        <ele>265</ele>
        <time>2018-02-19T10:25:40Z</time>
      </trkpt>
      <trkpt lat="45.94291" lon="4.82995">
        <ele>265</ele>
        <time>2018-02-19T10:25:42Z</time>
      </trkpt>
      <trkpt lat="45.94293" lon="4.83">
        <ele>266</ele>
        <time>2018-02-19T10:25:43Z</time>
      </trkpt>
      <trkpt lat="45.94295" lon="4.8301">
        <ele>266</ele>
        <time>2018-02-19T10:25:45Z</time>
      </trkpt>
      <trkpt lat="45.94297" lon="4.83016">
        <ele>266</ele>
        <time>2018-02-19T10:25:46Z</time>
      </trkpt>
      <trkpt lat="45.94299" lon="4.83026">
        <ele>266</ele>
        <time>2018-02-19T10:25:48Z</time>
      </trkpt>
      <trkpt lat="45.943" lon="4.83032">
        <ele>266</ele>
        <time>2018-02-19T10:25:49Z</time>
      </trkpt>
      <trkpt lat="45.94302" lon="4.83043">
        <ele>266</ele>
        <time>2018-02-19T10:25:51Z</time>
      </trkpt>
      <trkpt lat="45.94303" lon="4.83048">
        <ele>266</ele>
        <time>2018-02-19T10:25:52Z</time>
      </trkpt>
      <trkpt lat="45.94306" lon="4.83058">
        <ele>266</ele>
        <time>2018-02-19T10:25:54Z</time>
      </trkpt>
      <trkpt lat="45.94307" lon="4.83064">
        <ele>266</ele>
        <time>2018-02-19T10:25:55Z</time>
      </trkpt>
      <trkpt lat="45.9431" lon="4.83076">
        <ele>266</ele>
        <time>2018-02-19T10:25:57Z</time>
      </trkpt>
      <trkpt lat="45.94312" lon="4.83082">
        <ele>266</ele>
        <time>2018-02-19T10:25:58Z</time>
      </trkpt>
      <trkpt lat="45.94315" lon="4.8309">
        <ele>266</ele>
        <time>2018-02-19T10:25:59Z</time>
      </trkpt>
      <trkpt lat="45.94317" lon="4.83096">
        <ele>266</ele>
        <time>2018-02-19T10:26:00Z</time>
      </trkpt>
      <trkpt lat="45.94319" lon="4.83102">
        <ele>266</ele>
        <time>2018-02-19T10:26:01Z</time>
      </trkpt>
      <trkpt lat="45.94321" lon="4.83107">
        <ele>266</ele>
        <time>2018-02-19T10:26:02Z</time>
      </trkpt>
      <trkpt lat="45.94325" lon="4.83118">
        <ele>266</ele>
        <time>2018-02-19T10:26:04Z</time>
      </trkpt>
      <trkpt lat="45.94327" lon="4.83122">
        <ele>266</ele>
        <time>2018-02-19T10:26:05Z</time>
      </trkpt>
      <trkpt lat="45.9433" lon="4.83132">
        <ele>266</ele>
        <time>2018-02-19T10:26:07Z</time>
      </trkpt>
      <trkpt lat="45.94331" lon="4.8314">
        <ele>266</ele>
        <time>2018-02-19T10:26:08Z</time>
      </trkpt>
      <trkpt lat="45.94335" lon="4.8315">
        <ele>266</ele>
        <time>2018-02-19T10:26:10Z</time>
      </trkpt>
      <trkpt lat="45.94337" lon="4.83156">
        <ele>266</ele>
        <time>2018-02-19T10:26:11Z</time>
      </trkpt>
      <trkpt lat="45.94341" lon="4.83167">
        <ele>266</ele>
        <time>2018-02-19T10:26:13Z</time>
      </trkpt>
      <trkpt lat="45.94344" lon="4.83174">
        <ele>266</ele>
        <time>2018-02-19T10:26:14Z</time>
      </trkpt>
      <trkpt lat="45.94346" lon="4.8318">
        <ele>266</ele>
        <time>2018-02-19T10:26:15Z</time>
      </trkpt>
      <trkpt lat="45.94347" lon="4.83187">
        <ele>266</ele>
        <time>2018-02-19T10:26:16Z</time>
      </trkpt>
      <trkpt lat="45.94349" lon="4.83193">
        <ele>266</ele>
        <time>2018-02-19T10:26:17Z</time>
      </trkpt>
      <trkpt lat="45.94352" lon="4.83199">
        <ele>266</ele>
        <time>2018-02-19T10:26:18Z</time>
      </trkpt>
      <trkpt lat="45.94353" lon="4.83205">
        <ele>266</ele>
        <time>2018-02-19T10:26:19Z</time>
      </trkpt>
      <trkpt lat="45.94356" lon="4.83211">
        <ele>266</ele>
        <time>2018-02-19T10:26:20Z</time>
      </trkpt>
      <trkpt lat="45.94358" lon="4.83219">
        <ele>266</ele>
        <time>2018-02-19T10:26:21Z</time>
      </trkpt>
      <trkpt lat="45.94361" lon="4.83225">
        <ele>266</ele>
        <time>2018-02-19T10:26:22Z</time>
      </trkpt>
      <trkpt lat="45.94364" lon="4.83235">
        <ele>266</ele>
        <time>2018-02-19T10:26:24Z</time>
      </trkpt>
      <trkpt lat="45.94365" lon="4.8324">
        <ele>265</ele>
        <time>2018-02-19T10:26:25Z</time>
      </trkpt>
      <trkpt lat="45.94369" lon="4.83252">
        <ele>265</ele>
        <time>2018-02-19T10:26:27Z</time>
      </trkpt>
      <trkpt lat="45.94371" lon="4.83258">
        <ele>265</ele>
        <time>2018-02-19T10:26:28Z</time>
      </trkpt>
      <trkpt lat="45.94373" lon="4.83265">
        <ele>264</ele>
        <time>2018-02-19T10:26:29Z</time>
      </trkpt>
      <trkpt lat="45.94376" lon="4.8327">
        <ele>264</ele>
        <time>2018-02-19T10:26:30Z</time>
      </trkpt>
      <trkpt lat="45.94379" lon="4.83277">
        <ele>264</ele>
        <time>2018-02-19T10:26:31Z</time>
      </trkpt>
      <trkpt lat="45.94381" lon="4.83283">
        <ele>264</ele>
        <time>2018-02-19T10:26:32Z</time>
      </trkpt>
      <trkpt lat="45.94384" lon="4.8329">
        <ele>264</ele>
        <time>2018-02-19T10:26:33Z</time>
      </trkpt>
      <trkpt lat="45.94386" lon="4.83296">
        <ele>264</ele>
        <time>2018-02-19T10:26:34Z</time>
      </trkpt>
      <trkpt lat="45.94388" lon="4.83303">
        <ele>264</ele>
        <time>2018-02-19T10:26:35Z</time>
      </trkpt>
      <trkpt lat="45.94391" lon="4.8331">
        <ele>264</ele>
        <time>2018-02-19T10:26:36Z</time>
      </trkpt>
      <trkpt lat="45.94393" lon="4.83316">
        <ele>264</ele>
        <time>2018-02-19T10:26:37Z</time>
      </trkpt>
      <trkpt lat="45.94393" lon="4.83324">
        <ele>264</ele>
        <time>2018-02-19T10:26:38Z</time>
      </trkpt>
      <trkpt lat="45.94396" lon="4.8333">
        <ele>264</ele>
        <time>2018-02-19T10:26:39Z</time>
      </trkpt>
      <trkpt lat="45.94398" lon="4.83336">
        <ele>263</ele>
        <time>2018-02-19T10:26:40Z</time>
      </trkpt>
      <trkpt lat="45.94401" lon="4.83347">
        <ele>263</ele>
        <time>2018-02-19T10:26:42Z</time>
      </trkpt>
      <trkpt lat="45.94403" lon="4.83353">
        <ele>263</ele>
        <time>2018-02-19T10:26:43Z</time>
      </trkpt>
      <trkpt lat="45.94407" lon="4.83362">
        <ele>264</ele>
        <time>2018-02-19T10:26:45Z</time>
      </trkpt>
      <trkpt lat="45.94409" lon="4.83367">
        <ele>264</ele>
        <time>2018-02-19T10:26:46Z</time>
      </trkpt>
      <trkpt lat="45.94411" lon="4.83372">
        <ele>264</ele>
        <time>2018-02-19T10:26:47Z</time>
      </trkpt>
      <trkpt lat="45.94414" lon="4.83378">
        <ele>264</ele>
        <time>2018-02-19T10:26:48Z</time>
      </trkpt>
      <trkpt lat="45.94417" lon="4.83384">
        <ele>264</ele>
        <time>2018-02-19T10:26:49Z</time>
      </trkpt>
      <trkpt lat="45.94421" lon="4.83389">
        <ele>264</ele>
        <time>2018-02-19T10:26:50Z</time>
      </trkpt>
      <trkpt lat="45.94424" lon="4.83395">
        <ele>264</ele>
        <time>2018-02-19T10:26:51Z</time>
      </trkpt>
      <trkpt lat="45.94427" lon="4.83401">
        <ele>264</ele>
        <time>2018-02-19T10:26:52Z</time>
      </trkpt>
      <trkpt lat="45.9443" lon="4.83407">
        <ele>264</ele>
        <time>2018-02-19T10:26:53Z</time>
      </trkpt>
      <trkpt lat="45.94433" lon="4.83412">
        <ele>264</ele>
        <time>2018-02-19T10:26:54Z</time>
      </trkpt>
      <trkpt lat="45.94436" lon="4.83418">
        <ele>264</ele>
        <time>2018-02-19T10:26:55Z</time>
      </trkpt>
      <trkpt lat="45.94439" lon="4.83423">
        <ele>264</ele>
        <time>2018-02-19T10:26:56Z</time>
      </trkpt>
      <trkpt lat="45.94441" lon="4.83429">
        <ele>264</ele>
        <time>2018-02-19T10:26:57Z</time>
      </trkpt>
      <trkpt lat="45.94443" lon="4.83436">
        <ele>263</ele>
        <time>2018-02-19T10:26:58Z</time>
      </trkpt>
      <trkpt lat="45.94448" lon="4.83446">
        <ele>263</ele>
        <time>2018-02-19T10:27:00Z</time>
      </trkpt>
      <trkpt lat="45.94451" lon="4.83451">
        <ele>263</ele>
        <time>2018-02-19T10:27:01Z</time>
      </trkpt>
      <trkpt lat="45.94454" lon="4.83456">
        <ele>263</ele>
        <time>2018-02-19T10:27:02Z</time>
      </trkpt>
      <trkpt lat="45.94458" lon="4.8346">
        <ele>263</ele>
        <time>2018-02-19T10:27:03Z</time>
      </trkpt>
      <trkpt lat="45.94462" lon="4.83465">
        <ele>263</ele>
        <time>2018-02-19T10:27:04Z</time>
      </trkpt>
      <trkpt lat="45.94464" lon="4.8347">
        <ele>263</ele>
        <time>2018-02-19T10:27:05Z</time>
      </trkpt>
      <trkpt lat="45.9447" lon="4.83479">
        <ele>263</ele>
        <time>2018-02-19T10:27:07Z</time>
      </trkpt>
      <trkpt lat="45.94473" lon="4.83484">
        <ele>263</ele>
        <time>2018-02-19T10:27:08Z</time>
      </trkpt>
      <trkpt lat="45.94476" lon="4.83489">
        <ele>263</ele>
        <time>2018-02-19T10:27:09Z</time>
      </trkpt>
      <trkpt lat="45.94479" lon="4.83494">
        <ele>263</ele>
        <time>2018-02-19T10:27:10Z</time>
      </trkpt>
      <trkpt lat="45.94482" lon="4.835">
        <ele>263</ele>
        <time>2018-02-19T10:27:11Z</time>
      </trkpt>
      <trkpt lat="45.94486" lon="4.83506">
        <ele>262</ele>
        <time>2018-02-19T10:27:12Z</time>
      </trkpt>
      <trkpt lat="45.94489" lon="4.83511">
        <ele>262</ele>
        <time>2018-02-19T10:27:13Z</time>
      </trkpt>
      <trkpt lat="45.94492" lon="4.83517">
        <ele>262</ele>
        <time>2018-02-19T10:27:14Z</time>
      </trkpt>
      <trkpt lat="45.94496" lon="4.83522">
        <ele>262</ele>
        <time>2018-02-19T10:27:15Z</time>
      </trkpt>
      <trkpt lat="45.94498" lon="4.83526">
        <ele>262</ele>
        <time>2018-02-19T10:27:16Z</time>
      </trkpt>
      <trkpt lat="45.94501" lon="4.83532">
        <ele>262</ele>
        <time>2018-02-19T10:27:17Z</time>
      </trkpt>
      <trkpt lat="45.94505" lon="4.83536">
        <ele>262</ele>
        <time>2018-02-19T10:27:18Z</time>
      </trkpt>
      <trkpt lat="45.94508" lon="4.83542">
        <ele>262</ele>
        <time>2018-02-19T10:27:19Z</time>
      </trkpt>
      <trkpt lat="45.94511" lon="4.83547">
        <ele>261</ele>
        <time>2018-02-19T10:27:20Z</time>
      </trkpt>
      <trkpt lat="45.94515" lon="4.83552">
        <ele>261</ele>
        <time>2018-02-19T10:27:21Z</time>
      </trkpt>
      <trkpt lat="45.94518" lon="4.83557">
        <ele>261</ele>
        <time>2018-02-19T10:27:22Z</time>
      </trkpt>
      <trkpt lat="45.94522" lon="4.83562">
        <ele>261</ele>
        <time>2018-02-19T10:27:23Z</time>
      </trkpt>
      <trkpt lat="45.94526" lon="4.83567">
        <ele>261</ele>
        <time>2018-02-19T10:27:24Z</time>
      </trkpt>
      <trkpt lat="45.9453" lon="4.83573">
        <ele>261</ele>
        <time>2018-02-19T10:27:25Z</time>
      </trkpt>
      <trkpt lat="45.94533" lon="4.83578">
        <ele>261</ele>
        <time>2018-02-19T10:27:26Z</time>
      </trkpt>
      <trkpt lat="45.94537" lon="4.83583">
        <ele>261</ele>
        <time>2018-02-19T10:27:27Z</time>
      </trkpt>
      <trkpt lat="45.94541" lon="4.83588">
        <ele>261</ele>
        <time>2018-02-19T10:27:28Z</time>
      </trkpt>
      <trkpt lat="45.94544" lon="4.83593">
        <ele>261</ele>
        <time>2018-02-19T10:27:29Z</time>
      </trkpt>
      <trkpt lat="45.94548" lon="4.83598">
        <ele>261</ele>
        <time>2018-02-19T10:27:30Z</time>
      </trkpt>
      <trkpt lat="45.94552" lon="4.83603">
        <ele>261</ele>
        <time>2018-02-19T10:27:31Z</time>
      </trkpt>
      <trkpt lat="45.94555" lon="4.83608">
        <ele>261</ele>
        <time>2018-02-19T10:27:32Z</time>
      </trkpt>
      <trkpt lat="45.94559" lon="4.83613">
        <ele>261</ele>
        <time>2018-02-19T10:27:33Z</time>
      </trkpt>
      <trkpt lat="45.94563" lon="4.83617">
        <ele>261</ele>
        <time>2018-02-19T10:27:34Z</time>
      </trkpt>
      <trkpt lat="45.94568" lon="4.8362">
        <ele>261</ele>
        <time>2018-02-19T10:27:35Z</time>
      </trkpt>
      <trkpt lat="45.94572" lon="4.83624">
        <ele>261</ele>
        <time>2018-02-19T10:27:36Z</time>
      </trkpt>
      <trkpt lat="45.94576" lon="4.83628">
        <ele>261</ele>
        <time>2018-02-19T10:27:37Z</time>
      </trkpt>
      <trkpt lat="45.9458" lon="4.83632">
        <ele>261</ele>
        <time>2018-02-19T10:27:38Z</time>
      </trkpt>
      <trkpt lat="45.94585" lon="4.83636">
        <ele>260</ele>
        <time>2018-02-19T10:27:39Z</time>
      </trkpt>
      <trkpt lat="45.94589" lon="4.83639">
        <ele>260</ele>
        <time>2018-02-19T10:27:40Z</time>
      </trkpt>
      <trkpt lat="45.94594" lon="4.83644">
        <ele>260</ele>
        <time>2018-02-19T10:27:41Z</time>
      </trkpt>
      <trkpt lat="45.94599" lon="4.83648">
        <ele>260</ele>
        <time>2018-02-19T10:27:42Z</time>
      </trkpt>
      <trkpt lat="45.94604" lon="4.83653">
        <ele>260</ele>
        <time>2018-02-19T10:27:43Z</time>
      </trkpt>
      <trkpt lat="45.94609" lon="4.83657">
        <ele>260</ele>
        <time>2018-02-19T10:27:44Z</time>
      </trkpt>
      <trkpt lat="45.94613" lon="4.83663">
        <ele>260</ele>
        <time>2018-02-19T10:27:45Z</time>
      </trkpt>
      <trkpt lat="45.94617" lon="4.83667">
        <ele>261</ele>
        <time>2018-02-19T10:27:46Z</time>
      </trkpt>
      <trkpt lat="45.94621" lon="4.83672">
        <ele>261</ele>
        <time>2018-02-19T10:27:47Z</time>
      </trkpt>
      <trkpt lat="45.94626" lon="4.83676">
        <ele>261</ele>
        <time>2018-02-19T10:27:48Z</time>
      </trkpt>
      <trkpt lat="45.9463" lon="4.8368">
        <ele>261</ele>
        <time>2018-02-19T10:27:49Z</time>
      </trkpt>
      <trkpt lat="45.94636" lon="4.83685">
        <ele>261</ele>
        <time>2018-02-19T10:27:50Z</time>
      </trkpt>
      <trkpt lat="45.94641" lon="4.8369">
        <ele>261</ele>
        <time>2018-02-19T10:27:51Z</time>
      </trkpt>
      <trkpt lat="45.94646" lon="4.83695">
        <ele>261</ele>
        <time>2018-02-19T10:27:52Z</time>
      </trkpt>
      <trkpt lat="45.94651" lon="4.837">
        <ele>261</ele>
        <time>2018-02-19T10:27:53Z</time>
      </trkpt>
      <trkpt lat="45.94656" lon="4.83704">
        <ele>261</ele>
        <time>2018-02-19T10:27:54Z</time>
      </trkpt>
      <trkpt lat="45.94661" lon="4.83709">
        <ele>261</ele>
        <time>2018-02-19T10:27:55Z</time>
      </trkpt>
      <trkpt lat="45.94665" lon="4.83713">
        <ele>261</ele>
        <time>2018-02-19T10:27:56Z</time>
      </trkpt>
      <trkpt lat="45.94669" lon="4.83718">
        <ele>261</ele>
        <time>2018-02-19T10:27:57Z</time>
      </trkpt>
      <trkpt lat="45.94674" lon="4.83723">
        <ele>261</ele>
        <time>2018-02-19T10:27:58Z</time>
      </trkpt>
      <trkpt lat="45.94678" lon="4.83727">
        <ele>261</ele>
        <time>2018-02-19T10:27:59Z</time>
      </trkpt>
      <trkpt lat="45.94683" lon="4.8373">
        <ele>261</ele>
        <time>2018-02-19T10:28:00Z</time>
      </trkpt>
      <trkpt lat="45.94688" lon="4.83734">
        <ele>262</ele>
        <time>2018-02-19T10:28:01Z</time>
      </trkpt>
      <trkpt lat="45.94692" lon="4.83739">
        <ele>262</ele>
        <time>2018-02-19T10:28:02Z</time>
      </trkpt>
      <trkpt lat="45.94696" lon="4.83743">
        <ele>262</ele>
        <time>2018-02-19T10:28:03Z</time>
      </trkpt>
      <trkpt lat="45.94699" lon="4.83747">
        <ele>262</ele>
        <time>2018-02-19T10:28:04Z</time>
      </trkpt>
      <trkpt lat="45.94704" lon="4.83752">
        <ele>263</ele>
        <time>2018-02-19T10:28:05Z</time>
      </trkpt>
      <trkpt lat="45.94707" lon="4.83756">
        <ele>263</ele>
        <time>2018-02-19T10:28:06Z</time>
      </trkpt>
      <trkpt lat="45.94711" lon="4.8376">
        <ele>263</ele>
        <time>2018-02-19T10:28:07Z</time>
      </trkpt>
      <trkpt lat="45.94715" lon="4.83764">
        <ele>263</ele>
        <time>2018-02-19T10:28:08Z</time>
      </trkpt>
      <trkpt lat="45.94721" lon="4.83771">
        <ele>263</ele>
        <time>2018-02-19T10:28:10Z</time>
      </trkpt>
      <trkpt lat="45.94724" lon="4.83776">
        <ele>263</ele>
        <time>2018-02-19T10:28:11Z</time>
      </trkpt>
      <trkpt lat="45.9473" lon="4.83783">
        <ele>263</ele>
        <time>2018-02-19T10:28:13Z</time>
      </trkpt>
      <trkpt lat="45.94733" lon="4.83786">
        <ele>263</ele>
        <time>2018-02-19T10:28:14Z</time>
      </trkpt>
      <trkpt lat="45.94739" lon="4.83793">
        <ele>264</ele>
        <time>2018-02-19T10:28:16Z</time>
      </trkpt>
      <trkpt lat="45.94741" lon="4.83797">
        <ele>264</ele>
        <time>2018-02-19T10:28:17Z</time>
      </trkpt>
      <trkpt lat="45.94746" lon="4.83805">
        <ele>264</ele>
        <time>2018-02-19T10:28:19Z</time>
      </trkpt>
      <trkpt lat="45.94748" lon="4.83809">
        <ele>264</ele>
        <time>2018-02-19T10:28:20Z</time>
      </trkpt>
      <trkpt lat="45.94753" lon="4.83814">
        <ele>264</ele>
        <time>2018-02-19T10:28:22Z</time>
      </trkpt>
      <trkpt lat="45.94756" lon="4.83816">
        <ele>264</ele>
        <time>2018-02-19T10:28:23Z</time>
      </trkpt>
      <trkpt lat="45.94762" lon="4.83822">
        <ele>264</ele>
        <time>2018-02-19T10:28:25Z</time>
      </trkpt>
      <trkpt lat="45.94765" lon="4.83825">
        <ele>264</ele>
        <time>2018-02-19T10:28:26Z</time>
      </trkpt>
      <trkpt lat="45.9477" lon="4.83832">
        <ele>264</ele>
        <time>2018-02-19T10:28:28Z</time>
      </trkpt>
      <trkpt lat="45.94772" lon="4.83836">
        <ele>265</ele>
        <time>2018-02-19T10:28:29Z</time>
      </trkpt>
      <trkpt lat="45.94778" lon="4.83845">
        <ele>265</ele>
        <time>2018-02-19T10:28:31Z</time>
      </trkpt>
      <trkpt lat="45.9478" lon="4.83849">
        <ele>265</ele>
        <time>2018-02-19T10:28:32Z</time>
      </trkpt>
      <trkpt lat="45.94785" lon="4.83858">
        <ele>265</ele>
        <time>2018-02-19T10:28:34Z</time>
      </trkpt>
      <trkpt lat="45.94788" lon="4.83863">
        <ele>265</ele>
        <time>2018-02-19T10:28:35Z</time>
      </trkpt>
      <trkpt lat="45.94793" lon="4.83873">
        <ele>265</ele>
        <time>2018-02-19T10:28:37Z</time>
      </trkpt>
      <trkpt lat="45.94796" lon="4.83877">
        <ele>265</ele>
        <time>2018-02-19T10:28:38Z</time>
      </trkpt>
      <trkpt lat="45.94801" lon="4.83885">
        <ele>265</ele>
        <time>2018-02-19T10:28:40Z</time>
      </trkpt>
      <trkpt lat="45.94803" lon="4.8389">
        <ele>265</ele>
        <time>2018-02-19T10:28:41Z</time>
      </trkpt>
      <trkpt lat="45.94807" lon="4.83898">
        <ele>265</ele>
        <time>2018-02-19T10:28:43Z</time>
      </trkpt>
      <trkpt lat="45.94809" lon="4.83902">
        <ele>265</ele>
        <time>2018-02-19T10:28:44Z</time>
      </trkpt>
      <trkpt lat="45.94814" lon="4.83909">
        <ele>265</ele>
        <time>2018-02-19T10:28:46Z</time>
      </trkpt>
      <trkpt lat="45.94817" lon="4.83914">
        <ele>265</ele>
        <time>2018-02-19T10:28:47Z</time>
      </trkpt>
      <trkpt lat="45.94822" lon="4.83924">
        <ele>266</ele>
        <time>2018-02-19T10:28:49Z</time>
      </trkpt>
      <trkpt lat="45.94824" lon="4.83928">
        <ele>266</ele>
        <time>2018-02-19T10:28:50Z</time>
      </trkpt>
      <trkpt lat="45.94829" lon="4.83938">
        <ele>266</ele>
        <time>2018-02-19T10:28:52Z</time>
      </trkpt>
      <trkpt lat="45.94831" lon="4.83943">
        <ele>266</ele>
        <time>2018-02-19T10:28:53Z</time>
      </trkpt>
      <trkpt lat="45.94836" lon="4.83952">
        <ele>265</ele>
        <time>2018-02-19T10:28:55Z</time>
      </trkpt>
      <trkpt lat="45.94838" lon="4.83956">
        <ele>265</ele>
        <time>2018-02-19T10:28:56Z</time>
      </trkpt>
      <trkpt lat="45.94843" lon="4.83966">
        <ele>265</ele>
        <time>2018-02-19T10:28:58Z</time>
      </trkpt>
      <trkpt lat="45.94845" lon="4.83972">
        <ele>265</ele>
        <time>2018-02-19T10:28:59Z</time>
      </trkpt>
      <trkpt lat="45.94847" lon="4.83979">
        <ele>265</ele>
        <time>2018-02-19T10:29:00Z</time>
      </trkpt>
      <trkpt lat="45.94849" lon="4.83984">
        <ele>265</ele>
        <time>2018-02-19T10:29:01Z</time>
      </trkpt>
      <trkpt lat="45.94852" lon="4.8399">
        <ele>265</ele>
        <time>2018-02-19T10:29:02Z</time>
      </trkpt>
      <trkpt lat="45.94854" lon="4.83995">
        <ele>265</ele>
        <time>2018-02-19T10:29:03Z</time>
      </trkpt>
      <trkpt lat="45.94856" lon="4.84001">
        <ele>266</ele>
        <time>2018-02-19T10:29:04Z</time>
      </trkpt>
      <trkpt lat="45.94859" lon="4.84007">
        <ele>266</ele>
        <time>2018-02-19T10:29:05Z</time>
      </trkpt>
      <trkpt lat="45.94863" lon="4.84015">
        <ele>266</ele>
        <time>2018-02-19T10:29:07Z</time>
      </trkpt>
      <trkpt lat="45.94864" lon="4.84021">
        <ele>266</ele>
        <time>2018-02-19T10:29:08Z</time>
      </trkpt>
      <trkpt lat="45.94867" lon="4.84033">
        <ele>266</ele>
        <time>2018-02-19T10:29:10Z</time>
      </trkpt>
      <trkpt lat="45.94869" lon="4.84038">
        <ele>266</ele>
        <time>2018-02-19T10:29:11Z</time>
      </trkpt>
      <trkpt lat="45.94873" lon="4.84049">
        <ele>267</ele>
        <time>2018-02-19T10:29:13Z</time>
      </trkpt>
      <trkpt lat="45.94875" lon="4.84054">
        <ele>267</ele>
        <time>2018-02-19T10:29:14Z</time>
      </trkpt>
      <trkpt lat="45.9488" lon="4.84064">
        <ele>267</ele>
        <time>2018-02-19T10:29:16Z</time>
      </trkpt>
      <trkpt lat="45.94882" lon="4.8407">
        <ele>267</ele>
        <time>2018-02-19T10:29:17Z</time>
      </trkpt>
      <trkpt lat="45.94885" lon="4.84081">
        <ele>267</ele>
        <time>2018-02-19T10:29:19Z</time>
      </trkpt>
      <trkpt lat="45.94888" lon="4.84086">
        <ele>267</ele>
        <time>2018-02-19T10:29:20Z</time>
      </trkpt>
      <trkpt lat="45.94891" lon="4.84096">
        <ele>267</ele>
        <time>2018-02-19T10:29:22Z</time>
      </trkpt>
      <trkpt lat="45.94893" lon="4.84101">
        <ele>267</ele>
        <time>2018-02-19T10:29:23Z</time>
      </trkpt>
      <trkpt lat="45.94895" lon="4.84107">
        <ele>267</ele>
        <time>2018-02-19T10:29:24Z</time>
      </trkpt>
      <trkpt lat="45.94898" lon="4.84112">
        <ele>267</ele>
        <time>2018-02-19T10:29:25Z</time>
      </trkpt>
      <trkpt lat="45.94903" lon="4.84122">
        <ele>267</ele>
        <time>2018-02-19T10:29:27Z</time>
      </trkpt>
      <trkpt lat="45.94905" lon="4.84127">
        <ele>267</ele>
        <time>2018-02-19T10:29:28Z</time>
      </trkpt>
      <trkpt lat="45.9491" lon="4.84137">
        <ele>268</ele>
        <time>2018-02-19T10:29:30Z</time>
      </trkpt>
      <trkpt lat="45.94913" lon="4.84142">
        <ele>268</ele>
        <time>2018-02-19T10:29:31Z</time>
      </trkpt>
      <trkpt lat="45.94918" lon="4.84152">
        <ele>268</ele>
        <time>2018-02-19T10:29:33Z</time>
      </trkpt>
      <trkpt lat="45.94921" lon="4.84156">
        <ele>268</ele>
        <time>2018-02-19T10:29:34Z</time>
      </trkpt>
      <trkpt lat="45.94924" lon="4.84162">
        <ele>268</ele>
        <time>2018-02-19T10:29:35Z</time>
      </trkpt>
      <trkpt lat="45.94927" lon="4.84166">
        <ele>268</ele>
        <time>2018-02-19T10:29:36Z</time>
      </trkpt>
      <trkpt lat="45.94933" lon="4.84175">
        <ele>267</ele>
        <time>2018-02-19T10:29:38Z</time>
      </trkpt>
      <trkpt lat="45.94936" lon="4.8418">
        <ele>267</ele>
        <time>2018-02-19T10:29:39Z</time>
      </trkpt>
      <trkpt lat="45.94943" lon="4.84189">
        <ele>267</ele>
        <time>2018-02-19T10:29:41Z</time>
      </trkpt>
      <trkpt lat="45.94946" lon="4.84194">
        <ele>267</ele>
        <time>2018-02-19T10:29:42Z</time>
      </trkpt>
      <trkpt lat="45.94952" lon="4.84203">
        <ele>267</ele>
        <time>2018-02-19T10:29:44Z</time>
      </trkpt>
      <trkpt lat="45.94956" lon="4.84207">
        <ele>267</ele>
        <time>2018-02-19T10:29:45Z</time>
      </trkpt>
      <trkpt lat="45.94962" lon="4.84216">
        <ele>267</ele>
        <time>2018-02-19T10:29:47Z</time>
      </trkpt>
      <trkpt lat="45.94965" lon="4.8422">
        <ele>267</ele>
        <time>2018-02-19T10:29:48Z</time>
      </trkpt>
      <trkpt lat="45.94971" lon="4.84229">
        <ele>267</ele>
        <time>2018-02-19T10:29:50Z</time>
      </trkpt>
      <trkpt lat="45.94974" lon="4.84233">
        <ele>267</ele>
        <time>2018-02-19T10:29:51Z</time>
      </trkpt>
      <trkpt lat="45.9498" lon="4.84242">
        <ele>267</ele>
        <time>2018-02-19T10:29:53Z</time>
      </trkpt>
      <trkpt lat="45.94983" lon="4.84246">
        <ele>267</ele>
        <time>2018-02-19T10:29:54Z</time>
      </trkpt>
      <trkpt lat="45.94988" lon="4.84256">
        <ele>267</ele>
        <time>2018-02-19T10:29:56Z</time>
      </trkpt>
      <trkpt lat="45.9499" lon="4.84259">
        <ele>267</ele>
        <time>2018-02-19T10:29:57Z</time>
      </trkpt>
      <trkpt lat="45.94996" lon="4.84268">
        <ele>267</ele>
        <time>2018-02-19T10:29:59Z</time>
      </trkpt>
      <trkpt lat="45.94998" lon="4.84272">
        <ele>267</ele>
        <time>2018-02-19T10:30:00Z</time>
      </trkpt>
      <trkpt lat="45.95003" lon="4.84281">
        <ele>267</ele>
        <time>2018-02-19T10:30:02Z</time>
      </trkpt>
      <trkpt lat="45.95005" lon="4.84285">
        <ele>267</ele>
        <time>2018-02-19T10:30:03Z</time>
      </trkpt>
      <trkpt lat="45.9501" lon="4.84294">
        <ele>267</ele>
        <time>2018-02-19T10:30:05Z</time>
      </trkpt>
      <trkpt lat="45.95013" lon="4.84299">
        <ele>267</ele>
        <time>2018-02-19T10:30:06Z</time>
      </trkpt>
      <trkpt lat="45.95018" lon="4.84309">
        <ele>267</ele>
        <time>2018-02-19T10:30:08Z</time>
      </trkpt>
      <trkpt lat="45.95021" lon="4.84313">
        <ele>267</ele>
        <time>2018-02-19T10:30:09Z</time>
      </trkpt>
      <trkpt lat="45.95028" lon="4.84322">
        <ele>267</ele>
        <time>2018-02-19T10:30:11Z</time>
      </trkpt>
      <trkpt lat="45.95031" lon="4.84326">
        <ele>267</ele>
        <time>2018-02-19T10:30:12Z</time>
      </trkpt>
      <trkpt lat="45.95034" lon="4.84331">
        <ele>267</ele>
        <time>2018-02-19T10:30:13Z</time>
      </trkpt>
      <trkpt lat="45.95037" lon="4.84337">
        <ele>267</ele>
        <time>2018-02-19T10:30:14Z</time>
      </trkpt>
      <trkpt lat="45.9504" lon="4.84342">
        <ele>267</ele>
        <time>2018-02-19T10:30:15Z</time>
      </trkpt>
      <trkpt lat="45.95043" lon="4.84347">
        <ele>267</ele>
        <time>2018-02-19T10:30:16Z</time>
      </trkpt>
      <trkpt lat="45.95048" lon="4.84356">
        <ele>267</ele>
        <time>2018-02-19T10:30:18Z</time>
      </trkpt>
      <trkpt lat="45.95051" lon="4.84359">
        <ele>267</ele>
        <time>2018-02-19T10:30:19Z</time>
      </trkpt>
      <trkpt lat="45.95055" lon="4.84363">
        <ele>267</ele>
        <time>2018-02-19T10:30:20Z</time>
      </trkpt>
      <trkpt lat="45.95059" lon="4.84367">
        <ele>267</ele>
        <time>2018-02-19T10:30:21Z</time>
      </trkpt>
      <trkpt lat="45.95062" lon="4.84371">
        <ele>267</ele>
        <time>2018-02-19T10:30:22Z</time>
      </trkpt>
      <trkpt lat="45.95065" lon="4.84376">
        <ele>267</ele>
        <time>2018-02-19T10:30:23Z</time>
      </trkpt>
      <trkpt lat="45.95069" lon="4.84381">
        <ele>267</ele>
        <time>2018-02-19T10:30:24Z</time>
      </trkpt>
      <trkpt lat="45.95073" lon="4.84385">
        <ele>267</ele>
        <time>2018-02-19T10:30:25Z</time>
      </trkpt>
      <trkpt lat="45.95077" lon="4.8439">
        <ele>267</ele>
        <time>2018-02-19T10:30:26Z</time>
      </trkpt>
      <trkpt lat="45.95081" lon="4.84394">
        <ele>267</ele>
        <time>2018-02-19T10:30:27Z</time>
      </trkpt>
      <trkpt lat="45.95085" lon="4.84398">
        <ele>267</ele>
        <time>2018-02-19T10:30:28Z</time>
      </trkpt>
      <trkpt lat="45.95088" lon="4.84403">
        <ele>267</ele>
        <time>2018-02-19T10:30:29Z</time>
      </trkpt>
      <trkpt lat="45.95092" lon="4.84408">
        <ele>267</ele>
        <time>2018-02-19T10:30:30Z</time>
      </trkpt>
      <trkpt lat="45.95096" lon="4.84411">
        <ele>267</ele>
        <time>2018-02-19T10:30:31Z</time>
      </trkpt>
      <trkpt lat="45.951" lon="4.84416">
        <ele>267</ele>
        <time>2018-02-19T10:30:32Z</time>
      </trkpt>
      <trkpt lat="45.95105" lon="4.8442">
        <ele>267</ele>
        <time>2018-02-19T10:30:33Z</time>
      </trkpt>
      <trkpt lat="45.95109" lon="4.84423">
        <ele>267</ele>
        <time>2018-02-19T10:30:34Z</time>
      </trkpt>
      <trkpt lat="45.95113" lon="4.84429">
        <ele>267</ele>
        <time>2018-02-19T10:30:35Z</time>
      </trkpt>
      <trkpt lat="45.95118" lon="4.84434">
        <ele>267</ele>
        <time>2018-02-19T10:30:36Z</time>
      </trkpt>
      <trkpt lat="45.95122" lon="4.84437">
        <ele>267</ele>
        <time>2018-02-19T10:30:37Z</time>
      </trkpt>
      <trkpt lat="45.95127" lon="4.84442">
        <ele>267</ele>
        <time>2018-02-19T10:30:38Z</time>
      </trkpt>
      <trkpt lat="45.95131" lon="4.84445">
        <ele>267</ele>
        <time>2018-02-19T10:30:39Z</time>
      </trkpt>
      <trkpt lat="45.95135" lon="4.8445">
        <ele>267</ele>
        <time>2018-02-19T10:30:40Z</time>
      </trkpt>
      <trkpt lat="45.95139" lon="4.84454">
        <ele>267</ele>
        <time>2018-02-19T10:30:41Z</time>
      </trkpt>
      <trkpt lat="45.95142" lon="4.84458">
        <ele>267</ele>
        <time>2018-02-19T10:30:42Z</time>
      </trkpt>
      <trkpt lat="45.95146" lon="4.84463">
        <ele>266</ele>
        <time>2018-02-19T10:30:43Z</time>
      </trkpt>
      <trkpt lat="45.95151" lon="4.84467">
        <ele>266</ele>
        <time>2018-02-19T10:30:44Z</time>
      </trkpt>
      <trkpt lat="45.95154" lon="4.84472">
        <ele>266</ele>
        <time>2018-02-19T10:30:45Z</time>
      </trkpt>
      <trkpt lat="45.95158" lon="4.84477">
        <ele>266</ele>
        <time>2018-02-19T10:30:46Z</time>
      </trkpt>
      <trkpt lat="45.95162" lon="4.84481">
        <ele>266</ele>
        <time>2018-02-19T10:30:47Z</time>
      </trkpt>
      <trkpt lat="45.95167" lon="4.84487">
        <ele>266</ele>
        <time>2018-02-19T10:30:48Z</time>
      </trkpt>
      <trkpt lat="45.95171" lon="4.84492">
        <ele>266</ele>
        <time>2018-02-19T10:30:49Z</time>
      </trkpt>
      <trkpt lat="45.95175" lon="4.84496">
        <ele>266</ele>
        <time>2018-02-19T10:30:50Z</time>
      </trkpt>
      <trkpt lat="45.95178" lon="4.84501">
        <ele>265</ele>
        <time>2018-02-19T10:30:51Z</time>
      </trkpt>
      <trkpt lat="45.95182" lon="4.84506">
        <ele>265</ele>
        <time>2018-02-19T10:30:52Z</time>
      </trkpt>
      <trkpt lat="45.95186" lon="4.84512">
        <ele>265</ele>
        <time>2018-02-19T10:30:53Z</time>
      </trkpt>
      <trkpt lat="45.9519" lon="4.84518">
        <ele>265</ele>
        <time>2018-02-19T10:30:54Z</time>
      </trkpt>
      <trkpt lat="45.95195" lon="4.84522">
        <ele>265</ele>
        <time>2018-02-19T10:30:55Z</time>
      </trkpt>
      <trkpt lat="45.95198" lon="4.84527">
        <ele>265</ele>
        <time>2018-02-19T10:30:56Z</time>
      </trkpt>
      <trkpt lat="45.95201" lon="4.84532">
        <ele>265</ele>
        <time>2018-02-19T10:30:57Z</time>
      </trkpt>
      <trkpt lat="45.95205" lon="4.84537">
        <ele>265</ele>
        <time>2018-02-19T10:30:58Z</time>
      </trkpt>
      <trkpt lat="45.95209" lon="4.84541">
        <ele>264</ele>
        <time>2018-02-19T10:30:59Z</time>
      </trkpt>
      <trkpt lat="45.95213" lon="4.84547">
        <ele>264</ele>
        <time>2018-02-19T10:31:00Z</time>
      </trkpt>
      <trkpt lat="45.95217" lon="4.84553">
        <ele>264</ele>
        <time>2018-02-19T10:31:01Z</time>
      </trkpt>
      <trkpt lat="45.95222" lon="4.84557">
        <ele>264</ele>
        <time>2018-02-19T10:31:02Z</time>
      </trkpt>
      <trkpt lat="45.95225" lon="4.84562">
        <ele>264</ele>
        <time>2018-02-19T10:31:03Z</time>
      </trkpt>
      <trkpt lat="45.95229" lon="4.84566">
        <ele>264</ele>
        <time>2018-02-19T10:31:04Z</time>
      </trkpt>
      <trkpt lat="45.95233" lon="4.8457">
        <ele>264</ele>
        <time>2018-02-19T10:31:05Z</time>
      </trkpt>
      <trkpt lat="45.95236" lon="4.84574">
        <ele>264</ele>
        <time>2018-02-19T10:31:06Z</time>
      </trkpt>
      <trkpt lat="45.9524" lon="4.84579">
        <ele>264</ele>
        <time>2018-02-19T10:31:07Z</time>
      </trkpt>
      <trkpt lat="45.95244" lon="4.84583">
        <ele>264</ele>
        <time>2018-02-19T10:31:08Z</time>
      </trkpt>
      <trkpt lat="45.95247" lon="4.84588">
        <ele>264</ele>
        <time>2018-02-19T10:31:09Z</time>
      </trkpt>
      <trkpt lat="45.95253" lon="4.84594">
        <ele>264</ele>
        <time>2018-02-19T10:31:11Z</time>
      </trkpt>
      <trkpt lat="45.95257" lon="4.84598">
        <ele>264</ele>
        <time>2018-02-19T10:31:12Z</time>
      </trkpt>
      <trkpt lat="45.9526" lon="4.84602">
        <ele>264</ele>
        <time>2018-02-19T10:31:13Z</time>
      </trkpt>
      <trkpt lat="45.95264" lon="4.84607">
        <ele>264</ele>
        <time>2018-02-19T10:31:14Z</time>
      </trkpt>
      <trkpt lat="45.95268" lon="4.8461">
        <ele>264</ele>
        <time>2018-02-19T10:31:15Z</time>
      </trkpt>
      <trkpt lat="45.95272" lon="4.84615">
        <ele>264</ele>
        <time>2018-02-19T10:31:16Z</time>
      </trkpt>
      <trkpt lat="45.95275" lon="4.84619">
        <ele>264</ele>
        <time>2018-02-19T10:31:17Z</time>
      </trkpt>
      <trkpt lat="45.95279" lon="4.84624">
        <ele>264</ele>
        <time>2018-02-19T10:31:18Z</time>
      </trkpt>
      <trkpt lat="45.95282" lon="4.84628">
        <ele>264</ele>
        <time>2018-02-19T10:31:19Z</time>
      </trkpt>
      <trkpt lat="45.95286" lon="4.84632">
        <ele>264</ele>
        <time>2018-02-19T10:31:20Z</time>
      </trkpt>
      <trkpt lat="45.9529" lon="4.84637">
        <ele>264</ele>
        <time>2018-02-19T10:31:21Z</time>
      </trkpt>
      <trkpt lat="45.95294" lon="4.84641">
        <ele>264</ele>
        <time>2018-02-19T10:31:22Z</time>
      </trkpt>
      <trkpt lat="45.95302" lon="4.84647">
        <ele>264</ele>
        <time>2018-02-19T10:31:24Z</time>
      </trkpt>
      <trkpt lat="45.95305" lon="4.84651">
        <ele>264</ele>
        <time>2018-02-19T10:31:25Z</time>
      </trkpt>
      <trkpt lat="45.95312" lon="4.84658">
        <ele>265</ele>
        <time>2018-02-19T10:31:27Z</time>
      </trkpt>
      <trkpt lat="45.95316" lon="4.84662">
        <ele>265</ele>
        <time>2018-02-19T10:31:28Z</time>
      </trkpt>
      <trkpt lat="45.95319" lon="4.84665">
        <ele>265</ele>
        <time>2018-02-19T10:31:29Z</time>
      </trkpt>
      <trkpt lat="45.95323" lon="4.84669">
        <ele>265</ele>
        <time>2018-02-19T10:31:30Z</time>
      </trkpt>
      <trkpt lat="45.95328" lon="4.84673">
        <ele>265</ele>
        <time>2018-02-19T10:31:31Z</time>
      </trkpt>
      <trkpt lat="45.95332" lon="4.84675">
        <ele>265</ele>
        <time>2018-02-19T10:31:32Z</time>
      </trkpt>
      <trkpt lat="45.95339" lon="4.84682">
        <ele>265</ele>
        <time>2018-02-19T10:31:34Z</time>
      </trkpt>
      <trkpt lat="45.95343" lon="4.84685">
        <ele>266</ele>
        <time>2018-02-19T10:31:35Z</time>
      </trkpt>
      <trkpt lat="45.95351" lon="4.84691">
        <ele>266</ele>
        <time>2018-02-19T10:31:37Z</time>
      </trkpt>
      <trkpt lat="45.95354" lon="4.84694">
        <ele>266</ele>
        <time>2018-02-19T10:31:38Z</time>
      </trkpt>
      <trkpt lat="45.95361" lon="4.84699">
        <ele>266</ele>
        <time>2018-02-19T10:31:40Z</time>
      </trkpt>
      <trkpt lat="45.95364" lon="4.84702">
        <ele>266</ele>
        <time>2018-02-19T10:31:41Z</time>
      </trkpt>
      <trkpt lat="45.95371" lon="4.84707">
        <ele>266</ele>
        <time>2018-02-19T10:31:43Z</time>
      </trkpt>
      <trkpt lat="45.95375" lon="4.8471">
        <ele>266</ele>
        <time>2018-02-19T10:31:44Z</time>
      </trkpt>
      <trkpt lat="45.95382" lon="4.84715">
        <ele>266</ele>
        <time>2018-02-19T10:31:46Z</time>
      </trkpt>
      <trkpt lat="45.95385" lon="4.84718">
        <ele>266</ele>
        <time>2018-02-19T10:31:47Z</time>
      </trkpt>
      <trkpt lat="45.95391" lon="4.84724">
        <ele>266</ele>
        <time>2018-02-19T10:31:49Z</time>
      </trkpt>
      <trkpt lat="45.95394" lon="4.84726">
        <ele>266</ele>
        <time>2018-02-19T10:31:50Z</time>
      </trkpt>
      <trkpt lat="45.95402" lon="4.84731">
        <ele>266</ele>
        <time>2018-02-19T10:31:52Z</time>
      </trkpt>
      <trkpt lat="45.95405" lon="4.84733">
        <ele>266</ele>
        <time>2018-02-19T10:31:53Z</time>
      </trkpt>
      <trkpt lat="45.95412" lon="4.8474">
        <ele>267</ele>
        <time>2018-02-19T10:31:55Z</time>
      </trkpt>
      <trkpt lat="45.95415" lon="4.84744">
        <ele>267</ele>
        <time>2018-02-19T10:31:56Z</time>
      </trkpt>
      <trkpt lat="45.95422" lon="4.84751">
        <ele>267</ele>
        <time>2018-02-19T10:31:58Z</time>
      </trkpt>
      <trkpt lat="45.95425" lon="4.84754">
        <ele>267</ele>
        <time>2018-02-19T10:31:59Z</time>
      </trkpt>
      <trkpt lat="45.95432" lon="4.84762">
        <ele>267</ele>
        <time>2018-02-19T10:32:01Z</time>
      </trkpt>
      <trkpt lat="45.95436" lon="4.84766">
        <ele>267</ele>
        <time>2018-02-19T10:32:02Z</time>
      </trkpt>
      <trkpt lat="45.95443" lon="4.84773">
        <ele>267</ele>
        <time>2018-02-19T10:32:04Z</time>
      </trkpt>
      <trkpt lat="45.95445" lon="4.84779">
        <ele>267</ele>
        <time>2018-02-19T10:32:05Z</time>
      </trkpt>
      <trkpt lat="45.95449" lon="4.84783">
        <ele>267</ele>
        <time>2018-02-19T10:32:06Z</time>
      </trkpt>
      <trkpt lat="45.95453" lon="4.84787">
        <ele>267</ele>
        <time>2018-02-19T10:32:07Z</time>
      </trkpt>
      <trkpt lat="45.95457" lon="4.84793">
        <ele>267</ele>
        <time>2018-02-19T10:32:08Z</time>
      </trkpt>
      <trkpt lat="45.95462" lon="4.84797">
        <ele>267</ele>
        <time>2018-02-19T10:32:09Z</time>
      </trkpt>
      <trkpt lat="45.95466" lon="4.84801">
        <ele>267</ele>
        <time>2018-02-19T10:32:10Z</time>
      </trkpt>
      <trkpt lat="45.95469" lon="4.84805">
        <ele>267</ele>
        <time>2018-02-19T10:32:11Z</time>
      </trkpt>
      <trkpt lat="45.95476" lon="4.84812">
        <ele>267</ele>
        <time>2018-02-19T10:32:13Z</time>
      </trkpt>
      <trkpt lat="45.95479" lon="4.84816">
        <ele>267</ele>
        <time>2018-02-19T10:32:14Z</time>
      </trkpt>
      <trkpt lat="45.95485" lon="4.84824">
        <ele>267</ele>
        <time>2018-02-19T10:32:16Z</time>
      </trkpt>
      <trkpt lat="45.95488" lon="4.84828">
        <ele>267</ele>
        <time>2018-02-19T10:32:17Z</time>
      </trkpt>
      <trkpt lat="45.95494" lon="4.84837">
        <ele>267</ele>
        <time>2018-02-19T10:32:19Z</time>
      </trkpt>
      <trkpt lat="45.95498" lon="4.84843">
        <ele>267</ele>
        <time>2018-02-19T10:32:20Z</time>
      </trkpt>
      <trkpt lat="45.95505" lon="4.84851">
        <ele>268</ele>
        <time>2018-02-19T10:32:22Z</time>
      </trkpt>
      <trkpt lat="45.95508" lon="4.84854">
        <ele>268</ele>
        <time>2018-02-19T10:32:23Z</time>
      </trkpt>
      <trkpt lat="45.95515" lon="4.84861">
        <ele>268</ele>
        <time>2018-02-19T10:32:25Z</time>
      </trkpt>
      <trkpt lat="45.95518" lon="4.84865">
        <ele>268</ele>
        <time>2018-02-19T10:32:26Z</time>
      </trkpt>
      <trkpt lat="45.95525" lon="4.84872">
        <ele>268</ele>
        <time>2018-02-19T10:32:28Z</time>
      </trkpt>
      <trkpt lat="45.95529" lon="4.84876">
        <ele>268</ele>
        <time>2018-02-19T10:32:29Z</time>
      </trkpt>
      <trkpt lat="45.95535" lon="4.84884">
        <ele>268</ele>
        <time>2018-02-19T10:32:31Z</time>
      </trkpt>
      <trkpt lat="45.95539" lon="4.84888">
        <ele>268</ele>
        <time>2018-02-19T10:32:32Z</time>
      </trkpt>
      <trkpt lat="45.95547" lon="4.84893">
        <ele>268</ele>
        <time>2018-02-19T10:32:34Z</time>
      </trkpt>
      <trkpt lat="45.95551" lon="4.84896">
        <ele>268</ele>
        <time>2018-02-19T10:32:35Z</time>
      </trkpt>
      <trkpt lat="45.95558" lon="4.84901">
        <ele>268</ele>
        <time>2018-02-19T10:32:37Z</time>
      </trkpt>
      <trkpt lat="45.95562" lon="4.84903">
        <ele>268</ele>
        <time>2018-02-19T10:32:38Z</time>
      </trkpt>
      <trkpt lat="45.95569" lon="4.84908">
        <ele>269</ele>
        <time>2018-02-19T10:32:40Z</time>
      </trkpt>
      <trkpt lat="45.95572" lon="4.84911">
        <ele>269</ele>
        <time>2018-02-19T10:32:41Z</time>
      </trkpt>
      <trkpt lat="45.95579" lon="4.84914">
        <ele>269</ele>
        <time>2018-02-19T10:32:43Z</time>
      </trkpt>
      <trkpt lat="45.95583" lon="4.84916">
        <ele>269</ele>
        <time>2018-02-19T10:32:44Z</time>
      </trkpt>
      <trkpt lat="45.9559" lon="4.84921">
        <ele>269</ele>
        <time>2018-02-19T10:32:46Z</time>
      </trkpt>
      <trkpt lat="45.95593" lon="4.84923">
        <ele>270</ele>
        <time>2018-02-19T10:32:47Z</time>
      </trkpt>
      <trkpt lat="45.95599" lon="4.84927">
        <ele>270</ele>
        <time>2018-02-19T10:32:49Z</time>
      </trkpt>
      <trkpt lat="45.95603" lon="4.84929">
        <ele>270</ele>
        <time>2018-02-19T10:32:50Z</time>
      </trkpt>
      <trkpt lat="45.9561" lon="4.84933">
        <ele>270</ele>
        <time>2018-02-19T10:32:52Z</time>
      </trkpt>
      <trkpt lat="45.95613" lon="4.84936">
        <ele>270</ele>
        <time>2018-02-19T10:32:53Z</time>
      </trkpt>
      <trkpt lat="45.9562" lon="4.84941">
        <ele>270</ele>
        <time>2018-02-19T10:32:55Z</time>
      </trkpt>
      <trkpt lat="45.95623" lon="4.84943">
        <ele>271</ele>
        <time>2018-02-19T10:32:56Z</time>
      </trkpt>
      <trkpt lat="45.9563" lon="4.84949">
        <ele>271</ele>
        <time>2018-02-19T10:32:58Z</time>
      </trkpt>
      <trkpt lat="45.95633" lon="4.84951">
        <ele>271</ele>
        <time>2018-02-19T10:32:59Z</time>
      </trkpt>
      <trkpt lat="45.9564" lon="4.84957">
        <ele>271</ele>
        <time>2018-02-19T10:33:01Z</time>
      </trkpt>
      <trkpt lat="45.95643" lon="4.8496">
        <ele>271</ele>
        <time>2018-02-19T10:33:02Z</time>
      </trkpt>
      <trkpt lat="45.95649" lon="4.84965">
        <ele>271</ele>
        <time>2018-02-19T10:33:04Z</time>
      </trkpt>
      <trkpt lat="45.95652" lon="4.84968">
        <ele>271</ele>
        <time>2018-02-19T10:33:05Z</time>
      </trkpt>
      <trkpt lat="45.95658" lon="4.84975">
        <ele>271</ele>
        <time>2018-02-19T10:33:07Z</time>
      </trkpt>
      <trkpt lat="45.95661" lon="4.84978">
        <ele>272</ele>
        <time>2018-02-19T10:33:08Z</time>
      </trkpt>
      <trkpt lat="45.95666" lon="4.84986">
        <ele>272</ele>
        <time>2018-02-19T10:33:10Z</time>
      </trkpt>
      <trkpt lat="45.95668" lon="4.8499">
        <ele>273</ele>
        <time>2018-02-19T10:33:11Z</time>
      </trkpt>
      <trkpt lat="45.95673" lon="4.84997">
        <ele>273</ele>
        <time>2018-02-19T10:33:13Z</time>
      </trkpt>
      <trkpt lat="45.95676" lon="4.85001">
        <ele>274</ele>
        <time>2018-02-19T10:33:14Z</time>
      </trkpt>
      <trkpt lat="45.95682" lon="4.85008">
        <ele>275</ele>
        <time>2018-02-19T10:33:16Z</time>
      </trkpt>
      <trkpt lat="45.95685" lon="4.85012">
        <ele>275</ele>
        <time>2018-02-19T10:33:17Z</time>
      </trkpt>
      <trkpt lat="45.95691" lon="4.85019">
        <ele>275</ele>
        <time>2018-02-19T10:33:19Z</time>
      </trkpt>
      <trkpt lat="45.95693" lon="4.85023">
        <ele>276</ele>
        <time>2018-02-19T10:33:20Z</time>
      </trkpt>
      <trkpt lat="45.95698" lon="4.85031">
        <ele>276</ele>
        <time>2018-02-19T10:33:22Z</time>
      </trkpt>
      <trkpt lat="45.957" lon="4.85036">
        <ele>276</ele>
        <time>2018-02-19T10:33:23Z</time>
      </trkpt>
      <trkpt lat="45.95704" lon="4.85045">
        <ele>276</ele>
        <time>2018-02-19T10:33:25Z</time>
      </trkpt>
      <trkpt lat="45.95706" lon="4.8505">
        <ele>276</ele>
        <time>2018-02-19T10:33:26Z</time>
      </trkpt>
      <trkpt lat="45.95711" lon="4.85061">
        <ele>277</ele>
        <time>2018-02-19T10:33:28Z</time>
      </trkpt>
      <trkpt lat="45.95714" lon="4.85067">
        <ele>277</ele>
        <time>2018-02-19T10:33:29Z</time>
      </trkpt>
      <trkpt lat="45.95716" lon="4.85072">
        <ele>277</ele>
        <time>2018-02-19T10:33:30Z</time>
      </trkpt>
      <trkpt lat="45.95719" lon="4.85077">
        <ele>277</ele>
        <time>2018-02-19T10:33:31Z</time>
      </trkpt>
      <trkpt lat="45.95723" lon="4.85083">
        <ele>277</ele>
        <time>2018-02-19T10:33:32Z</time>
      </trkpt>
      <trkpt lat="45.95726" lon="4.85089">
        <ele>279</ele>
        <time>2018-02-19T10:33:33Z</time>
      </trkpt>
      <trkpt lat="45.95731" lon="4.851">
        <ele>279</ele>
        <time>2018-02-19T10:33:35Z</time>
      </trkpt>
      <trkpt lat="45.95734" lon="4.85103">
        <ele>279</ele>
        <time>2018-02-19T10:33:36Z</time>
      </trkpt>
      <trkpt lat="45.95738" lon="4.85111">
        <ele>279</ele>
        <time>2018-02-19T10:33:38Z</time>
      </trkpt>
      <trkpt lat="45.95741" lon="4.85115">
        <ele>279</ele>
        <time>2018-02-19T10:33:39Z</time>
      </trkpt>
      <trkpt lat="45.95744" lon="4.85119">
        <ele>279</ele>
        <time>2018-02-19T10:33:40Z</time>
      </trkpt>
      <trkpt lat="45.95747" lon="4.85125">
        <ele>279</ele>
        <time>2018-02-19T10:33:41Z</time>
      </trkpt>
      <trkpt lat="45.95753" lon="4.85132">
        <ele>276</ele>
        <time>2018-02-19T10:33:43Z</time>
      </trkpt>
      <trkpt lat="45.95756" lon="4.85135">
        <ele>276</ele>
        <time>2018-02-19T10:33:44Z</time>
      </trkpt>
      <trkpt lat="45.95763" lon="4.85142">
        <ele>276</ele>
        <time>2018-02-19T10:33:46Z</time>
      </trkpt>
      <trkpt lat="45.95767" lon="4.85144">
        <ele>276</ele>
        <time>2018-02-19T10:33:47Z</time>
      </trkpt>
      <trkpt lat="45.9577" lon="4.85146">
        <ele>276</ele>
        <time>2018-02-19T10:33:48Z</time>
      </trkpt>
      <trkpt lat="45.95776" lon="4.85152">
        <ele>276</ele>
        <time>2018-02-19T10:33:49Z</time>
      </trkpt>
      <trkpt lat="45.95782" lon="4.85158">
        <ele>275</ele>
        <time>2018-02-19T10:33:51Z</time>
      </trkpt>
      <trkpt lat="45.95785" lon="4.85162">
        <ele>275</ele>
        <time>2018-02-19T10:33:52Z</time>
      </trkpt>
      <trkpt lat="45.95793" lon="4.85167">
        <ele>275</ele>
        <time>2018-02-19T10:33:54Z</time>
      </trkpt>
      <trkpt lat="45.95795" lon="4.85171">
        <ele>275</ele>
        <time>2018-02-19T10:33:55Z</time>
      </trkpt>
      <trkpt lat="45.95801" lon="4.85178">
        <ele>275</ele>
        <time>2018-02-19T10:33:57Z</time>
      </trkpt>
      <trkpt lat="45.95805" lon="4.85181">
        <ele>275</ele>
        <time>2018-02-19T10:33:58Z</time>
      </trkpt>
      <trkpt lat="45.95809" lon="4.85182">
        <ele>274</ele>
        <time>2018-02-19T10:33:59Z</time>
      </trkpt>
      <trkpt lat="45.95814" lon="4.8519">
        <ele>274</ele>
        <time>2018-02-19T10:34:00Z</time>
      </trkpt>
      <trkpt lat="45.95818" lon="4.85197">
        <ele>274</ele>
        <time>2018-02-19T10:34:01Z</time>
      </trkpt>
      <trkpt lat="45.95822" lon="4.852">
        <ele>274</ele>
        <time>2018-02-19T10:34:02Z</time>
      </trkpt>
      <trkpt lat="45.95826" lon="4.85208">
        <ele>274</ele>
        <time>2018-02-19T10:34:03Z</time>
      </trkpt>
      <trkpt lat="45.95829" lon="4.85221">
        <ele>274</ele>
        <time>2018-02-19T10:34:04Z</time>
      </trkpt>
      <trkpt lat="45.95831" lon="4.85227">
        <ele>274</ele>
        <time>2018-02-19T10:34:05Z</time>
      </trkpt>
      <trkpt lat="45.95835" lon="4.85234">
        <ele>271</ele>
        <time>2018-02-19T10:34:06Z</time>
      </trkpt>
      <trkpt lat="45.95838" lon="4.85239">
        <ele>271</ele>
        <time>2018-02-19T10:34:07Z</time>
      </trkpt>
      <trkpt lat="45.95842" lon="4.85245">
        <ele>271</ele>
        <time>2018-02-19T10:34:08Z</time>
      </trkpt>
      <trkpt lat="45.95846" lon="4.85252">
        <ele>271</ele>
        <time>2018-02-19T10:34:09Z</time>
      </trkpt>
      <trkpt lat="45.9585" lon="4.85258">
        <ele>271</ele>
        <time>2018-02-19T10:34:10Z</time>
      </trkpt>
      <trkpt lat="45.95852" lon="4.85264">
        <ele>270</ele>
        <time>2018-02-19T10:34:11Z</time>
      </trkpt>
      <trkpt lat="45.95855" lon="4.85272">
        <ele>270</ele>
        <time>2018-02-19T10:34:12Z</time>
      </trkpt>
      <trkpt lat="45.95858" lon="4.85279">
        <ele>270</ele>
        <time>2018-02-19T10:34:13Z</time>
      </trkpt>
      <trkpt lat="45.95862" lon="4.85285">
        <ele>270</ele>
        <time>2018-02-19T10:34:14Z</time>
      </trkpt>
      <trkpt lat="45.95865" lon="4.85292">
        <ele>270</ele>
        <time>2018-02-19T10:34:15Z</time>
      </trkpt>
      <trkpt lat="45.9587" lon="4.85298">
        <ele>269</ele>
        <time>2018-02-19T10:34:16Z</time>
      </trkpt>
      <trkpt lat="45.95873" lon="4.85304">
        <ele>269</ele>
        <time>2018-02-19T10:34:17Z</time>
      </trkpt>
      <trkpt lat="45.95877" lon="4.8531">
        <ele>269</ele>
        <time>2018-02-19T10:34:18Z</time>
      </trkpt>
      <trkpt lat="45.95881" lon="4.85315">
        <ele>269</ele>
        <time>2018-02-19T10:34:19Z</time>
      </trkpt>
      <trkpt lat="45.95886" lon="4.8532">
        <ele>269</ele>
        <time>2018-02-19T10:34:20Z</time>
      </trkpt>
      <trkpt lat="45.9589" lon="4.85324">
        <ele>269</ele>
        <time>2018-02-19T10:34:21Z</time>
      </trkpt>
      <trkpt lat="45.95896" lon="4.85329">
        <ele>268</ele>
        <time>2018-02-19T10:34:22Z</time>
      </trkpt>
      <trkpt lat="45.95901" lon="4.85332">
        <ele>268</ele>
        <time>2018-02-19T10:34:23Z</time>
      </trkpt>
      <trkpt lat="45.95906" lon="4.85335">
        <ele>267</ele>
        <time>2018-02-19T10:34:24Z</time>
      </trkpt>
      <trkpt lat="45.95912" lon="4.85338">
        <ele>267</ele>
        <time>2018-02-19T10:34:25Z</time>
      </trkpt>
      <trkpt lat="45.95918" lon="4.8534">
        <ele>267</ele>
        <time>2018-02-19T10:34:26Z</time>
      </trkpt>
      <trkpt lat="45.95923" lon="4.85342">
        <ele>266</ele>
        <time>2018-02-19T10:34:27Z</time>
      </trkpt>
      <trkpt lat="45.95929" lon="4.85343">
        <ele>266</ele>
        <time>2018-02-19T10:34:28Z</time>
      </trkpt>
      <trkpt lat="45.95934" lon="4.85345">
        <ele>266</ele>
        <time>2018-02-19T10:34:29Z</time>
      </trkpt>
      <trkpt lat="45.9594" lon="4.85346">
        <ele>266</ele>
        <time>2018-02-19T10:34:30Z</time>
      </trkpt>
      <trkpt lat="45.95946" lon="4.85346">
        <ele>266</ele>
        <time>2018-02-19T10:34:31Z</time>
      </trkpt>
      <trkpt lat="45.95952" lon="4.85346">
        <ele>266</ele>
        <time>2018-02-19T10:34:32Z</time>
      </trkpt>
      <trkpt lat="45.95958" lon="4.85347">
        <ele>265</ele>
        <time>2018-02-19T10:34:33Z</time>
      </trkpt>
      <trkpt lat="45.95965" lon="4.85347">
        <ele>265</ele>
        <time>2018-02-19T10:34:34Z</time>
      </trkpt>
      <trkpt lat="45.95971" lon="4.85347">
        <ele>265</ele>
        <time>2018-02-19T10:34:35Z</time>
      </trkpt>
      <trkpt lat="45.95978" lon="4.85347">
        <ele>265</ele>
        <time>2018-02-19T10:34:36Z</time>
      </trkpt>
      <trkpt lat="45.95984" lon="4.85347">
        <ele>265</ele>
        <time>2018-02-19T10:34:37Z</time>
      </trkpt>
      <trkpt lat="45.95991" lon="4.85347">
        <ele>265</ele>
        <time>2018-02-19T10:34:38Z</time>
      </trkpt>
      <trkpt lat="45.95998" lon="4.85348">
        <ele>265</ele>
        <time>2018-02-19T10:34:39Z</time>
      </trkpt>
      <trkpt lat="45.96005" lon="4.85348">
        <ele>264</ele>
        <time>2018-02-19T10:34:40Z</time>
      </trkpt>
      <trkpt lat="45.96012" lon="4.85348">
        <ele>264</ele>
        <time>2018-02-19T10:34:41Z</time>
      </trkpt>
      <trkpt lat="45.96019" lon="4.85347">
        <ele>263</ele>
        <time>2018-02-19T10:34:42Z</time>
      </trkpt>
      <trkpt lat="45.96027" lon="4.85347">
        <ele>263</ele>
        <time>2018-02-19T10:34:43Z</time>
      </trkpt>
      <trkpt lat="45.96034" lon="4.85346">
        <ele>263</ele>
        <time>2018-02-19T10:34:44Z</time>
      </trkpt>
      <trkpt lat="45.96042" lon="4.85347">
        <ele>262</ele>
        <time>2018-02-19T10:34:45Z</time>
      </trkpt>
      <trkpt lat="45.9605" lon="4.85347">
        <ele>262</ele>
        <time>2018-02-19T10:34:46Z</time>
      </trkpt>
      <trkpt lat="45.96058" lon="4.85348">
        <ele>262</ele>
        <time>2018-02-19T10:34:47Z</time>
      </trkpt>
      <trkpt lat="45.96066" lon="4.85348">
        <ele>262</ele>
        <time>2018-02-19T10:34:48Z</time>
      </trkpt>
      <trkpt lat="45.96074" lon="4.85351">
        <ele>262</ele>
        <time>2018-02-19T10:34:49Z</time>
      </trkpt>
      <trkpt lat="45.96082" lon="4.85354">
        <ele>262</ele>
        <time>2018-02-19T10:34:50Z</time>
      </trkpt>
      <trkpt lat="45.9609" lon="4.85356">
        <ele>259</ele>
        <time>2018-02-19T10:34:51Z</time>
      </trkpt>
      <trkpt lat="45.96099" lon="4.8536">
        <ele>259</ele>
        <time>2018-02-19T10:34:52Z</time>
      </trkpt>
      <trkpt lat="45.96107" lon="4.85363">
        <ele>259</ele>
        <time>2018-02-19T10:34:53Z</time>
      </trkpt>
      <trkpt lat="45.96115" lon="4.85366">
        <ele>259</ele>
        <time>2018-02-19T10:34:54Z</time>
      </trkpt>
      <trkpt lat="45.96122" lon="4.8537">
        <ele>258</ele>
        <time>2018-02-19T10:34:55Z</time>
      </trkpt>
      <trkpt lat="45.96129" lon="4.85373">
        <ele>258</ele>
        <time>2018-02-19T10:34:56Z</time>
      </trkpt>
      <trkpt lat="45.96138" lon="4.85377">
        <ele>258</ele>
        <time>2018-02-19T10:34:57Z</time>
      </trkpt>
      <trkpt lat="45.96145" lon="4.8538">
        <ele>258</ele>
        <time>2018-02-19T10:34:58Z</time>
      </trkpt>
      <trkpt lat="45.96152" lon="4.85385">
        <ele>258</ele>
        <time>2018-02-19T10:34:59Z</time>
      </trkpt>
      <trkpt lat="45.96159" lon="4.85389">
        <ele>258</ele>
        <time>2018-02-19T10:35:00Z</time>
      </trkpt>
      <trkpt lat="45.96165" lon="4.85393">
        <ele>258</ele>
        <time>2018-02-19T10:35:01Z</time>
      </trkpt>
      <trkpt lat="45.96172" lon="4.85396">
        <ele>258</ele>
        <time>2018-02-19T10:35:02Z</time>
      </trkpt>
      <trkpt lat="45.96177" lon="4.854">
        <ele>258</ele>
        <time>2018-02-19T10:35:03Z</time>
      </trkpt>
      <trkpt lat="45.96182" lon="4.85404">
        <ele>258</ele>
        <time>2018-02-19T10:35:04Z</time>
      </trkpt>
      <trkpt lat="45.96186" lon="4.85408">
        <ele>258</ele>
        <time>2018-02-19T10:35:05Z</time>
      </trkpt>
      <trkpt lat="45.96191" lon="4.85412">
        <ele>258</ele>
        <time>2018-02-19T10:35:06Z</time>
      </trkpt>
      <trkpt lat="45.96198" lon="4.85418">
        <ele>260</ele>
        <time>2018-02-19T10:35:08Z</time>
      </trkpt>
      <trkpt lat="45.96202" lon="4.8542">
        <ele>260</ele>
        <time>2018-02-19T10:35:09Z</time>
      </trkpt>
      <trkpt lat="45.96209" lon="4.85428">
        <ele>261</ele>
        <time>2018-02-19T10:35:11Z</time>
      </trkpt>
      <trkpt lat="45.96213" lon="4.8543">
        <ele>261</ele>
        <time>2018-02-19T10:35:12Z</time>
      </trkpt>
      <trkpt lat="45.96221" lon="4.85434">
        <ele>261</ele>
        <time>2018-02-19T10:35:14Z</time>
      </trkpt>
      <trkpt lat="45.96225" lon="4.85436">
        <ele>261</ele>
        <time>2018-02-19T10:35:15Z</time>
      </trkpt>
      <trkpt lat="45.96232" lon="4.8544">
        <ele>261</ele>
        <time>2018-02-19T10:35:17Z</time>
      </trkpt>
      <trkpt lat="45.96236" lon="4.85442">
        <ele>261</ele>
        <time>2018-02-19T10:35:18Z</time>
      </trkpt>
      <trkpt lat="45.96242" lon="4.85445">
        <ele>261</ele>
        <time>2018-02-19T10:35:20Z</time>
      </trkpt>
      <trkpt lat="45.96245" lon="4.85446">
        <ele>261</ele>
        <time>2018-02-19T10:35:21Z</time>
      </trkpt>
      <trkpt lat="45.96252" lon="4.85446">
        <ele>264</ele>
        <time>2018-02-19T10:35:23Z</time>
      </trkpt>
      <trkpt lat="45.96255" lon="4.85447">
        <ele>264</ele>
        <time>2018-02-19T10:35:24Z</time>
      </trkpt>
      <trkpt lat="45.96262" lon="4.8545">
        <ele>264</ele>
        <time>2018-02-19T10:35:27Z</time>
      </trkpt>
      <trkpt lat="45.96265" lon="4.85451">
        <ele>264</ele>
        <time>2018-02-19T10:35:28Z</time>
      </trkpt>
      <trkpt lat="45.96274" lon="4.85453">
        <ele>264</ele>
        <time>2018-02-19T10:35:31Z</time>
      </trkpt>
      <trkpt lat="45.96277" lon="4.85454">
        <ele>264</ele>
        <time>2018-02-19T10:35:32Z</time>
      </trkpt>
      <trkpt lat="45.96285" lon="4.85457">
        <ele>265</ele>
        <time>2018-02-19T10:35:35Z</time>
      </trkpt>
      <trkpt lat="45.96288" lon="4.85456">
        <ele>265</ele>
        <time>2018-02-19T10:35:36Z</time>
      </trkpt>
      <trkpt lat="45.96294" lon="4.85456">
        <ele>265</ele>
        <time>2018-02-19T10:35:38Z</time>
      </trkpt>
      <trkpt lat="45.96297" lon="4.85457">
        <ele>265</ele>
        <time>2018-02-19T10:35:39Z</time>
      </trkpt>
      <trkpt lat="45.96306" lon="4.8546">
        <ele>265</ele>
        <time>2018-02-19T10:35:42Z</time>
      </trkpt>
      <trkpt lat="45.96309" lon="4.8546">
        <ele>265</ele>
        <time>2018-02-19T10:35:43Z</time>
      </trkpt>
      <trkpt lat="45.96317" lon="4.8546">
        <ele>265</ele>
        <time>2018-02-19T10:35:46Z</time>
      </trkpt>
      <trkpt lat="45.9632" lon="4.85461">
        <ele>265</ele>
        <time>2018-02-19T10:35:47Z</time>
      </trkpt>
      <trkpt lat="45.96328" lon="4.85462">
        <ele>265</ele>
        <time>2018-02-19T10:35:50Z</time>
      </trkpt>
      <trkpt lat="45.9633" lon="4.85462">
        <ele>265</ele>
        <time>2018-02-19T10:35:51Z</time>
      </trkpt>
      <trkpt lat="45.96338" lon="4.85461">
        <ele>268</ele>
        <time>2018-02-19T10:35:54Z</time>
      </trkpt>
      <trkpt lat="45.9634" lon="4.85462">
        <ele>268</ele>
        <time>2018-02-19T10:35:55Z</time>
      </trkpt>
      <trkpt lat="45.96349" lon="4.85464">
        <ele>268</ele>
        <time>2018-02-19T10:35:58Z</time>
      </trkpt>
      <trkpt lat="45.96352" lon="4.85465">
        <ele>268</ele>
        <time>2018-02-19T10:35:59Z</time>
      </trkpt>
      <trkpt lat="45.96358" lon="4.85466">
        <ele>268</ele>
        <time>2018-02-19T10:36:01Z</time>
      </trkpt>
      <trkpt lat="45.96361" lon="4.85467">
        <ele>268</ele>
        <time>2018-02-19T10:36:02Z</time>
      </trkpt>
      <trkpt lat="45.96367" lon="4.85466">
        <ele>268</ele>
        <time>2018-02-19T10:36:04Z</time>
      </trkpt>
      <trkpt lat="45.9637" lon="4.85466">
        <ele>268</ele>
        <time>2018-02-19T10:36:05Z</time>
      </trkpt>
      <trkpt lat="45.96377" lon="4.85464">
        <ele>268</ele>
        <time>2018-02-19T10:36:07Z</time>
      </trkpt>
      <trkpt lat="45.96381" lon="4.85463">
        <ele>268</ele>
        <time>2018-02-19T10:36:08Z</time>
      </trkpt>
      <trkpt lat="45.96389" lon="4.85463">
        <ele>269</ele>
        <time>2018-02-19T10:36:11Z</time>
      </trkpt>
      <trkpt lat="45.96393" lon="4.85463">
        <ele>269</ele>
        <time>2018-02-19T10:36:12Z</time>
      </trkpt>
      <trkpt lat="45.964" lon="4.85463">
        <ele>269</ele>
        <time>2018-02-19T10:36:14Z</time>
      </trkpt>
      <trkpt lat="45.96403" lon="4.85463">
        <ele>269</ele>
        <time>2018-02-19T10:36:15Z</time>
      </trkpt>
      <trkpt lat="45.96411" lon="4.85462">
        <ele>269</ele>
        <time>2018-02-19T10:36:18Z</time>
      </trkpt>
      <trkpt lat="45.96414" lon="4.85462">
        <ele>269</ele>
        <time>2018-02-19T10:36:19Z</time>
      </trkpt>
      <trkpt lat="45.9642" lon="4.85461">
        <ele>271</ele>
        <time>2018-02-19T10:36:21Z</time>
      </trkpt>
      <trkpt lat="45.96424" lon="4.85462">
        <ele>271</ele>
        <time>2018-02-19T10:36:22Z</time>
      </trkpt>
      <trkpt lat="45.96433" lon="4.85463">
        <ele>271</ele>
        <time>2018-02-19T10:36:24Z</time>
      </trkpt>
      <trkpt lat="45.96437" lon="4.85464">
        <ele>272</ele>
        <time>2018-02-19T10:36:25Z</time>
      </trkpt>
      <trkpt lat="45.96445" lon="4.85465">
        <ele>272</ele>
        <time>2018-02-19T10:36:27Z</time>
      </trkpt>
      <trkpt lat="45.96448" lon="4.85466">
        <ele>272</ele>
        <time>2018-02-19T10:36:28Z</time>
      </trkpt>
      <trkpt lat="45.96456" lon="4.85469">
        <ele>272</ele>
        <time>2018-02-19T10:36:31Z</time>
      </trkpt>
      <trkpt lat="45.96458" lon="4.8547">
        <ele>272</ele>
        <time>2018-02-19T10:36:32Z</time>
      </trkpt>
      <trkpt lat="45.96464" lon="4.85471">
        <ele>272</ele>
        <time>2018-02-19T10:36:35Z</time>
      </trkpt>
      <trkpt lat="45.96467" lon="4.85471">
        <ele>272</ele>
        <time>2018-02-19T10:36:36Z</time>
      </trkpt>
      <trkpt lat="45.96476" lon="4.85471">
        <ele>272</ele>
        <time>2018-02-19T10:36:39Z</time>
      </trkpt>
      <trkpt lat="45.96479" lon="4.85471">
        <ele>273</ele>
        <time>2018-02-19T10:36:40Z</time>
      </trkpt>
      <trkpt lat="45.96485" lon="4.8547">
        <ele>273</ele>
        <time>2018-02-19T10:36:42Z</time>
      </trkpt>
      <trkpt lat="45.96488" lon="4.85471">
        <ele>273</ele>
        <time>2018-02-19T10:36:43Z</time>
      </trkpt>
      <trkpt lat="45.96495" lon="4.8547">
        <ele>273</ele>
        <time>2018-02-19T10:36:45Z</time>
      </trkpt>
      <trkpt lat="45.96498" lon="4.85469">
        <ele>273</ele>
        <time>2018-02-19T10:36:46Z</time>
      </trkpt>
      <trkpt lat="45.96504" lon="4.85466">
        <ele>275</ele>
        <time>2018-02-19T10:36:49Z</time>
      </trkpt>
      <trkpt lat="45.96507" lon="4.85465">
        <ele>275</ele>
        <time>2018-02-19T10:36:50Z</time>
      </trkpt>
      <trkpt lat="45.96514" lon="4.85465">
        <ele>275</ele>
        <time>2018-02-19T10:36:52Z</time>
      </trkpt>
      <trkpt lat="45.96517" lon="4.85465">
        <ele>275</ele>
        <time>2018-02-19T10:36:53Z</time>
      </trkpt>
      <trkpt lat="45.96523" lon="4.85464">
        <ele>275</ele>
        <time>2018-02-19T10:36:55Z</time>
      </trkpt>
      <trkpt lat="45.96526" lon="4.85463">
        <ele>275</ele>
        <time>2018-02-19T10:36:56Z</time>
      </trkpt>
      <trkpt lat="45.96533" lon="4.85462">
        <ele>275</ele>
        <time>2018-02-19T10:36:58Z</time>
      </trkpt>
      <trkpt lat="45.96538" lon="4.85461">
        <ele>275</ele>
        <time>2018-02-19T10:36:59Z</time>
      </trkpt>
      <trkpt lat="45.96545" lon="4.8546">
        <ele>275</ele>
        <time>2018-02-19T10:37:00Z</time>
      </trkpt>
      <trkpt lat="45.96548" lon="4.85459">
        <ele>275</ele>
        <time>2018-02-19T10:37:01Z</time>
      </trkpt>
      <trkpt lat="45.96556" lon="4.85458">
        <ele>275</ele>
        <time>2018-02-19T10:37:03Z</time>
      </trkpt>
      <trkpt lat="45.96559" lon="4.85457">
        <ele>275</ele>
        <time>2018-02-19T10:37:04Z</time>
      </trkpt>
      <trkpt lat="45.96565" lon="4.85453">
        <ele>275</ele>
        <time>2018-02-19T10:37:07Z</time>
      </trkpt>
      <trkpt lat="45.96571" lon="4.85451">
        <ele>275</ele>
        <time>2018-02-19T10:37:08Z</time>
      </trkpt>
      <trkpt lat="45.96579" lon="4.85446">
        <ele>275</ele>
        <time>2018-02-19T10:37:11Z</time>
      </trkpt>
      <trkpt lat="45.96583" lon="4.85445">
        <ele>275</ele>
        <time>2018-02-19T10:37:12Z</time>
      </trkpt>
      <trkpt lat="45.96587" lon="4.85445">
        <ele>276</ele>
        <time>2018-02-19T10:37:13Z</time>
      </trkpt>
      <trkpt lat="45.96592" lon="4.85443">
        <ele>276</ele>
        <time>2018-02-19T10:37:14Z</time>
      </trkpt>
      <trkpt lat="45.966" lon="4.8544">
        <ele>276</ele>
        <time>2018-02-19T10:37:16Z</time>
      </trkpt>
      <trkpt lat="45.96604" lon="4.85439">
        <ele>276</ele>
        <time>2018-02-19T10:37:17Z</time>
      </trkpt>
      <trkpt lat="45.96612" lon="4.85438">
        <ele>276</ele>
        <time>2018-02-19T10:37:19Z</time>
      </trkpt>
      <trkpt lat="45.96616" lon="4.85437">
        <ele>276</ele>
        <time>2018-02-19T10:37:20Z</time>
      </trkpt>
      <trkpt lat="45.96624" lon="4.85434">
        <ele>276</ele>
        <time>2018-02-19T10:37:22Z</time>
      </trkpt>
      <trkpt lat="45.96628" lon="4.85433">
        <ele>276</ele>
        <time>2018-02-19T10:37:23Z</time>
      </trkpt>
      <trkpt lat="45.96636" lon="4.85431">
        <ele>276</ele>
        <time>2018-02-19T10:37:25Z</time>
      </trkpt>
      <trkpt lat="45.9664" lon="4.8543">
        <ele>276</ele>
        <time>2018-02-19T10:37:26Z</time>
      </trkpt>
      <trkpt lat="45.96649" lon="4.85427">
        <ele>276</ele>
        <time>2018-02-19T10:37:28Z</time>
      </trkpt>
      <trkpt lat="45.96653" lon="4.85426">
        <ele>276</ele>
        <time>2018-02-19T10:37:29Z</time>
      </trkpt>
      <trkpt lat="45.96662" lon="4.85425">
        <ele>276</ele>
        <time>2018-02-19T10:37:31Z</time>
      </trkpt>
      <trkpt lat="45.96666" lon="4.85425">
        <ele>276</ele>
        <time>2018-02-19T10:37:32Z</time>
      </trkpt>
      <trkpt lat="45.96674" lon="4.85424">
        <ele>276</ele>
        <time>2018-02-19T10:37:34Z</time>
      </trkpt>
      <trkpt lat="45.96678" lon="4.85423">
        <ele>276</ele>
        <time>2018-02-19T10:37:35Z</time>
      </trkpt>
      <trkpt lat="45.96686" lon="4.85421">
        <ele>276</ele>
        <time>2018-02-19T10:37:37Z</time>
      </trkpt>
      <trkpt lat="45.9669" lon="4.8542">
        <ele>276</ele>
        <time>2018-02-19T10:37:38Z</time>
      </trkpt>
      <trkpt lat="45.96697" lon="4.85418">
        <ele>276</ele>
        <time>2018-02-19T10:37:40Z</time>
      </trkpt>
      <trkpt lat="45.96701" lon="4.85416">
        <ele>276</ele>
        <time>2018-02-19T10:37:41Z</time>
      </trkpt>
      <trkpt lat="45.96707" lon="4.85412">
        <ele>276</ele>
        <time>2018-02-19T10:37:43Z</time>
      </trkpt>
      <trkpt lat="45.9671" lon="4.85411">
        <ele>276</ele>
        <time>2018-02-19T10:37:44Z</time>
      </trkpt>
      <trkpt lat="45.96717" lon="4.85408">
        <ele>276</ele>
        <time>2018-02-19T10:37:46Z</time>
      </trkpt>
      <trkpt lat="45.9672" lon="4.85407">
        <ele>276</ele>
        <time>2018-02-19T10:37:47Z</time>
      </trkpt>
      <trkpt lat="45.96725" lon="4.85403">
        <ele>276</ele>
        <time>2018-02-19T10:37:49Z</time>
      </trkpt>
      <trkpt lat="45.96728" lon="4.854">
        <ele>277</ele>
        <time>2018-02-19T10:37:50Z</time>
      </trkpt>
      <trkpt lat="45.96735" lon="4.85395">
        <ele>277</ele>
        <time>2018-02-19T10:37:52Z</time>
      </trkpt>
      <trkpt lat="45.96739" lon="4.85391">
        <ele>277</ele>
        <time>2018-02-19T10:37:53Z</time>
      </trkpt>
      <trkpt lat="45.96745" lon="4.85385">
        <ele>277</ele>
        <time>2018-02-19T10:37:55Z</time>
      </trkpt>
      <trkpt lat="45.96748" lon="4.85383">
        <ele>277</ele>
        <time>2018-02-19T10:37:56Z</time>
      </trkpt>
      <trkpt lat="45.96753" lon="4.85378">
        <ele>278</ele>
        <time>2018-02-19T10:37:58Z</time>
      </trkpt>
      <trkpt lat="45.96756" lon="4.85375">
        <ele>278</ele>
        <time>2018-02-19T10:37:59Z</time>
      </trkpt>
      <trkpt lat="45.96761" lon="4.8537">
        <ele>278</ele>
        <time>2018-02-19T10:38:01Z</time>
      </trkpt>
      <trkpt lat="45.96765" lon="4.85367">
        <ele>278</ele>
        <time>2018-02-19T10:38:02Z</time>
      </trkpt>
      <trkpt lat="45.96772" lon="4.85362">
        <ele>278</ele>
        <time>2018-02-19T10:38:04Z</time>
      </trkpt>
      <trkpt lat="45.96775" lon="4.8536">
        <ele>278</ele>
        <time>2018-02-19T10:38:05Z</time>
      </trkpt>
      <trkpt lat="45.96781" lon="4.85354">
        <ele>278</ele>
        <time>2018-02-19T10:38:07Z</time>
      </trkpt>
      <trkpt lat="45.96784" lon="4.85351">
        <ele>278</ele>
        <time>2018-02-19T10:38:08Z</time>
      </trkpt>
      <trkpt lat="45.96791" lon="4.85346">
        <ele>278</ele>
        <time>2018-02-19T10:38:10Z</time>
      </trkpt>
      <trkpt lat="45.96795" lon="4.85343">
        <ele>279</ele>
        <time>2018-02-19T10:38:11Z</time>
      </trkpt>
      <trkpt lat="45.96803" lon="4.85338">
        <ele>279</ele>
        <time>2018-02-19T10:38:13Z</time>
      </trkpt>
      <trkpt lat="45.96807" lon="4.85336">
        <ele>279</ele>
        <time>2018-02-19T10:38:14Z</time>
      </trkpt>
      <trkpt lat="45.96815" lon="4.85332">
        <ele>279</ele>
        <time>2018-02-19T10:38:16Z</time>
      </trkpt>
      <trkpt lat="45.9682" lon="4.8533">
        <ele>279</ele>
        <time>2018-02-19T10:38:17Z</time>
      </trkpt>
      <trkpt lat="45.96824" lon="4.85328">
        <ele>279</ele>
        <time>2018-02-19T10:38:18Z</time>
      </trkpt>
      <trkpt lat="45.96829" lon="4.85326">
        <ele>279</ele>
        <time>2018-02-19T10:38:19Z</time>
      </trkpt>
      <trkpt lat="45.96837" lon="4.85323">
        <ele>281</ele>
        <time>2018-02-19T10:38:21Z</time>
      </trkpt>
      <trkpt lat="45.96841" lon="4.85321">
        <ele>281</ele>
        <time>2018-02-19T10:38:22Z</time>
      </trkpt>
      <trkpt lat="45.96849" lon="4.85318">
        <ele>282</ele>
        <time>2018-02-19T10:38:24Z</time>
      </trkpt>
      <trkpt lat="45.96853" lon="4.85317">
        <ele>282</ele>
        <time>2018-02-19T10:38:25Z</time>
      </trkpt>
      <trkpt lat="45.9686" lon="4.85315">
        <ele>282</ele>
        <time>2018-02-19T10:38:27Z</time>
      </trkpt>
      <trkpt lat="45.96864" lon="4.85314">
        <ele>282</ele>
        <time>2018-02-19T10:38:28Z</time>
      </trkpt>
      <trkpt lat="45.96872" lon="4.85313">
        <ele>283</ele>
        <time>2018-02-19T10:38:30Z</time>
      </trkpt>
      <trkpt lat="45.96875" lon="4.85313">
        <ele>283</ele>
        <time>2018-02-19T10:38:31Z</time>
      </trkpt>
      <trkpt lat="45.96881" lon="4.85311">
        <ele>283</ele>
        <time>2018-02-19T10:38:33Z</time>
      </trkpt>
      <trkpt lat="45.96884" lon="4.85311">
        <ele>283</ele>
        <time>2018-02-19T10:38:34Z</time>
      </trkpt>
      <trkpt lat="45.96892" lon="4.85308">
        <ele>283</ele>
        <time>2018-02-19T10:38:37Z</time>
      </trkpt>
      <trkpt lat="45.96894" lon="4.85307">
        <ele>283</ele>
        <time>2018-02-19T10:38:38Z</time>
      </trkpt>
      <trkpt lat="45.96901" lon="4.85307">
        <ele>284</ele>
        <time>2018-02-19T10:38:40Z</time>
      </trkpt>
      <trkpt lat="45.96904" lon="4.85304">
        <ele>284</ele>
        <time>2018-02-19T10:38:41Z</time>
      </trkpt>
      <trkpt lat="45.96911" lon="4.85302">
        <ele>284</ele>
        <time>2018-02-19T10:38:43Z</time>
      </trkpt>
      <trkpt lat="45.96914" lon="4.85301">
        <ele>284</ele>
        <time>2018-02-19T10:38:44Z</time>
      </trkpt>
      <trkpt lat="45.96923" lon="4.853">
        <ele>284</ele>
        <time>2018-02-19T10:38:47Z</time>
      </trkpt>
      <trkpt lat="45.96926" lon="4.853">
        <ele>284</ele>
        <time>2018-02-19T10:38:48Z</time>
      </trkpt>
      <trkpt lat="45.96932" lon="4.853">
        <ele>284</ele>
        <time>2018-02-19T10:38:50Z</time>
      </trkpt>
      <trkpt lat="45.96935" lon="4.853">
        <ele>284</ele>
        <time>2018-02-19T10:38:51Z</time>
      </trkpt>
      <trkpt lat="45.96942" lon="4.85298">
        <ele>284</ele>
        <time>2018-02-19T10:38:53Z</time>
      </trkpt>
      <trkpt lat="45.96946" lon="4.85298">
        <ele>284</ele>
        <time>2018-02-19T10:38:54Z</time>
      </trkpt>
      <trkpt lat="45.96954" lon="4.85296">
        <ele>284</ele>
        <time>2018-02-19T10:38:56Z</time>
      </trkpt>
      <trkpt lat="45.96959" lon="4.85295">
        <ele>284</ele>
        <time>2018-02-19T10:38:57Z</time>
      </trkpt>
      <trkpt lat="45.96967" lon="4.85293">
        <ele>284</ele>
        <time>2018-02-19T10:38:59Z</time>
      </trkpt>
      <trkpt lat="45.96971" lon="4.85292">
        <ele>284</ele>
        <time>2018-02-19T10:39:00Z</time>
      </trkpt>
      <trkpt lat="45.9698" lon="4.85292">
        <ele>284</ele>
        <time>2018-02-19T10:39:02Z</time>
      </trkpt>
      <trkpt lat="45.96986" lon="4.85292">
        <ele>284</ele>
        <time>2018-02-19T10:39:03Z</time>
      </trkpt>
      <trkpt lat="45.9699" lon="4.85292">
        <ele>284</ele>
        <time>2018-02-19T10:39:04Z</time>
      </trkpt>
      <trkpt lat="45.96996" lon="4.85292">
        <ele>283</ele>
        <time>2018-02-19T10:39:05Z</time>
      </trkpt>
      <trkpt lat="45.97001" lon="4.85291">
        <ele>282</ele>
        <time>2018-02-19T10:39:06Z</time>
      </trkpt>
      <trkpt lat="45.97006" lon="4.8529">
        <ele>282</ele>
        <time>2018-02-19T10:39:07Z</time>
      </trkpt>
      <trkpt lat="45.97012" lon="4.85288">
        <ele>282</ele>
        <time>2018-02-19T10:39:08Z</time>
      </trkpt>
      <trkpt lat="45.97018" lon="4.85287">
        <ele>282</ele>
        <time>2018-02-19T10:39:09Z</time>
      </trkpt>
      <trkpt lat="45.97024" lon="4.85288">
        <ele>282</ele>
        <time>2018-02-19T10:39:10Z</time>
      </trkpt>
      <trkpt lat="45.97029" lon="4.85287">
        <ele>282</ele>
        <time>2018-02-19T10:39:11Z</time>
      </trkpt>
      <trkpt lat="45.97036" lon="4.85287">
        <ele>282</ele>
        <time>2018-02-19T10:39:12Z</time>
      </trkpt>
      <trkpt lat="45.97042" lon="4.85286">
        <ele>282</ele>
        <time>2018-02-19T10:39:13Z</time>
      </trkpt>
      <trkpt lat="45.97048" lon="4.85285">
        <ele>282</ele>
        <time>2018-02-19T10:39:14Z</time>
      </trkpt>
      <trkpt lat="45.97054" lon="4.85283">
        <ele>282</ele>
        <time>2018-02-19T10:39:15Z</time>
      </trkpt>
      <trkpt lat="45.97061" lon="4.85283">
        <ele>282</ele>
        <time>2018-02-19T10:39:16Z</time>
      </trkpt>
      <trkpt lat="45.97067" lon="4.85282">
        <ele>282</ele>
        <time>2018-02-19T10:39:17Z</time>
      </trkpt>
      <trkpt lat="45.97074" lon="4.85282">
        <ele>281</ele>
        <time>2018-02-19T10:39:18Z</time>
      </trkpt>
      <trkpt lat="45.9708" lon="4.85282">
        <ele>281</ele>
        <time>2018-02-19T10:39:19Z</time>
      </trkpt>
      <trkpt lat="45.97087" lon="4.85281">
        <ele>280</ele>
        <time>2018-02-19T10:39:20Z</time>
      </trkpt>
      <trkpt lat="45.97094" lon="4.85281">
        <ele>280</ele>
        <time>2018-02-19T10:39:21Z</time>
      </trkpt>
      <trkpt lat="45.971" lon="4.8528">
        <ele>280</ele>
        <time>2018-02-19T10:39:22Z</time>
      </trkpt>
      <trkpt lat="45.97107" lon="4.85278">
        <ele>280</ele>
        <time>2018-02-19T10:39:23Z</time>
      </trkpt>
      <trkpt lat="45.97114" lon="4.85278">
        <ele>280</ele>
        <time>2018-02-19T10:39:24Z</time>
      </trkpt>
      <trkpt lat="45.97121" lon="4.85278">
        <ele>280</ele>
        <time>2018-02-19T10:39:25Z</time>
      </trkpt>
      <trkpt lat="45.97127" lon="4.85278">
        <ele>279</ele>
        <time>2018-02-19T10:39:26Z</time>
      </trkpt>
      <trkpt lat="45.97134" lon="4.85279">
        <ele>279</ele>
        <time>2018-02-19T10:39:27Z</time>
      </trkpt>
      <trkpt lat="45.9714" lon="4.85279">
        <ele>279</ele>
        <time>2018-02-19T10:39:28Z</time>
      </trkpt>
      <trkpt lat="45.97146" lon="4.85278">
        <ele>279</ele>
        <time>2018-02-19T10:39:29Z</time>
      </trkpt>
      <trkpt lat="45.97152" lon="4.85278">
        <ele>279</ele>
        <time>2018-02-19T10:39:30Z</time>
      </trkpt>
      <trkpt lat="45.97158" lon="4.85278">
        <ele>279</ele>
        <time>2018-02-19T10:39:31Z</time>
      </trkpt>
      <trkpt lat="45.97164" lon="4.85278">
        <ele>279</ele>
        <time>2018-02-19T10:39:32Z</time>
      </trkpt>
      <trkpt lat="45.9717" lon="4.85279">
        <ele>279</ele>
        <time>2018-02-19T10:39:33Z</time>
      </trkpt>
      <trkpt lat="45.97176" lon="4.85278">
        <ele>279</ele>
        <time>2018-02-19T10:39:34Z</time>
      </trkpt>
      <trkpt lat="45.97182" lon="4.85278">
        <ele>279</ele>
        <time>2018-02-19T10:39:35Z</time>
      </trkpt>
      <trkpt lat="45.97187" lon="4.85278">
        <ele>279</ele>
        <time>2018-02-19T10:39:36Z</time>
      </trkpt>
      <trkpt lat="45.97193" lon="4.85278">
        <ele>279</ele>
        <time>2018-02-19T10:39:37Z</time>
      </trkpt>
      <trkpt lat="45.97198" lon="4.85279">
        <ele>279</ele>
        <time>2018-02-19T10:39:38Z</time>
      </trkpt>
      <trkpt lat="45.97204" lon="4.85279">
        <ele>279</ele>
        <time>2018-02-19T10:39:39Z</time>
      </trkpt>
      <trkpt lat="45.9721" lon="4.85279">
        <ele>279</ele>
        <time>2018-02-19T10:39:40Z</time>
      </trkpt>
      <trkpt lat="45.97216" lon="4.85278">
        <ele>279</ele>
        <time>2018-02-19T10:39:41Z</time>
      </trkpt>
      <trkpt lat="45.97221" lon="4.85277">
        <ele>279</ele>
        <time>2018-02-19T10:39:42Z</time>
      </trkpt>
      <trkpt lat="45.97227" lon="4.85276">
        <ele>279</ele>
        <time>2018-02-19T10:39:43Z</time>
      </trkpt>
      <trkpt lat="45.97232" lon="4.85275">
        <ele>279</ele>
        <time>2018-02-19T10:39:44Z</time>
      </trkpt>
      <trkpt lat="45.97238" lon="4.85274">
        <ele>279</ele>
        <time>2018-02-19T10:39:45Z</time>
      </trkpt>
      <trkpt lat="45.97243" lon="4.85273">
        <ele>279</ele>
        <time>2018-02-19T10:39:46Z</time>
      </trkpt>
      <trkpt lat="45.97247" lon="4.85273">
        <ele>279</ele>
        <time>2018-02-19T10:39:47Z</time>
      </trkpt>
      <trkpt lat="45.97252" lon="4.85273">
        <ele>281</ele>
        <time>2018-02-19T10:39:48Z</time>
      </trkpt>
      <trkpt lat="45.97257" lon="4.85273">
        <ele>281</ele>
        <time>2018-02-19T10:39:49Z</time>
      </trkpt>
      <trkpt lat="45.97262" lon="4.85273">
        <ele>281</ele>
        <time>2018-02-19T10:39:50Z</time>
      </trkpt>
      <trkpt lat="45.97267" lon="4.85273">
        <ele>281</ele>
        <time>2018-02-19T10:39:51Z</time>
      </trkpt>
      <trkpt lat="45.97273" lon="4.85273">
        <ele>281</ele>
        <time>2018-02-19T10:39:52Z</time>
      </trkpt>
      <trkpt lat="45.97277" lon="4.85273">
        <ele>281</ele>
        <time>2018-02-19T10:39:53Z</time>
      </trkpt>
      <trkpt lat="45.97283" lon="4.85273">
        <ele>281</ele>
        <time>2018-02-19T10:39:54Z</time>
      </trkpt>
      <trkpt lat="45.97288" lon="4.85273">
        <ele>282</ele>
        <time>2018-02-19T10:39:55Z</time>
      </trkpt>
      <trkpt lat="45.97293" lon="4.85272">
        <ele>282</ele>
        <time>2018-02-19T10:39:56Z</time>
      </trkpt>
      <trkpt lat="45.97297" lon="4.85271">
        <ele>282</ele>
        <time>2018-02-19T10:39:57Z</time>
      </trkpt>
      <trkpt lat="45.97302" lon="4.85271">
        <ele>282</ele>
        <time>2018-02-19T10:39:58Z</time>
      </trkpt>
      <trkpt lat="45.97307" lon="4.85271">
        <ele>282</ele>
        <time>2018-02-19T10:39:59Z</time>
      </trkpt>
      <trkpt lat="45.97314" lon="4.85269">
        <ele>282</ele>
        <time>2018-02-19T10:40:01Z</time>
      </trkpt>
      <trkpt lat="45.97319" lon="4.85269">
        <ele>282</ele>
        <time>2018-02-19T10:40:02Z</time>
      </trkpt>
      <trkpt lat="45.97327" lon="4.85271">
        <ele>282</ele>
        <time>2018-02-19T10:40:04Z</time>
      </trkpt>
      <trkpt lat="45.97331" lon="4.8527">
        <ele>282</ele>
        <time>2018-02-19T10:40:05Z</time>
      </trkpt>
      <trkpt lat="45.97336" lon="4.85272">
        <ele>284</ele>
        <time>2018-02-19T10:40:06Z</time>
      </trkpt>
      <trkpt lat="45.97341" lon="4.85271">
        <ele>284</ele>
        <time>2018-02-19T10:40:07Z</time>
      </trkpt>
      <trkpt lat="45.97346" lon="4.8527">
        <ele>284</ele>
        <time>2018-02-19T10:40:08Z</time>
      </trkpt>
      <trkpt lat="45.9735" lon="4.85269">
        <ele>284</ele>
        <time>2018-02-19T10:40:09Z</time>
      </trkpt>
      <trkpt lat="45.97355" lon="4.85268">
        <ele>284</ele>
        <time>2018-02-19T10:40:10Z</time>
      </trkpt>
      <trkpt lat="45.97359" lon="4.85267">
        <ele>284</ele>
        <time>2018-02-19T10:40:11Z</time>
      </trkpt>
      <trkpt lat="45.97365" lon="4.85266">
        <ele>285</ele>
        <time>2018-02-19T10:40:12Z</time>
      </trkpt>
      <trkpt lat="45.97368" lon="4.85268">
        <ele>285</ele>
        <time>2018-02-19T10:40:13Z</time>
      </trkpt>
      <trkpt lat="45.97372" lon="4.85272">
        <ele>285</ele>
        <time>2018-02-19T10:40:14Z</time>
      </trkpt>
      <trkpt lat="45.97378" lon="4.85271">
        <ele>285</ele>
        <time>2018-02-19T10:40:15Z</time>
      </trkpt>
      <trkpt lat="45.97387" lon="4.8527">
        <ele>285</ele>
        <time>2018-02-19T10:40:17Z</time>
      </trkpt>
      <trkpt lat="45.97391" lon="4.85268">
        <ele>285</ele>
        <time>2018-02-19T10:40:18Z</time>
      </trkpt>
      <trkpt lat="45.97395" lon="4.85264">
        <ele>286</ele>
        <time>2018-02-19T10:40:19Z</time>
      </trkpt>
      <trkpt lat="45.974" lon="4.85266">
        <ele>286</ele>
        <time>2018-02-19T10:40:20Z</time>
      </trkpt>
      <trkpt lat="45.97405" lon="4.85268">
        <ele>286</ele>
        <time>2018-02-19T10:40:21Z</time>
      </trkpt>
      <trkpt lat="45.9741" lon="4.85264">
        <ele>286</ele>
        <time>2018-02-19T10:40:22Z</time>
      </trkpt>
      <trkpt lat="45.97417" lon="4.85263">
        <ele>285</ele>
        <time>2018-02-19T10:40:23Z</time>
      </trkpt>
      <trkpt lat="45.97422" lon="4.85264">
        <ele>285</ele>
        <time>2018-02-19T10:40:24Z</time>
      </trkpt>
      <trkpt lat="45.97427" lon="4.85262">
        <ele>285</ele>
        <time>2018-02-19T10:40:25Z</time>
      </trkpt>
      <trkpt lat="45.97444" lon="4.85259">
        <ele>285</ele>
        <time>2018-02-19T10:40:28Z</time>
      </trkpt>
      <trkpt lat="45.97451" lon="4.85255">
        <ele>285</ele>
        <time>2018-02-19T10:40:30Z</time>
      </trkpt>
      <trkpt lat="45.97454" lon="4.85254">
        <ele>284</ele>
        <time>2018-02-19T10:40:31Z</time>
      </trkpt>
      <trkpt lat="45.9746" lon="4.85258">
        <ele>284</ele>
        <time>2018-02-19T10:40:32Z</time>
      </trkpt>
      <trkpt lat="45.97464" lon="4.85259">
        <ele>284</ele>
        <time>2018-02-19T10:40:33Z</time>
      </trkpt>
      <trkpt lat="45.97468" lon="4.8526">
        <ele>284</ele>
        <time>2018-02-19T10:40:34Z</time>
      </trkpt>
      <trkpt lat="45.97474" lon="4.85262">
        <ele>284</ele>
        <time>2018-02-19T10:40:35Z</time>
      </trkpt>
      <trkpt lat="45.9748" lon="4.85263">
        <ele>284</ele>
        <time>2018-02-19T10:40:36Z</time>
      </trkpt>
      <trkpt lat="45.97485" lon="4.85262">
        <ele>284</ele>
        <time>2018-02-19T10:40:37Z</time>
      </trkpt>
      <trkpt lat="45.97493" lon="4.85263">
        <ele>283</ele>
        <time>2018-02-19T10:40:38Z</time>
      </trkpt>
      <trkpt lat="45.97497" lon="4.85265">
        <ele>283</ele>
        <time>2018-02-19T10:40:39Z</time>
      </trkpt>
      <trkpt lat="45.97503" lon="4.85266">
        <ele>282</ele>
        <time>2018-02-19T10:40:40Z</time>
      </trkpt>
      <trkpt lat="45.97508" lon="4.85266">
        <ele>282</ele>
        <time>2018-02-19T10:40:41Z</time>
      </trkpt>
      <trkpt lat="45.97514" lon="4.85264">
        <ele>282</ele>
        <time>2018-02-19T10:40:42Z</time>
      </trkpt>
      <trkpt lat="45.97521" lon="4.85266">
        <ele>281</ele>
        <time>2018-02-19T10:40:43Z</time>
      </trkpt>
      <trkpt lat="45.97529" lon="4.85267">
        <ele>281</ele>
        <time>2018-02-19T10:40:44Z</time>
      </trkpt>
      <trkpt lat="45.97535" lon="4.85267">
        <ele>281</ele>
        <time>2018-02-19T10:40:45Z</time>
      </trkpt>
      <trkpt lat="45.97541" lon="4.85268">
        <ele>281</ele>
        <time>2018-02-19T10:40:46Z</time>
      </trkpt>
      <trkpt lat="45.97547" lon="4.85266">
        <ele>281</ele>
        <time>2018-02-19T10:40:47Z</time>
      </trkpt>
      <trkpt lat="45.97553" lon="4.85267">
        <ele>281</ele>
        <time>2018-02-19T10:40:48Z</time>
      </trkpt>
      <trkpt lat="45.97559" lon="4.85268">
        <ele>281</ele>
        <time>2018-02-19T10:40:49Z</time>
      </trkpt>
      <trkpt lat="45.97567" lon="4.85265">
        <ele>281</ele>
        <time>2018-02-19T10:40:50Z</time>
      </trkpt>
      <trkpt lat="45.97573" lon="4.85264">
        <ele>281</ele>
        <time>2018-02-19T10:40:51Z</time>
      </trkpt>
      <trkpt lat="45.97578" lon="4.85262">
        <ele>281</ele>
        <time>2018-02-19T10:40:52Z</time>
      </trkpt>
      <trkpt lat="45.97585" lon="4.85264">
        <ele>280</ele>
        <time>2018-02-19T10:40:53Z</time>
      </trkpt>
      <trkpt lat="45.97592" lon="4.85261">
        <ele>280</ele>
        <time>2018-02-19T10:40:54Z</time>
      </trkpt>
      <trkpt lat="45.97598" lon="4.85261">
        <ele>280</ele>
        <time>2018-02-19T10:40:55Z</time>
      </trkpt>
      <trkpt lat="45.97605" lon="4.85259">
        <ele>279</ele>
        <time>2018-02-19T10:40:56Z</time>
      </trkpt>
      <trkpt lat="45.97611" lon="4.8526">
        <ele>279</ele>
        <time>2018-02-19T10:40:57Z</time>
      </trkpt>
      <trkpt lat="45.97618" lon="4.85259">
        <ele>279</ele>
        <time>2018-02-19T10:40:58Z</time>
      </trkpt>
      <trkpt lat="45.97624" lon="4.85258">
        <ele>278</ele>
        <time>2018-02-19T10:40:59Z</time>
      </trkpt>
      <trkpt lat="45.97631" lon="4.85258">
        <ele>278</ele>
        <time>2018-02-19T10:41:00Z</time>
      </trkpt>
      <trkpt lat="45.97636" lon="4.85258">
        <ele>278</ele>
        <time>2018-02-19T10:41:01Z</time>
      </trkpt>
      <trkpt lat="45.97643" lon="4.85257">
        <ele>278</ele>
        <time>2018-02-19T10:41:02Z</time>
      </trkpt>
      <trkpt lat="45.97648" lon="4.85256">
        <ele>277</ele>
        <time>2018-02-19T10:41:03Z</time>
      </trkpt>
      <trkpt lat="45.97654" lon="4.85256">
        <ele>277</ele>
        <time>2018-02-19T10:41:04Z</time>
      </trkpt>
      <trkpt lat="45.9766" lon="4.85253">
        <ele>277</ele>
        <time>2018-02-19T10:41:05Z</time>
      </trkpt>
      <trkpt lat="45.97667" lon="4.85251">
        <ele>276</ele>
        <time>2018-02-19T10:41:06Z</time>
      </trkpt>
      <trkpt lat="45.97673" lon="4.85249">
        <ele>276</ele>
        <time>2018-02-19T10:41:07Z</time>
      </trkpt>
      <trkpt lat="45.9768" lon="4.85247">
        <ele>276</ele>
        <time>2018-02-19T10:41:08Z</time>
      </trkpt>
      <trkpt lat="45.97686" lon="4.85247">
        <ele>276</ele>
        <time>2018-02-19T10:41:09Z</time>
      </trkpt>
      <trkpt lat="45.97692" lon="4.85247">
        <ele>275</ele>
        <time>2018-02-19T10:41:10Z</time>
      </trkpt>
      <trkpt lat="45.97698" lon="4.85246">
        <ele>275</ele>
        <time>2018-02-19T10:41:11Z</time>
      </trkpt>
      <trkpt lat="45.97703" lon="4.85245">
        <ele>275</ele>
        <time>2018-02-19T10:41:12Z</time>
      </trkpt>
      <trkpt lat="45.97708" lon="4.85244">
        <ele>275</ele>
        <time>2018-02-19T10:41:13Z</time>
      </trkpt>
      <trkpt lat="45.97713" lon="4.85243">
        <ele>275</ele>
        <time>2018-02-19T10:41:14Z</time>
      </trkpt>
      <trkpt lat="45.97719" lon="4.85243">
        <ele>275</ele>
        <time>2018-02-19T10:41:15Z</time>
      </trkpt>
      <trkpt lat="45.97725" lon="4.85245">
        <ele>275</ele>
        <time>2018-02-19T10:41:16Z</time>
      </trkpt>
      <trkpt lat="45.97731" lon="4.85245">
        <ele>275</ele>
        <time>2018-02-19T10:41:17Z</time>
      </trkpt>
      <trkpt lat="45.97737" lon="4.85242">
        <ele>275</ele>
        <time>2018-02-19T10:41:18Z</time>
      </trkpt>
      <trkpt lat="45.97744" lon="4.85242">
        <ele>274</ele>
        <time>2018-02-19T10:41:19Z</time>
      </trkpt>
      <trkpt lat="45.9775" lon="4.85242">
        <ele>274</ele>
        <time>2018-02-19T10:41:20Z</time>
      </trkpt>
      <trkpt lat="45.97756" lon="4.85242">
        <ele>274</ele>
        <time>2018-02-19T10:41:21Z</time>
      </trkpt>
      <trkpt lat="45.97762" lon="4.85242">
        <ele>274</ele>
        <time>2018-02-19T10:41:22Z</time>
      </trkpt>
      <trkpt lat="45.97768" lon="4.85242">
        <ele>274</ele>
        <time>2018-02-19T10:41:23Z</time>
      </trkpt>
      <trkpt lat="45.97774" lon="4.85241">
        <ele>274</ele>
        <time>2018-02-19T10:41:24Z</time>
      </trkpt>
      <trkpt lat="45.9778" lon="4.8524">
        <ele>274</ele>
        <time>2018-02-19T10:41:25Z</time>
      </trkpt>
      <trkpt lat="45.97786" lon="4.8524">
        <ele>274</ele>
        <time>2018-02-19T10:41:26Z</time>
      </trkpt>
      <trkpt lat="45.97793" lon="4.85238">
        <ele>274</ele>
        <time>2018-02-19T10:41:27Z</time>
      </trkpt>
      <trkpt lat="45.97799" lon="4.85237">
        <ele>274</ele>
        <time>2018-02-19T10:41:28Z</time>
      </trkpt>
      <trkpt lat="45.97804" lon="4.85237">
        <ele>274</ele>
        <time>2018-02-19T10:41:29Z</time>
      </trkpt>
      <trkpt lat="45.9781" lon="4.85237">
        <ele>274</ele>
        <time>2018-02-19T10:41:30Z</time>
      </trkpt>
      <trkpt lat="45.97815" lon="4.85237">
        <ele>275</ele>
        <time>2018-02-19T10:41:31Z</time>
      </trkpt>
      <trkpt lat="45.97821" lon="4.85237">
        <ele>275</ele>
        <time>2018-02-19T10:41:32Z</time>
      </trkpt>
      <trkpt lat="45.97826" lon="4.85236">
        <ele>275</ele>
        <time>2018-02-19T10:41:33Z</time>
      </trkpt>
      <trkpt lat="45.97832" lon="4.85236">
        <ele>275</ele>
        <time>2018-02-19T10:41:34Z</time>
      </trkpt>
      <trkpt lat="45.97838" lon="4.85234">
        <ele>275</ele>
        <time>2018-02-19T10:41:35Z</time>
      </trkpt>
      <trkpt lat="45.97843" lon="4.85236">
        <ele>275</ele>
        <time>2018-02-19T10:41:36Z</time>
      </trkpt>
      <trkpt lat="45.97849" lon="4.85236">
        <ele>275</ele>
        <time>2018-02-19T10:41:37Z</time>
      </trkpt>
      <trkpt lat="45.97854" lon="4.85236">
        <ele>275</ele>
        <time>2018-02-19T10:41:38Z</time>
      </trkpt>
      <trkpt lat="45.9786" lon="4.85235">
        <ele>275</ele>
        <time>2018-02-19T10:41:39Z</time>
      </trkpt>
      <trkpt lat="45.97866" lon="4.85234">
        <ele>275</ele>
        <time>2018-02-19T10:41:40Z</time>
      </trkpt>
      <trkpt lat="45.97872" lon="4.85233">
        <ele>275</ele>
        <time>2018-02-19T10:41:41Z</time>
      </trkpt>
      <trkpt lat="45.97878" lon="4.85233">
        <ele>275</ele>
        <time>2018-02-19T10:41:42Z</time>
      </trkpt>
      <trkpt lat="45.97884" lon="4.85232">
        <ele>275</ele>
        <time>2018-02-19T10:41:43Z</time>
      </trkpt>
      <trkpt lat="45.97889" lon="4.85232">
        <ele>275</ele>
        <time>2018-02-19T10:41:44Z</time>
      </trkpt>
      <trkpt lat="45.97895" lon="4.85231">
        <ele>275</ele>
        <time>2018-02-19T10:41:45Z</time>
      </trkpt>
      <trkpt lat="45.97901" lon="4.8523">
        <ele>275</ele>
        <time>2018-02-19T10:41:46Z</time>
      </trkpt>
      <trkpt lat="45.97906" lon="4.8523">
        <ele>275</ele>
        <time>2018-02-19T10:41:47Z</time>
      </trkpt>
      <trkpt lat="45.97911" lon="4.85229">
        <ele>275</ele>
        <time>2018-02-19T10:41:48Z</time>
      </trkpt>
      <trkpt lat="45.97917" lon="4.85228">
        <ele>275</ele>
        <time>2018-02-19T10:41:49Z</time>
      </trkpt>
      <trkpt lat="45.97922" lon="4.85228">
        <ele>276</ele>
        <time>2018-02-19T10:41:50Z</time>
      </trkpt>
      <trkpt lat="45.97927" lon="4.85227">
        <ele>276</ele>
        <time>2018-02-19T10:41:51Z</time>
      </trkpt>
      <trkpt lat="45.97932" lon="4.85227">
        <ele>276</ele>
        <time>2018-02-19T10:41:52Z</time>
      </trkpt>
      <trkpt lat="45.97937" lon="4.85226">
        <ele>276</ele>
        <time>2018-02-19T10:41:53Z</time>
      </trkpt>
      <trkpt lat="45.97942" lon="4.85226">
        <ele>276</ele>
        <time>2018-02-19T10:41:54Z</time>
      </trkpt>
      <trkpt lat="45.97947" lon="4.85225">
        <ele>276</ele>
        <time>2018-02-19T10:41:55Z</time>
      </trkpt>
      <trkpt lat="45.97953" lon="4.85225">
        <ele>276</ele>
        <time>2018-02-19T10:41:56Z</time>
      </trkpt>
      <trkpt lat="45.97958" lon="4.85224">
        <ele>276</ele>
        <time>2018-02-19T10:41:57Z</time>
      </trkpt>
      <trkpt lat="45.97964" lon="4.85223">
        <ele>276</ele>
        <time>2018-02-19T10:41:58Z</time>
      </trkpt>
      <trkpt lat="45.97969" lon="4.85223">
        <ele>276</ele>
        <time>2018-02-19T10:41:59Z</time>
      </trkpt>
      <trkpt lat="45.97974" lon="4.85223">
        <ele>276</ele>
        <time>2018-02-19T10:42:00Z</time>
      </trkpt>
      <trkpt lat="45.97979" lon="4.85223">
        <ele>276</ele>
        <time>2018-02-19T10:42:01Z</time>
      </trkpt>
      <trkpt lat="45.97984" lon="4.85223">
        <ele>276</ele>
        <time>2018-02-19T10:42:02Z</time>
      </trkpt>
      <trkpt lat="45.97989" lon="4.85222">
        <ele>276</ele>
        <time>2018-02-19T10:42:03Z</time>
      </trkpt>
      <trkpt lat="45.97994" lon="4.85222">
        <ele>276</ele>
        <time>2018-02-19T10:42:04Z</time>
      </trkpt>
      <trkpt lat="45.98" lon="4.85222">
        <ele>276</ele>
        <time>2018-02-19T10:42:05Z</time>
      </trkpt>
      <trkpt lat="45.98006" lon="4.85221">
        <ele>276</ele>
        <time>2018-02-19T10:42:06Z</time>
      </trkpt>
      <trkpt lat="45.98011" lon="4.85221">
        <ele>276</ele>
        <time>2018-02-19T10:42:07Z</time>
      </trkpt>
      <trkpt lat="45.98016" lon="4.8522">
        <ele>276</ele>
        <time>2018-02-19T10:42:08Z</time>
      </trkpt>
      <trkpt lat="45.98021" lon="4.85219">
        <ele>276</ele>
        <time>2018-02-19T10:42:09Z</time>
      </trkpt>
      <trkpt lat="45.98027" lon="4.85219">
        <ele>276</ele>
        <time>2018-02-19T10:42:10Z</time>
      </trkpt>
      <trkpt lat="45.98031" lon="4.85218">
        <ele>276</ele>
        <time>2018-02-19T10:42:11Z</time>
      </trkpt>
      <trkpt lat="45.98036" lon="4.85217">
        <ele>276</ele>
        <time>2018-02-19T10:42:12Z</time>
      </trkpt>
      <trkpt lat="45.98041" lon="4.85217">
        <ele>276</ele>
        <time>2018-02-19T10:42:13Z</time>
      </trkpt>
      <trkpt lat="45.98046" lon="4.85216">
        <ele>276</ele>
        <time>2018-02-19T10:42:14Z</time>
      </trkpt>
      <trkpt lat="45.98052" lon="4.85215">
        <ele>276</ele>
        <time>2018-02-19T10:42:15Z</time>
      </trkpt>
      <trkpt lat="45.98057" lon="4.85215">
        <ele>276</ele>
        <time>2018-02-19T10:42:16Z</time>
      </trkpt>
      <trkpt lat="45.98062" lon="4.85214">
        <ele>276</ele>
        <time>2018-02-19T10:42:17Z</time>
      </trkpt>
      <trkpt lat="45.98067" lon="4.85214">
        <ele>276</ele>
        <time>2018-02-19T10:42:18Z</time>
      </trkpt>
      <trkpt lat="45.98072" lon="4.85213">
        <ele>276</ele>
        <time>2018-02-19T10:42:19Z</time>
      </trkpt>
      <trkpt lat="45.98077" lon="4.85212">
        <ele>276</ele>
        <time>2018-02-19T10:42:20Z</time>
      </trkpt>
      <trkpt lat="45.98083" lon="4.85212">
        <ele>276</ele>
        <time>2018-02-19T10:42:21Z</time>
      </trkpt>
      <trkpt lat="45.98088" lon="4.85211">
        <ele>275</ele>
        <time>2018-02-19T10:42:22Z</time>
      </trkpt>
      <trkpt lat="45.98093" lon="4.8521">
        <ele>275</ele>
        <time>2018-02-19T10:42:23Z</time>
      </trkpt>
      <trkpt lat="45.98099" lon="4.85211">
        <ele>275</ele>
        <time>2018-02-19T10:42:24Z</time>
      </trkpt>
      <trkpt lat="45.98104" lon="4.8521">
        <ele>275</ele>
        <time>2018-02-19T10:42:25Z</time>
      </trkpt>
      <trkpt lat="45.98109" lon="4.85209">
        <ele>275</ele>
        <time>2018-02-19T10:42:26Z</time>
      </trkpt>
      <trkpt lat="45.98114" lon="4.85209">
        <ele>275</ele>
        <time>2018-02-19T10:42:27Z</time>
      </trkpt>
      <trkpt lat="45.98119" lon="4.85209">
        <ele>275</ele>
        <time>2018-02-19T10:42:28Z</time>
      </trkpt>
      <trkpt lat="45.98124" lon="4.85208">
        <ele>275</ele>
        <time>2018-02-19T10:42:29Z</time>
      </trkpt>
      <trkpt lat="45.98128" lon="4.85209">
        <ele>275</ele>
        <time>2018-02-19T10:42:30Z</time>
      </trkpt>
      <trkpt lat="45.98134" lon="4.85207">
        <ele>275</ele>
        <time>2018-02-19T10:42:31Z</time>
      </trkpt>
      <trkpt lat="45.9814" lon="4.85207">
        <ele>275</ele>
        <time>2018-02-19T10:42:32Z</time>
      </trkpt>
      <trkpt lat="45.98145" lon="4.85207">
        <ele>275</ele>
        <time>2018-02-19T10:42:33Z</time>
      </trkpt>
      <trkpt lat="45.98151" lon="4.85206">
        <ele>275</ele>
        <time>2018-02-19T10:42:34Z</time>
      </trkpt>
      <trkpt lat="45.98156" lon="4.85204">
        <ele>275</ele>
        <time>2018-02-19T10:42:35Z</time>
      </trkpt>
      <trkpt lat="45.98162" lon="4.85203">
        <ele>274</ele>
        <time>2018-02-19T10:42:36Z</time>
      </trkpt>
      <trkpt lat="45.98167" lon="4.85204">
        <ele>274</ele>
        <time>2018-02-19T10:42:37Z</time>
      </trkpt>
      <trkpt lat="45.98173" lon="4.85203">
        <ele>274</ele>
        <time>2018-02-19T10:42:38Z</time>
      </trkpt>
      <trkpt lat="45.98179" lon="4.85203">
        <ele>274</ele>
        <time>2018-02-19T10:42:39Z</time>
      </trkpt>
      <trkpt lat="45.98186" lon="4.85202">
        <ele>274</ele>
        <time>2018-02-19T10:42:40Z</time>
      </trkpt>
      <trkpt lat="45.98191" lon="4.85203">
        <ele>274</ele>
        <time>2018-02-19T10:42:41Z</time>
      </trkpt>
      <trkpt lat="45.98198" lon="4.85203">
        <ele>274</ele>
        <time>2018-02-19T10:42:42Z</time>
      </trkpt>
      <trkpt lat="45.98203" lon="4.85202">
        <ele>274</ele>
        <time>2018-02-19T10:42:43Z</time>
      </trkpt>
      <trkpt lat="45.98208" lon="4.85201">
        <ele>274</ele>
        <time>2018-02-19T10:42:44Z</time>
      </trkpt>
      <trkpt lat="45.98214" lon="4.85201">
        <ele>274</ele>
        <time>2018-02-19T10:42:45Z</time>
      </trkpt>
      <trkpt lat="45.98219" lon="4.85199">
        <ele>274</ele>
        <time>2018-02-19T10:42:46Z</time>
      </trkpt>
      <trkpt lat="45.98225" lon="4.85199">
        <ele>274</ele>
        <time>2018-02-19T10:42:47Z</time>
      </trkpt>
      <trkpt lat="45.9823" lon="4.85199">
        <ele>274</ele>
        <time>2018-02-19T10:42:48Z</time>
      </trkpt>
      <trkpt lat="45.98236" lon="4.85198">
        <ele>274</ele>
        <time>2018-02-19T10:42:49Z</time>
      </trkpt>
      <trkpt lat="45.98241" lon="4.85197">
        <ele>274</ele>
        <time>2018-02-19T10:42:50Z</time>
      </trkpt>
      <trkpt lat="45.98246" lon="4.85196">
        <ele>274</ele>
        <time>2018-02-19T10:42:51Z</time>
      </trkpt>
      <trkpt lat="45.98251" lon="4.85196">
        <ele>274</ele>
        <time>2018-02-19T10:42:52Z</time>
      </trkpt>
      <trkpt lat="45.98256" lon="4.85195">
        <ele>274</ele>
        <time>2018-02-19T10:42:53Z</time>
      </trkpt>
      <trkpt lat="45.98262" lon="4.85196">
        <ele>274</ele>
        <time>2018-02-19T10:42:54Z</time>
      </trkpt>
      <trkpt lat="45.98267" lon="4.85195">
        <ele>274</ele>
        <time>2018-02-19T10:42:55Z</time>
      </trkpt>
      <trkpt lat="45.98273" lon="4.85194">
        <ele>274</ele>
        <time>2018-02-19T10:42:56Z</time>
      </trkpt>
      <trkpt lat="45.98279" lon="4.85194">
        <ele>274</ele>
        <time>2018-02-19T10:42:57Z</time>
      </trkpt>
      <trkpt lat="45.98285" lon="4.85194">
        <ele>274</ele>
        <time>2018-02-19T10:42:58Z</time>
      </trkpt>
      <trkpt lat="45.9829" lon="4.85194">
        <ele>274</ele>
        <time>2018-02-19T10:42:59Z</time>
      </trkpt>
      <trkpt lat="45.98297" lon="4.85192">
        <ele>274</ele>
        <time>2018-02-19T10:43:00Z</time>
      </trkpt>
      <trkpt lat="45.98302" lon="4.85191">
        <ele>274</ele>
        <time>2018-02-19T10:43:01Z</time>
      </trkpt>
      <trkpt lat="45.98308" lon="4.8519">
        <ele>274</ele>
        <time>2018-02-19T10:43:02Z</time>
      </trkpt>
      <trkpt lat="45.98314" lon="4.85191">
        <ele>274</ele>
        <time>2018-02-19T10:43:03Z</time>
      </trkpt>
      <trkpt lat="45.9832" lon="4.8519">
        <ele>274</ele>
        <time>2018-02-19T10:43:04Z</time>
      </trkpt>
      <trkpt lat="45.98327" lon="4.8519">
        <ele>274</ele>
        <time>2018-02-19T10:43:05Z</time>
      </trkpt>
      <trkpt lat="45.98333" lon="4.85188">
        <ele>274</ele>
        <time>2018-02-19T10:43:06Z</time>
      </trkpt>
      <trkpt lat="45.98339" lon="4.85188">
        <ele>275</ele>
        <time>2018-02-19T10:43:07Z</time>
      </trkpt>
      <trkpt lat="45.98345" lon="4.85187">
        <ele>275</ele>
        <time>2018-02-19T10:43:08Z</time>
      </trkpt>
      <trkpt lat="45.98352" lon="4.85185">
        <ele>275</ele>
        <time>2018-02-19T10:43:09Z</time>
      </trkpt>
      <trkpt lat="45.98357" lon="4.85186">
        <ele>275</ele>
        <time>2018-02-19T10:43:10Z</time>
      </trkpt>
      <trkpt lat="45.98363" lon="4.85186">
        <ele>275</ele>
        <time>2018-02-19T10:43:11Z</time>
      </trkpt>
      <trkpt lat="45.98368" lon="4.85185">
        <ele>275</ele>
        <time>2018-02-19T10:43:12Z</time>
      </trkpt>
      <trkpt lat="45.98374" lon="4.85185">
        <ele>275</ele>
        <time>2018-02-19T10:43:13Z</time>
      </trkpt>
      <trkpt lat="45.9838" lon="4.85185">
        <ele>275</ele>
        <time>2018-02-19T10:43:14Z</time>
      </trkpt>
      <trkpt lat="45.98386" lon="4.85185">
        <ele>275</ele>
        <time>2018-02-19T10:43:15Z</time>
      </trkpt>
      <trkpt lat="45.98391" lon="4.85184">
        <ele>275</ele>
        <time>2018-02-19T10:43:16Z</time>
      </trkpt>
      <trkpt lat="45.98397" lon="4.85182">
        <ele>275</ele>
        <time>2018-02-19T10:43:17Z</time>
      </trkpt>
      <trkpt lat="45.98403" lon="4.85181">
        <ele>275</ele>
        <time>2018-02-19T10:43:18Z</time>
      </trkpt>
      <trkpt lat="45.98408" lon="4.8518">
        <ele>275</ele>
        <time>2018-02-19T10:43:19Z</time>
      </trkpt>
      <trkpt lat="45.98414" lon="4.8518">
        <ele>276</ele>
        <time>2018-02-19T10:43:20Z</time>
      </trkpt>
      <trkpt lat="45.98419" lon="4.8518">
        <ele>275</ele>
        <time>2018-02-19T10:43:21Z</time>
      </trkpt>
      <trkpt lat="45.98424" lon="4.8518">
        <ele>275</ele>
        <time>2018-02-19T10:43:22Z</time>
      </trkpt>
      <trkpt lat="45.98429" lon="4.8518">
        <ele>275</ele>
        <time>2018-02-19T10:43:23Z</time>
      </trkpt>
      <trkpt lat="45.98435" lon="4.8518">
        <ele>275</ele>
        <time>2018-02-19T10:43:24Z</time>
      </trkpt>
      <trkpt lat="45.9844" lon="4.85178">
        <ele>275</ele>
        <time>2018-02-19T10:43:25Z</time>
      </trkpt>
      <trkpt lat="45.98446" lon="4.85177">
        <ele>275</ele>
        <time>2018-02-19T10:43:26Z</time>
      </trkpt>
      <trkpt lat="45.98451" lon="4.85178">
        <ele>275</ele>
        <time>2018-02-19T10:43:27Z</time>
      </trkpt>
      <trkpt lat="45.98457" lon="4.85178">
        <ele>275</ele>
        <time>2018-02-19T10:43:28Z</time>
      </trkpt>
      <trkpt lat="45.98462" lon="4.85177">
        <ele>275</ele>
        <time>2018-02-19T10:43:29Z</time>
      </trkpt>
      <trkpt lat="45.98467" lon="4.85176">
        <ele>275</ele>
        <time>2018-02-19T10:43:30Z</time>
      </trkpt>
      <trkpt lat="45.98472" lon="4.85175">
        <ele>275</ele>
        <time>2018-02-19T10:43:31Z</time>
      </trkpt>
      <trkpt lat="45.98476" lon="4.85175">
        <ele>275</ele>
        <time>2018-02-19T10:43:32Z</time>
      </trkpt>
      <trkpt lat="45.98481" lon="4.85175">
        <ele>275</ele>
        <time>2018-02-19T10:43:33Z</time>
      </trkpt>
      <trkpt lat="45.98489" lon="4.85172">
        <ele>275</ele>
        <time>2018-02-19T10:43:35Z</time>
      </trkpt>
      <trkpt lat="45.98494" lon="4.85171">
        <ele>275</ele>
        <time>2018-02-19T10:43:36Z</time>
      </trkpt>
      <trkpt lat="45.985" lon="4.85171">
        <ele>275</ele>
        <time>2018-02-19T10:43:37Z</time>
      </trkpt>
      <trkpt lat="45.98505" lon="4.8517">
        <ele>274</ele>
        <time>2018-02-19T10:43:38Z</time>
      </trkpt>
      <trkpt lat="45.9851" lon="4.85169">
        <ele>274</ele>
        <time>2018-02-19T10:43:39Z</time>
      </trkpt>
      <trkpt lat="45.98515" lon="4.85167">
        <ele>274</ele>
        <time>2018-02-19T10:43:40Z</time>
      </trkpt>
      <trkpt lat="45.98519" lon="4.85166">
        <ele>275</ele>
        <time>2018-02-19T10:43:41Z</time>
      </trkpt>
      <trkpt lat="45.98524" lon="4.85165">
        <ele>275</ele>
        <time>2018-02-19T10:43:42Z</time>
      </trkpt>
      <trkpt lat="45.98529" lon="4.85164">
        <ele>274</ele>
        <time>2018-02-19T10:43:43Z</time>
      </trkpt>
      <trkpt lat="45.98533" lon="4.85163">
        <ele>274</ele>
        <time>2018-02-19T10:43:44Z</time>
      </trkpt>
      <trkpt lat="45.98538" lon="4.85161">
        <ele>274</ele>
        <time>2018-02-19T10:43:45Z</time>
      </trkpt>
      <trkpt lat="45.98543" lon="4.85159">
        <ele>274</ele>
        <time>2018-02-19T10:43:46Z</time>
      </trkpt>
      <trkpt lat="45.98552" lon="4.85157">
        <ele>274</ele>
        <time>2018-02-19T10:43:48Z</time>
      </trkpt>
      <trkpt lat="45.98557" lon="4.85156">
        <ele>274</ele>
        <time>2018-02-19T10:43:49Z</time>
      </trkpt>
      <trkpt lat="45.98561" lon="4.85153">
        <ele>274</ele>
        <time>2018-02-19T10:43:50Z</time>
      </trkpt>
      <trkpt lat="45.98566" lon="4.85151">
        <ele>274</ele>
        <time>2018-02-19T10:43:51Z</time>
      </trkpt>
      <trkpt lat="45.98571" lon="4.85149">
        <ele>273</ele>
        <time>2018-02-19T10:43:52Z</time>
      </trkpt>
      <trkpt lat="45.98576" lon="4.85147">
        <ele>273</ele>
        <time>2018-02-19T10:43:53Z</time>
      </trkpt>
      <trkpt lat="45.9858" lon="4.85144">
        <ele>273</ele>
        <time>2018-02-19T10:43:54Z</time>
      </trkpt>
      <trkpt lat="45.98585" lon="4.85142">
        <ele>272</ele>
        <time>2018-02-19T10:43:55Z</time>
      </trkpt>
      <trkpt lat="45.98589" lon="4.85139">
        <ele>272</ele>
        <time>2018-02-19T10:43:56Z</time>
      </trkpt>
      <trkpt lat="45.98595" lon="4.85135">
        <ele>272</ele>
        <time>2018-02-19T10:43:57Z</time>
      </trkpt>
      <trkpt lat="45.986" lon="4.85131">
        <ele>272</ele>
        <time>2018-02-19T10:43:58Z</time>
      </trkpt>
      <trkpt lat="45.98604" lon="4.85129">
        <ele>272</ele>
        <time>2018-02-19T10:43:59Z</time>
      </trkpt>
      <trkpt lat="45.98609" lon="4.85127">
        <ele>272</ele>
        <time>2018-02-19T10:44:00Z</time>
      </trkpt>
      <trkpt lat="45.98615" lon="4.85124">
        <ele>272</ele>
        <time>2018-02-19T10:44:01Z</time>
      </trkpt>
      <trkpt lat="45.9862" lon="4.85122">
        <ele>272</ele>
        <time>2018-02-19T10:44:02Z</time>
      </trkpt>
      <trkpt lat="45.98625" lon="4.85119">
        <ele>272</ele>
        <time>2018-02-19T10:44:03Z</time>
      </trkpt>
      <trkpt lat="45.9863" lon="4.85117">
        <ele>272</ele>
        <time>2018-02-19T10:44:04Z</time>
      </trkpt>
      <trkpt lat="45.98635" lon="4.85115">
        <ele>272</ele>
        <time>2018-02-19T10:44:05Z</time>
      </trkpt>
      <trkpt lat="45.9864" lon="4.85112">
        <ele>272</ele>
        <time>2018-02-19T10:44:06Z</time>
      </trkpt>
      <trkpt lat="45.98644" lon="4.85109">
        <ele>272</ele>
        <time>2018-02-19T10:44:07Z</time>
      </trkpt>
      <trkpt lat="45.98649" lon="4.85107">
        <ele>272</ele>
        <time>2018-02-19T10:44:08Z</time>
      </trkpt>
      <trkpt lat="45.98654" lon="4.85105">
        <ele>271</ele>
        <time>2018-02-19T10:44:09Z</time>
      </trkpt>
      <trkpt lat="45.98659" lon="4.85102">
        <ele>271</ele>
        <time>2018-02-19T10:44:10Z</time>
      </trkpt>
      <trkpt lat="45.98665" lon="4.851">
        <ele>271</ele>
        <time>2018-02-19T10:44:11Z</time>
      </trkpt>
      <trkpt lat="45.98671" lon="4.85098">
        <ele>270</ele>
        <time>2018-02-19T10:44:12Z</time>
      </trkpt>
      <trkpt lat="45.98676" lon="4.85094">
        <ele>270</ele>
        <time>2018-02-19T10:44:13Z</time>
      </trkpt>
      <trkpt lat="45.98681" lon="4.85091">
        <ele>270</ele>
        <time>2018-02-19T10:44:14Z</time>
      </trkpt>
      <trkpt lat="45.98687" lon="4.85088">
        <ele>270</ele>
        <time>2018-02-19T10:44:15Z</time>
      </trkpt>
      <trkpt lat="45.98692" lon="4.85087">
        <ele>270</ele>
        <time>2018-02-19T10:44:16Z</time>
      </trkpt>
      <trkpt lat="45.98697" lon="4.85084">
        <ele>270</ele>
        <time>2018-02-19T10:44:17Z</time>
      </trkpt>
      <trkpt lat="45.98703" lon="4.8508">
        <ele>270</ele>
        <time>2018-02-19T10:44:18Z</time>
      </trkpt>
      <trkpt lat="45.98712" lon="4.85077">
        <ele>270</ele>
        <time>2018-02-19T10:44:19Z</time>
      </trkpt>
      <trkpt lat="45.98717" lon="4.85074">
        <ele>270</ele>
        <time>2018-02-19T10:44:20Z</time>
      </trkpt>
      <trkpt lat="45.98723" lon="4.85071">
        <ele>270</ele>
        <time>2018-02-19T10:44:21Z</time>
      </trkpt>
      <trkpt lat="45.98729" lon="4.85067">
        <ele>269</ele>
        <time>2018-02-19T10:44:22Z</time>
      </trkpt>
      <trkpt lat="45.98736" lon="4.85065">
        <ele>269</ele>
        <time>2018-02-19T10:44:23Z</time>
      </trkpt>
      <trkpt lat="45.98741" lon="4.85062">
        <ele>269</ele>
        <time>2018-02-19T10:44:24Z</time>
      </trkpt>
      <trkpt lat="45.98747" lon="4.85058">
        <ele>269</ele>
        <time>2018-02-19T10:44:25Z</time>
      </trkpt>
      <trkpt lat="45.98753" lon="4.85056">
        <ele>268</ele>
        <time>2018-02-19T10:44:26Z</time>
      </trkpt>
      <trkpt lat="45.98761" lon="4.85054">
        <ele>268</ele>
        <time>2018-02-19T10:44:27Z</time>
      </trkpt>
      <trkpt lat="45.98766" lon="4.85052">
        <ele>268</ele>
        <time>2018-02-19T10:44:28Z</time>
      </trkpt>
      <trkpt lat="45.98771" lon="4.8505">
        <ele>268</ele>
        <time>2018-02-19T10:44:29Z</time>
      </trkpt>
      <trkpt lat="45.98776" lon="4.85047">
        <ele>267</ele>
        <time>2018-02-19T10:44:30Z</time>
      </trkpt>
      <trkpt lat="45.9878" lon="4.85045">
        <ele>267</ele>
        <time>2018-02-19T10:44:31Z</time>
      </trkpt>
      <trkpt lat="45.98785" lon="4.85041">
        <ele>267</ele>
        <time>2018-02-19T10:44:32Z</time>
      </trkpt>
      <trkpt lat="45.98791" lon="4.85037">
        <ele>267</ele>
        <time>2018-02-19T10:44:33Z</time>
      </trkpt>
      <trkpt lat="45.98796" lon="4.85034">
        <ele>267</ele>
        <time>2018-02-19T10:44:34Z</time>
      </trkpt>
      <trkpt lat="45.98801" lon="4.85031">
        <ele>267</ele>
        <time>2018-02-19T10:44:35Z</time>
      </trkpt>
      <trkpt lat="45.98807" lon="4.85028">
        <ele>267</ele>
        <time>2018-02-19T10:44:36Z</time>
      </trkpt>
      <trkpt lat="45.98813" lon="4.85025">
        <ele>267</ele>
        <time>2018-02-19T10:44:37Z</time>
      </trkpt>
      <trkpt lat="45.98821" lon="4.85023">
        <ele>267</ele>
        <time>2018-02-19T10:44:38Z</time>
      </trkpt>
      <trkpt lat="45.98827" lon="4.8502">
        <ele>267</ele>
        <time>2018-02-19T10:44:39Z</time>
      </trkpt>
      <trkpt lat="45.98832" lon="4.85017">
        <ele>267</ele>
        <time>2018-02-19T10:44:40Z</time>
      </trkpt>
      <trkpt lat="45.98838" lon="4.85015">
        <ele>267</ele>
        <time>2018-02-19T10:44:41Z</time>
      </trkpt>
      <trkpt lat="45.98845" lon="4.85013">
        <ele>267</ele>
        <time>2018-02-19T10:44:42Z</time>
      </trkpt>
      <trkpt lat="45.98852" lon="4.8501">
        <ele>267</ele>
        <time>2018-02-19T10:44:43Z</time>
      </trkpt>
      <trkpt lat="45.98857" lon="4.85006">
        <ele>267</ele>
        <time>2018-02-19T10:44:44Z</time>
      </trkpt>
      <trkpt lat="45.98864" lon="4.85004">
        <ele>267</ele>
        <time>2018-02-19T10:44:45Z</time>
      </trkpt>
      <trkpt lat="45.98869" lon="4.85001">
        <ele>267</ele>
        <time>2018-02-19T10:44:46Z</time>
      </trkpt>
      <trkpt lat="45.98875" lon="4.84998">
        <ele>267</ele>
        <time>2018-02-19T10:44:47Z</time>
      </trkpt>
      <trkpt lat="45.98881" lon="4.84994">
        <ele>267</ele>
        <time>2018-02-19T10:44:48Z</time>
      </trkpt>
      <trkpt lat="45.98887" lon="4.84989">
        <ele>267</ele>
        <time>2018-02-19T10:44:49Z</time>
      </trkpt>
      <trkpt lat="45.98892" lon="4.84985">
        <ele>267</ele>
        <time>2018-02-19T10:44:50Z</time>
      </trkpt>
      <trkpt lat="45.98898" lon="4.84982">
        <ele>267</ele>
        <time>2018-02-19T10:44:51Z</time>
      </trkpt>
      <trkpt lat="45.98904" lon="4.8498">
        <ele>267</ele>
        <time>2018-02-19T10:44:52Z</time>
      </trkpt>
      <trkpt lat="45.9891" lon="4.84977">
        <ele>267</ele>
        <time>2018-02-19T10:44:53Z</time>
      </trkpt>
      <trkpt lat="45.98917" lon="4.84974">
        <ele>267</ele>
        <time>2018-02-19T10:44:54Z</time>
      </trkpt>
      <trkpt lat="45.98922" lon="4.8497">
        <ele>267</ele>
        <time>2018-02-19T10:44:55Z</time>
      </trkpt>
      <trkpt lat="45.98928" lon="4.84967">
        <ele>266</ele>
        <time>2018-02-19T10:44:56Z</time>
      </trkpt>
      <trkpt lat="45.98935" lon="4.84963">
        <ele>266</ele>
        <time>2018-02-19T10:44:57Z</time>
      </trkpt>
      <trkpt lat="45.98941" lon="4.8496">
        <ele>266</ele>
        <time>2018-02-19T10:44:58Z</time>
      </trkpt>
      <trkpt lat="45.98947" lon="4.84958">
        <ele>266</ele>
        <time>2018-02-19T10:44:59Z</time>
      </trkpt>
      <trkpt lat="45.98955" lon="4.84955">
        <ele>266</ele>
        <time>2018-02-19T10:45:00Z</time>
      </trkpt>
      <trkpt lat="45.98961" lon="4.84951">
        <ele>266</ele>
        <time>2018-02-19T10:45:01Z</time>
      </trkpt>
      <trkpt lat="45.98966" lon="4.84948">
        <ele>266</ele>
        <time>2018-02-19T10:45:02Z</time>
      </trkpt>
      <trkpt lat="45.98973" lon="4.84944">
        <ele>266</ele>
        <time>2018-02-19T10:45:03Z</time>
      </trkpt>
      <trkpt lat="45.9898" lon="4.84941">
        <ele>266</ele>
        <time>2018-02-19T10:45:04Z</time>
      </trkpt>
      <trkpt lat="45.98987" lon="4.84938">
        <ele>266</ele>
        <time>2018-02-19T10:45:05Z</time>
      </trkpt>
      <trkpt lat="45.98994" lon="4.84934">
        <ele>266</ele>
        <time>2018-02-19T10:45:06Z</time>
      </trkpt>
      <trkpt lat="45.99001" lon="4.84932">
        <ele>265</ele>
        <time>2018-02-19T10:45:07Z</time>
      </trkpt>
      <trkpt lat="45.99007" lon="4.84929">
        <ele>265</ele>
        <time>2018-02-19T10:45:08Z</time>
      </trkpt>
      <trkpt lat="45.99014" lon="4.84927">
        <ele>265</ele>
        <time>2018-02-19T10:45:09Z</time>
      </trkpt>
      <trkpt lat="45.9902" lon="4.84923">
        <ele>265</ele>
        <time>2018-02-19T10:45:10Z</time>
      </trkpt>
      <trkpt lat="45.99027" lon="4.8492">
        <ele>264</ele>
        <time>2018-02-19T10:45:11Z</time>
      </trkpt>
      <trkpt lat="45.99033" lon="4.84917">
        <ele>264</ele>
        <time>2018-02-19T10:45:12Z</time>
      </trkpt>
      <trkpt lat="45.99039" lon="4.84912">
        <ele>264</ele>
        <time>2018-02-19T10:45:13Z</time>
      </trkpt>
      <trkpt lat="45.99045" lon="4.84908">
        <ele>264</ele>
        <time>2018-02-19T10:45:14Z</time>
      </trkpt>
      <trkpt lat="45.99051" lon="4.84906">
        <ele>264</ele>
        <time>2018-02-19T10:45:15Z</time>
      </trkpt>
      <trkpt lat="45.99058" lon="4.84902">
        <ele>263</ele>
        <time>2018-02-19T10:45:16Z</time>
      </trkpt>
      <trkpt lat="45.99065" lon="4.84899">
        <ele>263</ele>
        <time>2018-02-19T10:45:17Z</time>
      </trkpt>
      <trkpt lat="45.99072" lon="4.84895">
        <ele>263</ele>
        <time>2018-02-19T10:45:18Z</time>
      </trkpt>
      <trkpt lat="45.99078" lon="4.84892">
        <ele>263</ele>
        <time>2018-02-19T10:45:19Z</time>
      </trkpt>
      <trkpt lat="45.99086" lon="4.84888">
        <ele>261</ele>
        <time>2018-02-19T10:45:20Z</time>
      </trkpt>
      <trkpt lat="45.99093" lon="4.84885">
        <ele>261</ele>
        <time>2018-02-19T10:45:21Z</time>
      </trkpt>
      <trkpt lat="45.99101" lon="4.8488">
        <ele>261</ele>
        <time>2018-02-19T10:45:22Z</time>
      </trkpt>
      <trkpt lat="45.9911" lon="4.84875">
        <ele>260</ele>
        <time>2018-02-19T10:45:23Z</time>
      </trkpt>
      <trkpt lat="45.99117" lon="4.8487">
        <ele>260</ele>
        <time>2018-02-19T10:45:24Z</time>
      </trkpt>
      <trkpt lat="45.99125" lon="4.84865">
        <ele>260</ele>
        <time>2018-02-19T10:45:25Z</time>
      </trkpt>
      <trkpt lat="45.99132" lon="4.84861">
        <ele>260</ele>
        <time>2018-02-19T10:45:26Z</time>
      </trkpt>
      <trkpt lat="45.99141" lon="4.84856">
        <ele>260</ele>
        <time>2018-02-19T10:45:27Z</time>
      </trkpt>
      <trkpt lat="45.99148" lon="4.84852">
        <ele>260</ele>
        <time>2018-02-19T10:45:28Z</time>
      </trkpt>
      <trkpt lat="45.99155" lon="4.84847">
        <ele>259</ele>
        <time>2018-02-19T10:45:29Z</time>
      </trkpt>
      <trkpt lat="45.99163" lon="4.84843">
        <ele>259</ele>
        <time>2018-02-19T10:45:30Z</time>
      </trkpt>
      <trkpt lat="45.99171" lon="4.84838">
        <ele>258</ele>
        <time>2018-02-19T10:45:31Z</time>
      </trkpt>
      <trkpt lat="45.9918" lon="4.84834">
        <ele>258</ele>
        <time>2018-02-19T10:45:32Z</time>
      </trkpt>
      <trkpt lat="45.99188" lon="4.84828">
        <ele>258</ele>
        <time>2018-02-19T10:45:33Z</time>
      </trkpt>
      <trkpt lat="45.99197" lon="4.84824">
        <ele>258</ele>
        <time>2018-02-19T10:45:34Z</time>
      </trkpt>
      <trkpt lat="45.99205" lon="4.8482">
        <ele>257</ele>
        <time>2018-02-19T10:45:35Z</time>
      </trkpt>
      <trkpt lat="45.99213" lon="4.84815">
        <ele>257</ele>
        <time>2018-02-19T10:45:36Z</time>
      </trkpt>
      <trkpt lat="45.99222" lon="4.84811">
        <ele>257</ele>
        <time>2018-02-19T10:45:37Z</time>
      </trkpt>
      <trkpt lat="45.9923" lon="4.84806">
        <ele>257</ele>
        <time>2018-02-19T10:45:38Z</time>
      </trkpt>
      <trkpt lat="45.99239" lon="4.84802">
        <ele>256</ele>
        <time>2018-02-19T10:45:39Z</time>
      </trkpt>
      <trkpt lat="45.99247" lon="4.84798">
        <ele>256</ele>
        <time>2018-02-19T10:45:40Z</time>
      </trkpt>
      <trkpt lat="45.99256" lon="4.84794">
        <ele>254</ele>
        <time>2018-02-19T10:45:41Z</time>
      </trkpt>
      <trkpt lat="45.99265" lon="4.84791">
        <ele>253</ele>
        <time>2018-02-19T10:45:42Z</time>
      </trkpt>
      <trkpt lat="45.99274" lon="4.84786">
        <ele>253</ele>
        <time>2018-02-19T10:45:43Z</time>
      </trkpt>
      <trkpt lat="45.99283" lon="4.84781">
        <ele>253</ele>
        <time>2018-02-19T10:45:44Z</time>
      </trkpt>
      <trkpt lat="45.99291" lon="4.84777">
        <ele>253</ele>
        <time>2018-02-19T10:45:45Z</time>
      </trkpt>
      <trkpt lat="45.99299" lon="4.84772">
        <ele>253</ele>
        <time>2018-02-19T10:45:46Z</time>
      </trkpt>
      <trkpt lat="45.99307" lon="4.84768">
        <ele>253</ele>
        <time>2018-02-19T10:45:47Z</time>
      </trkpt>
      <trkpt lat="45.99315" lon="4.84765">
        <ele>252</ele>
        <time>2018-02-19T10:45:48Z</time>
      </trkpt>
      <trkpt lat="45.99323" lon="4.84761">
        <ele>252</ele>
        <time>2018-02-19T10:45:49Z</time>
      </trkpt>
      <trkpt lat="45.99331" lon="4.84758">
        <ele>252</ele>
        <time>2018-02-19T10:45:50Z</time>
      </trkpt>
      <trkpt lat="45.99339" lon="4.84754">
        <ele>251</ele>
        <time>2018-02-19T10:45:51Z</time>
      </trkpt>
      <trkpt lat="45.99347" lon="4.84749">
        <ele>250</ele>
        <time>2018-02-19T10:45:52Z</time>
      </trkpt>
      <trkpt lat="45.99354" lon="4.84745">
        <ele>250</ele>
        <time>2018-02-19T10:45:53Z</time>
      </trkpt>
      <trkpt lat="45.99361" lon="4.84741">
        <ele>250</ele>
        <time>2018-02-19T10:45:54Z</time>
      </trkpt>
      <trkpt lat="45.99368" lon="4.84737">
        <ele>250</ele>
        <time>2018-02-19T10:45:55Z</time>
      </trkpt>
      <trkpt lat="45.99375" lon="4.84733">
        <ele>250</ele>
        <time>2018-02-19T10:45:56Z</time>
      </trkpt>
      <trkpt lat="45.99381" lon="4.84729">
        <ele>250</ele>
        <time>2018-02-19T10:45:57Z</time>
      </trkpt>
      <trkpt lat="45.99388" lon="4.84725">
        <ele>249</ele>
        <time>2018-02-19T10:45:58Z</time>
      </trkpt>
      <trkpt lat="45.99395" lon="4.84722">
        <ele>249</ele>
        <time>2018-02-19T10:45:59Z</time>
      </trkpt>
      <trkpt lat="45.99402" lon="4.84718">
        <ele>249</ele>
        <time>2018-02-19T10:46:00Z</time>
      </trkpt>
      <trkpt lat="45.99409" lon="4.84714">
        <ele>249</ele>
        <time>2018-02-19T10:46:01Z</time>
      </trkpt>
      <trkpt lat="45.99415" lon="4.84711">
        <ele>249</ele>
        <time>2018-02-19T10:46:02Z</time>
      </trkpt>
      <trkpt lat="45.99421" lon="4.84707">
        <ele>249</ele>
        <time>2018-02-19T10:46:03Z</time>
      </trkpt>
      <trkpt lat="45.99428" lon="4.84703">
        <ele>249</ele>
        <time>2018-02-19T10:46:04Z</time>
      </trkpt>
      <trkpt lat="45.99435" lon="4.84699">
        <ele>249</ele>
        <time>2018-02-19T10:46:05Z</time>
      </trkpt>
      <trkpt lat="45.99442" lon="4.84695">
        <ele>249</ele>
        <time>2018-02-19T10:46:06Z</time>
      </trkpt>
      <trkpt lat="45.99449" lon="4.8469">
        <ele>250</ele>
        <time>2018-02-19T10:46:07Z</time>
      </trkpt>
      <trkpt lat="45.99455" lon="4.84687">
        <ele>250</ele>
        <time>2018-02-19T10:46:08Z</time>
      </trkpt>
      <trkpt lat="45.99461" lon="4.84684">
        <ele>250</ele>
        <time>2018-02-19T10:46:09Z</time>
      </trkpt>
      <trkpt lat="45.99466" lon="4.84681">
        <ele>250</ele>
        <time>2018-02-19T10:46:10Z</time>
      </trkpt>
      <trkpt lat="45.99471" lon="4.84679">
        <ele>250</ele>
        <time>2018-02-19T10:46:11Z</time>
      </trkpt>
      <trkpt lat="45.99477" lon="4.84677">
        <ele>250</ele>
        <time>2018-02-19T10:46:12Z</time>
      </trkpt>
      <trkpt lat="45.99482" lon="4.84675">
        <ele>250</ele>
        <time>2018-02-19T10:46:13Z</time>
      </trkpt>
      <trkpt lat="45.99488" lon="4.84674">
        <ele>250</ele>
        <time>2018-02-19T10:46:14Z</time>
      </trkpt>
      <trkpt lat="45.99493" lon="4.84672">
        <ele>251</ele>
        <time>2018-02-19T10:46:15Z</time>
      </trkpt>
      <trkpt lat="45.99497" lon="4.84671">
        <ele>251</ele>
        <time>2018-02-19T10:46:16Z</time>
      </trkpt>
      <trkpt lat="45.99504" lon="4.84669">
        <ele>251</ele>
        <time>2018-02-19T10:46:17Z</time>
      </trkpt>
      <trkpt lat="45.99509" lon="4.84668">
        <ele>251</ele>
        <time>2018-02-19T10:46:18Z</time>
      </trkpt>
      <trkpt lat="45.99514" lon="4.84667">
        <ele>251</ele>
        <time>2018-02-19T10:46:19Z</time>
      </trkpt>
      <trkpt lat="45.99519" lon="4.84665">
        <ele>250</ele>
        <time>2018-02-19T10:46:20Z</time>
      </trkpt>
      <trkpt lat="45.99523" lon="4.84664">
        <ele>250</ele>
        <time>2018-02-19T10:46:21Z</time>
      </trkpt>
      <trkpt lat="45.99528" lon="4.84664">
        <ele>250</ele>
        <time>2018-02-19T10:46:22Z</time>
      </trkpt>
      <trkpt lat="45.99533" lon="4.84662">
        <ele>250</ele>
        <time>2018-02-19T10:46:23Z</time>
      </trkpt>
      <trkpt lat="45.99541" lon="4.84661">
        <ele>250</ele>
        <time>2018-02-19T10:46:25Z</time>
      </trkpt>
      <trkpt lat="45.99544" lon="4.84661">
        <ele>250</ele>
        <time>2018-02-19T10:46:26Z</time>
      </trkpt>
      <trkpt lat="45.99552" lon="4.8466">
        <ele>250</ele>
        <time>2018-02-19T10:46:28Z</time>
      </trkpt>
      <trkpt lat="45.99557" lon="4.84659">
        <ele>250</ele>
        <time>2018-02-19T10:46:29Z</time>
      </trkpt>
      <trkpt lat="45.99562" lon="4.84658">
        <ele>250</ele>
        <time>2018-02-19T10:46:30Z</time>
      </trkpt>
      <trkpt lat="45.99568" lon="4.84657">
        <ele>250</ele>
        <time>2018-02-19T10:46:31Z</time>
      </trkpt>
      <trkpt lat="45.99573" lon="4.84655">
        <ele>250</ele>
        <time>2018-02-19T10:46:32Z</time>
      </trkpt>
      <trkpt lat="45.99578" lon="4.84654">
        <ele>250</ele>
        <time>2018-02-19T10:46:33Z</time>
      </trkpt>
      <trkpt lat="45.99583" lon="4.84653">
        <ele>250</ele>
        <time>2018-02-19T10:46:34Z</time>
      </trkpt>
      <trkpt lat="45.99589" lon="4.84653">
        <ele>250</ele>
        <time>2018-02-19T10:46:35Z</time>
      </trkpt>
      <trkpt lat="45.99595" lon="4.84652">
        <ele>250</ele>
        <time>2018-02-19T10:46:36Z</time>
      </trkpt>
      <trkpt lat="45.996" lon="4.84651">
        <ele>250</ele>
        <time>2018-02-19T10:46:37Z</time>
      </trkpt>
      <trkpt lat="45.99605" lon="4.8465">
        <ele>250</ele>
        <time>2018-02-19T10:46:38Z</time>
      </trkpt>
      <trkpt lat="45.9961" lon="4.84649">
        <ele>250</ele>
        <time>2018-02-19T10:46:39Z</time>
      </trkpt>
      <trkpt lat="45.99614" lon="4.84649">
        <ele>250</ele>
        <time>2018-02-19T10:46:40Z</time>
      </trkpt>
      <trkpt lat="45.9962" lon="4.84647">
        <ele>250</ele>
        <time>2018-02-19T10:46:41Z</time>
      </trkpt>
      <trkpt lat="45.99625" lon="4.84646">
        <ele>250</ele>
        <time>2018-02-19T10:46:42Z</time>
      </trkpt>
      <trkpt lat="45.9963" lon="4.84645">
        <ele>250</ele>
        <time>2018-02-19T10:46:43Z</time>
      </trkpt>
      <trkpt lat="45.99635" lon="4.84644">
        <ele>250</ele>
        <time>2018-02-19T10:46:44Z</time>
      </trkpt>
      <trkpt lat="45.99641" lon="4.84643">
        <ele>250</ele>
        <time>2018-02-19T10:46:45Z</time>
      </trkpt>
      <trkpt lat="45.99646" lon="4.84642">
        <ele>250</ele>
        <time>2018-02-19T10:46:46Z</time>
      </trkpt>
      <trkpt lat="45.99652" lon="4.84641">
        <ele>250</ele>
        <time>2018-02-19T10:46:47Z</time>
      </trkpt>
      <trkpt lat="45.99657" lon="4.8464">
        <ele>250</ele>
        <time>2018-02-19T10:46:48Z</time>
      </trkpt>
      <trkpt lat="45.99662" lon="4.84639">
        <ele>250</ele>
        <time>2018-02-19T10:46:49Z</time>
      </trkpt>
      <trkpt lat="45.99668" lon="4.84638">
        <ele>251</ele>
        <time>2018-02-19T10:46:50Z</time>
      </trkpt>
      <trkpt lat="45.99673" lon="4.84637">
        <ele>252</ele>
        <time>2018-02-19T10:46:51Z</time>
      </trkpt>
      <trkpt lat="45.99677" lon="4.84636">
        <ele>252</ele>
        <time>2018-02-19T10:46:52Z</time>
      </trkpt>
      <trkpt lat="45.99683" lon="4.84635">
        <ele>252</ele>
        <time>2018-02-19T10:46:53Z</time>
      </trkpt>
      <trkpt lat="45.99691" lon="4.84635">
        <ele>252</ele>
        <time>2018-02-19T10:46:55Z</time>
      </trkpt>
      <trkpt lat="45.99696" lon="4.84634">
        <ele>252</ele>
        <time>2018-02-19T10:46:56Z</time>
      </trkpt>
      <trkpt lat="45.99701" lon="4.84633">
        <ele>252</ele>
        <time>2018-02-19T10:46:57Z</time>
      </trkpt>
      <trkpt lat="45.99705" lon="4.84632">
        <ele>252</ele>
        <time>2018-02-19T10:46:58Z</time>
      </trkpt>
      <trkpt lat="45.9971" lon="4.84631">
        <ele>252</ele>
        <time>2018-02-19T10:46:59Z</time>
      </trkpt>
      <trkpt lat="45.99715" lon="4.8463">
        <ele>252</ele>
        <time>2018-02-19T10:47:00Z</time>
      </trkpt>
      <trkpt lat="45.9972" lon="4.8463">
        <ele>252</ele>
        <time>2018-02-19T10:47:01Z</time>
      </trkpt>
      <trkpt lat="45.99725" lon="4.84628">
        <ele>252</ele>
        <time>2018-02-19T10:47:02Z</time>
      </trkpt>
      <trkpt lat="45.9973" lon="4.84627">
        <ele>252</ele>
        <time>2018-02-19T10:47:03Z</time>
      </trkpt>
      <trkpt lat="45.99735" lon="4.84625">
        <ele>252</ele>
        <time>2018-02-19T10:47:04Z</time>
      </trkpt>
      <trkpt lat="45.9974" lon="4.84624">
        <ele>252</ele>
        <time>2018-02-19T10:47:05Z</time>
      </trkpt>
      <trkpt lat="45.99744" lon="4.84624">
        <ele>253</ele>
        <time>2018-02-19T10:47:06Z</time>
      </trkpt>
      <trkpt lat="45.99753" lon="4.84623">
        <ele>254</ele>
        <time>2018-02-19T10:47:08Z</time>
      </trkpt>
      <trkpt lat="45.99758" lon="4.84622">
        <ele>254</ele>
        <time>2018-02-19T10:47:09Z</time>
      </trkpt>
      <trkpt lat="45.99762" lon="4.84622">
        <ele>254</ele>
        <time>2018-02-19T10:47:10Z</time>
      </trkpt>
      <trkpt lat="45.99767" lon="4.84623">
        <ele>254</ele>
        <time>2018-02-19T10:47:11Z</time>
      </trkpt>
      <trkpt lat="45.99772" lon="4.84623">
        <ele>254</ele>
        <time>2018-02-19T10:47:12Z</time>
      </trkpt>
      <trkpt lat="45.99777" lon="4.84623">
        <ele>254</ele>
        <time>2018-02-19T10:47:13Z</time>
      </trkpt>
      <trkpt lat="45.99782" lon="4.84624">
        <ele>254</ele>
        <time>2018-02-19T10:47:14Z</time>
      </trkpt>
      <trkpt lat="45.99787" lon="4.84625">
        <ele>254</ele>
        <time>2018-02-19T10:47:15Z</time>
      </trkpt>
      <trkpt lat="45.99792" lon="4.84626">
        <ele>254</ele>
        <time>2018-02-19T10:47:16Z</time>
      </trkpt>
      <trkpt lat="45.99797" lon="4.84627">
        <ele>254</ele>
        <time>2018-02-19T10:47:17Z</time>
      </trkpt>
      <trkpt lat="45.99802" lon="4.84628">
        <ele>254</ele>
        <time>2018-02-19T10:47:18Z</time>
      </trkpt>
      <trkpt lat="45.99806" lon="4.8463">
        <ele>254</ele>
        <time>2018-02-19T10:47:19Z</time>
      </trkpt>
      <trkpt lat="45.9981" lon="4.84631">
        <ele>254</ele>
        <time>2018-02-19T10:47:20Z</time>
      </trkpt>
      <trkpt lat="45.99816" lon="4.84632">
        <ele>254</ele>
        <time>2018-02-19T10:47:21Z</time>
      </trkpt>
      <trkpt lat="45.9982" lon="4.84634">
        <ele>254</ele>
        <time>2018-02-19T10:47:22Z</time>
      </trkpt>
      <trkpt lat="45.99825" lon="4.84636">
        <ele>254</ele>
        <time>2018-02-19T10:47:23Z</time>
      </trkpt>
      <trkpt lat="45.9983" lon="4.84637">
        <ele>254</ele>
        <time>2018-02-19T10:47:24Z</time>
      </trkpt>
      <trkpt lat="45.99835" lon="4.8464">
        <ele>254</ele>
        <time>2018-02-19T10:47:25Z</time>
      </trkpt>
      <trkpt lat="45.99843" lon="4.8464">
        <ele>254</ele>
        <time>2018-02-19T10:47:27Z</time>
      </trkpt>
      <trkpt lat="45.99848" lon="4.84641">
        <ele>254</ele>
        <time>2018-02-19T10:47:28Z</time>
      </trkpt>
      <trkpt lat="45.99853" lon="4.84643">
        <ele>254</ele>
        <time>2018-02-19T10:47:29Z</time>
      </trkpt>
      <trkpt lat="45.99857" lon="4.84644">
        <ele>254</ele>
        <time>2018-02-19T10:47:30Z</time>
      </trkpt>
      <trkpt lat="45.99862" lon="4.84647">
        <ele>254</ele>
        <time>2018-02-19T10:47:31Z</time>
      </trkpt>
      <trkpt lat="45.99867" lon="4.84648">
        <ele>254</ele>
        <time>2018-02-19T10:47:32Z</time>
      </trkpt>
      <trkpt lat="45.99872" lon="4.84649">
        <ele>254</ele>
        <time>2018-02-19T10:47:33Z</time>
      </trkpt>
      <trkpt lat="45.99876" lon="4.84651">
        <ele>254</ele>
        <time>2018-02-19T10:47:34Z</time>
      </trkpt>
      <trkpt lat="45.99882" lon="4.84653">
        <ele>254</ele>
        <time>2018-02-19T10:47:35Z</time>
      </trkpt>
      <trkpt lat="45.99886" lon="4.84654">
        <ele>254</ele>
        <time>2018-02-19T10:47:36Z</time>
      </trkpt>
      <trkpt lat="45.99891" lon="4.84655">
        <ele>254</ele>
        <time>2018-02-19T10:47:37Z</time>
      </trkpt>
      <trkpt lat="45.99896" lon="4.84656">
        <ele>254</ele>
        <time>2018-02-19T10:47:38Z</time>
      </trkpt>
      <trkpt lat="45.99901" lon="4.8466">
        <ele>254</ele>
        <time>2018-02-19T10:47:39Z</time>
      </trkpt>
      <trkpt lat="45.99905" lon="4.84661">
        <ele>254</ele>
        <time>2018-02-19T10:47:40Z</time>
      </trkpt>
      <trkpt lat="45.9991" lon="4.84662">
        <ele>254</ele>
        <time>2018-02-19T10:47:41Z</time>
      </trkpt>
      <trkpt lat="45.99915" lon="4.84662">
        <ele>254</ele>
        <time>2018-02-19T10:47:42Z</time>
      </trkpt>
      <trkpt lat="45.99923" lon="4.84663">
        <ele>254</ele>
        <time>2018-02-19T10:47:44Z</time>
      </trkpt>
      <trkpt lat="45.99926" lon="4.84663">
        <ele>254</ele>
        <time>2018-02-19T10:47:45Z</time>
      </trkpt>
      <trkpt lat="45.99935" lon="4.84667">
        <ele>255</ele>
        <time>2018-02-19T10:47:47Z</time>
      </trkpt>
      <trkpt lat="45.99939" lon="4.84668">
        <ele>255</ele>
        <time>2018-02-19T10:47:48Z</time>
      </trkpt>
      <trkpt lat="45.99943" lon="4.84669">
        <ele>255</ele>
        <time>2018-02-19T10:47:49Z</time>
      </trkpt>
      <trkpt lat="45.99948" lon="4.8467">
        <ele>255</ele>
        <time>2018-02-19T10:47:50Z</time>
      </trkpt>
      <trkpt lat="45.99953" lon="4.84671">
        <ele>255</ele>
        <time>2018-02-19T10:47:51Z</time>
      </trkpt>
      <trkpt lat="45.99957" lon="4.84672">
        <ele>255</ele>
        <time>2018-02-19T10:47:52Z</time>
      </trkpt>
      <trkpt lat="45.99966" lon="4.84675">
        <ele>255</ele>
        <time>2018-02-19T10:47:54Z</time>
      </trkpt>
      <trkpt lat="45.9997" lon="4.84676">
        <ele>255</ele>
        <time>2018-02-19T10:47:55Z</time>
      </trkpt>
      <trkpt lat="45.99974" lon="4.84679">
        <ele>255</ele>
        <time>2018-02-19T10:47:56Z</time>
      </trkpt>
      <trkpt lat="45.99978" lon="4.8468">
        <ele>255</ele>
        <time>2018-02-19T10:47:57Z</time>
      </trkpt>
      <trkpt lat="45.99986" lon="4.84681">
        <ele>255</ele>
        <time>2018-02-19T10:47:59Z</time>
      </trkpt>
      <trkpt lat="45.99991" lon="4.84683">
        <ele>255</ele>
        <time>2018-02-19T10:48:00Z</time>
      </trkpt>
      <trkpt lat="45.99996" lon="4.84684">
        <ele>255</ele>
        <time>2018-02-19T10:48:01Z</time>
      </trkpt>
      <trkpt lat="46.00001" lon="4.84685">
        <ele>256</ele>
        <time>2018-02-19T10:48:02Z</time>
      </trkpt>
      <trkpt lat="46.00006" lon="4.84687">
        <ele>256</ele>
        <time>2018-02-19T10:48:03Z</time>
      </trkpt>
      <trkpt lat="46.0001" lon="4.84688">
        <ele>256</ele>
        <time>2018-02-19T10:48:04Z</time>
      </trkpt>
      <trkpt lat="46.00019" lon="4.84689">
        <ele>256</ele>
        <time>2018-02-19T10:48:06Z</time>
      </trkpt>
      <trkpt lat="46.00024" lon="4.84691">
        <ele>256</ele>
        <time>2018-02-19T10:48:07Z</time>
      </trkpt>
      <trkpt lat="46.00033" lon="4.84693">
        <ele>256</ele>
        <time>2018-02-19T10:48:09Z</time>
      </trkpt>
      <trkpt lat="46.00037" lon="4.84695">
        <ele>256</ele>
        <time>2018-02-19T10:48:10Z</time>
      </trkpt>
      <trkpt lat="46.00042" lon="4.84696">
        <ele>256</ele>
        <time>2018-02-19T10:48:11Z</time>
      </trkpt>
      <trkpt lat="46.00047" lon="4.84696">
        <ele>256</ele>
        <time>2018-02-19T10:48:12Z</time>
      </trkpt>
      <trkpt lat="46.00051" lon="4.84698">
        <ele>256</ele>
        <time>2018-02-19T10:48:13Z</time>
      </trkpt>
      <trkpt lat="46.00056" lon="4.84697">
        <ele>256</ele>
        <time>2018-02-19T10:48:14Z</time>
      </trkpt>
      <trkpt lat="46.00064" lon="4.84698">
        <ele>256</ele>
        <time>2018-02-19T10:48:16Z</time>
      </trkpt>
      <trkpt lat="46.00068" lon="4.84698">
        <ele>256</ele>
        <time>2018-02-19T10:48:17Z</time>
      </trkpt>
      <trkpt lat="46.00076" lon="4.84698">
        <ele>257</ele>
        <time>2018-02-19T10:48:20Z</time>
      </trkpt>
      <trkpt lat="46.00078" lon="4.84698">
        <ele>257</ele>
        <time>2018-02-19T10:48:21Z</time>
      </trkpt>
      <trkpt lat="46.00086" lon="4.84704">
        <ele>257</ele>
        <time>2018-02-19T10:48:27Z</time>
      </trkpt>
      <trkpt lat="46.00088" lon="4.84705">
        <ele>257</ele>
        <time>2018-02-19T10:48:28Z</time>
      </trkpt>
      <trkpt lat="46.00094" lon="4.84707">
        <ele>257</ele>
        <time>2018-02-19T10:48:30Z</time>
      </trkpt>
      <trkpt lat="46.00098" lon="4.84708">
        <ele>257</ele>
        <time>2018-02-19T10:48:31Z</time>
      </trkpt>
      <trkpt lat="46.00104" lon="4.84707">
        <ele>257</ele>
        <time>2018-02-19T10:48:33Z</time>
      </trkpt>
      <trkpt lat="46.00108" lon="4.84707">
        <ele>257</ele>
        <time>2018-02-19T10:48:34Z</time>
      </trkpt>
      <trkpt lat="46.00116" lon="4.84707">
        <ele>257</ele>
        <time>2018-02-19T10:48:36Z</time>
      </trkpt>
      <trkpt lat="46.00119" lon="4.84708">
        <ele>257</ele>
        <time>2018-02-19T10:48:37Z</time>
      </trkpt>
      <trkpt lat="46.00127" lon="4.84708">
        <ele>258</ele>
        <time>2018-02-19T10:48:39Z</time>
      </trkpt>
      <trkpt lat="46.00131" lon="4.84709">
        <ele>258</ele>
        <time>2018-02-19T10:48:40Z</time>
      </trkpt>
      <trkpt lat="46.00138" lon="4.8471">
        <ele>258</ele>
        <time>2018-02-19T10:48:42Z</time>
      </trkpt>
      <trkpt lat="46.00142" lon="4.84711">
        <ele>258</ele>
        <time>2018-02-19T10:48:43Z</time>
      </trkpt>
      <trkpt lat="46.00149" lon="4.84711">
        <ele>258</ele>
        <time>2018-02-19T10:48:45Z</time>
      </trkpt>
      <trkpt lat="46.00153" lon="4.84712">
        <ele>258</ele>
        <time>2018-02-19T10:48:46Z</time>
      </trkpt>
      <trkpt lat="46.0016" lon="4.84714">
        <ele>258</ele>
        <time>2018-02-19T10:48:48Z</time>
      </trkpt>
      <trkpt lat="46.00163" lon="4.84715">
        <ele>258</ele>
        <time>2018-02-19T10:48:49Z</time>
      </trkpt>
      <trkpt lat="46.00166" lon="4.84725">
        <ele>258</ele>
        <time>2018-02-19T10:48:52Z</time>
      </trkpt>
      <trkpt lat="46.00164" lon="4.84729">
        <ele>258</ele>
        <time>2018-02-19T10:48:53Z</time>
      </trkpt>
      <trkpt lat="46.00159" lon="4.84736">
        <ele>258</ele>
        <time>2018-02-19T10:48:55Z</time>
      </trkpt>
      <trkpt lat="46.00157" lon="4.84739">
        <ele>258</ele>
        <time>2018-02-19T10:48:56Z</time>
      </trkpt>
      <trkpt lat="46.00157" lon="4.84751">
        <ele>259</ele>
        <time>2018-02-19T10:48:59Z</time>
      </trkpt>
      <trkpt lat="46.00157" lon="4.84754">
        <ele>259</ele>
        <time>2018-02-19T10:49:00Z</time>
      </trkpt>
      <trkpt lat="46.00159" lon="4.84764">
        <ele>259</ele>
        <time>2018-02-19T10:49:03Z</time>
      </trkpt>
      <trkpt lat="46.0016" lon="4.84767">
        <ele>259</ele>
        <time>2018-02-19T10:49:04Z</time>
      </trkpt>
      <trkpt lat="46.00161" lon="4.84777">
        <ele>259</ele>
        <time>2018-02-19T10:49:08Z</time>
      </trkpt>
      <trkpt lat="46.00161" lon="4.8478">
        <ele>259</ele>
        <time>2018-02-19T10:49:09Z</time>
      </trkpt>
      <trkpt lat="46.00162" lon="4.8479">
        <ele>260</ele>
        <time>2018-02-19T10:49:12Z</time>
      </trkpt>
      <trkpt lat="46.00162" lon="4.84794">
        <ele>260</ele>
        <time>2018-02-19T10:49:13Z</time>
      </trkpt>
      <trkpt lat="46.00164" lon="4.84804">
        <ele>260</ele>
        <time>2018-02-19T10:49:16Z</time>
      </trkpt>
      <trkpt lat="46.00165" lon="4.84807">
        <ele>260</ele>
        <time>2018-02-19T10:49:17Z</time>
      </trkpt>
      <trkpt lat="46.00165" lon="4.8482">
        <ele>260</ele>
        <time>2018-02-19T10:49:21Z</time>
      </trkpt>
      <trkpt lat="46.00166" lon="4.84823">
        <ele>261</ele>
        <time>2018-02-19T10:49:22Z</time>
      </trkpt>
      <trkpt lat="46.00167" lon="4.84834">
        <ele>261</ele>
        <time>2018-02-19T10:49:25Z</time>
      </trkpt>
      <trkpt lat="46.00166" lon="4.84837">
        <ele>261</ele>
        <time>2018-02-19T10:49:26Z</time>
      </trkpt>
      <trkpt lat="46.00168" lon="4.84847">
        <ele>261</ele>
        <time>2018-02-19T10:49:30Z</time>
      </trkpt>
      <trkpt lat="46.0017" lon="4.84849">
        <ele>262</ele>
        <time>2018-02-19T10:49:31Z</time>
      </trkpt>
      <trkpt lat="46.00164" lon="4.84859">
        <ele>262</ele>
        <time>2018-02-19T10:56:38Z</time>
      </trkpt>
      <trkpt lat="46.00163" lon="4.84858">
        <ele>262</ele>
        <time>2018-02-19T10:56:39Z</time>
      </trkpt>
      <trkpt lat="46.00165" lon="4.84847">
        <ele>262</ele>
        <time>2018-02-19T10:56:52Z</time>
      </trkpt>
      <trkpt lat="46.00166" lon="4.84845">
        <ele>262</ele>
        <time>2018-02-19T10:56:53Z</time>
      </trkpt>
      <trkpt lat="46.00162" lon="4.84836">
        <ele>261</ele>
        <time>2018-02-19T10:57:24Z</time>
      </trkpt>
      <trkpt lat="46.00162" lon="4.84836">
        <ele>261</ele>
        <time>2018-02-19T10:57:25Z</time>
      </trkpt>
      <trkpt lat="46.0016" lon="4.84834">
        <ele>261</ele>
        <time>2018-02-19T10:57:31Z</time>
      </trkpt>
      <trkpt lat="46.0016" lon="4.84834">
        <ele>261</ele>
        <time>2018-02-19T10:57:32Z</time>
      </trkpt>
      <trkpt lat="46.00164" lon="4.84845">
        <ele>262</ele>
        <time>2018-02-19T10:58:09Z</time>
      </trkpt>
      <trkpt lat="46.00165" lon="4.84847">
        <ele>262</ele>
        <time>2018-02-19T10:58:10Z</time>
      </trkpt>
      <trkpt lat="46.00168" lon="4.84857">
        <ele>262</ele>
        <time>2018-02-19T11:01:15Z</time>
      </trkpt>
      <trkpt lat="46.00168" lon="4.84857">
        <ele>262</ele>
        <time>2018-02-19T11:01:16Z</time>
      </trkpt>
      <trkpt lat="46.00169" lon="4.84859">
        <ele>262</ele>
        <time>2018-02-19T11:02:40Z</time>
      </trkpt>
      <trkpt lat="46.00168" lon="4.84859">
        <ele>262</ele>
        <time>2018-02-19T11:02:41Z</time>
      </trkpt>
      <trkpt lat="46.00167" lon="4.84858">
        <ele>262</ele>
        <time>2018-02-19T11:02:44Z</time>
      </trkpt>
      <trkpt lat="46.00167" lon="4.84858">
        <ele>262</ele>
        <time>2018-02-19T11:02:45Z</time>
      </trkpt>
      <trkpt lat="46.00167" lon="4.84858">
        <ele>262</ele>
        <time>2018-02-19T11:02:46Z</time>
      </trkpt>
      <trkpt lat="46.00165" lon="4.84868">
        <ele>263</ele>
        <time>2018-02-19T11:03:25Z</time>
      </trkpt>
      <trkpt lat="46.00164" lon="4.84868">
        <ele>263</ele>
        <time>2018-02-19T11:03:26Z</time>
      </trkpt>
      <trkpt lat="46.00164" lon="4.84868">
        <ele>263</ele>
        <time>2018-02-19T11:03:27Z</time>
      </trkpt>
      <trkpt lat="46.00157" lon="4.84866">
        <ele>263</ele>
        <time>2018-02-19T11:03:42Z</time>
      </trkpt>
      <trkpt lat="46.00155" lon="4.84865">
        <ele>263</ele>
        <time>2018-02-19T11:03:43Z</time>
      </trkpt>
      <trkpt lat="46.00151" lon="4.84854">
        <ele>262</ele>
        <time>2018-02-19T11:03:47Z</time>
      </trkpt>
      <trkpt lat="46.00153" lon="4.8485">
        <ele>262</ele>
        <time>2018-02-19T11:03:48Z</time>
      </trkpt>
      <trkpt lat="46.00161" lon="4.84846">
        <ele>262</ele>
        <time>2018-02-19T11:03:51Z</time>
      </trkpt>
      <trkpt lat="46.00163" lon="4.84844">
        <ele>262</ele>
        <time>2018-02-19T11:03:52Z</time>
      </trkpt>
      <trkpt lat="46.00164" lon="4.84834">
        <ele>261</ele>
        <time>2018-02-19T11:03:55Z</time>
      </trkpt>
      <trkpt lat="46.00164" lon="4.84829">
        <ele>261</ele>
        <time>2018-02-19T11:03:56Z</time>
      </trkpt>
      <trkpt lat="46.00162" lon="4.8482">
        <ele>260</ele>
        <time>2018-02-19T11:03:58Z</time>
      </trkpt>
      <trkpt lat="46.00162" lon="4.84815">
        <ele>260</ele>
        <time>2018-02-19T11:03:59Z</time>
      </trkpt>
      <trkpt lat="46.0016" lon="4.84805">
        <ele>260</ele>
        <time>2018-02-19T11:04:01Z</time>
      </trkpt>
      <trkpt lat="46.00159" lon="4.84797">
        <ele>260</ele>
        <time>2018-02-19T11:04:02Z</time>
      </trkpt>
      <trkpt lat="46.00158" lon="4.8479">
        <ele>260</ele>
        <time>2018-02-19T11:04:03Z</time>
      </trkpt>
      <trkpt lat="46.0016" lon="4.84781">
        <ele>259</ele>
        <time>2018-02-19T11:04:04Z</time>
      </trkpt>
      <trkpt lat="46.00162" lon="4.84774">
        <ele>259</ele>
        <time>2018-02-19T11:04:05Z</time>
      </trkpt>
      <trkpt lat="46.00161" lon="4.84767">
        <ele>259</ele>
        <time>2018-02-19T11:04:06Z</time>
      </trkpt>
      <trkpt lat="46.0016" lon="4.84758">
        <ele>259</ele>
        <time>2018-02-19T11:04:07Z</time>
      </trkpt>
      <trkpt lat="46.00161" lon="4.84749">
        <ele>258</ele>
        <time>2018-02-19T11:04:08Z</time>
      </trkpt>
      <trkpt lat="46.00161" lon="4.84738">
        <ele>258</ele>
        <time>2018-02-19T11:04:10Z</time>
      </trkpt>
      <trkpt lat="46.00163" lon="4.84734">
        <ele>258</ele>
        <time>2018-02-19T11:04:11Z</time>
      </trkpt>
      <trkpt lat="46.0017" lon="4.84729">
        <ele>258</ele>
        <time>2018-02-19T11:04:13Z</time>
      </trkpt>
      <trkpt lat="46.00174" lon="4.84728">
        <ele>258</ele>
        <time>2018-02-19T11:04:14Z</time>
      </trkpt>
      <trkpt lat="46.00182" lon="4.84724">
        <ele>258</ele>
        <time>2018-02-19T11:04:16Z</time>
      </trkpt>
      <trkpt lat="46.00185" lon="4.84719">
        <ele>258</ele>
        <time>2018-02-19T11:04:17Z</time>
      </trkpt>
      <trkpt lat="46.00185" lon="4.84711">
        <ele>258</ele>
        <time>2018-02-19T11:04:19Z</time>
      </trkpt>
      <trkpt lat="46.00183" lon="4.84706">
        <ele>258</ele>
        <time>2018-02-19T11:04:20Z</time>
      </trkpt>
      <trkpt lat="46.00178" lon="4.84699">
        <ele>258</ele>
        <time>2018-02-19T11:04:22Z</time>
      </trkpt>
      <trkpt lat="46.00175" lon="4.84698">
        <ele>258</ele>
        <time>2018-02-19T11:04:23Z</time>
      </trkpt>
      <trkpt lat="46.00171" lon="4.84698">
        <ele>258</ele>
        <time>2018-02-19T11:04:24Z</time>
      </trkpt>
      <trkpt lat="46.00164" lon="4.84706">
        <ele>258</ele>
        <time>2018-02-19T11:04:25Z</time>
      </trkpt>
      <trkpt lat="46.00159" lon="4.84708">
        <ele>258</ele>
        <time>2018-02-19T11:04:26Z</time>
      </trkpt>
      <trkpt lat="46.00155" lon="4.84709">
        <ele>258</ele>
        <time>2018-02-19T11:04:27Z</time>
      </trkpt>
      <trkpt lat="46.0015" lon="4.8471">
        <ele>258</ele>
        <time>2018-02-19T11:04:28Z</time>
      </trkpt>
      <trkpt lat="46.00145" lon="4.8471">
        <ele>258</ele>
        <time>2018-02-19T11:04:29Z</time>
      </trkpt>
      <trkpt lat="46.00139" lon="4.84711">
        <ele>258</ele>
        <time>2018-02-19T11:04:30Z</time>
      </trkpt>
      <trkpt lat="46.00135" lon="4.84709">
        <ele>258</ele>
        <time>2018-02-19T11:04:31Z</time>
      </trkpt>
      <trkpt lat="46.0013" lon="4.84709">
        <ele>258</ele>
        <time>2018-02-19T11:04:32Z</time>
      </trkpt>
      <trkpt lat="46.00125" lon="4.84709">
        <ele>258</ele>
        <time>2018-02-19T11:04:33Z</time>
      </trkpt>
      <trkpt lat="46.00119" lon="4.84712">
        <ele>257</ele>
        <time>2018-02-19T11:04:34Z</time>
      </trkpt>
      <trkpt lat="46.00114" lon="4.84711">
        <ele>257</ele>
        <time>2018-02-19T11:04:35Z</time>
      </trkpt>
      <trkpt lat="46.00105" lon="4.84709">
        <ele>257</ele>
        <time>2018-02-19T11:04:37Z</time>
      </trkpt>
      <trkpt lat="46.00101" lon="4.84709">
        <ele>257</ele>
        <time>2018-02-19T11:04:38Z</time>
      </trkpt>
      <trkpt lat="46.00092" lon="4.84708">
        <ele>257</ele>
        <time>2018-02-19T11:04:40Z</time>
      </trkpt>
      <trkpt lat="46.00088" lon="4.84707">
        <ele>257</ele>
        <time>2018-02-19T11:04:41Z</time>
      </trkpt>
      <trkpt lat="46.00086" lon="4.84699">
        <ele>257</ele>
        <time>2018-02-19T11:04:42Z</time>
      </trkpt>
      <trkpt lat="46.00086" lon="4.84693">
        <ele>257</ele>
        <time>2018-02-19T11:04:43Z</time>
      </trkpt>
      <trkpt lat="46.00083" lon="4.84683">
        <ele>256</ele>
        <time>2018-02-19T11:04:45Z</time>
      </trkpt>
      <trkpt lat="46.00082" lon="4.84678">
        <ele>256</ele>
        <time>2018-02-19T11:04:46Z</time>
      </trkpt>
      <trkpt lat="46.00081" lon="4.84666">
        <ele>256</ele>
        <time>2018-02-19T11:04:48Z</time>
      </trkpt>
      <trkpt lat="46.00081" lon="4.8466">
        <ele>256</ele>
        <time>2018-02-19T11:04:49Z</time>
      </trkpt>
      <trkpt lat="46.00082" lon="4.84653">
        <ele>256</ele>
        <time>2018-02-19T11:04:50Z</time>
      </trkpt>
      <trkpt lat="46.00082" lon="4.84646">
        <ele>256</ele>
        <time>2018-02-19T11:04:51Z</time>
      </trkpt>
      <trkpt lat="46.00082" lon="4.84638">
        <ele>256</ele>
        <time>2018-02-19T11:04:52Z</time>
      </trkpt>
      <trkpt lat="46.00082" lon="4.8463">
        <ele>256</ele>
        <time>2018-02-19T11:04:53Z</time>
      </trkpt>
      <trkpt lat="46.00082" lon="4.84623">
        <ele>256</ele>
        <time>2018-02-19T11:04:54Z</time>
      </trkpt>
      <trkpt lat="46.00082" lon="4.84616">
        <ele>256</ele>
        <time>2018-02-19T11:04:55Z</time>
      </trkpt>
      <trkpt lat="46.00082" lon="4.84609">
        <ele>256</ele>
        <time>2018-02-19T11:04:56Z</time>
      </trkpt>
      <trkpt lat="46.00081" lon="4.84603">
        <ele>256</ele>
        <time>2018-02-19T11:04:57Z</time>
      </trkpt>
      <trkpt lat="46.0008" lon="4.84596">
        <ele>256</ele>
        <time>2018-02-19T11:04:58Z</time>
      </trkpt>
      <trkpt lat="46.0008" lon="4.84588">
        <ele>257</ele>
        <time>2018-02-19T11:04:59Z</time>
      </trkpt>
      <trkpt lat="46.00079" lon="4.84581">
        <ele>257</ele>
        <time>2018-02-19T11:05:00Z</time>
      </trkpt>
      <trkpt lat="46.0008" lon="4.84575">
        <ele>257</ele>
        <time>2018-02-19T11:05:01Z</time>
      </trkpt>
      <trkpt lat="46.0008" lon="4.84569">
        <ele>257</ele>
        <time>2018-02-19T11:05:02Z</time>
      </trkpt>
      <trkpt lat="46.00079" lon="4.84562">
        <ele>257</ele>
        <time>2018-02-19T11:05:03Z</time>
      </trkpt>
      <trkpt lat="46.00079" lon="4.84554">
        <ele>257</ele>
        <time>2018-02-19T11:05:04Z</time>
      </trkpt>
      <trkpt lat="46.00079" lon="4.84547">
        <ele>257</ele>
        <time>2018-02-19T11:05:05Z</time>
      </trkpt>
      <trkpt lat="46.00077" lon="4.84541">
        <ele>257</ele>
        <time>2018-02-19T11:05:06Z</time>
      </trkpt>
      <trkpt lat="46.00077" lon="4.84534">
        <ele>257</ele>
        <time>2018-02-19T11:05:07Z</time>
      </trkpt>
      <trkpt lat="46.00076" lon="4.84522">
        <ele>258</ele>
        <time>2018-02-19T11:05:09Z</time>
      </trkpt>
      <trkpt lat="46.00075" lon="4.84515">
        <ele>258</ele>
        <time>2018-02-19T11:05:10Z</time>
      </trkpt>
      <trkpt lat="46.00074" lon="4.84508">
        <ele>258</ele>
        <time>2018-02-19T11:05:11Z</time>
      </trkpt>
      <trkpt lat="46.00073" lon="4.84501">
        <ele>258</ele>
        <time>2018-02-19T11:05:12Z</time>
      </trkpt>
      <trkpt lat="46.00073" lon="4.84493">
        <ele>259</ele>
        <time>2018-02-19T11:05:13Z</time>
      </trkpt>
      <trkpt lat="46.00071" lon="4.84485">
        <ele>258</ele>
        <time>2018-02-19T11:05:14Z</time>
      </trkpt>
      <trkpt lat="46.00069" lon="4.84478">
        <ele>258</ele>
        <time>2018-02-19T11:05:15Z</time>
      </trkpt>
      <trkpt lat="46.00067" lon="4.84472">
        <ele>258</ele>
        <time>2018-02-19T11:05:16Z</time>
      </trkpt>
      <trkpt lat="46.00066" lon="4.8446">
        <ele>258</ele>
        <time>2018-02-19T11:05:18Z</time>
      </trkpt>
      <trkpt lat="46.00065" lon="4.84454">
        <ele>258</ele>
        <time>2018-02-19T11:05:19Z</time>
      </trkpt>
      <trkpt lat="46.00063" lon="4.84443">
        <ele>258</ele>
        <time>2018-02-19T11:05:21Z</time>
      </trkpt>
      <trkpt lat="46.00062" lon="4.84436">
        <ele>258</ele>
        <time>2018-02-19T11:05:22Z</time>
      </trkpt>
      <trkpt lat="46.00061" lon="4.84423">
        <ele>258</ele>
        <time>2018-02-19T11:05:24Z</time>
      </trkpt>
      <trkpt lat="46.0006" lon="4.84417">
        <ele>259</ele>
        <time>2018-02-19T11:05:25Z</time>
      </trkpt>
      <trkpt lat="46.00059" lon="4.8441">
        <ele>259</ele>
        <time>2018-02-19T11:05:26Z</time>
      </trkpt>
      <trkpt lat="46.00058" lon="4.84404">
        <ele>259</ele>
        <time>2018-02-19T11:05:27Z</time>
      </trkpt>
      <trkpt lat="46.00057" lon="4.84396">
        <ele>259</ele>
        <time>2018-02-19T11:05:28Z</time>
      </trkpt>
      <trkpt lat="46.00056" lon="4.84389">
        <ele>259</ele>
        <time>2018-02-19T11:05:29Z</time>
      </trkpt>
      <trkpt lat="46.00055" lon="4.84377">
        <ele>259</ele>
        <time>2018-02-19T11:05:31Z</time>
      </trkpt>
      <trkpt lat="46.00054" lon="4.8437">
        <ele>259</ele>
        <time>2018-02-19T11:05:32Z</time>
      </trkpt>
      <trkpt lat="46.00052" lon="4.84363">
        <ele>259</ele>
        <time>2018-02-19T11:05:33Z</time>
      </trkpt>
      <trkpt lat="46.00051" lon="4.84356">
        <ele>259</ele>
        <time>2018-02-19T11:05:34Z</time>
      </trkpt>
      <trkpt lat="46.0005" lon="4.8435">
        <ele>259</ele>
        <time>2018-02-19T11:05:35Z</time>
      </trkpt>
      <trkpt lat="46.00049" lon="4.84344">
        <ele>259</ele>
        <time>2018-02-19T11:05:36Z</time>
      </trkpt>
      <trkpt lat="46.00047" lon="4.84337">
        <ele>259</ele>
        <time>2018-02-19T11:05:37Z</time>
      </trkpt>
      <trkpt lat="46.00045" lon="4.84331">
        <ele>260</ele>
        <time>2018-02-19T11:05:38Z</time>
      </trkpt>
      <trkpt lat="46.00042" lon="4.8432">
        <ele>260</ele>
        <time>2018-02-19T11:05:40Z</time>
      </trkpt>
      <trkpt lat="46.00041" lon="4.84314">
        <ele>259</ele>
        <time>2018-02-19T11:05:41Z</time>
      </trkpt>
      <trkpt lat="46.00038" lon="4.84302">
        <ele>259</ele>
        <time>2018-02-19T11:05:43Z</time>
      </trkpt>
      <trkpt lat="46.00037" lon="4.84296">
        <ele>259</ele>
        <time>2018-02-19T11:05:44Z</time>
      </trkpt>
      <trkpt lat="46.00033" lon="4.84285">
        <ele>260</ele>
        <time>2018-02-19T11:05:46Z</time>
      </trkpt>
      <trkpt lat="46.00032" lon="4.84278">
        <ele>260</ele>
        <time>2018-02-19T11:05:47Z</time>
      </trkpt>
      <trkpt lat="46.00029" lon="4.84266">
        <ele>260</ele>
        <time>2018-02-19T11:05:49Z</time>
      </trkpt>
      <trkpt lat="46.00027" lon="4.8426">
        <ele>260</ele>
        <time>2018-02-19T11:05:50Z</time>
      </trkpt>
      <trkpt lat="46.00024" lon="4.84248">
        <ele>259</ele>
        <time>2018-02-19T11:05:52Z</time>
      </trkpt>
      <trkpt lat="46.00022" lon="4.84242">
        <ele>259</ele>
        <time>2018-02-19T11:05:53Z</time>
      </trkpt>
      <trkpt lat="46.0002" lon="4.84236">
        <ele>259</ele>
        <time>2018-02-19T11:05:54Z</time>
      </trkpt>
      <trkpt lat="46.00018" lon="4.84229">
        <ele>259</ele>
        <time>2018-02-19T11:05:55Z</time>
      </trkpt>
      <trkpt lat="46.00017" lon="4.84222">
        <ele>259</ele>
        <time>2018-02-19T11:05:56Z</time>
      </trkpt>
      <trkpt lat="46.00014" lon="4.84216">
        <ele>259</ele>
        <time>2018-02-19T11:05:57Z</time>
      </trkpt>
      <trkpt lat="46.00011" lon="4.84209">
        <ele>259</ele>
        <time>2018-02-19T11:05:58Z</time>
      </trkpt>
      <trkpt lat="46.00009" lon="4.84202">
        <ele>259</ele>
        <time>2018-02-19T11:05:59Z</time>
      </trkpt>
      <trkpt lat="46.00008" lon="4.84195">
        <ele>258</ele>
        <time>2018-02-19T11:06:00Z</time>
      </trkpt>
      <trkpt lat="46.00006" lon="4.84188">
        <ele>258</ele>
        <time>2018-02-19T11:06:01Z</time>
      </trkpt>
      <trkpt lat="46.00005" lon="4.84181">
        <ele>258</ele>
        <time>2018-02-19T11:06:02Z</time>
      </trkpt>
      <trkpt lat="46.00002" lon="4.84175">
        <ele>258</ele>
        <time>2018-02-19T11:06:03Z</time>
      </trkpt>
      <trkpt lat="46" lon="4.84168">
        <ele>257</ele>
        <time>2018-02-19T11:06:04Z</time>
      </trkpt>
      <trkpt lat="45.99998" lon="4.84161">
        <ele>257</ele>
        <time>2018-02-19T11:06:05Z</time>
      </trkpt>
      <trkpt lat="45.99997" lon="4.84155">
        <ele>257</ele>
        <time>2018-02-19T11:06:06Z</time>
      </trkpt>
      <trkpt lat="45.99994" lon="4.84148">
        <ele>257</ele>
        <time>2018-02-19T11:06:07Z</time>
      </trkpt>
      <trkpt lat="45.99992" lon="4.84142">
        <ele>257</ele>
        <time>2018-02-19T11:06:08Z</time>
      </trkpt>
      <trkpt lat="45.99991" lon="4.84136">
        <ele>257</ele>
        <time>2018-02-19T11:06:09Z</time>
      </trkpt>
      <trkpt lat="45.99989" lon="4.84129">
        <ele>257</ele>
        <time>2018-02-19T11:06:10Z</time>
      </trkpt>
      <trkpt lat="45.99987" lon="4.84123">
        <ele>258</ele>
        <time>2018-02-19T11:06:11Z</time>
      </trkpt>
      <trkpt lat="45.99986" lon="4.84116">
        <ele>258</ele>
        <time>2018-02-19T11:06:12Z</time>
      </trkpt>
      <trkpt lat="45.99984" lon="4.8411">
        <ele>258</ele>
        <time>2018-02-19T11:06:13Z</time>
      </trkpt>
      <trkpt lat="45.99982" lon="4.84103">
        <ele>258</ele>
        <time>2018-02-19T11:06:14Z</time>
      </trkpt>
      <trkpt lat="45.99979" lon="4.84097">
        <ele>258</ele>
        <time>2018-02-19T11:06:15Z</time>
      </trkpt>
      <trkpt lat="45.99977" lon="4.8409">
        <ele>258</ele>
        <time>2018-02-19T11:06:16Z</time>
      </trkpt>
      <trkpt lat="45.99975" lon="4.84083">
        <ele>259</ele>
        <time>2018-02-19T11:06:17Z</time>
      </trkpt>
      <trkpt lat="45.99973" lon="4.84076">
        <ele>259</ele>
        <time>2018-02-19T11:06:18Z</time>
      </trkpt>
      <trkpt lat="45.99971" lon="4.8407">
        <ele>259</ele>
        <time>2018-02-19T11:06:19Z</time>
      </trkpt>
      <trkpt lat="45.99969" lon="4.84062">
        <ele>259</ele>
        <time>2018-02-19T11:06:20Z</time>
      </trkpt>
      <trkpt lat="45.99966" lon="4.84056">
        <ele>259</ele>
        <time>2018-02-19T11:06:21Z</time>
      </trkpt>
      <trkpt lat="45.99964" lon="4.84049">
        <ele>259</ele>
        <time>2018-02-19T11:06:22Z</time>
      </trkpt>
      <trkpt lat="45.99962" lon="4.84042">
        <ele>259</ele>
        <time>2018-02-19T11:06:23Z</time>
      </trkpt>
      <trkpt lat="45.99961" lon="4.84035">
        <ele>259</ele>
        <time>2018-02-19T11:06:24Z</time>
      </trkpt>
      <trkpt lat="45.99959" lon="4.84029">
        <ele>259</ele>
        <time>2018-02-19T11:06:25Z</time>
      </trkpt>
      <trkpt lat="45.99957" lon="4.84023">
        <ele>259</ele>
        <time>2018-02-19T11:06:26Z</time>
      </trkpt>
      <trkpt lat="45.99955" lon="4.84016">
        <ele>259</ele>
        <time>2018-02-19T11:06:27Z</time>
      </trkpt>
      <trkpt lat="45.99952" lon="4.8401">
        <ele>259</ele>
        <time>2018-02-19T11:06:28Z</time>
      </trkpt>
      <trkpt lat="45.9995" lon="4.84004">
        <ele>259</ele>
        <time>2018-02-19T11:06:29Z</time>
      </trkpt>
      <trkpt lat="45.99949" lon="4.83998">
        <ele>259</ele>
        <time>2018-02-19T11:06:30Z</time>
      </trkpt>
      <trkpt lat="45.99947" lon="4.83991">
        <ele>259</ele>
        <time>2018-02-19T11:06:31Z</time>
      </trkpt>
      <trkpt lat="45.99945" lon="4.83984">
        <ele>259</ele>
        <time>2018-02-19T11:06:32Z</time>
      </trkpt>
      <trkpt lat="45.99943" lon="4.83976">
        <ele>259</ele>
        <time>2018-02-19T11:06:33Z</time>
      </trkpt>
      <trkpt lat="45.99941" lon="4.83969">
        <ele>259</ele>
        <time>2018-02-19T11:06:34Z</time>
      </trkpt>
      <trkpt lat="45.99939" lon="4.83962">
        <ele>259</ele>
        <time>2018-02-19T11:06:35Z</time>
      </trkpt>
      <trkpt lat="45.99937" lon="4.83955">
        <ele>259</ele>
        <time>2018-02-19T11:06:36Z</time>
      </trkpt>
      <trkpt lat="45.99935" lon="4.83949">
        <ele>259</ele>
        <time>2018-02-19T11:06:37Z</time>
      </trkpt>
      <trkpt lat="45.99934" lon="4.83942">
        <ele>259</ele>
        <time>2018-02-19T11:06:38Z</time>
      </trkpt>
      <trkpt lat="45.99932" lon="4.83935">
        <ele>259</ele>
        <time>2018-02-19T11:06:39Z</time>
      </trkpt>
      <trkpt lat="45.9993" lon="4.83929">
        <ele>259</ele>
        <time>2018-02-19T11:06:40Z</time>
      </trkpt>
      <trkpt lat="45.99929" lon="4.83921">
        <ele>259</ele>
        <time>2018-02-19T11:06:41Z</time>
      </trkpt>
      <trkpt lat="45.99927" lon="4.83914">
        <ele>259</ele>
        <time>2018-02-19T11:06:42Z</time>
      </trkpt>
      <trkpt lat="45.99925" lon="4.83906">
        <ele>259</ele>
        <time>2018-02-19T11:06:43Z</time>
      </trkpt>
      <trkpt lat="45.99923" lon="4.83899">
        <ele>259</ele>
        <time>2018-02-19T11:06:44Z</time>
      </trkpt>
      <trkpt lat="45.99921" lon="4.83892">
        <ele>259</ele>
        <time>2018-02-19T11:06:45Z</time>
      </trkpt>
      <trkpt lat="45.99919" lon="4.83884">
        <ele>259</ele>
        <time>2018-02-19T11:06:46Z</time>
      </trkpt>
      <trkpt lat="45.99916" lon="4.83877">
        <ele>258</ele>
        <time>2018-02-19T11:06:47Z</time>
      </trkpt>
      <trkpt lat="45.99914" lon="4.83869">
        <ele>258</ele>
        <time>2018-02-19T11:06:48Z</time>
      </trkpt>
      <trkpt lat="45.99912" lon="4.83861">
        <ele>258</ele>
        <time>2018-02-19T11:06:49Z</time>
      </trkpt>
      <trkpt lat="45.9991" lon="4.83853">
        <ele>258</ele>
        <time>2018-02-19T11:06:50Z</time>
      </trkpt>
      <trkpt lat="45.99908" lon="4.83846">
        <ele>258</ele>
        <time>2018-02-19T11:06:51Z</time>
      </trkpt>
      <trkpt lat="45.99906" lon="4.83839">
        <ele>258</ele>
        <time>2018-02-19T11:06:52Z</time>
      </trkpt>
      <trkpt lat="45.99905" lon="4.83832">
        <ele>257</ele>
        <time>2018-02-19T11:06:53Z</time>
      </trkpt>
      <trkpt lat="45.99902" lon="4.83825">
        <ele>257</ele>
        <time>2018-02-19T11:06:54Z</time>
      </trkpt>
      <trkpt lat="45.99901" lon="4.83818">
        <ele>257</ele>
        <time>2018-02-19T11:06:55Z</time>
      </trkpt>
      <trkpt lat="45.99899" lon="4.83811">
        <ele>257</ele>
        <time>2018-02-19T11:06:56Z</time>
      </trkpt>
      <trkpt lat="45.99898" lon="4.83804">
        <ele>257</ele>
        <time>2018-02-19T11:06:57Z</time>
      </trkpt>
      <trkpt lat="45.99895" lon="4.83796">
        <ele>257</ele>
        <time>2018-02-19T11:06:58Z</time>
      </trkpt>
      <trkpt lat="45.99893" lon="4.83788">
        <ele>257</ele>
        <time>2018-02-19T11:06:59Z</time>
      </trkpt>
      <trkpt lat="45.9989" lon="4.8378">
        <ele>257</ele>
        <time>2018-02-19T11:07:00Z</time>
      </trkpt>
      <trkpt lat="45.99888" lon="4.83772">
        <ele>257</ele>
        <time>2018-02-19T11:07:01Z</time>
      </trkpt>
      <trkpt lat="45.99886" lon="4.83765">
        <ele>257</ele>
        <time>2018-02-19T11:07:02Z</time>
      </trkpt>
      <trkpt lat="45.99883" lon="4.83757">
        <ele>256</ele>
        <time>2018-02-19T11:07:03Z</time>
      </trkpt>
      <trkpt lat="45.99882" lon="4.8375">
        <ele>256</ele>
        <time>2018-02-19T11:07:04Z</time>
      </trkpt>
      <trkpt lat="45.9988" lon="4.83742">
        <ele>256</ele>
        <time>2018-02-19T11:07:05Z</time>
      </trkpt>
      <trkpt lat="45.99877" lon="4.83734">
        <ele>256</ele>
        <time>2018-02-19T11:07:06Z</time>
      </trkpt>
      <trkpt lat="45.99875" lon="4.83728">
        <ele>256</ele>
        <time>2018-02-19T11:07:07Z</time>
      </trkpt>
      <trkpt lat="45.99873" lon="4.8372">
        <ele>256</ele>
        <time>2018-02-19T11:07:08Z</time>
      </trkpt>
      <trkpt lat="45.9987" lon="4.83713">
        <ele>256</ele>
        <time>2018-02-19T11:07:09Z</time>
      </trkpt>
      <trkpt lat="45.99868" lon="4.83706">
        <ele>256</ele>
        <time>2018-02-19T11:07:10Z</time>
      </trkpt>
      <trkpt lat="45.99867" lon="4.83698">
        <ele>256</ele>
        <time>2018-02-19T11:07:11Z</time>
      </trkpt>
      <trkpt lat="45.99865" lon="4.83691">
        <ele>256</ele>
        <time>2018-02-19T11:07:12Z</time>
      </trkpt>
      <trkpt lat="45.99863" lon="4.83684">
        <ele>256</ele>
        <time>2018-02-19T11:07:13Z</time>
      </trkpt>
      <trkpt lat="45.99861" lon="4.83677">
        <ele>256</ele>
        <time>2018-02-19T11:07:14Z</time>
      </trkpt>
      <trkpt lat="45.9986" lon="4.83669">
        <ele>256</ele>
        <time>2018-02-19T11:07:15Z</time>
      </trkpt>
      <trkpt lat="45.99858" lon="4.83661">
        <ele>257</ele>
        <time>2018-02-19T11:07:16Z</time>
      </trkpt>
      <trkpt lat="45.99857" lon="4.83655">
        <ele>257</ele>
        <time>2018-02-19T11:07:17Z</time>
      </trkpt>
      <trkpt lat="45.99855" lon="4.83648">
        <ele>257</ele>
        <time>2018-02-19T11:07:18Z</time>
      </trkpt>
      <trkpt lat="45.99853" lon="4.83641">
        <ele>257</ele>
        <time>2018-02-19T11:07:19Z</time>
      </trkpt>
      <trkpt lat="45.99852" lon="4.83633">
        <ele>257</ele>
        <time>2018-02-19T11:07:20Z</time>
      </trkpt>
      <trkpt lat="45.99849" lon="4.83626">
        <ele>257</ele>
        <time>2018-02-19T11:07:21Z</time>
      </trkpt>
      <trkpt lat="45.99847" lon="4.83619">
        <ele>257</ele>
        <time>2018-02-19T11:07:22Z</time>
      </trkpt>
      <trkpt lat="45.99846" lon="4.83612">
        <ele>257</ele>
        <time>2018-02-19T11:07:23Z</time>
      </trkpt>
      <trkpt lat="45.99844" lon="4.83605">
        <ele>257</ele>
        <time>2018-02-19T11:07:24Z</time>
      </trkpt>
      <trkpt lat="45.99842" lon="4.83598">
        <ele>257</ele>
        <time>2018-02-19T11:07:25Z</time>
      </trkpt>
      <trkpt lat="45.9984" lon="4.8359">
        <ele>257</ele>
        <time>2018-02-19T11:07:26Z</time>
      </trkpt>
      <trkpt lat="45.99839" lon="4.83584">
        <ele>257</ele>
        <time>2018-02-19T11:07:27Z</time>
      </trkpt>
      <trkpt lat="45.99837" lon="4.83577">
        <ele>257</ele>
        <time>2018-02-19T11:07:28Z</time>
      </trkpt>
      <trkpt lat="45.99836" lon="4.83571">
        <ele>258</ele>
        <time>2018-02-19T11:07:29Z</time>
      </trkpt>
      <trkpt lat="45.99834" lon="4.83564">
        <ele>258</ele>
        <time>2018-02-19T11:07:30Z</time>
      </trkpt>
      <trkpt lat="45.99832" lon="4.83557">
        <ele>258</ele>
        <time>2018-02-19T11:07:31Z</time>
      </trkpt>
      <trkpt lat="45.99831" lon="4.8355">
        <ele>258</ele>
        <time>2018-02-19T11:07:32Z</time>
      </trkpt>
      <trkpt lat="45.9983" lon="4.83544">
        <ele>259</ele>
        <time>2018-02-19T11:07:33Z</time>
      </trkpt>
      <trkpt lat="45.99828" lon="4.83537">
        <ele>259</ele>
        <time>2018-02-19T11:07:34Z</time>
      </trkpt>
      <trkpt lat="45.99827" lon="4.8353">
        <ele>259</ele>
        <time>2018-02-19T11:07:35Z</time>
      </trkpt>
      <trkpt lat="45.99826" lon="4.83523">
        <ele>259</ele>
        <time>2018-02-19T11:07:36Z</time>
      </trkpt>
      <trkpt lat="45.99824" lon="4.83515">
        <ele>259</ele>
        <time>2018-02-19T11:07:37Z</time>
      </trkpt>
      <trkpt lat="45.99821" lon="4.83503">
        <ele>259</ele>
        <time>2018-02-19T11:07:39Z</time>
      </trkpt>
      <trkpt lat="45.9982" lon="4.83496">
        <ele>260</ele>
        <time>2018-02-19T11:07:40Z</time>
      </trkpt>
      <trkpt lat="45.99819" lon="4.8349">
        <ele>260</ele>
        <time>2018-02-19T11:07:41Z</time>
      </trkpt>
      <trkpt lat="45.99817" lon="4.83484">
        <ele>260</ele>
        <time>2018-02-19T11:07:42Z</time>
      </trkpt>
      <trkpt lat="45.99815" lon="4.83477">
        <ele>260</ele>
        <time>2018-02-19T11:07:43Z</time>
      </trkpt>
      <trkpt lat="45.99814" lon="4.8347">
        <ele>260</ele>
        <time>2018-02-19T11:07:44Z</time>
      </trkpt>
      <trkpt lat="45.99812" lon="4.83464">
        <ele>260</ele>
        <time>2018-02-19T11:07:45Z</time>
      </trkpt>
      <trkpt lat="45.99811" lon="4.83457">
        <ele>261</ele>
        <time>2018-02-19T11:07:46Z</time>
      </trkpt>
      <trkpt lat="45.9981" lon="4.83451">
        <ele>261</ele>
        <time>2018-02-19T11:07:47Z</time>
      </trkpt>
      <trkpt lat="45.99807" lon="4.83444">
        <ele>261</ele>
        <time>2018-02-19T11:07:48Z</time>
      </trkpt>
      <trkpt lat="45.99804" lon="4.83434">
        <ele>261</ele>
        <time>2018-02-19T11:07:50Z</time>
      </trkpt>
      <trkpt lat="45.99803" lon="4.83429">
        <ele>261</ele>
        <time>2018-02-19T11:07:51Z</time>
      </trkpt>
      <trkpt lat="45.99803" lon="4.83421">
        <ele>261</ele>
        <time>2018-02-19T11:07:52Z</time>
      </trkpt>
      <trkpt lat="45.99802" lon="4.83415">
        <ele>262</ele>
        <time>2018-02-19T11:07:53Z</time>
      </trkpt>
      <trkpt lat="45.99801" lon="4.83403">
        <ele>262</ele>
        <time>2018-02-19T11:07:55Z</time>
      </trkpt>
      <trkpt lat="45.99799" lon="4.83397">
        <ele>262</ele>
        <time>2018-02-19T11:07:56Z</time>
      </trkpt>
      <trkpt lat="45.99796" lon="4.83386">
        <ele>262</ele>
        <time>2018-02-19T11:07:58Z</time>
      </trkpt>
      <trkpt lat="45.99794" lon="4.83381">
        <ele>262</ele>
        <time>2018-02-19T11:07:59Z</time>
      </trkpt>
      <trkpt lat="45.99791" lon="4.83369">
        <ele>262</ele>
        <time>2018-02-19T11:08:01Z</time>
      </trkpt>
      <trkpt lat="45.9979" lon="4.83363">
        <ele>262</ele>
        <time>2018-02-19T11:08:02Z</time>
      </trkpt>
      <trkpt lat="45.99788" lon="4.83352">
        <ele>262</ele>
        <time>2018-02-19T11:08:04Z</time>
      </trkpt>
      <trkpt lat="45.99786" lon="4.83347">
        <ele>262</ele>
        <time>2018-02-19T11:08:05Z</time>
      </trkpt>
      <trkpt lat="45.99784" lon="4.83335">
        <ele>263</ele>
        <time>2018-02-19T11:08:07Z</time>
      </trkpt>
      <trkpt lat="45.99783" lon="4.8333">
        <ele>264</ele>
        <time>2018-02-19T11:08:08Z</time>
      </trkpt>
      <trkpt lat="45.99782" lon="4.83319">
        <ele>264</ele>
        <time>2018-02-19T11:08:10Z</time>
      </trkpt>
      <trkpt lat="45.99781" lon="4.83313">
        <ele>264</ele>
        <time>2018-02-19T11:08:11Z</time>
      </trkpt>
      <trkpt lat="45.9978" lon="4.83302">
        <ele>264</ele>
        <time>2018-02-19T11:08:13Z</time>
      </trkpt>
      <trkpt lat="45.99779" lon="4.83297">
        <ele>264</ele>
        <time>2018-02-19T11:08:14Z</time>
      </trkpt>
      <trkpt lat="45.99777" lon="4.83286">
        <ele>265</ele>
        <time>2018-02-19T11:08:16Z</time>
      </trkpt>
      <trkpt lat="45.99776" lon="4.8328">
        <ele>265</ele>
        <time>2018-02-19T11:08:17Z</time>
      </trkpt>
      <trkpt lat="45.99774" lon="4.83268">
        <ele>265</ele>
        <time>2018-02-19T11:08:19Z</time>
      </trkpt>
      <trkpt lat="45.99774" lon="4.83263">
        <ele>265</ele>
        <time>2018-02-19T11:08:20Z</time>
      </trkpt>
      <trkpt lat="45.99772" lon="4.83251">
        <ele>265</ele>
        <time>2018-02-19T11:08:22Z</time>
      </trkpt>
      <trkpt lat="45.99771" lon="4.83244">
        <ele>267</ele>
        <time>2018-02-19T11:08:23Z</time>
      </trkpt>
      <trkpt lat="45.9977" lon="4.83232">
        <ele>267</ele>
        <time>2018-02-19T11:08:25Z</time>
      </trkpt>
      <trkpt lat="45.9977" lon="4.83226">
        <ele>267</ele>
        <time>2018-02-19T11:08:26Z</time>
      </trkpt>
      <trkpt lat="45.99769" lon="4.83214">
        <ele>268</ele>
        <time>2018-02-19T11:08:28Z</time>
      </trkpt>
      <trkpt lat="45.99769" lon="4.83208">
        <ele>268</ele>
        <time>2018-02-19T11:08:29Z</time>
      </trkpt>
      <trkpt lat="45.99767" lon="4.83197">
        <ele>268</ele>
        <time>2018-02-19T11:08:31Z</time>
      </trkpt>
      <trkpt lat="45.99766" lon="4.83191">
        <ele>269</ele>
        <time>2018-02-19T11:08:32Z</time>
      </trkpt>
      <trkpt lat="45.99765" lon="4.8318">
        <ele>269</ele>
        <time>2018-02-19T11:08:34Z</time>
      </trkpt>
      <trkpt lat="45.99764" lon="4.83174">
        <ele>269</ele>
        <time>2018-02-19T11:08:35Z</time>
      </trkpt>
      <trkpt lat="45.99763" lon="4.83163">
        <ele>271</ele>
        <time>2018-02-19T11:08:37Z</time>
      </trkpt>
      <trkpt lat="45.99763" lon="4.83157">
        <ele>271</ele>
        <time>2018-02-19T11:08:38Z</time>
      </trkpt>
      <trkpt lat="45.99762" lon="4.83146">
        <ele>271</ele>
        <time>2018-02-19T11:08:40Z</time>
      </trkpt>
      <trkpt lat="45.99762" lon="4.8314">
        <ele>271</ele>
        <time>2018-02-19T11:08:41Z</time>
      </trkpt>
      <trkpt lat="45.99761" lon="4.83129">
        <ele>271</ele>
        <time>2018-02-19T11:08:43Z</time>
      </trkpt>
      <trkpt lat="45.99761" lon="4.83123">
        <ele>271</ele>
        <time>2018-02-19T11:08:44Z</time>
      </trkpt>
      <trkpt lat="45.9976" lon="4.83112">
        <ele>271</ele>
        <time>2018-02-19T11:08:46Z</time>
      </trkpt>
      <trkpt lat="45.9976" lon="4.83107">
        <ele>271</ele>
        <time>2018-02-19T11:08:47Z</time>
      </trkpt>
      <trkpt lat="45.99759" lon="4.83096">
        <ele>272</ele>
        <time>2018-02-19T11:08:49Z</time>
      </trkpt>
      <trkpt lat="45.99758" lon="4.83092">
        <ele>272</ele>
        <time>2018-02-19T11:08:50Z</time>
      </trkpt>
      <trkpt lat="45.99756" lon="4.83081">
        <ele>272</ele>
        <time>2018-02-19T11:08:52Z</time>
      </trkpt>
      <trkpt lat="45.99755" lon="4.83076">
        <ele>272</ele>
        <time>2018-02-19T11:08:53Z</time>
      </trkpt>
      <trkpt lat="45.99754" lon="4.83067">
        <ele>272</ele>
        <time>2018-02-19T11:08:55Z</time>
      </trkpt>
      <trkpt lat="45.99753" lon="4.83062">
        <ele>272</ele>
        <time>2018-02-19T11:08:56Z</time>
      </trkpt>
      <trkpt lat="45.99751" lon="4.83052">
        <ele>272</ele>
        <time>2018-02-19T11:08:58Z</time>
      </trkpt>
      <trkpt lat="45.9975" lon="4.83047">
        <ele>272</ele>
        <time>2018-02-19T11:08:59Z</time>
      </trkpt>
      <trkpt lat="45.99748" lon="4.83038">
        <ele>271</ele>
        <time>2018-02-19T11:09:01Z</time>
      </trkpt>
      <trkpt lat="45.99747" lon="4.83033">
        <ele>271</ele>
        <time>2018-02-19T11:09:02Z</time>
      </trkpt>
      <trkpt lat="45.99744" lon="4.83024">
        <ele>271</ele>
        <time>2018-02-19T11:09:04Z</time>
      </trkpt>
      <trkpt lat="45.99742" lon="4.8302">
        <ele>271</ele>
        <time>2018-02-19T11:09:05Z</time>
      </trkpt>
      <trkpt lat="45.99739" lon="4.8301">
        <ele>271</ele>
        <time>2018-02-19T11:09:07Z</time>
      </trkpt>
      <trkpt lat="45.99738" lon="4.83005">
        <ele>271</ele>
        <time>2018-02-19T11:09:08Z</time>
      </trkpt>
      <trkpt lat="45.99735" lon="4.82995">
        <ele>271</ele>
        <time>2018-02-19T11:09:10Z</time>
      </trkpt>
      <trkpt lat="45.99734" lon="4.82989">
        <ele>271</ele>
        <time>2018-02-19T11:09:11Z</time>
      </trkpt>
      <trkpt lat="45.9973" lon="4.82979">
        <ele>271</ele>
        <time>2018-02-19T11:09:13Z</time>
      </trkpt>
      <trkpt lat="45.99728" lon="4.82974">
        <ele>271</ele>
        <time>2018-02-19T11:09:14Z</time>
      </trkpt>
      <trkpt lat="45.99725" lon="4.82963">
        <ele>271</ele>
        <time>2018-02-19T11:09:16Z</time>
      </trkpt>
      <trkpt lat="45.99723" lon="4.82958">
        <ele>271</ele>
        <time>2018-02-19T11:09:17Z</time>
      </trkpt>
      <trkpt lat="45.9972" lon="4.82947">
        <ele>271</ele>
        <time>2018-02-19T11:09:19Z</time>
      </trkpt>
      <trkpt lat="45.99718" lon="4.82942">
        <ele>271</ele>
        <time>2018-02-19T11:09:20Z</time>
      </trkpt>
      <trkpt lat="45.99715" lon="4.82931">
        <ele>271</ele>
        <time>2018-02-19T11:09:22Z</time>
      </trkpt>
      <trkpt lat="45.99714" lon="4.82925">
        <ele>271</ele>
        <time>2018-02-19T11:09:23Z</time>
      </trkpt>
      <trkpt lat="45.99712" lon="4.82919">
        <ele>271</ele>
        <time>2018-02-19T11:09:24Z</time>
      </trkpt>
      <trkpt lat="45.9971" lon="4.82912">
        <ele>271</ele>
        <time>2018-02-19T11:09:25Z</time>
      </trkpt>
      <trkpt lat="45.99709" lon="4.82906">
        <ele>271</ele>
        <time>2018-02-19T11:09:26Z</time>
      </trkpt>
      <trkpt lat="45.99707" lon="4.829">
        <ele>271</ele>
        <time>2018-02-19T11:09:27Z</time>
      </trkpt>
      <trkpt lat="45.99704" lon="4.82893">
        <ele>271</ele>
        <time>2018-02-19T11:09:28Z</time>
      </trkpt>
      <trkpt lat="45.99703" lon="4.82887">
        <ele>271</ele>
        <time>2018-02-19T11:09:29Z</time>
      </trkpt>
      <trkpt lat="45.99701" lon="4.8288">
        <ele>271</ele>
        <time>2018-02-19T11:09:30Z</time>
      </trkpt>
      <trkpt lat="45.99699" lon="4.82874">
        <ele>270</ele>
        <time>2018-02-19T11:09:31Z</time>
      </trkpt>
      <trkpt lat="45.99697" lon="4.82868">
        <ele>270</ele>
        <time>2018-02-19T11:09:32Z</time>
      </trkpt>
      <trkpt lat="45.99695" lon="4.82862">
        <ele>270</ele>
        <time>2018-02-19T11:09:33Z</time>
      </trkpt>
      <trkpt lat="45.99693" lon="4.82855">
        <ele>270</ele>
        <time>2018-02-19T11:09:34Z</time>
      </trkpt>
      <trkpt lat="45.99691" lon="4.82849">
        <ele>270</ele>
        <time>2018-02-19T11:09:35Z</time>
      </trkpt>
      <trkpt lat="45.99687" lon="4.82838">
        <ele>270</ele>
        <time>2018-02-19T11:09:37Z</time>
      </trkpt>
      <trkpt lat="45.99685" lon="4.82831">
        <ele>270</ele>
        <time>2018-02-19T11:09:38Z</time>
      </trkpt>
      <trkpt lat="45.99684" lon="4.82825">
        <ele>270</ele>
        <time>2018-02-19T11:09:39Z</time>
      </trkpt>
      <trkpt lat="45.99682" lon="4.82818">
        <ele>270</ele>
        <time>2018-02-19T11:09:40Z</time>
      </trkpt>
      <trkpt lat="45.9968" lon="4.82811">
        <ele>270</ele>
        <time>2018-02-19T11:09:41Z</time>
      </trkpt>
      <trkpt lat="45.99678" lon="4.82804">
        <ele>270</ele>
        <time>2018-02-19T11:09:42Z</time>
      </trkpt>
      <trkpt lat="45.99677" lon="4.82797">
        <ele>270</ele>
        <time>2018-02-19T11:09:43Z</time>
      </trkpt>
      <trkpt lat="45.99675" lon="4.8279">
        <ele>269</ele>
        <time>2018-02-19T11:09:44Z</time>
      </trkpt>
      <trkpt lat="45.99673" lon="4.82782">
        <ele>269</ele>
        <time>2018-02-19T11:09:45Z</time>
      </trkpt>
      <trkpt lat="45.99671" lon="4.82774">
        <ele>269</ele>
        <time>2018-02-19T11:09:46Z</time>
      </trkpt>
      <trkpt lat="45.99669" lon="4.82766">
        <ele>269</ele>
        <time>2018-02-19T11:09:47Z</time>
      </trkpt>
      <trkpt lat="45.99668" lon="4.82759">
        <ele>269</ele>
        <time>2018-02-19T11:09:48Z</time>
      </trkpt>
      <trkpt lat="45.99668" lon="4.82751">
        <ele>269</ele>
        <time>2018-02-19T11:09:49Z</time>
      </trkpt>
      <trkpt lat="45.99666" lon="4.82743">
        <ele>269</ele>
        <time>2018-02-19T11:09:50Z</time>
      </trkpt>
      <trkpt lat="45.99666" lon="4.82735">
        <ele>268</ele>
        <time>2018-02-19T11:09:51Z</time>
      </trkpt>
      <trkpt lat="45.99665" lon="4.82727">
        <ele>268</ele>
        <time>2018-02-19T11:09:52Z</time>
      </trkpt>
      <trkpt lat="45.99664" lon="4.82719">
        <ele>268</ele>
        <time>2018-02-19T11:09:53Z</time>
      </trkpt>
      <trkpt lat="45.99663" lon="4.82711">
        <ele>268</ele>
        <time>2018-02-19T11:09:54Z</time>
      </trkpt>
      <trkpt lat="45.99661" lon="4.82703">
        <ele>268</ele>
        <time>2018-02-19T11:09:55Z</time>
      </trkpt>
      <trkpt lat="45.9966" lon="4.82695">
        <ele>268</ele>
        <time>2018-02-19T11:09:56Z</time>
      </trkpt>
      <trkpt lat="45.99659" lon="4.82687">
        <ele>268</ele>
        <time>2018-02-19T11:09:57Z</time>
      </trkpt>
      <trkpt lat="45.99658" lon="4.82679">
        <ele>268</ele>
        <time>2018-02-19T11:09:58Z</time>
      </trkpt>
      <trkpt lat="45.99656" lon="4.8267">
        <ele>268</ele>
        <time>2018-02-19T11:09:59Z</time>
      </trkpt>
      <trkpt lat="45.99656" lon="4.82662">
        <ele>268</ele>
        <time>2018-02-19T11:10:00Z</time>
      </trkpt>
      <trkpt lat="45.99655" lon="4.82655">
        <ele>268</ele>
        <time>2018-02-19T11:10:01Z</time>
      </trkpt>
      <trkpt lat="45.99654" lon="4.82648">
        <ele>267</ele>
        <time>2018-02-19T11:10:02Z</time>
      </trkpt>
      <trkpt lat="45.99653" lon="4.82641">
        <ele>267</ele>
        <time>2018-02-19T11:10:03Z</time>
      </trkpt>
      <trkpt lat="45.99652" lon="4.82633">
        <ele>267</ele>
        <time>2018-02-19T11:10:04Z</time>
      </trkpt>
      <trkpt lat="45.99651" lon="4.82625">
        <ele>267</ele>
        <time>2018-02-19T11:10:05Z</time>
      </trkpt>
      <trkpt lat="45.9965" lon="4.82617">
        <ele>267</ele>
        <time>2018-02-19T11:10:06Z</time>
      </trkpt>
      <trkpt lat="45.99648" lon="4.82608">
        <ele>267</ele>
        <time>2018-02-19T11:10:07Z</time>
      </trkpt>
      <trkpt lat="45.99647" lon="4.82599">
        <ele>267</ele>
        <time>2018-02-19T11:10:08Z</time>
      </trkpt>
      <trkpt lat="45.99645" lon="4.82591">
        <ele>267</ele>
        <time>2018-02-19T11:10:09Z</time>
      </trkpt>
      <trkpt lat="45.99644" lon="4.82583">
        <ele>266</ele>
        <time>2018-02-19T11:10:10Z</time>
      </trkpt>
      <trkpt lat="45.99642" lon="4.82575">
        <ele>266</ele>
        <time>2018-02-19T11:10:11Z</time>
      </trkpt>
      <trkpt lat="45.9964" lon="4.82567">
        <ele>266</ele>
        <time>2018-02-19T11:10:12Z</time>
      </trkpt>
      <trkpt lat="45.9964" lon="4.82559">
        <ele>266</ele>
        <time>2018-02-19T11:10:13Z</time>
      </trkpt>
      <trkpt lat="45.99639" lon="4.82551">
        <ele>266</ele>
        <time>2018-02-19T11:10:14Z</time>
      </trkpt>
      <trkpt lat="45.99637" lon="4.82544">
        <ele>266</ele>
        <time>2018-02-19T11:10:15Z</time>
      </trkpt>
      <trkpt lat="45.99636" lon="4.82537">
        <ele>266</ele>
        <time>2018-02-19T11:10:16Z</time>
      </trkpt>
      <trkpt lat="45.99634" lon="4.8253">
        <ele>266</ele>
        <time>2018-02-19T11:10:17Z</time>
      </trkpt>
      <trkpt lat="45.99633" lon="4.82523">
        <ele>266</ele>
        <time>2018-02-19T11:10:18Z</time>
      </trkpt>
      <trkpt lat="45.99631" lon="4.82515">
        <ele>266</ele>
        <time>2018-02-19T11:10:19Z</time>
      </trkpt>
      <trkpt lat="45.99629" lon="4.82507">
        <ele>265</ele>
        <time>2018-02-19T11:10:20Z</time>
      </trkpt>
      <trkpt lat="45.99628" lon="4.825">
        <ele>265</ele>
        <time>2018-02-19T11:10:21Z</time>
      </trkpt>
      <trkpt lat="45.99626" lon="4.82493">
        <ele>265</ele>
        <time>2018-02-19T11:10:22Z</time>
      </trkpt>
      <trkpt lat="45.99623" lon="4.82486">
        <ele>265</ele>
        <time>2018-02-19T11:10:23Z</time>
      </trkpt>
      <trkpt lat="45.99621" lon="4.82478">
        <ele>265</ele>
        <time>2018-02-19T11:10:24Z</time>
      </trkpt>
      <trkpt lat="45.99617" lon="4.82472">
        <ele>265</ele>
        <time>2018-02-19T11:10:25Z</time>
      </trkpt>
      <trkpt lat="45.99614" lon="4.82465">
        <ele>265</ele>
        <time>2018-02-19T11:10:26Z</time>
      </trkpt>
      <trkpt lat="45.9961" lon="4.82459">
        <ele>265</ele>
        <time>2018-02-19T11:10:27Z</time>
      </trkpt>
      <trkpt lat="45.99607" lon="4.82451">
        <ele>264</ele>
        <time>2018-02-19T11:10:28Z</time>
      </trkpt>
      <trkpt lat="45.99604" lon="4.82442">
        <ele>264</ele>
        <time>2018-02-19T11:10:29Z</time>
      </trkpt>
      <trkpt lat="45.99601" lon="4.82434">
        <ele>264</ele>
        <time>2018-02-19T11:10:30Z</time>
      </trkpt>
      <trkpt lat="45.99598" lon="4.82426">
        <ele>264</ele>
        <time>2018-02-19T11:10:31Z</time>
      </trkpt>
      <trkpt lat="45.99594" lon="4.82417">
        <ele>263</ele>
        <time>2018-02-19T11:10:32Z</time>
      </trkpt>
      <trkpt lat="45.99592" lon="4.82408">
        <ele>263</ele>
        <time>2018-02-19T11:10:33Z</time>
      </trkpt>
      <trkpt lat="45.99589" lon="4.82399">
        <ele>264</ele>
        <time>2018-02-19T11:10:34Z</time>
      </trkpt>
      <trkpt lat="45.99585" lon="4.8239">
        <ele>264</ele>
        <time>2018-02-19T11:10:35Z</time>
      </trkpt>
      <trkpt lat="45.99584" lon="4.82379">
        <ele>264</ele>
        <time>2018-02-19T11:10:36Z</time>
      </trkpt>
      <trkpt lat="45.99583" lon="4.82369">
        <ele>261</ele>
        <time>2018-02-19T11:10:37Z</time>
      </trkpt>
      <trkpt lat="45.99581" lon="4.8236">
        <ele>261</ele>
        <time>2018-02-19T11:10:38Z</time>
      </trkpt>
      <trkpt lat="45.99579" lon="4.82349">
        <ele>262</ele>
        <time>2018-02-19T11:10:39Z</time>
      </trkpt>
      <trkpt lat="45.99577" lon="4.82339">
        <ele>262</ele>
        <time>2018-02-19T11:10:40Z</time>
      </trkpt>
      <trkpt lat="45.99575" lon="4.82328">
        <ele>262</ele>
        <time>2018-02-19T11:10:41Z</time>
      </trkpt>
      <trkpt lat="45.99573" lon="4.82318">
        <ele>262</ele>
        <time>2018-02-19T11:10:42Z</time>
      </trkpt>
      <trkpt lat="45.99571" lon="4.82308">
        <ele>262</ele>
        <time>2018-02-19T11:10:43Z</time>
      </trkpt>
      <trkpt lat="45.99568" lon="4.82298">
        <ele>262</ele>
        <time>2018-02-19T11:10:44Z</time>
      </trkpt>
      <trkpt lat="45.99566" lon="4.82289">
        <ele>262</ele>
        <time>2018-02-19T11:10:45Z</time>
      </trkpt>
      <trkpt lat="45.99564" lon="4.8228">
        <ele>262</ele>
        <time>2018-02-19T11:10:46Z</time>
      </trkpt>
      <trkpt lat="45.99562" lon="4.8227">
        <ele>262</ele>
        <time>2018-02-19T11:10:47Z</time>
      </trkpt>
      <trkpt lat="45.99559" lon="4.82263">
        <ele>262</ele>
        <time>2018-02-19T11:10:48Z</time>
      </trkpt>
      <trkpt lat="45.99557" lon="4.82254">
        <ele>262</ele>
        <time>2018-02-19T11:10:49Z</time>
      </trkpt>
      <trkpt lat="45.99555" lon="4.82247">
        <ele>262</ele>
        <time>2018-02-19T11:10:50Z</time>
      </trkpt>
      <trkpt lat="45.99554" lon="4.82241">
        <ele>262</ele>
        <time>2018-02-19T11:10:51Z</time>
      </trkpt>
      <trkpt lat="45.99552" lon="4.82234">
        <ele>262</ele>
        <time>2018-02-19T11:10:52Z</time>
      </trkpt>
      <trkpt lat="45.9955" lon="4.82228">
        <ele>262</ele>
        <time>2018-02-19T11:10:53Z</time>
      </trkpt>
      <trkpt lat="45.99549" lon="4.82221">
        <ele>262</ele>
        <time>2018-02-19T11:10:54Z</time>
      </trkpt>
      <trkpt lat="45.99547" lon="4.82215">
        <ele>262</ele>
        <time>2018-02-19T11:10:55Z</time>
      </trkpt>
      <trkpt lat="45.99545" lon="4.82207">
        <ele>262</ele>
        <time>2018-02-19T11:10:56Z</time>
      </trkpt>
      <trkpt lat="45.99543" lon="4.822">
        <ele>262</ele>
        <time>2018-02-19T11:10:57Z</time>
      </trkpt>
      <trkpt lat="45.99542" lon="4.82193">
        <ele>262</ele>
        <time>2018-02-19T11:10:58Z</time>
      </trkpt>
      <trkpt lat="45.9954" lon="4.82186">
        <ele>262</ele>
        <time>2018-02-19T11:10:59Z</time>
      </trkpt>
      <trkpt lat="45.99539" lon="4.8218">
        <ele>262</ele>
        <time>2018-02-19T11:11:00Z</time>
      </trkpt>
      <trkpt lat="45.99538" lon="4.82173">
        <ele>262</ele>
        <time>2018-02-19T11:11:01Z</time>
      </trkpt>
      <trkpt lat="45.99537" lon="4.82167">
        <ele>262</ele>
        <time>2018-02-19T11:11:02Z</time>
      </trkpt>
      <trkpt lat="45.99536" lon="4.8216">
        <ele>263</ele>
        <time>2018-02-19T11:11:03Z</time>
      </trkpt>
      <trkpt lat="45.99534" lon="4.82153">
        <ele>263</ele>
        <time>2018-02-19T11:11:04Z</time>
      </trkpt>
      <trkpt lat="45.99533" lon="4.82147">
        <ele>263</ele>
        <time>2018-02-19T11:11:05Z</time>
      </trkpt>
      <trkpt lat="45.99531" lon="4.8214">
        <ele>263</ele>
        <time>2018-02-19T11:11:06Z</time>
      </trkpt>
      <trkpt lat="45.9953" lon="4.82132">
        <ele>263</ele>
        <time>2018-02-19T11:11:07Z</time>
      </trkpt>
      <trkpt lat="45.9953" lon="4.82124">
        <ele>263</ele>
        <time>2018-02-19T11:11:08Z</time>
      </trkpt>
      <trkpt lat="45.99529" lon="4.82116">
        <ele>263</ele>
        <time>2018-02-19T11:11:09Z</time>
      </trkpt>
      <trkpt lat="45.99528" lon="4.82109">
        <ele>263</ele>
        <time>2018-02-19T11:11:10Z</time>
      </trkpt>
      <trkpt lat="45.99528" lon="4.82102">
        <ele>262</ele>
        <time>2018-02-19T11:11:11Z</time>
      </trkpt>
      <trkpt lat="45.99526" lon="4.82094">
        <ele>262</ele>
        <time>2018-02-19T11:11:12Z</time>
      </trkpt>
      <trkpt lat="45.99525" lon="4.82087">
        <ele>262</ele>
        <time>2018-02-19T11:11:13Z</time>
      </trkpt>
      <trkpt lat="45.99525" lon="4.8208">
        <ele>262</ele>
        <time>2018-02-19T11:11:14Z</time>
      </trkpt>
      <trkpt lat="45.99524" lon="4.82072">
        <ele>262</ele>
        <time>2018-02-19T11:11:15Z</time>
      </trkpt>
      <trkpt lat="45.99521" lon="4.82066">
        <ele>262</ele>
        <time>2018-02-19T11:11:16Z</time>
      </trkpt>
      <trkpt lat="45.9952" lon="4.82058">
        <ele>262</ele>
        <time>2018-02-19T11:11:17Z</time>
      </trkpt>
      <trkpt lat="45.9952" lon="4.82049">
        <ele>262</ele>
        <time>2018-02-19T11:11:18Z</time>
      </trkpt>
      <trkpt lat="45.99519" lon="4.82041">
        <ele>262</ele>
        <time>2018-02-19T11:11:19Z</time>
      </trkpt>
      <trkpt lat="45.99519" lon="4.82034">
        <ele>261</ele>
        <time>2018-02-19T11:11:20Z</time>
      </trkpt>
      <trkpt lat="45.99517" lon="4.82027">
        <ele>261</ele>
        <time>2018-02-19T11:11:21Z</time>
      </trkpt>
      <trkpt lat="45.99516" lon="4.82021">
        <ele>261</ele>
        <time>2018-02-19T11:11:22Z</time>
      </trkpt>
      <trkpt lat="45.99516" lon="4.82014">
        <ele>261</ele>
        <time>2018-02-19T11:11:23Z</time>
      </trkpt>
      <trkpt lat="45.99515" lon="4.82007">
        <ele>261</ele>
        <time>2018-02-19T11:11:24Z</time>
      </trkpt>
      <trkpt lat="45.99514" lon="4.81995">
        <ele>260</ele>
        <time>2018-02-19T11:11:26Z</time>
      </trkpt>
      <trkpt lat="45.99513" lon="4.81988">
        <ele>260</ele>
        <time>2018-02-19T11:11:27Z</time>
      </trkpt>
      <trkpt lat="45.9951" lon="4.81978">
        <ele>260</ele>
        <time>2018-02-19T11:11:30Z</time>
      </trkpt>
      <trkpt lat="45.9951" lon="4.81974">
        <ele>261</ele>
        <time>2018-02-19T11:11:31Z</time>
      </trkpt>
      <trkpt lat="45.99509" lon="4.81965">
        <ele>261</ele>
        <time>2018-02-19T11:11:33Z</time>
      </trkpt>
      <trkpt lat="45.99509" lon="4.8196">
        <ele>261</ele>
        <time>2018-02-19T11:11:34Z</time>
      </trkpt>
      <trkpt lat="45.99508" lon="4.81949">
        <ele>261</ele>
        <time>2018-02-19T11:11:36Z</time>
      </trkpt>
      <trkpt lat="45.99508" lon="4.81942">
        <ele>260</ele>
        <time>2018-02-19T11:11:37Z</time>
      </trkpt>
      <trkpt lat="45.99505" lon="4.81932">
        <ele>260</ele>
        <time>2018-02-19T11:11:39Z</time>
      </trkpt>
      <trkpt lat="45.99503" lon="4.81928">
        <ele>260</ele>
        <time>2018-02-19T11:11:40Z</time>
      </trkpt>
      <trkpt lat="45.99503" lon="4.81921">
        <ele>259</ele>
        <time>2018-02-19T11:11:41Z</time>
      </trkpt>
      <trkpt lat="45.99502" lon="4.81912">
        <ele>260</ele>
        <time>2018-02-19T11:11:42Z</time>
      </trkpt>
      <trkpt lat="45.99501" lon="4.81904">
        <ele>260</ele>
        <time>2018-02-19T11:11:43Z</time>
      </trkpt>
      <trkpt lat="45.99501" lon="4.81897">
        <ele>261</ele>
        <time>2018-02-19T11:11:44Z</time>
      </trkpt>
      <trkpt lat="45.99499" lon="4.8189">
        <ele>259</ele>
        <time>2018-02-19T11:11:45Z</time>
      </trkpt>
      <trkpt lat="45.99498" lon="4.81882">
        <ele>260</ele>
        <time>2018-02-19T11:11:46Z</time>
      </trkpt>
      <trkpt lat="45.99497" lon="4.81872">
        <ele>260</ele>
        <time>2018-02-19T11:11:47Z</time>
      </trkpt>
      <trkpt lat="45.99496" lon="4.81863">
        <ele>260</ele>
        <time>2018-02-19T11:11:48Z</time>
      </trkpt>
      <trkpt lat="45.99496" lon="4.81854">
        <ele>260</ele>
        <time>2018-02-19T11:11:49Z</time>
      </trkpt>
      <trkpt lat="45.99495" lon="4.81846">
        <ele>261</ele>
        <time>2018-02-19T11:11:50Z</time>
      </trkpt>
      <trkpt lat="45.99494" lon="4.81837">
        <ele>261</ele>
        <time>2018-02-19T11:11:51Z</time>
      </trkpt>
      <trkpt lat="45.99493" lon="4.8183">
        <ele>262</ele>
        <time>2018-02-19T11:11:52Z</time>
      </trkpt>
      <trkpt lat="45.9949" lon="4.81823">
        <ele>262</ele>
        <time>2018-02-19T11:11:53Z</time>
      </trkpt>
      <trkpt lat="45.99488" lon="4.81815">
        <ele>262</ele>
        <time>2018-02-19T11:11:54Z</time>
      </trkpt>
      <trkpt lat="45.99486" lon="4.81807">
        <ele>262</ele>
        <time>2018-02-19T11:11:55Z</time>
      </trkpt>
      <trkpt lat="45.99484" lon="4.81799">
        <ele>262</ele>
        <time>2018-02-19T11:11:56Z</time>
      </trkpt>
      <trkpt lat="45.99483" lon="4.8179">
        <ele>262</ele>
        <time>2018-02-19T11:11:57Z</time>
      </trkpt>
      <trkpt lat="45.99482" lon="4.81781">
        <ele>262</ele>
        <time>2018-02-19T11:11:58Z</time>
      </trkpt>
      <trkpt lat="45.99482" lon="4.81772">
        <ele>262</ele>
        <time>2018-02-19T11:11:59Z</time>
      </trkpt>
      <trkpt lat="45.99483" lon="4.81764">
        <ele>262</ele>
        <time>2018-02-19T11:12:00Z</time>
      </trkpt>
      <trkpt lat="45.99483" lon="4.81755">
        <ele>262</ele>
        <time>2018-02-19T11:12:01Z</time>
      </trkpt>
      <trkpt lat="45.99482" lon="4.81745">
        <ele>262</ele>
        <time>2018-02-19T11:12:02Z</time>
      </trkpt>
      <trkpt lat="45.99482" lon="4.81737">
        <ele>261</ele>
        <time>2018-02-19T11:12:03Z</time>
      </trkpt>
      <trkpt lat="45.99482" lon="4.81728">
        <ele>261</ele>
        <time>2018-02-19T11:12:04Z</time>
      </trkpt>
      <trkpt lat="45.99482" lon="4.8172">
        <ele>261</ele>
        <time>2018-02-19T11:12:05Z</time>
      </trkpt>
      <trkpt lat="45.99479" lon="4.81711">
        <ele>261</ele>
        <time>2018-02-19T11:12:06Z</time>
      </trkpt>
      <trkpt lat="45.99478" lon="4.81702">
        <ele>261</ele>
        <time>2018-02-19T11:12:07Z</time>
      </trkpt>
      <trkpt lat="45.99477" lon="4.81693">
        <ele>261</ele>
        <time>2018-02-19T11:12:08Z</time>
      </trkpt>
      <trkpt lat="45.99477" lon="4.81684">
        <ele>261</ele>
        <time>2018-02-19T11:12:09Z</time>
      </trkpt>
      <trkpt lat="45.99475" lon="4.81675">
        <ele>261</ele>
        <time>2018-02-19T11:12:10Z</time>
      </trkpt>
      <trkpt lat="45.99474" lon="4.81667">
        <ele>259</ele>
        <time>2018-02-19T11:12:11Z</time>
      </trkpt>
      <trkpt lat="45.99471" lon="4.81659">
        <ele>259</ele>
        <time>2018-02-19T11:12:12Z</time>
      </trkpt>
      <trkpt lat="45.9947" lon="4.8165">
        <ele>259</ele>
        <time>2018-02-19T11:12:13Z</time>
      </trkpt>
      <trkpt lat="45.99468" lon="4.81641">
        <ele>258</ele>
        <time>2018-02-19T11:12:14Z</time>
      </trkpt>
      <trkpt lat="45.99467" lon="4.81632">
        <ele>258</ele>
        <time>2018-02-19T11:12:15Z</time>
      </trkpt>
      <trkpt lat="45.99467" lon="4.81623">
        <ele>258</ele>
        <time>2018-02-19T11:12:16Z</time>
      </trkpt>
      <trkpt lat="45.99466" lon="4.81614">
        <ele>258</ele>
        <time>2018-02-19T11:12:17Z</time>
      </trkpt>
      <trkpt lat="45.99465" lon="4.81605">
        <ele>258</ele>
        <time>2018-02-19T11:12:18Z</time>
      </trkpt>
      <trkpt lat="45.99462" lon="4.81595">
        <ele>257</ele>
        <time>2018-02-19T11:12:19Z</time>
      </trkpt>
      <trkpt lat="45.99461" lon="4.81585">
        <ele>257</ele>
        <time>2018-02-19T11:12:20Z</time>
      </trkpt>
      <trkpt lat="45.99459" lon="4.81576">
        <ele>255</ele>
        <time>2018-02-19T11:12:21Z</time>
      </trkpt>
      <trkpt lat="45.99458" lon="4.81566">
        <ele>255</ele>
        <time>2018-02-19T11:12:22Z</time>
      </trkpt>
      <trkpt lat="45.99457" lon="4.81557">
        <ele>255</ele>
        <time>2018-02-19T11:12:23Z</time>
      </trkpt>
      <trkpt lat="45.99456" lon="4.81546">
        <ele>255</ele>
        <time>2018-02-19T11:12:24Z</time>
      </trkpt>
      <trkpt lat="45.99455" lon="4.81538">
        <ele>255</ele>
        <time>2018-02-19T11:12:25Z</time>
      </trkpt>
      <trkpt lat="45.99453" lon="4.81529">
        <ele>255</ele>
        <time>2018-02-19T11:12:26Z</time>
      </trkpt>
      <trkpt lat="45.99452" lon="4.81518">
        <ele>255</ele>
        <time>2018-02-19T11:12:27Z</time>
      </trkpt>
      <trkpt lat="45.9945" lon="4.81509">
        <ele>255</ele>
        <time>2018-02-19T11:12:28Z</time>
      </trkpt>
      <trkpt lat="45.99449" lon="4.81499">
        <ele>254</ele>
        <time>2018-02-19T11:12:29Z</time>
      </trkpt>
      <trkpt lat="45.99448" lon="4.81488">
        <ele>254</ele>
        <time>2018-02-19T11:12:30Z</time>
      </trkpt>
      <trkpt lat="45.99447" lon="4.81479">
        <ele>254</ele>
        <time>2018-02-19T11:12:31Z</time>
      </trkpt>
      <trkpt lat="45.99445" lon="4.8147">
        <ele>254</ele>
        <time>2018-02-19T11:12:32Z</time>
      </trkpt>
      <trkpt lat="45.99444" lon="4.81461">
        <ele>254</ele>
        <time>2018-02-19T11:12:33Z</time>
      </trkpt>
      <trkpt lat="45.99443" lon="4.81453">
        <ele>254</ele>
        <time>2018-02-19T11:12:34Z</time>
      </trkpt>
      <trkpt lat="45.99442" lon="4.81444">
        <ele>254</ele>
        <time>2018-02-19T11:12:35Z</time>
      </trkpt>
      <trkpt lat="45.9944" lon="4.81435">
        <ele>254</ele>
        <time>2018-02-19T11:12:36Z</time>
      </trkpt>
      <trkpt lat="45.9944" lon="4.81426">
        <ele>254</ele>
        <time>2018-02-19T11:12:37Z</time>
      </trkpt>
      <trkpt lat="45.99439" lon="4.81417">
        <ele>254</ele>
        <time>2018-02-19T11:12:38Z</time>
      </trkpt>
      <trkpt lat="45.99438" lon="4.81409">
        <ele>254</ele>
        <time>2018-02-19T11:12:39Z</time>
      </trkpt>
      <trkpt lat="45.99437" lon="4.81401">
        <ele>254</ele>
        <time>2018-02-19T11:12:40Z</time>
      </trkpt>
      <trkpt lat="45.99436" lon="4.81392">
        <ele>254</ele>
        <time>2018-02-19T11:12:41Z</time>
      </trkpt>
      <trkpt lat="45.99435" lon="4.81384">
        <ele>254</ele>
        <time>2018-02-19T11:12:42Z</time>
      </trkpt>
      <trkpt lat="45.99433" lon="4.81374">
        <ele>254</ele>
        <time>2018-02-19T11:12:43Z</time>
      </trkpt>
      <trkpt lat="45.99432" lon="4.81366">
        <ele>254</ele>
        <time>2018-02-19T11:12:44Z</time>
      </trkpt>
      <trkpt lat="45.99431" lon="4.81356">
        <ele>254</ele>
        <time>2018-02-19T11:12:45Z</time>
      </trkpt>
      <trkpt lat="45.99431" lon="4.81346">
        <ele>254</ele>
        <time>2018-02-19T11:12:46Z</time>
      </trkpt>
      <trkpt lat="45.99429" lon="4.81336">
        <ele>254</ele>
        <time>2018-02-19T11:12:47Z</time>
      </trkpt>
      <trkpt lat="45.99428" lon="4.81327">
        <ele>254</ele>
        <time>2018-02-19T11:12:48Z</time>
      </trkpt>
      <trkpt lat="45.99426" lon="4.81317">
        <ele>254</ele>
        <time>2018-02-19T11:12:49Z</time>
      </trkpt>
      <trkpt lat="45.99426" lon="4.81308">
        <ele>253</ele>
        <time>2018-02-19T11:12:50Z</time>
      </trkpt>
      <trkpt lat="45.99424" lon="4.81298">
        <ele>253</ele>
        <time>2018-02-19T11:12:51Z</time>
      </trkpt>
      <trkpt lat="45.99423" lon="4.81288">
        <ele>253</ele>
        <time>2018-02-19T11:12:52Z</time>
      </trkpt>
      <trkpt lat="45.9942" lon="4.81279">
        <ele>253</ele>
        <time>2018-02-19T11:12:53Z</time>
      </trkpt>
      <trkpt lat="45.99419" lon="4.81268">
        <ele>252</ele>
        <time>2018-02-19T11:12:54Z</time>
      </trkpt>
      <trkpt lat="45.99417" lon="4.81257">
        <ele>252</ele>
        <time>2018-02-19T11:12:55Z</time>
      </trkpt>
      <trkpt lat="45.99417" lon="4.81248">
        <ele>252</ele>
        <time>2018-02-19T11:12:56Z</time>
      </trkpt>
      <trkpt lat="45.99415" lon="4.81239">
        <ele>252</ele>
        <time>2018-02-19T11:12:57Z</time>
      </trkpt>
      <trkpt lat="45.99413" lon="4.81231">
        <ele>252</ele>
        <time>2018-02-19T11:12:58Z</time>
      </trkpt>
      <trkpt lat="45.99413" lon="4.81222">
        <ele>252</ele>
        <time>2018-02-19T11:12:59Z</time>
      </trkpt>
      <trkpt lat="45.99412" lon="4.81212">
        <ele>252</ele>
        <time>2018-02-19T11:13:00Z</time>
      </trkpt>
      <trkpt lat="45.9941" lon="4.81202">
        <ele>252</ele>
        <time>2018-02-19T11:13:01Z</time>
      </trkpt>
      <trkpt lat="45.99409" lon="4.81193">
        <ele>252</ele>
        <time>2018-02-19T11:13:02Z</time>
      </trkpt>
      <trkpt lat="45.99407" lon="4.81184">
        <ele>251</ele>
        <time>2018-02-19T11:13:03Z</time>
      </trkpt>
      <trkpt lat="45.99406" lon="4.81175">
        <ele>251</ele>
        <time>2018-02-19T11:13:04Z</time>
      </trkpt>
      <trkpt lat="45.99405" lon="4.81165">
        <ele>251</ele>
        <time>2018-02-19T11:13:05Z</time>
      </trkpt>
      <trkpt lat="45.99404" lon="4.81154">
        <ele>251</ele>
        <time>2018-02-19T11:13:06Z</time>
      </trkpt>
      <trkpt lat="45.99402" lon="4.81144">
        <ele>251</ele>
        <time>2018-02-19T11:13:07Z</time>
      </trkpt>
      <trkpt lat="45.994" lon="4.81135">
        <ele>251</ele>
        <time>2018-02-19T11:13:08Z</time>
      </trkpt>
      <trkpt lat="45.99399" lon="4.81126">
        <ele>251</ele>
        <time>2018-02-19T11:13:09Z</time>
      </trkpt>
      <trkpt lat="45.99399" lon="4.81116">
        <ele>251</ele>
        <time>2018-02-19T11:13:10Z</time>
      </trkpt>
      <trkpt lat="45.99397" lon="4.81105">
        <ele>251</ele>
        <time>2018-02-19T11:13:11Z</time>
      </trkpt>
      <trkpt lat="45.99396" lon="4.81095">
        <ele>251</ele>
        <time>2018-02-19T11:13:12Z</time>
      </trkpt>
      <trkpt lat="45.99394" lon="4.81086">
        <ele>251</ele>
        <time>2018-02-19T11:13:13Z</time>
      </trkpt>
      <trkpt lat="45.99392" lon="4.81076">
        <ele>251</ele>
        <time>2018-02-19T11:13:14Z</time>
      </trkpt>
      <trkpt lat="45.99391" lon="4.81067">
        <ele>251</ele>
        <time>2018-02-19T11:13:15Z</time>
      </trkpt>
      <trkpt lat="45.9939" lon="4.81058">
        <ele>251</ele>
        <time>2018-02-19T11:13:16Z</time>
      </trkpt>
      <trkpt lat="45.99387" lon="4.8105">
        <ele>251</ele>
        <time>2018-02-19T11:13:17Z</time>
      </trkpt>
      <trkpt lat="45.99386" lon="4.81039">
        <ele>251</ele>
        <time>2018-02-19T11:13:18Z</time>
      </trkpt>
      <trkpt lat="45.99385" lon="4.81029">
        <ele>251</ele>
        <time>2018-02-19T11:13:19Z</time>
      </trkpt>
      <trkpt lat="45.99384" lon="4.8102">
        <ele>251</ele>
        <time>2018-02-19T11:13:20Z</time>
      </trkpt>
      <trkpt lat="45.99383" lon="4.81011">
        <ele>251</ele>
        <time>2018-02-19T11:13:21Z</time>
      </trkpt>
      <trkpt lat="45.99381" lon="4.81002">
        <ele>251</ele>
        <time>2018-02-19T11:13:22Z</time>
      </trkpt>
      <trkpt lat="45.9938" lon="4.80993">
        <ele>250</ele>
        <time>2018-02-19T11:13:23Z</time>
      </trkpt>
      <trkpt lat="45.99379" lon="4.80984">
        <ele>250</ele>
        <time>2018-02-19T11:13:24Z</time>
      </trkpt>
      <trkpt lat="45.99378" lon="4.80975">
        <ele>250</ele>
        <time>2018-02-19T11:13:25Z</time>
      </trkpt>
      <trkpt lat="45.99377" lon="4.80966">
        <ele>250</ele>
        <time>2018-02-19T11:13:26Z</time>
      </trkpt>
      <trkpt lat="45.99374" lon="4.80957">
        <ele>250</ele>
        <time>2018-02-19T11:13:27Z</time>
      </trkpt>
      <trkpt lat="45.99373" lon="4.80948">
        <ele>250</ele>
        <time>2018-02-19T11:13:28Z</time>
      </trkpt>
      <trkpt lat="45.99372" lon="4.80938">
        <ele>250</ele>
        <time>2018-02-19T11:13:29Z</time>
      </trkpt>
      <trkpt lat="45.99371" lon="4.80929">
        <ele>250</ele>
        <time>2018-02-19T11:13:30Z</time>
      </trkpt>
      <trkpt lat="45.99369" lon="4.80919">
        <ele>250</ele>
        <time>2018-02-19T11:13:31Z</time>
      </trkpt>
      <trkpt lat="45.99367" lon="4.8091">
        <ele>248</ele>
        <time>2018-02-19T11:13:32Z</time>
      </trkpt>
      <trkpt lat="45.99366" lon="4.80901">
        <ele>248</ele>
        <time>2018-02-19T11:13:33Z</time>
      </trkpt>
      <trkpt lat="45.99365" lon="4.80891">
        <ele>248</ele>
        <time>2018-02-19T11:13:34Z</time>
      </trkpt>
      <trkpt lat="45.99364" lon="4.80882">
        <ele>248</ele>
        <time>2018-02-19T11:13:35Z</time>
      </trkpt>
      <trkpt lat="45.99363" lon="4.80872">
        <ele>248</ele>
        <time>2018-02-19T11:13:36Z</time>
      </trkpt>
      <trkpt lat="45.99362" lon="4.80862">
        <ele>248</ele>
        <time>2018-02-19T11:13:37Z</time>
      </trkpt>
      <trkpt lat="45.9936" lon="4.80853">
        <ele>248</ele>
        <time>2018-02-19T11:13:38Z</time>
      </trkpt>
      <trkpt lat="45.99359" lon="4.80844">
        <ele>247</ele>
        <time>2018-02-19T11:13:39Z</time>
      </trkpt>
      <trkpt lat="45.99358" lon="4.80834">
        <ele>247</ele>
        <time>2018-02-19T11:13:40Z</time>
      </trkpt>
      <trkpt lat="45.99356" lon="4.80824">
        <ele>246</ele>
        <time>2018-02-19T11:13:41Z</time>
      </trkpt>
      <trkpt lat="45.99355" lon="4.80814">
        <ele>246</ele>
        <time>2018-02-19T11:13:42Z</time>
      </trkpt>
      <trkpt lat="45.99353" lon="4.80804">
        <ele>246</ele>
        <time>2018-02-19T11:13:43Z</time>
      </trkpt>
      <trkpt lat="45.99352" lon="4.80794">
        <ele>246</ele>
        <time>2018-02-19T11:13:44Z</time>
      </trkpt>
      <trkpt lat="45.99351" lon="4.80783">
        <ele>246</ele>
        <time>2018-02-19T11:13:45Z</time>
      </trkpt>
      <trkpt lat="45.9935" lon="4.80773">
        <ele>245</ele>
        <time>2018-02-19T11:13:46Z</time>
      </trkpt>
      <trkpt lat="45.99349" lon="4.80763">
        <ele>245</ele>
        <time>2018-02-19T11:13:47Z</time>
      </trkpt>
      <trkpt lat="45.99348" lon="4.80753">
        <ele>245</ele>
        <time>2018-02-19T11:13:48Z</time>
      </trkpt>
      <trkpt lat="45.99347" lon="4.80743">
        <ele>245</ele>
        <time>2018-02-19T11:13:49Z</time>
      </trkpt>
      <trkpt lat="45.99345" lon="4.80733">
        <ele>245</ele>
        <time>2018-02-19T11:13:50Z</time>
      </trkpt>
      <trkpt lat="45.99345" lon="4.80724">
        <ele>244</ele>
        <time>2018-02-19T11:13:51Z</time>
      </trkpt>
      <trkpt lat="45.99344" lon="4.80714">
        <ele>244</ele>
        <time>2018-02-19T11:13:52Z</time>
      </trkpt>
      <trkpt lat="45.99342" lon="4.80705">
        <ele>244</ele>
        <time>2018-02-19T11:13:53Z</time>
      </trkpt>
      <trkpt lat="45.99341" lon="4.80696">
        <ele>244</ele>
        <time>2018-02-19T11:13:54Z</time>
      </trkpt>
      <trkpt lat="45.9934" lon="4.80686">
        <ele>244</ele>
        <time>2018-02-19T11:13:55Z</time>
      </trkpt>
      <trkpt lat="45.99339" lon="4.80677">
        <ele>244</ele>
        <time>2018-02-19T11:13:56Z</time>
      </trkpt>
      <trkpt lat="45.99337" lon="4.80669">
        <ele>244</ele>
        <time>2018-02-19T11:13:57Z</time>
      </trkpt>
      <trkpt lat="45.99336" lon="4.80659">
        <ele>244</ele>
        <time>2018-02-19T11:13:58Z</time>
      </trkpt>
      <trkpt lat="45.99334" lon="4.8065">
        <ele>244</ele>
        <time>2018-02-19T11:13:59Z</time>
      </trkpt>
      <trkpt lat="45.99334" lon="4.80641">
        <ele>244</ele>
        <time>2018-02-19T11:14:00Z</time>
      </trkpt>
      <trkpt lat="45.99333" lon="4.80631">
        <ele>243</ele>
        <time>2018-02-19T11:14:01Z</time>
      </trkpt>
      <trkpt lat="45.99332" lon="4.80621">
        <ele>243</ele>
        <time>2018-02-19T11:14:02Z</time>
      </trkpt>
      <trkpt lat="45.99331" lon="4.80611">
        <ele>243</ele>
        <time>2018-02-19T11:14:03Z</time>
      </trkpt>
      <trkpt lat="45.9933" lon="4.80602">
        <ele>243</ele>
        <time>2018-02-19T11:14:04Z</time>
      </trkpt>
      <trkpt lat="45.99329" lon="4.80592">
        <ele>242</ele>
        <time>2018-02-19T11:14:05Z</time>
      </trkpt>
      <trkpt lat="45.99329" lon="4.80582">
        <ele>242</ele>
        <time>2018-02-19T11:14:06Z</time>
      </trkpt>
      <trkpt lat="45.99328" lon="4.80573">
        <ele>242</ele>
        <time>2018-02-19T11:14:07Z</time>
      </trkpt>
      <trkpt lat="45.99326" lon="4.80564">
        <ele>242</ele>
        <time>2018-02-19T11:14:08Z</time>
      </trkpt>
      <trkpt lat="45.99326" lon="4.80554">
        <ele>242</ele>
        <time>2018-02-19T11:14:09Z</time>
      </trkpt>
      <trkpt lat="45.99326" lon="4.80546">
        <ele>241</ele>
        <time>2018-02-19T11:14:10Z</time>
      </trkpt>
      <trkpt lat="45.99325" lon="4.80536">
        <ele>241</ele>
        <time>2018-02-19T11:14:11Z</time>
      </trkpt>
      <trkpt lat="45.99324" lon="4.80528">
        <ele>241</ele>
        <time>2018-02-19T11:14:12Z</time>
      </trkpt>
      <trkpt lat="45.99323" lon="4.80519">
        <ele>241</ele>
        <time>2018-02-19T11:14:13Z</time>
      </trkpt>
      <trkpt lat="45.99322" lon="4.80511">
        <ele>241</ele>
        <time>2018-02-19T11:14:14Z</time>
      </trkpt>
      <trkpt lat="45.9932" lon="4.80502">
        <ele>241</ele>
        <time>2018-02-19T11:14:15Z</time>
      </trkpt>
      <trkpt lat="45.99319" lon="4.80494">
        <ele>241</ele>
        <time>2018-02-19T11:14:16Z</time>
      </trkpt>
      <trkpt lat="45.99317" lon="4.80484">
        <ele>241</ele>
        <time>2018-02-19T11:14:17Z</time>
      </trkpt>
      <trkpt lat="45.99314" lon="4.80476">
        <ele>241</ele>
        <time>2018-02-19T11:14:18Z</time>
      </trkpt>
      <trkpt lat="45.99312" lon="4.80467">
        <ele>241</ele>
        <time>2018-02-19T11:14:19Z</time>
      </trkpt>
      <trkpt lat="45.99311" lon="4.80458">
        <ele>241</ele>
        <time>2018-02-19T11:14:20Z</time>
      </trkpt>
      <trkpt lat="45.99311" lon="4.8045">
        <ele>241</ele>
        <time>2018-02-19T11:14:21Z</time>
      </trkpt>
      <trkpt lat="45.99312" lon="4.80442">
        <ele>241</ele>
        <time>2018-02-19T11:14:22Z</time>
      </trkpt>
      <trkpt lat="45.99313" lon="4.80434">
        <ele>241</ele>
        <time>2018-02-19T11:14:23Z</time>
      </trkpt>
      <trkpt lat="45.99315" lon="4.80426">
        <ele>241</ele>
        <time>2018-02-19T11:14:24Z</time>
      </trkpt>
      <trkpt lat="45.99318" lon="4.80419">
        <ele>241</ele>
        <time>2018-02-19T11:14:25Z</time>
      </trkpt>
      <trkpt lat="45.9932" lon="4.80412">
        <ele>242</ele>
        <time>2018-02-19T11:14:26Z</time>
      </trkpt>
      <trkpt lat="45.99321" lon="4.80405">
        <ele>242</ele>
        <time>2018-02-19T11:14:27Z</time>
      </trkpt>
      <trkpt lat="45.99321" lon="4.80399">
        <ele>242</ele>
        <time>2018-02-19T11:14:28Z</time>
      </trkpt>
      <trkpt lat="45.9932" lon="4.80391">
        <ele>242</ele>
        <time>2018-02-19T11:14:29Z</time>
      </trkpt>
      <trkpt lat="45.99316" lon="4.80385">
        <ele>242</ele>
        <time>2018-02-19T11:14:30Z</time>
      </trkpt>
      <trkpt lat="45.99312" lon="4.8038">
        <ele>242</ele>
        <time>2018-02-19T11:14:31Z</time>
      </trkpt>
      <trkpt lat="45.99307" lon="4.80379">
        <ele>242</ele>
        <time>2018-02-19T11:14:32Z</time>
      </trkpt>
      <trkpt lat="45.99301" lon="4.80378">
        <ele>242</ele>
        <time>2018-02-19T11:14:33Z</time>
      </trkpt>
      <trkpt lat="45.99296" lon="4.80379">
        <ele>242</ele>
        <time>2018-02-19T11:14:34Z</time>
      </trkpt>
      <trkpt lat="45.9929" lon="4.8038">
        <ele>242</ele>
        <time>2018-02-19T11:14:35Z</time>
      </trkpt>
      <trkpt lat="45.99284" lon="4.80379">
        <ele>242</ele>
        <time>2018-02-19T11:14:36Z</time>
      </trkpt>
      <trkpt lat="45.99278" lon="4.80377">
        <ele>242</ele>
        <time>2018-02-19T11:14:37Z</time>
      </trkpt>
      <trkpt lat="45.99272" lon="4.80373">
        <ele>243</ele>
        <time>2018-02-19T11:14:38Z</time>
      </trkpt>
      <trkpt lat="45.99267" lon="4.80368">
        <ele>243</ele>
        <time>2018-02-19T11:14:39Z</time>
      </trkpt>
      <trkpt lat="45.99262" lon="4.80362">
        <ele>243</ele>
        <time>2018-02-19T11:14:40Z</time>
      </trkpt>
      <trkpt lat="45.99258" lon="4.80356">
        <ele>243</ele>
        <time>2018-02-19T11:14:41Z</time>
      </trkpt>
      <trkpt lat="45.99253" lon="4.80351">
        <ele>243</ele>
        <time>2018-02-19T11:14:42Z</time>
      </trkpt>
      <trkpt lat="45.99249" lon="4.80344">
        <ele>242</ele>
        <time>2018-02-19T11:14:43Z</time>
      </trkpt>
      <trkpt lat="45.99245" lon="4.80338">
        <ele>243</ele>
        <time>2018-02-19T11:14:44Z</time>
      </trkpt>
      <trkpt lat="45.99241" lon="4.80331">
        <ele>243</ele>
        <time>2018-02-19T11:14:45Z</time>
      </trkpt>
      <trkpt lat="45.99237" lon="4.80324">
        <ele>243</ele>
        <time>2018-02-19T11:14:46Z</time>
      </trkpt>
      <trkpt lat="45.99234" lon="4.80318">
        <ele>243</ele>
        <time>2018-02-19T11:14:47Z</time>
      </trkpt>
      <trkpt lat="45.9923" lon="4.80312">
        <ele>243</ele>
        <time>2018-02-19T11:14:48Z</time>
      </trkpt>
      <trkpt lat="45.99224" lon="4.80306">
        <ele>242</ele>
        <time>2018-02-19T11:14:49Z</time>
      </trkpt>
      <trkpt lat="45.99219" lon="4.80299">
        <ele>242</ele>
        <time>2018-02-19T11:14:50Z</time>
      </trkpt>
      <trkpt lat="45.99216" lon="4.80293">
        <ele>242</ele>
        <time>2018-02-19T11:14:51Z</time>
      </trkpt>
      <trkpt lat="45.99212" lon="4.80287">
        <ele>242</ele>
        <time>2018-02-19T11:14:52Z</time>
      </trkpt>
      <trkpt lat="45.99208" lon="4.8028">
        <ele>242</ele>
        <time>2018-02-19T11:14:53Z</time>
      </trkpt>
      <trkpt lat="45.99203" lon="4.80273">
        <ele>242</ele>
        <time>2018-02-19T11:14:54Z</time>
      </trkpt>
      <trkpt lat="45.99199" lon="4.80267">
        <ele>242</ele>
        <time>2018-02-19T11:14:55Z</time>
      </trkpt>
      <trkpt lat="45.99193" lon="4.80262">
        <ele>242</ele>
        <time>2018-02-19T11:14:56Z</time>
      </trkpt>
      <trkpt lat="45.99189" lon="4.80256">
        <ele>242</ele>
        <time>2018-02-19T11:14:57Z</time>
      </trkpt>
      <trkpt lat="45.99184" lon="4.80249">
        <ele>242</ele>
        <time>2018-02-19T11:14:58Z</time>
      </trkpt>
      <trkpt lat="45.99179" lon="4.80243">
        <ele>242</ele>
        <time>2018-02-19T11:14:59Z</time>
      </trkpt>
      <trkpt lat="45.99174" lon="4.80237">
        <ele>242</ele>
        <time>2018-02-19T11:15:00Z</time>
      </trkpt>
      <trkpt lat="45.99169" lon="4.80231">
        <ele>242</ele>
        <time>2018-02-19T11:15:01Z</time>
      </trkpt>
      <trkpt lat="45.99164" lon="4.80225">
        <ele>241</ele>
        <time>2018-02-19T11:15:02Z</time>
      </trkpt>
      <trkpt lat="45.99159" lon="4.80219">
        <ele>241</ele>
        <time>2018-02-19T11:15:03Z</time>
      </trkpt>
      <trkpt lat="45.99154" lon="4.80213">
        <ele>242</ele>
        <time>2018-02-19T11:15:04Z</time>
      </trkpt>
      <trkpt lat="45.99149" lon="4.80206">
        <ele>242</ele>
        <time>2018-02-19T11:15:05Z</time>
      </trkpt>
      <trkpt lat="45.99143" lon="4.802">
        <ele>242</ele>
        <time>2018-02-19T11:15:06Z</time>
      </trkpt>
      <trkpt lat="45.99138" lon="4.80194">
        <ele>242</ele>
        <time>2018-02-19T11:15:07Z</time>
      </trkpt>
      <trkpt lat="45.99133" lon="4.80188">
        <ele>242</ele>
        <time>2018-02-19T11:15:08Z</time>
      </trkpt>
      <trkpt lat="45.99127" lon="4.80182">
        <ele>242</ele>
        <time>2018-02-19T11:15:09Z</time>
      </trkpt>
      <trkpt lat="45.99122" lon="4.80176">
        <ele>242</ele>
        <time>2018-02-19T11:15:10Z</time>
      </trkpt>
      <trkpt lat="45.99117" lon="4.80169">
        <ele>242</ele>
        <time>2018-02-19T11:15:11Z</time>
      </trkpt>
      <trkpt lat="45.99112" lon="4.80162">
        <ele>243</ele>
        <time>2018-02-19T11:15:12Z</time>
      </trkpt>
      <trkpt lat="45.99107" lon="4.80155">
        <ele>243</ele>
        <time>2018-02-19T11:15:13Z</time>
      </trkpt>
      <trkpt lat="45.99102" lon="4.80149">
        <ele>243</ele>
        <time>2018-02-19T11:15:14Z</time>
      </trkpt>
      <trkpt lat="45.99096" lon="4.80142">
        <ele>243</ele>
        <time>2018-02-19T11:15:15Z</time>
      </trkpt>
      <trkpt lat="45.99091" lon="4.80136">
        <ele>243</ele>
        <time>2018-02-19T11:15:16Z</time>
      </trkpt>
      <trkpt lat="45.99085" lon="4.8013">
        <ele>243</ele>
        <time>2018-02-19T11:15:17Z</time>
      </trkpt>
      <trkpt lat="45.9908" lon="4.80124">
        <ele>242</ele>
        <time>2018-02-19T11:15:18Z</time>
      </trkpt>
      <trkpt lat="45.99075" lon="4.80119">
        <ele>242</ele>
        <time>2018-02-19T11:15:19Z</time>
      </trkpt>
      <trkpt lat="45.99069" lon="4.80113">
        <ele>242</ele>
        <time>2018-02-19T11:15:20Z</time>
      </trkpt>
      <trkpt lat="45.99064" lon="4.80107">
        <ele>242</ele>
        <time>2018-02-19T11:15:21Z</time>
      </trkpt>
      <trkpt lat="45.99059" lon="4.80101">
        <ele>242</ele>
        <time>2018-02-19T11:15:22Z</time>
      </trkpt>
      <trkpt lat="45.99054" lon="4.80096">
        <ele>242</ele>
        <time>2018-02-19T11:15:23Z</time>
      </trkpt>
      <trkpt lat="45.99049" lon="4.8009">
        <ele>242</ele>
        <time>2018-02-19T11:15:24Z</time>
      </trkpt>
      <trkpt lat="45.99044" lon="4.80085">
        <ele>242</ele>
        <time>2018-02-19T11:15:25Z</time>
      </trkpt>
      <trkpt lat="45.99039" lon="4.80079">
        <ele>244</ele>
        <time>2018-02-19T11:15:26Z</time>
      </trkpt>
      <trkpt lat="45.99034" lon="4.80073">
        <ele>243</ele>
        <time>2018-02-19T11:15:27Z</time>
      </trkpt>
      <trkpt lat="45.99029" lon="4.80067">
        <ele>243</ele>
        <time>2018-02-19T11:15:28Z</time>
      </trkpt>
      <trkpt lat="45.99024" lon="4.80061">
        <ele>243</ele>
        <time>2018-02-19T11:15:29Z</time>
      </trkpt>
      <trkpt lat="45.99019" lon="4.80055">
        <ele>244</ele>
        <time>2018-02-19T11:15:30Z</time>
      </trkpt>
      <trkpt lat="45.99015" lon="4.80048">
        <ele>244</ele>
        <time>2018-02-19T11:15:31Z</time>
      </trkpt>
      <trkpt lat="45.9901" lon="4.80042">
        <ele>244</ele>
        <time>2018-02-19T11:15:32Z</time>
      </trkpt>
      <trkpt lat="45.99004" lon="4.80036">
        <ele>244</ele>
        <time>2018-02-19T11:15:33Z</time>
      </trkpt>
      <trkpt lat="45.98999" lon="4.80031">
        <ele>243</ele>
        <time>2018-02-19T11:15:34Z</time>
      </trkpt>
      <trkpt lat="45.98994" lon="4.80025">
        <ele>243</ele>
        <time>2018-02-19T11:15:35Z</time>
      </trkpt>
      <trkpt lat="45.98989" lon="4.80019">
        <ele>243</ele>
        <time>2018-02-19T11:15:36Z</time>
      </trkpt>
      <trkpt lat="45.98984" lon="4.80013">
        <ele>243</ele>
        <time>2018-02-19T11:15:37Z</time>
      </trkpt>
      <trkpt lat="45.98979" lon="4.80008">
        <ele>243</ele>
        <time>2018-02-19T11:15:38Z</time>
      </trkpt>
      <trkpt lat="45.98974" lon="4.80002">
        <ele>243</ele>
        <time>2018-02-19T11:15:39Z</time>
      </trkpt>
      <trkpt lat="45.9897" lon="4.79997">
        <ele>245</ele>
        <time>2018-02-19T11:15:40Z</time>
      </trkpt>
      <trkpt lat="45.98965" lon="4.79992">
        <ele>245</ele>
        <time>2018-02-19T11:15:41Z</time>
      </trkpt>
      <trkpt lat="45.9896" lon="4.79988">
        <ele>245</ele>
        <time>2018-02-19T11:15:42Z</time>
      </trkpt>
      <trkpt lat="45.98956" lon="4.79983">
        <ele>245</ele>
        <time>2018-02-19T11:15:43Z</time>
      </trkpt>
      <trkpt lat="45.98952" lon="4.79978">
        <ele>245</ele>
        <time>2018-02-19T11:15:44Z</time>
      </trkpt>
      <trkpt lat="45.98948" lon="4.79973">
        <ele>245</ele>
        <time>2018-02-19T11:15:45Z</time>
      </trkpt>
      <trkpt lat="45.98944" lon="4.79968">
        <ele>245</ele>
        <time>2018-02-19T11:15:46Z</time>
      </trkpt>
      <trkpt lat="45.9894" lon="4.79963">
        <ele>245</ele>
        <time>2018-02-19T11:15:47Z</time>
      </trkpt>
      <trkpt lat="45.98936" lon="4.79958">
        <ele>245</ele>
        <time>2018-02-19T11:15:48Z</time>
      </trkpt>
      <trkpt lat="45.98932" lon="4.79953">
        <ele>245</ele>
        <time>2018-02-19T11:15:49Z</time>
      </trkpt>
      <trkpt lat="45.98928" lon="4.79949">
        <ele>245</ele>
        <time>2018-02-19T11:15:50Z</time>
      </trkpt>
      <trkpt lat="45.98923" lon="4.79944">
        <ele>245</ele>
        <time>2018-02-19T11:15:51Z</time>
      </trkpt>
      <trkpt lat="45.98919" lon="4.79938">
        <ele>245</ele>
        <time>2018-02-19T11:15:52Z</time>
      </trkpt>
      <trkpt lat="45.98914" lon="4.79934">
        <ele>244</ele>
        <time>2018-02-19T11:15:53Z</time>
      </trkpt>
      <trkpt lat="45.9891" lon="4.79929">
        <ele>244</ele>
        <time>2018-02-19T11:15:54Z</time>
      </trkpt>
      <trkpt lat="45.98906" lon="4.79924">
        <ele>244</ele>
        <time>2018-02-19T11:15:55Z</time>
      </trkpt>
      <trkpt lat="45.98902" lon="4.79919">
        <ele>244</ele>
        <time>2018-02-19T11:15:56Z</time>
      </trkpt>
      <trkpt lat="45.98897" lon="4.79914">
        <ele>244</ele>
        <time>2018-02-19T11:15:57Z</time>
      </trkpt>
      <trkpt lat="45.98893" lon="4.79909">
        <ele>244</ele>
        <time>2018-02-19T11:15:58Z</time>
      </trkpt>
      <trkpt lat="45.98889" lon="4.79903">
        <ele>244</ele>
        <time>2018-02-19T11:15:59Z</time>
      </trkpt>
      <trkpt lat="45.98884" lon="4.79897">
        <ele>244</ele>
        <time>2018-02-19T11:16:00Z</time>
      </trkpt>
      <trkpt lat="45.9888" lon="4.79892">
        <ele>244</ele>
        <time>2018-02-19T11:16:01Z</time>
      </trkpt>
      <trkpt lat="45.98876" lon="4.79888">
        <ele>244</ele>
        <time>2018-02-19T11:16:02Z</time>
      </trkpt>
      <trkpt lat="45.98871" lon="4.79882">
        <ele>244</ele>
        <time>2018-02-19T11:16:03Z</time>
      </trkpt>
      <trkpt lat="45.98867" lon="4.79878">
        <ele>244</ele>
        <time>2018-02-19T11:16:04Z</time>
      </trkpt>
      <trkpt lat="45.98863" lon="4.79873">
        <ele>244</ele>
        <time>2018-02-19T11:16:05Z</time>
      </trkpt>
      <trkpt lat="45.98858" lon="4.79868">
        <ele>244</ele>
        <time>2018-02-19T11:16:06Z</time>
      </trkpt>
      <trkpt lat="45.98854" lon="4.79864">
        <ele>244</ele>
        <time>2018-02-19T11:16:07Z</time>
      </trkpt>
      <trkpt lat="45.98849" lon="4.7986">
        <ele>244</ele>
        <time>2018-02-19T11:16:08Z</time>
      </trkpt>
      <trkpt lat="45.98845" lon="4.79854">
        <ele>244</ele>
        <time>2018-02-19T11:16:09Z</time>
      </trkpt>
      <trkpt lat="45.98841" lon="4.79849">
        <ele>244</ele>
        <time>2018-02-19T11:16:10Z</time>
      </trkpt>
      <trkpt lat="45.98837" lon="4.79845">
        <ele>244</ele>
        <time>2018-02-19T11:16:11Z</time>
      </trkpt>
      <trkpt lat="45.98833" lon="4.7984">
        <ele>244</ele>
        <time>2018-02-19T11:16:12Z</time>
      </trkpt>
      <trkpt lat="45.98829" lon="4.79836">
        <ele>244</ele>
        <time>2018-02-19T11:16:13Z</time>
      </trkpt>
      <trkpt lat="45.98825" lon="4.79831">
        <ele>244</ele>
        <time>2018-02-19T11:16:14Z</time>
      </trkpt>
      <trkpt lat="45.98821" lon="4.79827">
        <ele>244</ele>
        <time>2018-02-19T11:16:15Z</time>
      </trkpt>
      <trkpt lat="45.98817" lon="4.79823">
        <ele>245</ele>
        <time>2018-02-19T11:16:16Z</time>
      </trkpt>
      <trkpt lat="45.98813" lon="4.79819">
        <ele>245</ele>
        <time>2018-02-19T11:16:17Z</time>
      </trkpt>
      <trkpt lat="45.9881" lon="4.79814">
        <ele>245</ele>
        <time>2018-02-19T11:16:18Z</time>
      </trkpt>
      <trkpt lat="45.98806" lon="4.7981">
        <ele>245</ele>
        <time>2018-02-19T11:16:19Z</time>
      </trkpt>
      <trkpt lat="45.98802" lon="4.79804">
        <ele>245</ele>
        <time>2018-02-19T11:16:20Z</time>
      </trkpt>
      <trkpt lat="45.98798" lon="4.79799">
        <ele>245</ele>
        <time>2018-02-19T11:16:21Z</time>
      </trkpt>
      <trkpt lat="45.98795" lon="4.79795">
        <ele>245</ele>
        <time>2018-02-19T11:16:22Z</time>
      </trkpt>
      <trkpt lat="45.9879" lon="4.79789">
        <ele>245</ele>
        <time>2018-02-19T11:16:23Z</time>
      </trkpt>
      <trkpt lat="45.98786" lon="4.79784">
        <ele>245</ele>
        <time>2018-02-19T11:16:24Z</time>
      </trkpt>
      <trkpt lat="45.98782" lon="4.79779">
        <ele>245</ele>
        <time>2018-02-19T11:16:25Z</time>
      </trkpt>
      <trkpt lat="45.98777" lon="4.79774">
        <ele>245</ele>
        <time>2018-02-19T11:16:26Z</time>
      </trkpt>
      <trkpt lat="45.98773" lon="4.7977">
        <ele>245</ele>
        <time>2018-02-19T11:16:27Z</time>
      </trkpt>
      <trkpt lat="45.98769" lon="4.79765">
        <ele>245</ele>
        <time>2018-02-19T11:16:28Z</time>
      </trkpt>
      <trkpt lat="45.98764" lon="4.79761">
        <ele>245</ele>
        <time>2018-02-19T11:16:29Z</time>
      </trkpt>
      <trkpt lat="45.9876" lon="4.79757">
        <ele>245</ele>
        <time>2018-02-19T11:16:30Z</time>
      </trkpt>
      <trkpt lat="45.98756" lon="4.79752">
        <ele>245</ele>
        <time>2018-02-19T11:16:31Z</time>
      </trkpt>
      <trkpt lat="45.98751" lon="4.79748">
        <ele>245</ele>
        <time>2018-02-19T11:16:32Z</time>
      </trkpt>
      <trkpt lat="45.98747" lon="4.79745">
        <ele>245</ele>
        <time>2018-02-19T11:16:33Z</time>
      </trkpt>
      <trkpt lat="45.98742" lon="4.7974">
        <ele>245</ele>
        <time>2018-02-19T11:16:34Z</time>
      </trkpt>
      <trkpt lat="45.98737" lon="4.79737">
        <ele>245</ele>
        <time>2018-02-19T11:16:35Z</time>
      </trkpt>
      <trkpt lat="45.98732" lon="4.79733">
        <ele>245</ele>
        <time>2018-02-19T11:16:36Z</time>
      </trkpt>
      <trkpt lat="45.98726" lon="4.7973">
        <ele>245</ele>
        <time>2018-02-19T11:16:37Z</time>
      </trkpt>
      <trkpt lat="45.98721" lon="4.79727">
        <ele>245</ele>
        <time>2018-02-19T11:16:38Z</time>
      </trkpt>
      <trkpt lat="45.98716" lon="4.79725">
        <ele>245</ele>
        <time>2018-02-19T11:16:39Z</time>
      </trkpt>
      <trkpt lat="45.98711" lon="4.79722">
        <ele>245</ele>
        <time>2018-02-19T11:16:40Z</time>
      </trkpt>
      <trkpt lat="45.98706" lon="4.7972">
        <ele>245</ele>
        <time>2018-02-19T11:16:41Z</time>
      </trkpt>
      <trkpt lat="45.98701" lon="4.79718">
        <ele>245</ele>
        <time>2018-02-19T11:16:42Z</time>
      </trkpt>
      <trkpt lat="45.98695" lon="4.79716">
        <ele>245</ele>
        <time>2018-02-19T11:16:43Z</time>
      </trkpt>
      <trkpt lat="45.9869" lon="4.79714">
        <ele>245</ele>
        <time>2018-02-19T11:16:44Z</time>
      </trkpt>
      <trkpt lat="45.98685" lon="4.79712">
        <ele>245</ele>
        <time>2018-02-19T11:16:45Z</time>
      </trkpt>
      <trkpt lat="45.9868" lon="4.79709">
        <ele>245</ele>
        <time>2018-02-19T11:16:46Z</time>
      </trkpt>
      <trkpt lat="45.98675" lon="4.79706">
        <ele>245</ele>
        <time>2018-02-19T11:16:47Z</time>
      </trkpt>
      <trkpt lat="45.9867" lon="4.79702">
        <ele>245</ele>
        <time>2018-02-19T11:16:48Z</time>
      </trkpt>
      <trkpt lat="45.98666" lon="4.79698">
        <ele>245</ele>
        <time>2018-02-19T11:16:49Z</time>
      </trkpt>
      <trkpt lat="45.98661" lon="4.79692">
        <ele>245</ele>
        <time>2018-02-19T11:16:50Z</time>
      </trkpt>
      <trkpt lat="45.98657" lon="4.79686">
        <ele>245</ele>
        <time>2018-02-19T11:16:51Z</time>
      </trkpt>
      <trkpt lat="45.98653" lon="4.7968">
        <ele>245</ele>
        <time>2018-02-19T11:16:52Z</time>
      </trkpt>
      <trkpt lat="45.98649" lon="4.79674">
        <ele>245</ele>
        <time>2018-02-19T11:16:53Z</time>
      </trkpt>
      <trkpt lat="45.98646" lon="4.79668">
        <ele>245</ele>
        <time>2018-02-19T11:16:54Z</time>
      </trkpt>
      <trkpt lat="45.98643" lon="4.79661">
        <ele>245</ele>
        <time>2018-02-19T11:16:55Z</time>
      </trkpt>
      <trkpt lat="45.9864" lon="4.79654">
        <ele>245</ele>
        <time>2018-02-19T11:16:56Z</time>
      </trkpt>
      <trkpt lat="45.98637" lon="4.79648">
        <ele>245</ele>
        <time>2018-02-19T11:16:57Z</time>
      </trkpt>
      <trkpt lat="45.98634" lon="4.79641">
        <ele>245</ele>
        <time>2018-02-19T11:16:58Z</time>
      </trkpt>
      <trkpt lat="45.98631" lon="4.79635">
        <ele>245</ele>
        <time>2018-02-19T11:16:59Z</time>
      </trkpt>
      <trkpt lat="45.9863" lon="4.79629">
        <ele>245</ele>
        <time>2018-02-19T11:17:00Z</time>
      </trkpt>
      <trkpt lat="45.98629" lon="4.79622">
        <ele>245</ele>
        <time>2018-02-19T11:17:01Z</time>
      </trkpt>
      <trkpt lat="45.98628" lon="4.79615">
        <ele>245</ele>
        <time>2018-02-19T11:17:02Z</time>
      </trkpt>
      <trkpt lat="45.98629" lon="4.79607">
        <ele>245</ele>
        <time>2018-02-19T11:17:03Z</time>
      </trkpt>
      <trkpt lat="45.98629" lon="4.796">
        <ele>245</ele>
        <time>2018-02-19T11:17:04Z</time>
      </trkpt>
      <trkpt lat="45.98627" lon="4.79593">
        <ele>245</ele>
        <time>2018-02-19T11:17:05Z</time>
      </trkpt>
      <trkpt lat="45.98624" lon="4.79587">
        <ele>245</ele>
        <time>2018-02-19T11:17:06Z</time>
      </trkpt>
      <trkpt lat="45.9862" lon="4.79583">
        <ele>245</ele>
        <time>2018-02-19T11:17:07Z</time>
      </trkpt>
      <trkpt lat="45.98615" lon="4.79579">
        <ele>245</ele>
        <time>2018-02-19T11:17:08Z</time>
      </trkpt>
      <trkpt lat="45.9861" lon="4.79576">
        <ele>245</ele>
        <time>2018-02-19T11:17:09Z</time>
      </trkpt>
      <trkpt lat="45.98604" lon="4.79576">
        <ele>245</ele>
        <time>2018-02-19T11:17:10Z</time>
      </trkpt>
      <trkpt lat="45.98599" lon="4.79578">
        <ele>245</ele>
        <time>2018-02-19T11:17:11Z</time>
      </trkpt>
      <trkpt lat="45.98593" lon="4.79579">
        <ele>245</ele>
        <time>2018-02-19T11:17:12Z</time>
      </trkpt>
      <trkpt lat="45.98588" lon="4.7958">
        <ele>245</ele>
        <time>2018-02-19T11:17:13Z</time>
      </trkpt>
      <trkpt lat="45.98582" lon="4.79579">
        <ele>245</ele>
        <time>2018-02-19T11:17:14Z</time>
      </trkpt>
      <trkpt lat="45.98576" lon="4.79576">
        <ele>245</ele>
        <time>2018-02-19T11:17:15Z</time>
      </trkpt>
      <trkpt lat="45.9857" lon="4.79573">
        <ele>245</ele>
        <time>2018-02-19T11:17:16Z</time>
      </trkpt>
      <trkpt lat="45.98565" lon="4.79568">
        <ele>244</ele>
        <time>2018-02-19T11:17:17Z</time>
      </trkpt>
      <trkpt lat="45.9856" lon="4.79563">
        <ele>244</ele>
        <time>2018-02-19T11:17:18Z</time>
      </trkpt>
      <trkpt lat="45.98555" lon="4.79557">
        <ele>244</ele>
        <time>2018-02-19T11:17:19Z</time>
      </trkpt>
      <trkpt lat="45.98551" lon="4.7955">
        <ele>244</ele>
        <time>2018-02-19T11:17:20Z</time>
      </trkpt>
      <trkpt lat="45.98547" lon="4.79543">
        <ele>244</ele>
        <time>2018-02-19T11:17:21Z</time>
      </trkpt>
      <trkpt lat="45.98543" lon="4.79537">
        <ele>244</ele>
        <time>2018-02-19T11:17:22Z</time>
      </trkpt>
      <trkpt lat="45.9854" lon="4.7953">
        <ele>244</ele>
        <time>2018-02-19T11:17:23Z</time>
      </trkpt>
      <trkpt lat="45.98537" lon="4.79522">
        <ele>244</ele>
        <time>2018-02-19T11:17:24Z</time>
      </trkpt>
      <trkpt lat="45.98535" lon="4.79515">
        <ele>244</ele>
        <time>2018-02-19T11:17:25Z</time>
      </trkpt>
      <trkpt lat="45.98533" lon="4.79508">
        <ele>244</ele>
        <time>2018-02-19T11:17:26Z</time>
      </trkpt>
      <trkpt lat="45.98531" lon="4.79501">
        <ele>244</ele>
        <time>2018-02-19T11:17:27Z</time>
      </trkpt>
      <trkpt lat="45.98529" lon="4.79494">
        <ele>244</ele>
        <time>2018-02-19T11:17:28Z</time>
      </trkpt>
      <trkpt lat="45.98528" lon="4.79486">
        <ele>244</ele>
        <time>2018-02-19T11:17:29Z</time>
      </trkpt>
      <trkpt lat="45.98528" lon="4.79478">
        <ele>244</ele>
        <time>2018-02-19T11:17:30Z</time>
      </trkpt>
      <trkpt lat="45.98527" lon="4.79469">
        <ele>244</ele>
        <time>2018-02-19T11:17:31Z</time>
      </trkpt>
      <trkpt lat="45.98527" lon="4.79461">
        <ele>244</ele>
        <time>2018-02-19T11:17:32Z</time>
      </trkpt>
      <trkpt lat="45.98526" lon="4.79453">
        <ele>244</ele>
        <time>2018-02-19T11:17:33Z</time>
      </trkpt>
      <trkpt lat="45.98527" lon="4.79445">
        <ele>244</ele>
        <time>2018-02-19T11:17:34Z</time>
      </trkpt>
      <trkpt lat="45.98526" lon="4.79436">
        <ele>244</ele>
        <time>2018-02-19T11:17:35Z</time>
      </trkpt>
      <trkpt lat="45.98526" lon="4.79427">
        <ele>244</ele>
        <time>2018-02-19T11:17:36Z</time>
      </trkpt>
      <trkpt lat="45.98526" lon="4.79418">
        <ele>244</ele>
        <time>2018-02-19T11:17:37Z</time>
      </trkpt>
      <trkpt lat="45.98526" lon="4.79408">
        <ele>244</ele>
        <time>2018-02-19T11:17:38Z</time>
      </trkpt>
      <trkpt lat="45.98524" lon="4.794">
        <ele>244</ele>
        <time>2018-02-19T11:17:39Z</time>
      </trkpt>
      <trkpt lat="45.98522" lon="4.79391">
        <ele>244</ele>
        <time>2018-02-19T11:17:40Z</time>
      </trkpt>
      <trkpt lat="45.98521" lon="4.79382">
        <ele>244</ele>
        <time>2018-02-19T11:17:41Z</time>
      </trkpt>
      <trkpt lat="45.98519" lon="4.79374">
        <ele>243</ele>
        <time>2018-02-19T11:17:42Z</time>
      </trkpt>
      <trkpt lat="45.98518" lon="4.79365">
        <ele>243</ele>
        <time>2018-02-19T11:17:43Z</time>
      </trkpt>
      <trkpt lat="45.98516" lon="4.79357">
        <ele>243</ele>
        <time>2018-02-19T11:17:44Z</time>
      </trkpt>
      <trkpt lat="45.98515" lon="4.79348">
        <ele>243</ele>
        <time>2018-02-19T11:17:45Z</time>
      </trkpt>
      <trkpt lat="45.98513" lon="4.79339">
        <ele>243</ele>
        <time>2018-02-19T11:17:46Z</time>
      </trkpt>
      <trkpt lat="45.9851" lon="4.79331">
        <ele>243</ele>
        <time>2018-02-19T11:17:47Z</time>
      </trkpt>
      <trkpt lat="45.98508" lon="4.79323">
        <ele>243</ele>
        <time>2018-02-19T11:17:48Z</time>
      </trkpt>
      <trkpt lat="45.98506" lon="4.79315">
        <ele>243</ele>
        <time>2018-02-19T11:17:49Z</time>
      </trkpt>
      <trkpt lat="45.98504" lon="4.79308">
        <ele>243</ele>
        <time>2018-02-19T11:17:50Z</time>
      </trkpt>
      <trkpt lat="45.98501" lon="4.793">
        <ele>243</ele>
        <time>2018-02-19T11:17:51Z</time>
      </trkpt>
      <trkpt lat="45.98498" lon="4.79292">
        <ele>243</ele>
        <time>2018-02-19T11:17:52Z</time>
      </trkpt>
      <trkpt lat="45.98494" lon="4.79285">
        <ele>243</ele>
        <time>2018-02-19T11:17:53Z</time>
      </trkpt>
      <trkpt lat="45.9849" lon="4.79278">
        <ele>243</ele>
        <time>2018-02-19T11:17:54Z</time>
      </trkpt>
      <trkpt lat="45.98487" lon="4.79269">
        <ele>243</ele>
        <time>2018-02-19T11:17:55Z</time>
      </trkpt>
      <trkpt lat="45.98483" lon="4.79262">
        <ele>243</ele>
        <time>2018-02-19T11:17:56Z</time>
      </trkpt>
      <trkpt lat="45.98479" lon="4.79254">
        <ele>243</ele>
        <time>2018-02-19T11:17:57Z</time>
      </trkpt>
      <trkpt lat="45.98475" lon="4.79247">
        <ele>243</ele>
        <time>2018-02-19T11:17:58Z</time>
      </trkpt>
      <trkpt lat="45.98471" lon="4.79239">
        <ele>243</ele>
        <time>2018-02-19T11:17:59Z</time>
      </trkpt>
      <trkpt lat="45.98468" lon="4.79231">
        <ele>243</ele>
        <time>2018-02-19T11:18:00Z</time>
      </trkpt>
      <trkpt lat="45.98463" lon="4.79225">
        <ele>243</ele>
        <time>2018-02-19T11:18:01Z</time>
      </trkpt>
      <trkpt lat="45.98459" lon="4.79217">
        <ele>243</ele>
        <time>2018-02-19T11:18:02Z</time>
      </trkpt>
      <trkpt lat="45.98455" lon="4.79209">
        <ele>242</ele>
        <time>2018-02-19T11:18:03Z</time>
      </trkpt>
      <trkpt lat="45.9845" lon="4.79201">
        <ele>242</ele>
        <time>2018-02-19T11:18:04Z</time>
      </trkpt>
      <trkpt lat="45.98446" lon="4.79194">
        <ele>242</ele>
        <time>2018-02-19T11:18:05Z</time>
      </trkpt>
      <trkpt lat="45.98442" lon="4.79187">
        <ele>242</ele>
        <time>2018-02-19T11:18:06Z</time>
      </trkpt>
      <trkpt lat="45.98438" lon="4.79179">
        <ele>242</ele>
        <time>2018-02-19T11:18:07Z</time>
      </trkpt>
      <trkpt lat="45.98434" lon="4.79172">
        <ele>242</ele>
        <time>2018-02-19T11:18:08Z</time>
      </trkpt>
      <trkpt lat="45.9843" lon="4.79166">
        <ele>242</ele>
        <time>2018-02-19T11:18:09Z</time>
      </trkpt>
      <trkpt lat="45.98427" lon="4.79159">
        <ele>242</ele>
        <time>2018-02-19T11:18:10Z</time>
      </trkpt>
      <trkpt lat="45.98423" lon="4.79152">
        <ele>242</ele>
        <time>2018-02-19T11:18:11Z</time>
      </trkpt>
      <trkpt lat="45.98419" lon="4.79145">
        <ele>242</ele>
        <time>2018-02-19T11:18:12Z</time>
      </trkpt>
      <trkpt lat="45.98416" lon="4.79138">
        <ele>242</ele>
        <time>2018-02-19T11:18:13Z</time>
      </trkpt>
      <trkpt lat="45.98412" lon="4.79131">
        <ele>242</ele>
        <time>2018-02-19T11:18:14Z</time>
      </trkpt>
      <trkpt lat="45.98408" lon="4.79124">
        <ele>242</ele>
        <time>2018-02-19T11:18:15Z</time>
      </trkpt>
      <trkpt lat="45.98404" lon="4.79118">
        <ele>242</ele>
        <time>2018-02-19T11:18:16Z</time>
      </trkpt>
      <trkpt lat="45.984" lon="4.79111">
        <ele>242</ele>
        <time>2018-02-19T11:18:17Z</time>
      </trkpt>
      <trkpt lat="45.98396" lon="4.79105">
        <ele>242</ele>
        <time>2018-02-19T11:18:18Z</time>
      </trkpt>
      <trkpt lat="45.98392" lon="4.79098">
        <ele>242</ele>
        <time>2018-02-19T11:18:19Z</time>
      </trkpt>
      <trkpt lat="45.98389" lon="4.79091">
        <ele>242</ele>
        <time>2018-02-19T11:18:20Z</time>
      </trkpt>
      <trkpt lat="45.98385" lon="4.79084">
        <ele>242</ele>
        <time>2018-02-19T11:18:21Z</time>
      </trkpt>
      <trkpt lat="45.98382" lon="4.79078">
        <ele>242</ele>
        <time>2018-02-19T11:18:22Z</time>
      </trkpt>
      <trkpt lat="45.98378" lon="4.7907">
        <ele>242</ele>
        <time>2018-02-19T11:18:23Z</time>
      </trkpt>
      <trkpt lat="45.98374" lon="4.79063">
        <ele>242</ele>
        <time>2018-02-19T11:18:24Z</time>
      </trkpt>
      <trkpt lat="45.9837" lon="4.79056">
        <ele>242</ele>
        <time>2018-02-19T11:18:25Z</time>
      </trkpt>
      <trkpt lat="45.98365" lon="4.79048">
        <ele>242</ele>
        <time>2018-02-19T11:18:26Z</time>
      </trkpt>
      <trkpt lat="45.98361" lon="4.79041">
        <ele>242</ele>
        <time>2018-02-19T11:18:27Z</time>
      </trkpt>
      <trkpt lat="45.98356" lon="4.79034">
        <ele>242</ele>
        <time>2018-02-19T11:18:28Z</time>
      </trkpt>
      <trkpt lat="45.98352" lon="4.79028">
        <ele>242</ele>
        <time>2018-02-19T11:18:29Z</time>
      </trkpt>
      <trkpt lat="45.98347" lon="4.79022">
        <ele>242</ele>
        <time>2018-02-19T11:18:30Z</time>
      </trkpt>
      <trkpt lat="45.98342" lon="4.79017">
        <ele>242</ele>
        <time>2018-02-19T11:18:31Z</time>
      </trkpt>
      <trkpt lat="45.98337" lon="4.79013">
        <ele>242</ele>
        <time>2018-02-19T11:18:32Z</time>
      </trkpt>
      <trkpt lat="45.98331" lon="4.79008">
        <ele>242</ele>
        <time>2018-02-19T11:18:33Z</time>
      </trkpt>
      <trkpt lat="45.98325" lon="4.79004">
        <ele>242</ele>
        <time>2018-02-19T11:18:34Z</time>
      </trkpt>
      <trkpt lat="45.98319" lon="4.79001">
        <ele>242</ele>
        <time>2018-02-19T11:18:35Z</time>
      </trkpt>
      <trkpt lat="45.98313" lon="4.78997">
        <ele>241</ele>
        <time>2018-02-19T11:18:36Z</time>
      </trkpt>
      <trkpt lat="45.98308" lon="4.78994">
        <ele>241</ele>
        <time>2018-02-19T11:18:37Z</time>
      </trkpt>
      <trkpt lat="45.98301" lon="4.78991">
        <ele>241</ele>
        <time>2018-02-19T11:18:38Z</time>
      </trkpt>
      <trkpt lat="45.98296" lon="4.78987">
        <ele>241</ele>
        <time>2018-02-19T11:18:39Z</time>
      </trkpt>
      <trkpt lat="45.9829" lon="4.78983">
        <ele>241</ele>
        <time>2018-02-19T11:18:40Z</time>
      </trkpt>
      <trkpt lat="45.98284" lon="4.7898">
        <ele>241</ele>
        <time>2018-02-19T11:18:41Z</time>
      </trkpt>
      <trkpt lat="45.98278" lon="4.78976">
        <ele>241</ele>
        <time>2018-02-19T11:18:42Z</time>
      </trkpt>
      <trkpt lat="45.98272" lon="4.78973">
        <ele>241</ele>
        <time>2018-02-19T11:18:43Z</time>
      </trkpt>
      <trkpt lat="45.98266" lon="4.7897">
        <ele>241</ele>
        <time>2018-02-19T11:18:44Z</time>
      </trkpt>
      <trkpt lat="45.9826" lon="4.78967">
        <ele>241</ele>
        <time>2018-02-19T11:18:45Z</time>
      </trkpt>
      <trkpt lat="45.98254" lon="4.78963">
        <ele>241</ele>
        <time>2018-02-19T11:18:46Z</time>
      </trkpt>
      <trkpt lat="45.98248" lon="4.7896">
        <ele>241</ele>
        <time>2018-02-19T11:18:47Z</time>
      </trkpt>
      <trkpt lat="45.98242" lon="4.78956">
        <ele>241</ele>
        <time>2018-02-19T11:18:48Z</time>
      </trkpt>
      <trkpt lat="45.98235" lon="4.78952">
        <ele>241</ele>
        <time>2018-02-19T11:18:49Z</time>
      </trkpt>
      <trkpt lat="45.98229" lon="4.78949">
        <ele>241</ele>
        <time>2018-02-19T11:18:50Z</time>
      </trkpt>
      <trkpt lat="45.98222" lon="4.78946">
        <ele>241</ele>
        <time>2018-02-19T11:18:51Z</time>
      </trkpt>
      <trkpt lat="45.98217" lon="4.78942">
        <ele>241</ele>
        <time>2018-02-19T11:18:52Z</time>
      </trkpt>
      <trkpt lat="45.9821" lon="4.78938">
        <ele>241</ele>
        <time>2018-02-19T11:18:53Z</time>
      </trkpt>
      <trkpt lat="45.98204" lon="4.78935">
        <ele>241</ele>
        <time>2018-02-19T11:18:54Z</time>
      </trkpt>
      <trkpt lat="45.98198" lon="4.78931">
        <ele>241</ele>
        <time>2018-02-19T11:18:55Z</time>
      </trkpt>
      <trkpt lat="45.98192" lon="4.78928">
        <ele>241</ele>
        <time>2018-02-19T11:18:56Z</time>
      </trkpt>
      <trkpt lat="45.98185" lon="4.78925">
        <ele>241</ele>
        <time>2018-02-19T11:18:57Z</time>
      </trkpt>
      <trkpt lat="45.98178" lon="4.78921">
        <ele>240</ele>
        <time>2018-02-19T11:18:58Z</time>
      </trkpt>
      <trkpt lat="45.98173" lon="4.78916">
        <ele>240</ele>
        <time>2018-02-19T11:18:59Z</time>
      </trkpt>
      <trkpt lat="45.98167" lon="4.78912">
        <ele>240</ele>
        <time>2018-02-19T11:19:00Z</time>
      </trkpt>
      <trkpt lat="45.98161" lon="4.78908">
        <ele>240</ele>
        <time>2018-02-19T11:19:01Z</time>
      </trkpt>
      <trkpt lat="45.98155" lon="4.78904">
        <ele>240</ele>
        <time>2018-02-19T11:19:02Z</time>
      </trkpt>
      <trkpt lat="45.98149" lon="4.78901">
        <ele>240</ele>
        <time>2018-02-19T11:19:03Z</time>
      </trkpt>
      <trkpt lat="45.98143" lon="4.78897">
        <ele>240</ele>
        <time>2018-02-19T11:19:04Z</time>
      </trkpt>
      <trkpt lat="45.98136" lon="4.78894">
        <ele>240</ele>
        <time>2018-02-19T11:19:05Z</time>
      </trkpt>
      <trkpt lat="45.9813" lon="4.7889">
        <ele>240</ele>
        <time>2018-02-19T11:19:06Z</time>
      </trkpt>
      <trkpt lat="45.98124" lon="4.78886">
        <ele>240</ele>
        <time>2018-02-19T11:19:07Z</time>
      </trkpt>
      <trkpt lat="45.98118" lon="4.78883">
        <ele>240</ele>
        <time>2018-02-19T11:19:08Z</time>
      </trkpt>
      <trkpt lat="45.98112" lon="4.78879">
        <ele>240</ele>
        <time>2018-02-19T11:19:09Z</time>
      </trkpt>
      <trkpt lat="45.98106" lon="4.78877">
        <ele>240</ele>
        <time>2018-02-19T11:19:10Z</time>
      </trkpt>
      <trkpt lat="45.981" lon="4.78875">
        <ele>240</ele>
        <time>2018-02-19T11:19:11Z</time>
      </trkpt>
      <trkpt lat="45.98096" lon="4.78871">
        <ele>239</ele>
        <time>2018-02-19T11:19:12Z</time>
      </trkpt>
      <trkpt lat="45.9809" lon="4.78867">
        <ele>239</ele>
        <time>2018-02-19T11:19:13Z</time>
      </trkpt>
      <trkpt lat="45.98082" lon="4.78863">
        <ele>239</ele>
        <time>2018-02-19T11:19:14Z</time>
      </trkpt>
      <trkpt lat="45.98077" lon="4.7886">
        <ele>239</ele>
        <time>2018-02-19T11:19:15Z</time>
      </trkpt>
      <trkpt lat="45.98072" lon="4.78855">
        <ele>239</ele>
        <time>2018-02-19T11:19:16Z</time>
      </trkpt>
      <trkpt lat="45.98064" lon="4.78852">
        <ele>239</ele>
        <time>2018-02-19T11:19:17Z</time>
      </trkpt>
      <trkpt lat="45.98059" lon="4.78848">
        <ele>239</ele>
        <time>2018-02-19T11:19:18Z</time>
      </trkpt>
      <trkpt lat="45.98054" lon="4.78845">
        <ele>239</ele>
        <time>2018-02-19T11:19:19Z</time>
      </trkpt>
      <trkpt lat="45.98048" lon="4.7884">
        <ele>238</ele>
        <time>2018-02-19T11:19:20Z</time>
      </trkpt>
      <trkpt lat="45.98042" lon="4.78836">
        <ele>238</ele>
        <time>2018-02-19T11:19:21Z</time>
      </trkpt>
      <trkpt lat="45.98037" lon="4.78832">
        <ele>238</ele>
        <time>2018-02-19T11:19:22Z</time>
      </trkpt>
      <trkpt lat="45.98031" lon="4.78828">
        <ele>238</ele>
        <time>2018-02-19T11:19:23Z</time>
      </trkpt>
      <trkpt lat="45.98025" lon="4.78824">
        <ele>238</ele>
        <time>2018-02-19T11:19:24Z</time>
      </trkpt>
      <trkpt lat="45.9802" lon="4.7882">
        <ele>238</ele>
        <time>2018-02-19T11:19:25Z</time>
      </trkpt>
      <trkpt lat="45.98015" lon="4.78815">
        <ele>238</ele>
        <time>2018-02-19T11:19:26Z</time>
      </trkpt>
      <trkpt lat="45.9801" lon="4.78811">
        <ele>238</ele>
        <time>2018-02-19T11:19:27Z</time>
      </trkpt>
      <trkpt lat="45.98005" lon="4.78805">
        <ele>238</ele>
        <time>2018-02-19T11:19:28Z</time>
      </trkpt>
      <trkpt lat="45.98" lon="4.788">
        <ele>238</ele>
        <time>2018-02-19T11:19:29Z</time>
      </trkpt>
      <trkpt lat="45.97995" lon="4.78797">
        <ele>238</ele>
        <time>2018-02-19T11:19:30Z</time>
      </trkpt>
      <trkpt lat="45.97989" lon="4.78793">
        <ele>238</ele>
        <time>2018-02-19T11:19:31Z</time>
      </trkpt>
      <trkpt lat="45.97984" lon="4.78789">
        <ele>238</ele>
        <time>2018-02-19T11:19:32Z</time>
      </trkpt>
      <trkpt lat="45.9798" lon="4.78785">
        <ele>238</ele>
        <time>2018-02-19T11:19:33Z</time>
      </trkpt>
      <trkpt lat="45.97973" lon="4.78782">
        <ele>238</ele>
        <time>2018-02-19T11:19:34Z</time>
      </trkpt>
      <trkpt lat="45.97968" lon="4.78778">
        <ele>238</ele>
        <time>2018-02-19T11:19:35Z</time>
      </trkpt>
      <trkpt lat="45.97962" lon="4.78774">
        <ele>238</ele>
        <time>2018-02-19T11:19:36Z</time>
      </trkpt>
      <trkpt lat="45.97957" lon="4.7877">
        <ele>238</ele>
        <time>2018-02-19T11:19:37Z</time>
      </trkpt>
      <trkpt lat="45.97951" lon="4.78766">
        <ele>238</ele>
        <time>2018-02-19T11:19:38Z</time>
      </trkpt>
      <trkpt lat="45.97946" lon="4.78763">
        <ele>238</ele>
        <time>2018-02-19T11:19:39Z</time>
      </trkpt>
      <trkpt lat="45.97941" lon="4.78759">
        <ele>238</ele>
        <time>2018-02-19T11:19:40Z</time>
      </trkpt>
      <trkpt lat="45.97936" lon="4.78754">
        <ele>238</ele>
        <time>2018-02-19T11:19:41Z</time>
      </trkpt>
      <trkpt lat="45.97931" lon="4.7875">
        <ele>237</ele>
        <time>2018-02-19T11:19:42Z</time>
      </trkpt>
      <trkpt lat="45.97926" lon="4.78747">
        <ele>237</ele>
        <time>2018-02-19T11:19:43Z</time>
      </trkpt>
      <trkpt lat="45.9792" lon="4.78743">
        <ele>237</ele>
        <time>2018-02-19T11:19:44Z</time>
      </trkpt>
      <trkpt lat="45.97914" lon="4.7874">
        <ele>237</ele>
        <time>2018-02-19T11:19:45Z</time>
      </trkpt>
      <trkpt lat="45.97909" lon="4.78736">
        <ele>237</ele>
        <time>2018-02-19T11:19:46Z</time>
      </trkpt>
      <trkpt lat="45.97904" lon="4.78731">
        <ele>237</ele>
        <time>2018-02-19T11:19:47Z</time>
      </trkpt>
      <trkpt lat="45.97898" lon="4.78728">
        <ele>237</ele>
        <time>2018-02-19T11:19:48Z</time>
      </trkpt>
      <trkpt lat="45.97894" lon="4.78725">
        <ele>236</ele>
        <time>2018-02-19T11:19:49Z</time>
      </trkpt>
      <trkpt lat="45.97888" lon="4.78721">
        <ele>236</ele>
        <time>2018-02-19T11:19:50Z</time>
      </trkpt>
      <trkpt lat="45.97882" lon="4.78717">
        <ele>236</ele>
        <time>2018-02-19T11:19:51Z</time>
      </trkpt>
      <trkpt lat="45.97877" lon="4.78712">
        <ele>236</ele>
        <time>2018-02-19T11:19:52Z</time>
      </trkpt>
      <trkpt lat="45.97872" lon="4.78709">
        <ele>236</ele>
        <time>2018-02-19T11:19:53Z</time>
      </trkpt>
      <trkpt lat="45.97867" lon="4.78705">
        <ele>236</ele>
        <time>2018-02-19T11:19:54Z</time>
      </trkpt>
      <trkpt lat="45.97862" lon="4.78703">
        <ele>236</ele>
        <time>2018-02-19T11:19:55Z</time>
      </trkpt>
      <trkpt lat="45.97856" lon="4.787">
        <ele>236</ele>
        <time>2018-02-19T11:19:56Z</time>
      </trkpt>
      <trkpt lat="45.97851" lon="4.78697">
        <ele>236</ele>
        <time>2018-02-19T11:19:57Z</time>
      </trkpt>
      <trkpt lat="45.97845" lon="4.78694">
        <ele>236</ele>
        <time>2018-02-19T11:19:58Z</time>
      </trkpt>
      <trkpt lat="45.9784" lon="4.7869">
        <ele>236</ele>
        <time>2018-02-19T11:19:59Z</time>
      </trkpt>
      <trkpt lat="45.97835" lon="4.78686">
        <ele>236</ele>
        <time>2018-02-19T11:20:00Z</time>
      </trkpt>
      <trkpt lat="45.97829" lon="4.78682">
        <ele>235</ele>
        <time>2018-02-19T11:20:01Z</time>
      </trkpt>
      <trkpt lat="45.97823" lon="4.78679">
        <ele>235</ele>
        <time>2018-02-19T11:20:02Z</time>
      </trkpt>
      <trkpt lat="45.97817" lon="4.78677">
        <ele>235</ele>
        <time>2018-02-19T11:20:03Z</time>
      </trkpt>
      <trkpt lat="45.97812" lon="4.78675">
        <ele>235</ele>
        <time>2018-02-19T11:20:04Z</time>
      </trkpt>
      <trkpt lat="45.97806" lon="4.78672">
        <ele>235</ele>
        <time>2018-02-19T11:20:05Z</time>
      </trkpt>
      <trkpt lat="45.978" lon="4.7867">
        <ele>235</ele>
        <time>2018-02-19T11:20:06Z</time>
      </trkpt>
      <trkpt lat="45.97794" lon="4.78668">
        <ele>235</ele>
        <time>2018-02-19T11:20:07Z</time>
      </trkpt>
      <trkpt lat="45.97788" lon="4.78665">
        <ele>235</ele>
        <time>2018-02-19T11:20:08Z</time>
      </trkpt>
      <trkpt lat="45.97782" lon="4.78663">
        <ele>235</ele>
        <time>2018-02-19T11:20:09Z</time>
      </trkpt>
      <trkpt lat="45.97776" lon="4.78661">
        <ele>235</ele>
        <time>2018-02-19T11:20:10Z</time>
      </trkpt>
      <trkpt lat="45.97769" lon="4.78659">
        <ele>235</ele>
        <time>2018-02-19T11:20:11Z</time>
      </trkpt>
      <trkpt lat="45.97763" lon="4.78657">
        <ele>235</ele>
        <time>2018-02-19T11:20:12Z</time>
      </trkpt>
      <trkpt lat="45.97757" lon="4.78655">
        <ele>235</ele>
        <time>2018-02-19T11:20:13Z</time>
      </trkpt>
      <trkpt lat="45.97752" lon="4.78651">
        <ele>235</ele>
        <time>2018-02-19T11:20:14Z</time>
      </trkpt>
      <trkpt lat="45.97745" lon="4.78649">
        <ele>234</ele>
        <time>2018-02-19T11:20:15Z</time>
      </trkpt>
      <trkpt lat="45.9774" lon="4.78646">
        <ele>234</ele>
        <time>2018-02-19T11:20:16Z</time>
      </trkpt>
      <trkpt lat="45.97735" lon="4.78644">
        <ele>234</ele>
        <time>2018-02-19T11:20:17Z</time>
      </trkpt>
      <trkpt lat="45.97729" lon="4.78641">
        <ele>234</ele>
        <time>2018-02-19T11:20:18Z</time>
      </trkpt>
      <trkpt lat="45.97724" lon="4.78638">
        <ele>234</ele>
        <time>2018-02-19T11:20:19Z</time>
      </trkpt>
      <trkpt lat="45.97718" lon="4.78636">
        <ele>234</ele>
        <time>2018-02-19T11:20:20Z</time>
      </trkpt>
      <trkpt lat="45.97712" lon="4.78634">
        <ele>234</ele>
        <time>2018-02-19T11:20:21Z</time>
      </trkpt>
      <trkpt lat="45.97707" lon="4.78632">
        <ele>234</ele>
        <time>2018-02-19T11:20:22Z</time>
      </trkpt>
      <trkpt lat="45.97701" lon="4.7863">
        <ele>234</ele>
        <time>2018-02-19T11:20:23Z</time>
      </trkpt>
      <trkpt lat="45.97696" lon="4.78627">
        <ele>234</ele>
        <time>2018-02-19T11:20:24Z</time>
      </trkpt>
      <trkpt lat="45.97691" lon="4.78625">
        <ele>234</ele>
        <time>2018-02-19T11:20:25Z</time>
      </trkpt>
      <trkpt lat="45.97685" lon="4.78622">
        <ele>234</ele>
        <time>2018-02-19T11:20:26Z</time>
      </trkpt>
      <trkpt lat="45.9768" lon="4.78619">
        <ele>234</ele>
        <time>2018-02-19T11:20:27Z</time>
      </trkpt>
      <trkpt lat="45.97675" lon="4.78617">
        <ele>234</ele>
        <time>2018-02-19T11:20:28Z</time>
      </trkpt>
      <trkpt lat="45.97669" lon="4.78615">
        <ele>234</ele>
        <time>2018-02-19T11:20:29Z</time>
      </trkpt>
      <trkpt lat="45.97663" lon="4.78612">
        <ele>233</ele>
        <time>2018-02-19T11:20:30Z</time>
      </trkpt>
      <trkpt lat="45.97657" lon="4.7861">
        <ele>233</ele>
        <time>2018-02-19T11:20:31Z</time>
      </trkpt>
      <trkpt lat="45.97651" lon="4.78607">
        <ele>233</ele>
        <time>2018-02-19T11:20:32Z</time>
      </trkpt>
      <trkpt lat="45.97646" lon="4.78605">
        <ele>233</ele>
        <time>2018-02-19T11:20:33Z</time>
      </trkpt>
      <trkpt lat="45.9764" lon="4.78603">
        <ele>233</ele>
        <time>2018-02-19T11:20:34Z</time>
      </trkpt>
      <trkpt lat="45.97634" lon="4.786">
        <ele>233</ele>
        <time>2018-02-19T11:20:35Z</time>
      </trkpt>
      <trkpt lat="45.97628" lon="4.78597">
        <ele>233</ele>
        <time>2018-02-19T11:20:36Z</time>
      </trkpt>
      <trkpt lat="45.97622" lon="4.78595">
        <ele>233</ele>
        <time>2018-02-19T11:20:37Z</time>
      </trkpt>
      <trkpt lat="45.97616" lon="4.78593">
        <ele>233</ele>
        <time>2018-02-19T11:20:38Z</time>
      </trkpt>
      <trkpt lat="45.97611" lon="4.78591">
        <ele>233</ele>
        <time>2018-02-19T11:20:39Z</time>
      </trkpt>
      <trkpt lat="45.97605" lon="4.78589">
        <ele>233</ele>
        <time>2018-02-19T11:20:40Z</time>
      </trkpt>
      <trkpt lat="45.97599" lon="4.78587">
        <ele>233</ele>
        <time>2018-02-19T11:20:41Z</time>
      </trkpt>
      <trkpt lat="45.97593" lon="4.78585">
        <ele>233</ele>
        <time>2018-02-19T11:20:42Z</time>
      </trkpt>
      <trkpt lat="45.97588" lon="4.78583">
        <ele>233</ele>
        <time>2018-02-19T11:20:43Z</time>
      </trkpt>
      <trkpt lat="45.97582" lon="4.7858">
        <ele>233</ele>
        <time>2018-02-19T11:20:44Z</time>
      </trkpt>
      <trkpt lat="45.97576" lon="4.78578">
        <ele>233</ele>
        <time>2018-02-19T11:20:45Z</time>
      </trkpt>
      <trkpt lat="45.97571" lon="4.78576">
        <ele>233</ele>
        <time>2018-02-19T11:20:46Z</time>
      </trkpt>
      <trkpt lat="45.97566" lon="4.78574">
        <ele>233</ele>
        <time>2018-02-19T11:20:47Z</time>
      </trkpt>
      <trkpt lat="45.97561" lon="4.78572">
        <ele>233</ele>
        <time>2018-02-19T11:20:48Z</time>
      </trkpt>
      <trkpt lat="45.97555" lon="4.78569">
        <ele>234</ele>
        <time>2018-02-19T11:20:49Z</time>
      </trkpt>
      <trkpt lat="45.97549" lon="4.78567">
        <ele>234</ele>
        <time>2018-02-19T11:20:50Z</time>
      </trkpt>
      <trkpt lat="45.97544" lon="4.78564">
        <ele>234</ele>
        <time>2018-02-19T11:20:51Z</time>
      </trkpt>
      <trkpt lat="45.97538" lon="4.78561">
        <ele>234</ele>
        <time>2018-02-19T11:20:52Z</time>
      </trkpt>
      <trkpt lat="45.97532" lon="4.78559">
        <ele>234</ele>
        <time>2018-02-19T11:20:53Z</time>
      </trkpt>
      <trkpt lat="45.97526" lon="4.78555">
        <ele>234</ele>
        <time>2018-02-19T11:20:54Z</time>
      </trkpt>
      <trkpt lat="45.9752" lon="4.78553">
        <ele>234</ele>
        <time>2018-02-19T11:20:55Z</time>
      </trkpt>
      <trkpt lat="45.97512" lon="4.7855">
        <ele>234</ele>
        <time>2018-02-19T11:20:56Z</time>
      </trkpt>
      <trkpt lat="45.97507" lon="4.78547">
        <ele>234</ele>
        <time>2018-02-19T11:20:57Z</time>
      </trkpt>
      <trkpt lat="45.97501" lon="4.78543">
        <ele>234</ele>
        <time>2018-02-19T11:20:58Z</time>
      </trkpt>
      <trkpt lat="45.97496" lon="4.78539">
        <ele>233</ele>
        <time>2018-02-19T11:20:59Z</time>
      </trkpt>
      <trkpt lat="45.97491" lon="4.78534">
        <ele>233</ele>
        <time>2018-02-19T11:21:00Z</time>
      </trkpt>
      <trkpt lat="45.97486" lon="4.7853">
        <ele>233</ele>
        <time>2018-02-19T11:21:01Z</time>
      </trkpt>
      <trkpt lat="45.97481" lon="4.78525">
        <ele>233</ele>
        <time>2018-02-19T11:21:02Z</time>
      </trkpt>
      <trkpt lat="45.97475" lon="4.78521">
        <ele>233</ele>
        <time>2018-02-19T11:21:03Z</time>
      </trkpt>
      <trkpt lat="45.9747" lon="4.78517">
        <ele>233</ele>
        <time>2018-02-19T11:21:04Z</time>
      </trkpt>
      <trkpt lat="45.97466" lon="4.78513">
        <ele>233</ele>
        <time>2018-02-19T11:21:05Z</time>
      </trkpt>
      <trkpt lat="45.9746" lon="4.78509">
        <ele>234</ele>
        <time>2018-02-19T11:21:06Z</time>
      </trkpt>
      <trkpt lat="45.97456" lon="4.78505">
        <ele>234</ele>
        <time>2018-02-19T11:21:07Z</time>
      </trkpt>
      <trkpt lat="45.97451" lon="4.78501">
        <ele>234</ele>
        <time>2018-02-19T11:21:08Z</time>
      </trkpt>
      <trkpt lat="45.97446" lon="4.78497">
        <ele>234</ele>
        <time>2018-02-19T11:21:09Z</time>
      </trkpt>
      <trkpt lat="45.97442" lon="4.78493">
        <ele>234</ele>
        <time>2018-02-19T11:21:10Z</time>
      </trkpt>
      <trkpt lat="45.97436" lon="4.78489">
        <ele>234</ele>
        <time>2018-02-19T11:21:11Z</time>
      </trkpt>
      <trkpt lat="45.97431" lon="4.78483">
        <ele>234</ele>
        <time>2018-02-19T11:21:12Z</time>
      </trkpt>
      <trkpt lat="45.97426" lon="4.78478">
        <ele>234</ele>
        <time>2018-02-19T11:21:13Z</time>
      </trkpt>
      <trkpt lat="45.9742" lon="4.78473">
        <ele>234</ele>
        <time>2018-02-19T11:21:14Z</time>
      </trkpt>
      <trkpt lat="45.97414" lon="4.78467">
        <ele>233</ele>
        <time>2018-02-19T11:21:15Z</time>
      </trkpt>
      <trkpt lat="45.97409" lon="4.78462">
        <ele>233</ele>
        <time>2018-02-19T11:21:16Z</time>
      </trkpt>
      <trkpt lat="45.97403" lon="4.78457">
        <ele>233</ele>
        <time>2018-02-19T11:21:17Z</time>
      </trkpt>
      <trkpt lat="45.97397" lon="4.78452">
        <ele>233</ele>
        <time>2018-02-19T11:21:18Z</time>
      </trkpt>
      <trkpt lat="45.97391" lon="4.78447">
        <ele>233</ele>
        <time>2018-02-19T11:21:19Z</time>
      </trkpt>
      <trkpt lat="45.97387" lon="4.78441">
        <ele>233</ele>
        <time>2018-02-19T11:21:20Z</time>
      </trkpt>
      <trkpt lat="45.97382" lon="4.78436">
        <ele>233</ele>
        <time>2018-02-19T11:21:21Z</time>
      </trkpt>
      <trkpt lat="45.97377" lon="4.78431">
        <ele>233</ele>
        <time>2018-02-19T11:21:22Z</time>
      </trkpt>
      <trkpt lat="45.97373" lon="4.78425">
        <ele>233</ele>
        <time>2018-02-19T11:21:23Z</time>
      </trkpt>
      <trkpt lat="45.97368" lon="4.7842">
        <ele>233</ele>
        <time>2018-02-19T11:21:24Z</time>
      </trkpt>
      <trkpt lat="45.97363" lon="4.78414">
        <ele>233</ele>
        <time>2018-02-19T11:21:25Z</time>
      </trkpt>
      <trkpt lat="45.97358" lon="4.78409">
        <ele>233</ele>
        <time>2018-02-19T11:21:26Z</time>
      </trkpt>
      <trkpt lat="45.97352" lon="4.78403">
        <ele>232</ele>
        <time>2018-02-19T11:21:27Z</time>
      </trkpt>
      <trkpt lat="45.97348" lon="4.78398">
        <ele>232</ele>
        <time>2018-02-19T11:21:28Z</time>
      </trkpt>
      <trkpt lat="45.97343" lon="4.78393">
        <ele>233</ele>
        <time>2018-02-19T11:21:29Z</time>
      </trkpt>
      <trkpt lat="45.97337" lon="4.78387">
        <ele>233</ele>
        <time>2018-02-19T11:21:30Z</time>
      </trkpt>
      <trkpt lat="45.97332" lon="4.7838">
        <ele>232</ele>
        <time>2018-02-19T11:21:31Z</time>
      </trkpt>
      <trkpt lat="45.97327" lon="4.78375">
        <ele>232</ele>
        <time>2018-02-19T11:21:32Z</time>
      </trkpt>
      <trkpt lat="45.97321" lon="4.78369">
        <ele>232</ele>
        <time>2018-02-19T11:21:33Z</time>
      </trkpt>
      <trkpt lat="45.97316" lon="4.78364">
        <ele>232</ele>
        <time>2018-02-19T11:21:34Z</time>
      </trkpt>
      <trkpt lat="45.97312" lon="4.78357">
        <ele>232</ele>
        <time>2018-02-19T11:21:35Z</time>
      </trkpt>
      <trkpt lat="45.97306" lon="4.7835">
        <ele>232</ele>
        <time>2018-02-19T11:21:36Z</time>
      </trkpt>
      <trkpt lat="45.97301" lon="4.78344">
        <ele>232</ele>
        <time>2018-02-19T11:21:37Z</time>
      </trkpt>
      <trkpt lat="45.97296" lon="4.78338">
        <ele>232</ele>
        <time>2018-02-19T11:21:38Z</time>
      </trkpt>
      <trkpt lat="45.97291" lon="4.78331">
        <ele>232</ele>
        <time>2018-02-19T11:21:39Z</time>
      </trkpt>
      <trkpt lat="45.97287" lon="4.78325">
        <ele>232</ele>
        <time>2018-02-19T11:21:40Z</time>
      </trkpt>
      <trkpt lat="45.97282" lon="4.78318">
        <ele>232</ele>
        <time>2018-02-19T11:21:41Z</time>
      </trkpt>
      <trkpt lat="45.97278" lon="4.78311">
        <ele>232</ele>
        <time>2018-02-19T11:21:42Z</time>
      </trkpt>
      <trkpt lat="45.97274" lon="4.78304">
        <ele>232</ele>
        <time>2018-02-19T11:21:43Z</time>
      </trkpt>
      <trkpt lat="45.97269" lon="4.78297">
        <ele>232</ele>
        <time>2018-02-19T11:21:44Z</time>
      </trkpt>
      <trkpt lat="45.97263" lon="4.7829">
        <ele>232</ele>
        <time>2018-02-19T11:21:45Z</time>
      </trkpt>
      <trkpt lat="45.97259" lon="4.78283">
        <ele>232</ele>
        <time>2018-02-19T11:21:46Z</time>
      </trkpt>
      <trkpt lat="45.97254" lon="4.78276">
        <ele>232</ele>
        <time>2018-02-19T11:21:47Z</time>
      </trkpt>
      <trkpt lat="45.97249" lon="4.78269">
        <ele>231</ele>
        <time>2018-02-19T11:21:48Z</time>
      </trkpt>
      <trkpt lat="45.97246" lon="4.78262">
        <ele>231</ele>
        <time>2018-02-19T11:21:49Z</time>
      </trkpt>
      <trkpt lat="45.97241" lon="4.78255">
        <ele>231</ele>
        <time>2018-02-19T11:21:50Z</time>
      </trkpt>
      <trkpt lat="45.97237" lon="4.78248">
        <ele>231</ele>
        <time>2018-02-19T11:21:51Z</time>
      </trkpt>
      <trkpt lat="45.97233" lon="4.78242">
        <ele>231</ele>
        <time>2018-02-19T11:21:52Z</time>
      </trkpt>
      <trkpt lat="45.97229" lon="4.78234">
        <ele>231</ele>
        <time>2018-02-19T11:21:53Z</time>
      </trkpt>
      <trkpt lat="45.97225" lon="4.78227">
        <ele>231</ele>
        <time>2018-02-19T11:21:54Z</time>
      </trkpt>
      <trkpt lat="45.97221" lon="4.78221">
        <ele>231</ele>
        <time>2018-02-19T11:21:55Z</time>
      </trkpt>
      <trkpt lat="45.97217" lon="4.78213">
        <ele>231</ele>
        <time>2018-02-19T11:21:56Z</time>
      </trkpt>
      <trkpt lat="45.97213" lon="4.78206">
        <ele>231</ele>
        <time>2018-02-19T11:21:57Z</time>
      </trkpt>
      <trkpt lat="45.97208" lon="4.78199">
        <ele>231</ele>
        <time>2018-02-19T11:21:58Z</time>
      </trkpt>
      <trkpt lat="45.97204" lon="4.78191">
        <ele>231</ele>
        <time>2018-02-19T11:21:59Z</time>
      </trkpt>
      <trkpt lat="45.97201" lon="4.78183">
        <ele>231</ele>
        <time>2018-02-19T11:22:00Z</time>
      </trkpt>
      <trkpt lat="45.97198" lon="4.78176">
        <ele>231</ele>
        <time>2018-02-19T11:22:01Z</time>
      </trkpt>
      <trkpt lat="45.97193" lon="4.78169">
        <ele>231</ele>
        <time>2018-02-19T11:22:02Z</time>
      </trkpt>
      <trkpt lat="45.9719" lon="4.78162">
        <ele>231</ele>
        <time>2018-02-19T11:22:03Z</time>
      </trkpt>
      <trkpt lat="45.97186" lon="4.78155">
        <ele>231</ele>
        <time>2018-02-19T11:22:04Z</time>
      </trkpt>
      <trkpt lat="45.97183" lon="4.78149">
        <ele>231</ele>
        <time>2018-02-19T11:22:05Z</time>
      </trkpt>
      <trkpt lat="45.97179" lon="4.78142">
        <ele>231</ele>
        <time>2018-02-19T11:22:06Z</time>
      </trkpt>
      <trkpt lat="45.97175" lon="4.78136">
        <ele>231</ele>
        <time>2018-02-19T11:22:07Z</time>
      </trkpt>
      <trkpt lat="45.97171" lon="4.78129">
        <ele>231</ele>
        <time>2018-02-19T11:22:08Z</time>
      </trkpt>
      <trkpt lat="45.97167" lon="4.78123">
        <ele>231</ele>
        <time>2018-02-19T11:22:09Z</time>
      </trkpt>
      <trkpt lat="45.97163" lon="4.78116">
        <ele>230</ele>
        <time>2018-02-19T11:22:10Z</time>
      </trkpt>
      <trkpt lat="45.97159" lon="4.78109">
        <ele>230</ele>
        <time>2018-02-19T11:22:11Z</time>
      </trkpt>
      <trkpt lat="45.97155" lon="4.78102">
        <ele>230</ele>
        <time>2018-02-19T11:22:12Z</time>
      </trkpt>
      <trkpt lat="45.97151" lon="4.78094">
        <ele>230</ele>
        <time>2018-02-19T11:22:13Z</time>
      </trkpt>
      <trkpt lat="45.97148" lon="4.78087">
        <ele>230</ele>
        <time>2018-02-19T11:22:14Z</time>
      </trkpt>
      <trkpt lat="45.97144" lon="4.7808">
        <ele>230</ele>
        <time>2018-02-19T11:22:15Z</time>
      </trkpt>
      <trkpt lat="45.9714" lon="4.78074">
        <ele>230</ele>
        <time>2018-02-19T11:22:16Z</time>
      </trkpt>
      <trkpt lat="45.97136" lon="4.78067">
        <ele>230</ele>
        <time>2018-02-19T11:22:17Z</time>
      </trkpt>
      <trkpt lat="45.97131" lon="4.7806">
        <ele>230</ele>
        <time>2018-02-19T11:22:18Z</time>
      </trkpt>
      <trkpt lat="45.97126" lon="4.78054">
        <ele>230</ele>
        <time>2018-02-19T11:22:19Z</time>
      </trkpt>
      <trkpt lat="45.97122" lon="4.78049">
        <ele>229</ele>
        <time>2018-02-19T11:22:20Z</time>
      </trkpt>
      <trkpt lat="45.97117" lon="4.78044">
        <ele>229</ele>
        <time>2018-02-19T11:22:21Z</time>
      </trkpt>
      <trkpt lat="45.97111" lon="4.78039">
        <ele>229</ele>
        <time>2018-02-19T11:22:22Z</time>
      </trkpt>
      <trkpt lat="45.97107" lon="4.78035">
        <ele>229</ele>
        <time>2018-02-19T11:22:23Z</time>
      </trkpt>
      <trkpt lat="45.97102" lon="4.7803">
        <ele>229</ele>
        <time>2018-02-19T11:22:24Z</time>
      </trkpt>
      <trkpt lat="45.97097" lon="4.78025">
        <ele>229</ele>
        <time>2018-02-19T11:22:25Z</time>
      </trkpt>
      <trkpt lat="45.97092" lon="4.7802">
        <ele>229</ele>
        <time>2018-02-19T11:22:26Z</time>
      </trkpt>
      <trkpt lat="45.97087" lon="4.78016">
        <ele>229</ele>
        <time>2018-02-19T11:22:27Z</time>
      </trkpt>
      <trkpt lat="45.97081" lon="4.78011">
        <ele>229</ele>
        <time>2018-02-19T11:22:28Z</time>
      </trkpt>
      <trkpt lat="45.97075" lon="4.78006">
        <ele>229</ele>
        <time>2018-02-19T11:22:29Z</time>
      </trkpt>
      <trkpt lat="45.97069" lon="4.78001">
        <ele>229</ele>
        <time>2018-02-19T11:22:30Z</time>
      </trkpt>
      <trkpt lat="45.97063" lon="4.77996">
        <ele>229</ele>
        <time>2018-02-19T11:22:31Z</time>
      </trkpt>
      <trkpt lat="45.97058" lon="4.7799">
        <ele>229</ele>
        <time>2018-02-19T11:22:32Z</time>
      </trkpt>
      <trkpt lat="45.97052" lon="4.77983">
        <ele>229</ele>
        <time>2018-02-19T11:22:33Z</time>
      </trkpt>
      <trkpt lat="45.97047" lon="4.77977">
        <ele>229</ele>
        <time>2018-02-19T11:22:34Z</time>
      </trkpt>
      <trkpt lat="45.97042" lon="4.77971">
        <ele>229</ele>
        <time>2018-02-19T11:22:35Z</time>
      </trkpt>
      <trkpt lat="45.97037" lon="4.77966">
        <ele>229</ele>
        <time>2018-02-19T11:22:36Z</time>
      </trkpt>
      <trkpt lat="45.97032" lon="4.7796">
        <ele>228</ele>
        <time>2018-02-19T11:22:37Z</time>
      </trkpt>
      <trkpt lat="45.97027" lon="4.77954">
        <ele>228</ele>
        <time>2018-02-19T11:22:38Z</time>
      </trkpt>
      <trkpt lat="45.97023" lon="4.77948">
        <ele>228</ele>
        <time>2018-02-19T11:22:39Z</time>
      </trkpt>
      <trkpt lat="45.97018" lon="4.77943">
        <ele>228</ele>
        <time>2018-02-19T11:22:40Z</time>
      </trkpt>
      <trkpt lat="45.97013" lon="4.77938">
        <ele>228</ele>
        <time>2018-02-19T11:22:41Z</time>
      </trkpt>
      <trkpt lat="45.97008" lon="4.77931">
        <ele>228</ele>
        <time>2018-02-19T11:22:42Z</time>
      </trkpt>
      <trkpt lat="45.97004" lon="4.77926">
        <ele>228</ele>
        <time>2018-02-19T11:22:43Z</time>
      </trkpt>
      <trkpt lat="45.96999" lon="4.7792">
        <ele>227</ele>
        <time>2018-02-19T11:22:44Z</time>
      </trkpt>
      <trkpt lat="45.96995" lon="4.77912">
        <ele>227</ele>
        <time>2018-02-19T11:22:45Z</time>
      </trkpt>
      <trkpt lat="45.9699" lon="4.77907">
        <ele>227</ele>
        <time>2018-02-19T11:22:46Z</time>
      </trkpt>
      <trkpt lat="45.96986" lon="4.77902">
        <ele>227</ele>
        <time>2018-02-19T11:22:47Z</time>
      </trkpt>
      <trkpt lat="45.96981" lon="4.77897">
        <ele>228</ele>
        <time>2018-02-19T11:22:48Z</time>
      </trkpt>
      <trkpt lat="45.96977" lon="4.77891">
        <ele>228</ele>
        <time>2018-02-19T11:22:49Z</time>
      </trkpt>
      <trkpt lat="45.96972" lon="4.77886">
        <ele>228</ele>
        <time>2018-02-19T11:22:50Z</time>
      </trkpt>
      <trkpt lat="45.96967" lon="4.7788">
        <ele>228</ele>
        <time>2018-02-19T11:22:51Z</time>
      </trkpt>
      <trkpt lat="45.96963" lon="4.77875">
        <ele>228</ele>
        <time>2018-02-19T11:22:52Z</time>
      </trkpt>
      <trkpt lat="45.96958" lon="4.77869">
        <ele>228</ele>
        <time>2018-02-19T11:22:53Z</time>
      </trkpt>
      <trkpt lat="45.96953" lon="4.77864">
        <ele>228</ele>
        <time>2018-02-19T11:22:54Z</time>
      </trkpt>
      <trkpt lat="45.96948" lon="4.77859">
        <ele>228</ele>
        <time>2018-02-19T11:22:55Z</time>
      </trkpt>
      <trkpt lat="45.96943" lon="4.77853">
        <ele>228</ele>
        <time>2018-02-19T11:22:56Z</time>
      </trkpt>
      <trkpt lat="45.96938" lon="4.77847">
        <ele>228</ele>
        <time>2018-02-19T11:22:57Z</time>
      </trkpt>
      <trkpt lat="45.96932" lon="4.77841">
        <ele>228</ele>
        <time>2018-02-19T11:22:58Z</time>
      </trkpt>
      <trkpt lat="45.96927" lon="4.77835">
        <ele>228</ele>
        <time>2018-02-19T11:22:59Z</time>
      </trkpt>
      <trkpt lat="45.96922" lon="4.77829">
        <ele>228</ele>
        <time>2018-02-19T11:23:00Z</time>
      </trkpt>
      <trkpt lat="45.96916" lon="4.77824">
        <ele>228</ele>
        <time>2018-02-19T11:23:01Z</time>
      </trkpt>
      <trkpt lat="45.9691" lon="4.77818">
        <ele>228</ele>
        <time>2018-02-19T11:23:02Z</time>
      </trkpt>
      <trkpt lat="45.96904" lon="4.77812">
        <ele>228</ele>
        <time>2018-02-19T11:23:03Z</time>
      </trkpt>
      <trkpt lat="45.96898" lon="4.77806">
        <ele>228</ele>
        <time>2018-02-19T11:23:04Z</time>
      </trkpt>
      <trkpt lat="45.96893" lon="4.778">
        <ele>228</ele>
        <time>2018-02-19T11:23:05Z</time>
      </trkpt>
      <trkpt lat="45.96887" lon="4.77794">
        <ele>228</ele>
        <time>2018-02-19T11:23:06Z</time>
      </trkpt>
      <trkpt lat="45.96882" lon="4.77789">
        <ele>228</ele>
        <time>2018-02-19T11:23:07Z</time>
      </trkpt>
      <trkpt lat="45.96876" lon="4.77784">
        <ele>228</ele>
        <time>2018-02-19T11:23:08Z</time>
      </trkpt>
      <trkpt lat="45.96871" lon="4.77778">
        <ele>228</ele>
        <time>2018-02-19T11:23:09Z</time>
      </trkpt>
      <trkpt lat="45.96866" lon="4.77773">
        <ele>228</ele>
        <time>2018-02-19T11:23:10Z</time>
      </trkpt>
      <trkpt lat="45.9686" lon="4.77767">
        <ele>228</ele>
        <time>2018-02-19T11:23:11Z</time>
      </trkpt>
      <trkpt lat="45.96855" lon="4.77761">
        <ele>228</ele>
        <time>2018-02-19T11:23:12Z</time>
      </trkpt>
      <trkpt lat="45.96849" lon="4.77755">
        <ele>228</ele>
        <time>2018-02-19T11:23:13Z</time>
      </trkpt>
      <trkpt lat="45.96843" lon="4.77749">
        <ele>228</ele>
        <time>2018-02-19T11:23:14Z</time>
      </trkpt>
      <trkpt lat="45.96837" lon="4.77743">
        <ele>228</ele>
        <time>2018-02-19T11:23:15Z</time>
      </trkpt>
      <trkpt lat="45.96832" lon="4.77739">
        <ele>228</ele>
        <time>2018-02-19T11:23:16Z</time>
      </trkpt>
      <trkpt lat="45.96826" lon="4.77733">
        <ele>228</ele>
        <time>2018-02-19T11:23:17Z</time>
      </trkpt>
      <trkpt lat="45.96821" lon="4.77727">
        <ele>228</ele>
        <time>2018-02-19T11:23:18Z</time>
      </trkpt>
      <trkpt lat="45.96816" lon="4.77722">
        <ele>228</ele>
        <time>2018-02-19T11:23:19Z</time>
      </trkpt>
      <trkpt lat="45.96811" lon="4.77716">
        <ele>228</ele>
        <time>2018-02-19T11:23:20Z</time>
      </trkpt>
      <trkpt lat="45.96805" lon="4.77711">
        <ele>228</ele>
        <time>2018-02-19T11:23:21Z</time>
      </trkpt>
      <trkpt lat="45.968" lon="4.77706">
        <ele>228</ele>
        <time>2018-02-19T11:23:22Z</time>
      </trkpt>
      <trkpt lat="45.96795" lon="4.777">
        <ele>228</ele>
        <time>2018-02-19T11:23:23Z</time>
      </trkpt>
      <trkpt lat="45.9679" lon="4.77694">
        <ele>227</ele>
        <time>2018-02-19T11:23:24Z</time>
      </trkpt>
      <trkpt lat="45.96785" lon="4.77688">
        <ele>227</ele>
        <time>2018-02-19T11:23:25Z</time>
      </trkpt>
      <trkpt lat="45.9678" lon="4.77682">
        <ele>227</ele>
        <time>2018-02-19T11:23:26Z</time>
      </trkpt>
      <trkpt lat="45.96775" lon="4.77677">
        <ele>227</ele>
        <time>2018-02-19T11:23:27Z</time>
      </trkpt>
      <trkpt lat="45.9677" lon="4.7767">
        <ele>227</ele>
        <time>2018-02-19T11:23:28Z</time>
      </trkpt>
      <trkpt lat="45.96765" lon="4.77663">
        <ele>227</ele>
        <time>2018-02-19T11:23:29Z</time>
      </trkpt>
      <trkpt lat="45.9676" lon="4.77657">
        <ele>227</ele>
        <time>2018-02-19T11:23:30Z</time>
      </trkpt>
      <trkpt lat="45.96756" lon="4.7765">
        <ele>227</ele>
        <time>2018-02-19T11:23:31Z</time>
      </trkpt>
      <trkpt lat="45.96751" lon="4.77644">
        <ele>228</ele>
        <time>2018-02-19T11:23:32Z</time>
      </trkpt>
      <trkpt lat="45.96747" lon="4.77637">
        <ele>227</ele>
        <time>2018-02-19T11:23:33Z</time>
      </trkpt>
      <trkpt lat="45.96742" lon="4.77631">
        <ele>227</ele>
        <time>2018-02-19T11:23:34Z</time>
      </trkpt>
      <trkpt lat="45.96737" lon="4.77626">
        <ele>226</ele>
        <time>2018-02-19T11:23:35Z</time>
      </trkpt>
      <trkpt lat="45.96732" lon="4.7762">
        <ele>226</ele>
        <time>2018-02-19T11:23:36Z</time>
      </trkpt>
      <trkpt lat="45.96728" lon="4.77615">
        <ele>226</ele>
        <time>2018-02-19T11:23:37Z</time>
      </trkpt>
      <trkpt lat="45.96724" lon="4.7761">
        <ele>226</ele>
        <time>2018-02-19T11:23:38Z</time>
      </trkpt>
      <trkpt lat="45.96718" lon="4.77604">
        <ele>226</ele>
        <time>2018-02-19T11:23:39Z</time>
      </trkpt>
      <trkpt lat="45.96714" lon="4.77598">
        <ele>226</ele>
        <time>2018-02-19T11:23:40Z</time>
      </trkpt>
      <trkpt lat="45.9671" lon="4.77592">
        <ele>226</ele>
        <time>2018-02-19T11:23:41Z</time>
      </trkpt>
      <trkpt lat="45.96704" lon="4.77587">
        <ele>226</ele>
        <time>2018-02-19T11:23:42Z</time>
      </trkpt>
      <trkpt lat="45.96699" lon="4.77582">
        <ele>226</ele>
        <time>2018-02-19T11:23:43Z</time>
      </trkpt>
      <trkpt lat="45.96693" lon="4.77577">
        <ele>225</ele>
        <time>2018-02-19T11:23:44Z</time>
      </trkpt>
      <trkpt lat="45.96687" lon="4.77573">
        <ele>225</ele>
        <time>2018-02-19T11:23:45Z</time>
      </trkpt>
      <trkpt lat="45.96683" lon="4.77568">
        <ele>225</ele>
        <time>2018-02-19T11:23:46Z</time>
      </trkpt>
      <trkpt lat="45.96678" lon="4.77564">
        <ele>225</ele>
        <time>2018-02-19T11:23:47Z</time>
      </trkpt>
      <trkpt lat="45.96673" lon="4.77561">
        <ele>225</ele>
        <time>2018-02-19T11:23:48Z</time>
      </trkpt>
      <trkpt lat="45.96667" lon="4.77556">
        <ele>225</ele>
        <time>2018-02-19T11:23:49Z</time>
      </trkpt>
      <trkpt lat="45.96662" lon="4.77552">
        <ele>224</ele>
        <time>2018-02-19T11:23:50Z</time>
      </trkpt>
      <trkpt lat="45.96656" lon="4.77549">
        <ele>224</ele>
        <time>2018-02-19T11:23:51Z</time>
      </trkpt>
      <trkpt lat="45.96651" lon="4.77546">
        <ele>224</ele>
        <time>2018-02-19T11:23:52Z</time>
      </trkpt>
      <trkpt lat="45.96646" lon="4.77542">
        <ele>224</ele>
        <time>2018-02-19T11:23:53Z</time>
      </trkpt>
      <trkpt lat="45.96641" lon="4.77538">
        <ele>224</ele>
        <time>2018-02-19T11:23:54Z</time>
      </trkpt>
      <trkpt lat="45.96636" lon="4.77535">
        <ele>224</ele>
        <time>2018-02-19T11:23:55Z</time>
      </trkpt>
      <trkpt lat="45.9663" lon="4.77532">
        <ele>224</ele>
        <time>2018-02-19T11:23:56Z</time>
      </trkpt>
      <trkpt lat="45.96625" lon="4.77529">
        <ele>224</ele>
        <time>2018-02-19T11:23:57Z</time>
      </trkpt>
      <trkpt lat="45.96619" lon="4.77526">
        <ele>224</ele>
        <time>2018-02-19T11:23:58Z</time>
      </trkpt>
      <trkpt lat="45.96614" lon="4.77522">
        <ele>224</ele>
        <time>2018-02-19T11:23:59Z</time>
      </trkpt>
      <trkpt lat="45.96607" lon="4.77519">
        <ele>224</ele>
        <time>2018-02-19T11:24:00Z</time>
      </trkpt>
      <trkpt lat="45.966" lon="4.77515">
        <ele>224</ele>
        <time>2018-02-19T11:24:01Z</time>
      </trkpt>
      <trkpt lat="45.96595" lon="4.77511">
        <ele>224</ele>
        <time>2018-02-19T11:24:02Z</time>
      </trkpt>
      <trkpt lat="45.96589" lon="4.77508">
        <ele>224</ele>
        <time>2018-02-19T11:24:03Z</time>
      </trkpt>
      <trkpt lat="45.96583" lon="4.77504">
        <ele>224</ele>
        <time>2018-02-19T11:24:04Z</time>
      </trkpt>
      <trkpt lat="45.96576" lon="4.77499">
        <ele>224</ele>
        <time>2018-02-19T11:24:05Z</time>
      </trkpt>
      <trkpt lat="45.9657" lon="4.77496">
        <ele>224</ele>
        <time>2018-02-19T11:24:06Z</time>
      </trkpt>
      <trkpt lat="45.96564" lon="4.77492">
        <ele>224</ele>
        <time>2018-02-19T11:24:07Z</time>
      </trkpt>
      <trkpt lat="45.96557" lon="4.77488">
        <ele>224</ele>
        <time>2018-02-19T11:24:08Z</time>
      </trkpt>
      <trkpt lat="45.96551" lon="4.77484">
        <ele>223</ele>
        <time>2018-02-19T11:24:09Z</time>
      </trkpt>
      <trkpt lat="45.96545" lon="4.7748">
        <ele>223</ele>
        <time>2018-02-19T11:24:10Z</time>
      </trkpt>
      <trkpt lat="45.96539" lon="4.77476">
        <ele>223</ele>
        <time>2018-02-19T11:24:11Z</time>
      </trkpt>
      <trkpt lat="45.96532" lon="4.77472">
        <ele>223</ele>
        <time>2018-02-19T11:24:12Z</time>
      </trkpt>
      <trkpt lat="45.96526" lon="4.77468">
        <ele>223</ele>
        <time>2018-02-19T11:24:13Z</time>
      </trkpt>
      <trkpt lat="45.96519" lon="4.77463">
        <ele>223</ele>
        <time>2018-02-19T11:24:14Z</time>
      </trkpt>
      <trkpt lat="45.96513" lon="4.77459">
        <ele>223</ele>
        <time>2018-02-19T11:24:15Z</time>
      </trkpt>
      <trkpt lat="45.96506" lon="4.77454">
        <ele>223</ele>
        <time>2018-02-19T11:24:16Z</time>
      </trkpt>
      <trkpt lat="45.965" lon="4.77449">
        <ele>221</ele>
        <time>2018-02-19T11:24:17Z</time>
      </trkpt>
      <trkpt lat="45.96493" lon="4.77445">
        <ele>221</ele>
        <time>2018-02-19T11:24:18Z</time>
      </trkpt>
      <trkpt lat="45.96487" lon="4.77441">
        <ele>222</ele>
        <time>2018-02-19T11:24:19Z</time>
      </trkpt>
      <trkpt lat="45.9648" lon="4.77437">
        <ele>221</ele>
        <time>2018-02-19T11:24:20Z</time>
      </trkpt>
      <trkpt lat="45.96474" lon="4.77432">
        <ele>221</ele>
        <time>2018-02-19T11:24:21Z</time>
      </trkpt>
      <trkpt lat="45.96467" lon="4.77428">
        <ele>221</ele>
        <time>2018-02-19T11:24:22Z</time>
      </trkpt>
      <trkpt lat="45.96461" lon="4.77424">
        <ele>221</ele>
        <time>2018-02-19T11:24:23Z</time>
      </trkpt>
      <trkpt lat="45.96455" lon="4.77419">
        <ele>221</ele>
        <time>2018-02-19T11:24:24Z</time>
      </trkpt>
      <trkpt lat="45.96448" lon="4.77415">
        <ele>222</ele>
        <time>2018-02-19T11:24:25Z</time>
      </trkpt>
      <trkpt lat="45.96441" lon="4.7741">
        <ele>222</ele>
        <time>2018-02-19T11:24:26Z</time>
      </trkpt>
      <trkpt lat="45.96434" lon="4.77406">
        <ele>222</ele>
        <time>2018-02-19T11:24:27Z</time>
      </trkpt>
      <trkpt lat="45.96427" lon="4.77403">
        <ele>222</ele>
        <time>2018-02-19T11:24:28Z</time>
      </trkpt>
      <trkpt lat="45.9642" lon="4.77398">
        <ele>222</ele>
        <time>2018-02-19T11:24:29Z</time>
      </trkpt>
      <trkpt lat="45.96413" lon="4.77395">
        <ele>220</ele>
        <time>2018-02-19T11:24:30Z</time>
      </trkpt>
      <trkpt lat="45.96406" lon="4.77391">
        <ele>220</ele>
        <time>2018-02-19T11:24:31Z</time>
      </trkpt>
      <trkpt lat="45.96398" lon="4.77387">
        <ele>220</ele>
        <time>2018-02-19T11:24:32Z</time>
      </trkpt>
      <trkpt lat="45.96391" lon="4.77383">
        <ele>220</ele>
        <time>2018-02-19T11:24:33Z</time>
      </trkpt>
      <trkpt lat="45.96384" lon="4.77379">
        <ele>220</ele>
        <time>2018-02-19T11:24:34Z</time>
      </trkpt>
      <trkpt lat="45.96377" lon="4.77375">
        <ele>220</ele>
        <time>2018-02-19T11:24:35Z</time>
      </trkpt>
      <trkpt lat="45.9637" lon="4.77371">
        <ele>219</ele>
        <time>2018-02-19T11:24:36Z</time>
      </trkpt>
      <trkpt lat="45.96364" lon="4.77367">
        <ele>219</ele>
        <time>2018-02-19T11:24:37Z</time>
      </trkpt>
      <trkpt lat="45.96356" lon="4.77363">
        <ele>219</ele>
        <time>2018-02-19T11:24:38Z</time>
      </trkpt>
      <trkpt lat="45.96349" lon="4.7736">
        <ele>219</ele>
        <time>2018-02-19T11:24:39Z</time>
      </trkpt>
      <trkpt lat="45.96342" lon="4.77356">
        <ele>219</ele>
        <time>2018-02-19T11:24:40Z</time>
      </trkpt>
      <trkpt lat="45.96336" lon="4.77352">
        <ele>220</ele>
        <time>2018-02-19T11:24:41Z</time>
      </trkpt>
      <trkpt lat="45.96329" lon="4.77349">
        <ele>218</ele>
        <time>2018-02-19T11:24:42Z</time>
      </trkpt>
      <trkpt lat="45.96323" lon="4.77344">
        <ele>218</ele>
        <time>2018-02-19T11:24:43Z</time>
      </trkpt>
      <trkpt lat="45.96317" lon="4.7734">
        <ele>218</ele>
        <time>2018-02-19T11:24:44Z</time>
      </trkpt>
      <trkpt lat="45.9631" lon="4.77337">
        <ele>217</ele>
        <time>2018-02-19T11:24:45Z</time>
      </trkpt>
      <trkpt lat="45.96303" lon="4.77333">
        <ele>219</ele>
        <time>2018-02-19T11:24:46Z</time>
      </trkpt>
      <trkpt lat="45.96298" lon="4.7733">
        <ele>219</ele>
        <time>2018-02-19T11:24:47Z</time>
      </trkpt>
      <trkpt lat="45.96292" lon="4.77326">
        <ele>219</ele>
        <time>2018-02-19T11:24:48Z</time>
      </trkpt>
      <trkpt lat="45.96286" lon="4.77323">
        <ele>219</ele>
        <time>2018-02-19T11:24:49Z</time>
      </trkpt>
      <trkpt lat="45.96279" lon="4.77319">
        <ele>219</ele>
        <time>2018-02-19T11:24:50Z</time>
      </trkpt>
      <trkpt lat="45.96272" lon="4.77316">
        <ele>218</ele>
        <time>2018-02-19T11:24:51Z</time>
      </trkpt>
      <trkpt lat="45.96265" lon="4.77312">
        <ele>218</ele>
        <time>2018-02-19T11:24:52Z</time>
      </trkpt>
      <trkpt lat="45.96258" lon="4.77308">
        <ele>218</ele>
        <time>2018-02-19T11:24:53Z</time>
      </trkpt>
      <trkpt lat="45.96251" lon="4.77304">
        <ele>219</ele>
        <time>2018-02-19T11:24:54Z</time>
      </trkpt>
      <trkpt lat="45.96244" lon="4.773">
        <ele>217</ele>
        <time>2018-02-19T11:24:55Z</time>
      </trkpt>
      <trkpt lat="45.96236" lon="4.77296">
        <ele>217</ele>
        <time>2018-02-19T11:24:56Z</time>
      </trkpt>
      <trkpt lat="45.96229" lon="4.77291">
        <ele>217</ele>
        <time>2018-02-19T11:24:57Z</time>
      </trkpt>
      <trkpt lat="45.96222" lon="4.77287">
        <ele>217</ele>
        <time>2018-02-19T11:24:58Z</time>
      </trkpt>
      <trkpt lat="45.96216" lon="4.77283">
        <ele>217</ele>
        <time>2018-02-19T11:24:59Z</time>
      </trkpt>
      <trkpt lat="45.96208" lon="4.77279">
        <ele>217</ele>
        <time>2018-02-19T11:25:00Z</time>
      </trkpt>
      <trkpt lat="45.96201" lon="4.77275">
        <ele>216</ele>
        <time>2018-02-19T11:25:01Z</time>
      </trkpt>
      <trkpt lat="45.96194" lon="4.77271">
        <ele>216</ele>
        <time>2018-02-19T11:25:02Z</time>
      </trkpt>
      <trkpt lat="45.96188" lon="4.77267">
        <ele>216</ele>
        <time>2018-02-19T11:25:03Z</time>
      </trkpt>
      <trkpt lat="45.96181" lon="4.77263">
        <ele>216</ele>
        <time>2018-02-19T11:25:04Z</time>
      </trkpt>
      <trkpt lat="45.96175" lon="4.7726">
        <ele>216</ele>
        <time>2018-02-19T11:25:05Z</time>
      </trkpt>
      <trkpt lat="45.96168" lon="4.77257">
        <ele>216</ele>
        <time>2018-02-19T11:25:06Z</time>
      </trkpt>
      <trkpt lat="45.96161" lon="4.77253">
        <ele>215</ele>
        <time>2018-02-19T11:25:07Z</time>
      </trkpt>
      <trkpt lat="45.96155" lon="4.7725">
        <ele>216</ele>
        <time>2018-02-19T11:25:08Z</time>
      </trkpt>
      <trkpt lat="45.96149" lon="4.77246">
        <ele>215</ele>
        <time>2018-02-19T11:25:09Z</time>
      </trkpt>
      <trkpt lat="45.96142" lon="4.77244">
        <ele>215</ele>
        <time>2018-02-19T11:25:10Z</time>
      </trkpt>
      <trkpt lat="45.96135" lon="4.77242">
        <ele>215</ele>
        <time>2018-02-19T11:25:11Z</time>
      </trkpt>
      <trkpt lat="45.96129" lon="4.7724">
        <ele>215</ele>
        <time>2018-02-19T11:25:12Z</time>
      </trkpt>
      <trkpt lat="45.96122" lon="4.7724">
        <ele>214</ele>
        <time>2018-02-19T11:25:13Z</time>
      </trkpt>
      <trkpt lat="45.96115" lon="4.7724">
        <ele>214</ele>
        <time>2018-02-19T11:25:14Z</time>
      </trkpt>
      <trkpt lat="45.96108" lon="4.7724">
        <ele>213</ele>
        <time>2018-02-19T11:25:15Z</time>
      </trkpt>
      <trkpt lat="45.961" lon="4.7724">
        <ele>213</ele>
        <time>2018-02-19T11:25:16Z</time>
      </trkpt>
      <trkpt lat="45.96093" lon="4.7724">
        <ele>212</ele>
        <time>2018-02-19T11:25:17Z</time>
      </trkpt>
      <trkpt lat="45.96087" lon="4.7724">
        <ele>212</ele>
        <time>2018-02-19T11:25:18Z</time>
      </trkpt>
      <trkpt lat="45.96079" lon="4.7724">
        <ele>210</ele>
        <time>2018-02-19T11:25:19Z</time>
      </trkpt>
      <trkpt lat="45.96072" lon="4.77241">
        <ele>210</ele>
        <time>2018-02-19T11:25:20Z</time>
      </trkpt>
      <trkpt lat="45.96065" lon="4.77242">
        <ele>209</ele>
        <time>2018-02-19T11:25:21Z</time>
      </trkpt>
      <trkpt lat="45.96056" lon="4.77243">
        <ele>209</ele>
        <time>2018-02-19T11:25:22Z</time>
      </trkpt>
      <trkpt lat="45.96048" lon="4.77243">
        <ele>209</ele>
        <time>2018-02-19T11:25:23Z</time>
      </trkpt>
      <trkpt lat="45.96041" lon="4.77244">
        <ele>208</ele>
        <time>2018-02-19T11:25:24Z</time>
      </trkpt>
      <trkpt lat="45.96033" lon="4.77244">
        <ele>208</ele>
        <time>2018-02-19T11:25:25Z</time>
      </trkpt>
      <trkpt lat="45.96025" lon="4.77245">
        <ele>207</ele>
        <time>2018-02-19T11:25:26Z</time>
      </trkpt>
      <trkpt lat="45.96017" lon="4.77245">
        <ele>206</ele>
        <time>2018-02-19T11:25:27Z</time>
      </trkpt>
      <trkpt lat="45.96008" lon="4.77244">
        <ele>205</ele>
        <time>2018-02-19T11:25:28Z</time>
      </trkpt>
      <trkpt lat="45.96" lon="4.77242">
        <ele>203</ele>
        <time>2018-02-19T11:25:29Z</time>
      </trkpt>
      <trkpt lat="45.95992" lon="4.77239">
        <ele>202</ele>
        <time>2018-02-19T11:25:30Z</time>
      </trkpt>
      <trkpt lat="45.95984" lon="4.77235">
        <ele>202</ele>
        <time>2018-02-19T11:25:31Z</time>
      </trkpt>
      <trkpt lat="45.95977" lon="4.7723">
        <ele>202</ele>
        <time>2018-02-19T11:25:32Z</time>
      </trkpt>
      <trkpt lat="45.9597" lon="4.77223">
        <ele>202</ele>
        <time>2018-02-19T11:25:33Z</time>
      </trkpt>
      <trkpt lat="45.95964" lon="4.77214">
        <ele>201</ele>
        <time>2018-02-19T11:25:34Z</time>
      </trkpt>
      <trkpt lat="45.95958" lon="4.77204">
        <ele>201</ele>
        <time>2018-02-19T11:25:35Z</time>
      </trkpt>
      <trkpt lat="45.95953" lon="4.77194">
        <ele>201</ele>
        <time>2018-02-19T11:25:36Z</time>
      </trkpt>
      <trkpt lat="45.95949" lon="4.77183">
        <ele>201</ele>
        <time>2018-02-19T11:25:37Z</time>
      </trkpt>
      <trkpt lat="45.95948" lon="4.77171">
        <ele>201</ele>
        <time>2018-02-19T11:25:38Z</time>
      </trkpt>
      <trkpt lat="45.95946" lon="4.7716">
        <ele>201</ele>
        <time>2018-02-19T11:25:39Z</time>
      </trkpt>
      <trkpt lat="45.95945" lon="4.77148">
        <ele>201</ele>
        <time>2018-02-19T11:25:40Z</time>
      </trkpt>
      <trkpt lat="45.95944" lon="4.77136">
        <ele>201</ele>
        <time>2018-02-19T11:25:41Z</time>
      </trkpt>
      <trkpt lat="45.95944" lon="4.77124">
        <ele>202</ele>
        <time>2018-02-19T11:25:42Z</time>
      </trkpt>
      <trkpt lat="45.95945" lon="4.77111">
        <ele>201</ele>
        <time>2018-02-19T11:25:43Z</time>
      </trkpt>
      <trkpt lat="45.95946" lon="4.771">
        <ele>201</ele>
        <time>2018-02-19T11:25:44Z</time>
      </trkpt>
      <trkpt lat="45.95948" lon="4.77087">
        <ele>201</ele>
        <time>2018-02-19T11:25:45Z</time>
      </trkpt>
      <trkpt lat="45.9595" lon="4.77076">
        <ele>200</ele>
        <time>2018-02-19T11:25:46Z</time>
      </trkpt>
      <trkpt lat="45.95952" lon="4.77066">
        <ele>200</ele>
        <time>2018-02-19T11:25:47Z</time>
      </trkpt>
      <trkpt lat="45.95955" lon="4.77055">
        <ele>200</ele>
        <time>2018-02-19T11:25:48Z</time>
      </trkpt>
      <trkpt lat="45.95959" lon="4.77046">
        <ele>200</ele>
        <time>2018-02-19T11:25:49Z</time>
      </trkpt>
      <trkpt lat="45.95961" lon="4.77037">
        <ele>200</ele>
        <time>2018-02-19T11:25:50Z</time>
      </trkpt>
      <trkpt lat="45.95966" lon="4.77028">
        <ele>200</ele>
        <time>2018-02-19T11:25:51Z</time>
      </trkpt>
      <trkpt lat="45.9597" lon="4.77018">
        <ele>200</ele>
        <time>2018-02-19T11:25:52Z</time>
      </trkpt>
      <trkpt lat="45.95974" lon="4.77008">
        <ele>200</ele>
        <time>2018-02-19T11:25:53Z</time>
      </trkpt>
      <trkpt lat="45.95977" lon="4.76998">
        <ele>198</ele>
        <time>2018-02-19T11:25:54Z</time>
      </trkpt>
      <trkpt lat="45.9598" lon="4.76986">
        <ele>197</ele>
        <time>2018-02-19T11:25:55Z</time>
      </trkpt>
      <trkpt lat="45.95982" lon="4.76974">
        <ele>197</ele>
        <time>2018-02-19T11:25:56Z</time>
      </trkpt>
      <trkpt lat="45.95981" lon="4.76962">
        <ele>196</ele>
        <time>2018-02-19T11:25:57Z</time>
      </trkpt>
      <trkpt lat="45.95978" lon="4.7695">
        <ele>196</ele>
        <time>2018-02-19T11:25:58Z</time>
      </trkpt>
      <trkpt lat="45.95976" lon="4.7694">
        <ele>196</ele>
        <time>2018-02-19T11:25:59Z</time>
      </trkpt>
      <trkpt lat="45.9597" lon="4.76931">
        <ele>195</ele>
        <time>2018-02-19T11:26:00Z</time>
      </trkpt>
      <trkpt lat="45.95963" lon="4.76923">
        <ele>195</ele>
        <time>2018-02-19T11:26:01Z</time>
      </trkpt>
      <trkpt lat="45.95957" lon="4.76915">
        <ele>193</ele>
        <time>2018-02-19T11:26:02Z</time>
      </trkpt>
      <trkpt lat="45.9595" lon="4.76907">
        <ele>193</ele>
        <time>2018-02-19T11:26:03Z</time>
      </trkpt>
      <trkpt lat="45.95943" lon="4.76899">
        <ele>192</ele>
        <time>2018-02-19T11:26:04Z</time>
      </trkpt>
      <trkpt lat="45.95937" lon="4.76892">
        <ele>192</ele>
        <time>2018-02-19T11:26:05Z</time>
      </trkpt>
      <trkpt lat="45.9593" lon="4.76883">
        <ele>192</ele>
        <time>2018-02-19T11:26:06Z</time>
      </trkpt>
      <trkpt lat="45.95922" lon="4.76876">
        <ele>192</ele>
        <time>2018-02-19T11:26:07Z</time>
      </trkpt>
      <trkpt lat="45.95916" lon="4.76868">
        <ele>191</ele>
        <time>2018-02-19T11:26:08Z</time>
      </trkpt>
      <trkpt lat="45.95909" lon="4.76859">
        <ele>191</ele>
        <time>2018-02-19T11:26:09Z</time>
      </trkpt>
      <trkpt lat="45.95903" lon="4.76851">
        <ele>191</ele>
        <time>2018-02-19T11:26:10Z</time>
      </trkpt>
      <trkpt lat="45.95896" lon="4.76844">
        <ele>191</ele>
        <time>2018-02-19T11:26:11Z</time>
      </trkpt>
      <trkpt lat="45.9589" lon="4.76836">
        <ele>191</ele>
        <time>2018-02-19T11:26:12Z</time>
      </trkpt>
      <trkpt lat="45.95883" lon="4.7683">
        <ele>191</ele>
        <time>2018-02-19T11:26:13Z</time>
      </trkpt>
      <trkpt lat="45.95876" lon="4.76823">
        <ele>191</ele>
        <time>2018-02-19T11:26:14Z</time>
      </trkpt>
      <trkpt lat="45.9587" lon="4.76817">
        <ele>191</ele>
        <time>2018-02-19T11:26:15Z</time>
      </trkpt>
      <trkpt lat="45.95864" lon="4.76811">
        <ele>191</ele>
        <time>2018-02-19T11:26:16Z</time>
      </trkpt>
      <trkpt lat="45.95857" lon="4.76805">
        <ele>191</ele>
        <time>2018-02-19T11:26:17Z</time>
      </trkpt>
      <trkpt lat="45.95851" lon="4.76799">
        <ele>191</ele>
        <time>2018-02-19T11:26:18Z</time>
      </trkpt>
      <trkpt lat="45.95845" lon="4.76793">
        <ele>191</ele>
        <time>2018-02-19T11:26:19Z</time>
      </trkpt>
      <trkpt lat="45.9584" lon="4.76787">
        <ele>191</ele>
        <time>2018-02-19T11:26:20Z</time>
      </trkpt>
      <trkpt lat="45.95836" lon="4.76779">
        <ele>191</ele>
        <time>2018-02-19T11:26:21Z</time>
      </trkpt>
      <trkpt lat="45.95833" lon="4.76771">
        <ele>190</ele>
        <time>2018-02-19T11:26:22Z</time>
      </trkpt>
      <trkpt lat="45.9583" lon="4.76761">
        <ele>191</ele>
        <time>2018-02-19T11:26:23Z</time>
      </trkpt>
      <trkpt lat="45.95827" lon="4.76752">
        <ele>191</ele>
        <time>2018-02-19T11:26:24Z</time>
      </trkpt>
      <trkpt lat="45.95828" lon="4.76742">
        <ele>190</ele>
        <time>2018-02-19T11:26:25Z</time>
      </trkpt>
      <trkpt lat="45.95827" lon="4.76731">
        <ele>190</ele>
        <time>2018-02-19T11:26:26Z</time>
      </trkpt>
      <trkpt lat="45.95826" lon="4.76721">
        <ele>189</ele>
        <time>2018-02-19T11:26:27Z</time>
      </trkpt>
      <trkpt lat="45.95823" lon="4.76711">
        <ele>189</ele>
        <time>2018-02-19T11:26:28Z</time>
      </trkpt>
      <trkpt lat="45.95822" lon="4.76701">
        <ele>189</ele>
        <time>2018-02-19T11:26:29Z</time>
      </trkpt>
      <trkpt lat="45.95821" lon="4.76694">
        <ele>189</ele>
        <time>2018-02-19T11:26:30Z</time>
      </trkpt>
      <trkpt lat="45.95819" lon="4.76686">
        <ele>189</ele>
        <time>2018-02-19T11:26:31Z</time>
      </trkpt>
      <trkpt lat="45.95818" lon="4.76675">
        <ele>189</ele>
        <time>2018-02-19T11:26:32Z</time>
      </trkpt>
      <trkpt lat="45.95817" lon="4.76665">
        <ele>188</ele>
        <time>2018-02-19T11:26:33Z</time>
      </trkpt>
      <trkpt lat="45.95815" lon="4.76655">
        <ele>188</ele>
        <time>2018-02-19T11:26:34Z</time>
      </trkpt>
      <trkpt lat="45.95812" lon="4.76644">
        <ele>188</ele>
        <time>2018-02-19T11:26:35Z</time>
      </trkpt>
      <trkpt lat="45.9581" lon="4.76634">
        <ele>188</ele>
        <time>2018-02-19T11:26:36Z</time>
      </trkpt>
      <trkpt lat="45.95808" lon="4.76624">
        <ele>188</ele>
        <time>2018-02-19T11:26:37Z</time>
      </trkpt>
      <trkpt lat="45.95807" lon="4.76615">
        <ele>188</ele>
        <time>2018-02-19T11:26:38Z</time>
      </trkpt>
      <trkpt lat="45.95806" lon="4.76605">
        <ele>188</ele>
        <time>2018-02-19T11:26:39Z</time>
      </trkpt>
      <trkpt lat="45.95805" lon="4.76596">
        <ele>188</ele>
        <time>2018-02-19T11:26:40Z</time>
      </trkpt>
      <trkpt lat="45.95802" lon="4.76587">
        <ele>187</ele>
        <time>2018-02-19T11:26:41Z</time>
      </trkpt>
      <trkpt lat="45.958" lon="4.76577">
        <ele>187</ele>
        <time>2018-02-19T11:26:42Z</time>
      </trkpt>
      <trkpt lat="45.95799" lon="4.76568">
        <ele>187</ele>
        <time>2018-02-19T11:26:43Z</time>
      </trkpt>
      <trkpt lat="45.95798" lon="4.76559">
        <ele>187</ele>
        <time>2018-02-19T11:26:44Z</time>
      </trkpt>
      <trkpt lat="45.95797" lon="4.7655">
        <ele>187</ele>
        <time>2018-02-19T11:26:45Z</time>
      </trkpt>
      <trkpt lat="45.95796" lon="4.7654">
        <ele>187</ele>
        <time>2018-02-19T11:26:46Z</time>
      </trkpt>
      <trkpt lat="45.95795" lon="4.76532">
        <ele>187</ele>
        <time>2018-02-19T11:26:47Z</time>
      </trkpt>
      <trkpt lat="45.95795" lon="4.76523">
        <ele>187</ele>
        <time>2018-02-19T11:26:48Z</time>
      </trkpt>
      <trkpt lat="45.95793" lon="4.76515">
        <ele>187</ele>
        <time>2018-02-19T11:26:49Z</time>
      </trkpt>
      <trkpt lat="45.95792" lon="4.76506">
        <ele>187</ele>
        <time>2018-02-19T11:26:50Z</time>
      </trkpt>
      <trkpt lat="45.9579" lon="4.76498">
        <ele>186</ele>
        <time>2018-02-19T11:26:51Z</time>
      </trkpt>
      <trkpt lat="45.95789" lon="4.76489">
        <ele>186</ele>
        <time>2018-02-19T11:26:52Z</time>
      </trkpt>
      <trkpt lat="45.95788" lon="4.76482">
        <ele>186</ele>
        <time>2018-02-19T11:26:53Z</time>
      </trkpt>
      <trkpt lat="45.95786" lon="4.76474">
        <ele>186</ele>
        <time>2018-02-19T11:26:54Z</time>
      </trkpt>
      <trkpt lat="45.95786" lon="4.76466">
        <ele>186</ele>
        <time>2018-02-19T11:26:55Z</time>
      </trkpt>
      <trkpt lat="45.95785" lon="4.76457">
        <ele>186</ele>
        <time>2018-02-19T11:26:56Z</time>
      </trkpt>
      <trkpt lat="45.95784" lon="4.7645">
        <ele>186</ele>
        <time>2018-02-19T11:26:57Z</time>
      </trkpt>
      <trkpt lat="45.95782" lon="4.76443">
        <ele>186</ele>
        <time>2018-02-19T11:26:58Z</time>
      </trkpt>
      <trkpt lat="45.95781" lon="4.76435">
        <ele>186</ele>
        <time>2018-02-19T11:26:59Z</time>
      </trkpt>
      <trkpt lat="45.95781" lon="4.76427">
        <ele>186</ele>
        <time>2018-02-19T11:27:00Z</time>
      </trkpt>
      <trkpt lat="45.9578" lon="4.76419">
        <ele>186</ele>
        <time>2018-02-19T11:27:01Z</time>
      </trkpt>
      <trkpt lat="45.95779" lon="4.76411">
        <ele>186</ele>
        <time>2018-02-19T11:27:02Z</time>
      </trkpt>
      <trkpt lat="45.95778" lon="4.76403">
        <ele>186</ele>
        <time>2018-02-19T11:27:03Z</time>
      </trkpt>
      <trkpt lat="45.95778" lon="4.76396">
        <ele>186</ele>
        <time>2018-02-19T11:27:04Z</time>
      </trkpt>
      <trkpt lat="45.95777" lon="4.76389">
        <ele>186</ele>
        <time>2018-02-19T11:27:05Z</time>
      </trkpt>
      <trkpt lat="45.95777" lon="4.76381">
        <ele>186</ele>
        <time>2018-02-19T11:27:06Z</time>
      </trkpt>
      <trkpt lat="45.95777" lon="4.76373">
        <ele>186</ele>
        <time>2018-02-19T11:27:07Z</time>
      </trkpt>
      <trkpt lat="45.95776" lon="4.76365">
        <ele>186</ele>
        <time>2018-02-19T11:27:08Z</time>
      </trkpt>
      <trkpt lat="45.95776" lon="4.76359">
        <ele>186</ele>
        <time>2018-02-19T11:27:09Z</time>
      </trkpt>
      <trkpt lat="45.95776" lon="4.76351">
        <ele>186</ele>
        <time>2018-02-19T11:27:10Z</time>
      </trkpt>
      <trkpt lat="45.95776" lon="4.76343">
        <ele>186</ele>
        <time>2018-02-19T11:27:11Z</time>
      </trkpt>
      <trkpt lat="45.95774" lon="4.76334">
        <ele>186</ele>
        <time>2018-02-19T11:27:12Z</time>
      </trkpt>
      <trkpt lat="45.95774" lon="4.76326">
        <ele>185</ele>
        <time>2018-02-19T11:27:13Z</time>
      </trkpt>
      <trkpt lat="45.95773" lon="4.76318">
        <ele>185</ele>
        <time>2018-02-19T11:27:14Z</time>
      </trkpt>
      <trkpt lat="45.95773" lon="4.7631">
        <ele>186</ele>
        <time>2018-02-19T11:27:15Z</time>
      </trkpt>
      <trkpt lat="45.95773" lon="4.76301">
        <ele>186</ele>
        <time>2018-02-19T11:27:16Z</time>
      </trkpt>
      <trkpt lat="45.95773" lon="4.76292">
        <ele>186</ele>
        <time>2018-02-19T11:27:17Z</time>
      </trkpt>
      <trkpt lat="45.95772" lon="4.76284">
        <ele>186</ele>
        <time>2018-02-19T11:27:18Z</time>
      </trkpt>
      <trkpt lat="45.95772" lon="4.76275">
        <ele>186</ele>
        <time>2018-02-19T11:27:19Z</time>
      </trkpt>
      <trkpt lat="45.95772" lon="4.76267">
        <ele>186</ele>
        <time>2018-02-19T11:27:20Z</time>
      </trkpt>
      <trkpt lat="45.9577" lon="4.76258">
        <ele>185</ele>
        <time>2018-02-19T11:27:21Z</time>
      </trkpt>
      <trkpt lat="45.95769" lon="4.76249">
        <ele>186</ele>
        <time>2018-02-19T11:27:22Z</time>
      </trkpt>
      <trkpt lat="45.9577" lon="4.76241">
        <ele>186</ele>
        <time>2018-02-19T11:27:23Z</time>
      </trkpt>
      <trkpt lat="45.95768" lon="4.76233">
        <ele>186</ele>
        <time>2018-02-19T11:27:24Z</time>
      </trkpt>
      <trkpt lat="45.95768" lon="4.76224">
        <ele>186</ele>
        <time>2018-02-19T11:27:25Z</time>
      </trkpt>
      <trkpt lat="45.95767" lon="4.76215">
        <ele>186</ele>
        <time>2018-02-19T11:27:26Z</time>
      </trkpt>
      <trkpt lat="45.95767" lon="4.76206">
        <ele>186</ele>
        <time>2018-02-19T11:27:27Z</time>
      </trkpt>
      <trkpt lat="45.95767" lon="4.76197">
        <ele>186</ele>
        <time>2018-02-19T11:27:28Z</time>
      </trkpt>
      <trkpt lat="45.95767" lon="4.76189">
        <ele>186</ele>
        <time>2018-02-19T11:27:29Z</time>
      </trkpt>
      <trkpt lat="45.95766" lon="4.76181">
        <ele>186</ele>
        <time>2018-02-19T11:27:30Z</time>
      </trkpt>
      <trkpt lat="45.95766" lon="4.76172">
        <ele>186</ele>
        <time>2018-02-19T11:27:31Z</time>
      </trkpt>
      <trkpt lat="45.95766" lon="4.76164">
        <ele>186</ele>
        <time>2018-02-19T11:27:32Z</time>
      </trkpt>
      <trkpt lat="45.95766" lon="4.76157">
        <ele>186</ele>
        <time>2018-02-19T11:27:33Z</time>
      </trkpt>
      <trkpt lat="45.95765" lon="4.76148">
        <ele>186</ele>
        <time>2018-02-19T11:27:34Z</time>
      </trkpt>
      <trkpt lat="45.95764" lon="4.7614">
        <ele>186</ele>
        <time>2018-02-19T11:27:35Z</time>
      </trkpt>
      <trkpt lat="45.95764" lon="4.76132">
        <ele>186</ele>
        <time>2018-02-19T11:27:36Z</time>
      </trkpt>
      <trkpt lat="45.95763" lon="4.76124">
        <ele>186</ele>
        <time>2018-02-19T11:27:37Z</time>
      </trkpt>
      <trkpt lat="45.95763" lon="4.76116">
        <ele>186</ele>
        <time>2018-02-19T11:27:38Z</time>
      </trkpt>
      <trkpt lat="45.95761" lon="4.76109">
        <ele>186</ele>
        <time>2018-02-19T11:27:39Z</time>
      </trkpt>
      <trkpt lat="45.9576" lon="4.76101">
        <ele>186</ele>
        <time>2018-02-19T11:27:40Z</time>
      </trkpt>
      <trkpt lat="45.95758" lon="4.76093">
        <ele>186</ele>
        <time>2018-02-19T11:27:41Z</time>
      </trkpt>
      <trkpt lat="45.95756" lon="4.76086">
        <ele>185</ele>
        <time>2018-02-19T11:27:42Z</time>
      </trkpt>
      <trkpt lat="45.95753" lon="4.76078">
        <ele>185</ele>
        <time>2018-02-19T11:27:43Z</time>
      </trkpt>
      <trkpt lat="45.9575" lon="4.76071">
        <ele>185</ele>
        <time>2018-02-19T11:27:44Z</time>
      </trkpt>
      <trkpt lat="45.95747" lon="4.76064">
        <ele>185</ele>
        <time>2018-02-19T11:27:45Z</time>
      </trkpt>
      <trkpt lat="45.95744" lon="4.76057">
        <ele>184</ele>
        <time>2018-02-19T11:27:46Z</time>
      </trkpt>
      <trkpt lat="45.95741" lon="4.7605">
        <ele>184</ele>
        <time>2018-02-19T11:27:47Z</time>
      </trkpt>
      <trkpt lat="45.95737" lon="4.76042">
        <ele>184</ele>
        <time>2018-02-19T11:27:48Z</time>
      </trkpt>
      <trkpt lat="45.95734" lon="4.76035">
        <ele>184</ele>
        <time>2018-02-19T11:27:49Z</time>
      </trkpt>
      <trkpt lat="45.9573" lon="4.76028">
        <ele>185</ele>
        <time>2018-02-19T11:27:50Z</time>
      </trkpt>
      <trkpt lat="45.95727" lon="4.76021">
        <ele>185</ele>
        <time>2018-02-19T11:27:51Z</time>
      </trkpt>
      <trkpt lat="45.95724" lon="4.76014">
        <ele>185</ele>
        <time>2018-02-19T11:27:52Z</time>
      </trkpt>
      <trkpt lat="45.95721" lon="4.76006">
        <ele>185</ele>
        <time>2018-02-19T11:27:53Z</time>
      </trkpt>
      <trkpt lat="45.95718" lon="4.75998">
        <ele>185</ele>
        <time>2018-02-19T11:27:54Z</time>
      </trkpt>
      <trkpt lat="45.95715" lon="4.75991">
        <ele>185</ele>
        <time>2018-02-19T11:27:55Z</time>
      </trkpt>
      <trkpt lat="45.95711" lon="4.75985">
        <ele>185</ele>
        <time>2018-02-19T11:27:56Z</time>
      </trkpt>
      <trkpt lat="45.95708" lon="4.75978">
        <ele>185</ele>
        <time>2018-02-19T11:27:57Z</time>
      </trkpt>
      <trkpt lat="45.95704" lon="4.75971">
        <ele>185</ele>
        <time>2018-02-19T11:27:58Z</time>
      </trkpt>
      <trkpt lat="45.95701" lon="4.75965">
        <ele>185</ele>
        <time>2018-02-19T11:27:59Z</time>
      </trkpt>
      <trkpt lat="45.95698" lon="4.75958">
        <ele>185</ele>
        <time>2018-02-19T11:28:00Z</time>
      </trkpt>
      <trkpt lat="45.95694" lon="4.75952">
        <ele>185</ele>
        <time>2018-02-19T11:28:01Z</time>
      </trkpt>
      <trkpt lat="45.95691" lon="4.75945">
        <ele>185</ele>
        <time>2018-02-19T11:28:02Z</time>
      </trkpt>
      <trkpt lat="45.95689" lon="4.75938">
        <ele>185</ele>
        <time>2018-02-19T11:28:03Z</time>
      </trkpt>
      <trkpt lat="45.95685" lon="4.75932">
        <ele>185</ele>
        <time>2018-02-19T11:28:04Z</time>
      </trkpt>
      <trkpt lat="45.95683" lon="4.75925">
        <ele>185</ele>
        <time>2018-02-19T11:28:05Z</time>
      </trkpt>
      <trkpt lat="45.9568" lon="4.75919">
        <ele>185</ele>
        <time>2018-02-19T11:28:06Z</time>
      </trkpt>
      <trkpt lat="45.95678" lon="4.75912">
        <ele>185</ele>
        <time>2018-02-19T11:28:07Z</time>
      </trkpt>
      <trkpt lat="45.95675" lon="4.75904">
        <ele>185</ele>
        <time>2018-02-19T11:28:08Z</time>
      </trkpt>
      <trkpt lat="45.95672" lon="4.75896">
        <ele>186</ele>
        <time>2018-02-19T11:28:09Z</time>
      </trkpt>
      <trkpt lat="45.9567" lon="4.75889">
        <ele>186</ele>
        <time>2018-02-19T11:28:10Z</time>
      </trkpt>
      <trkpt lat="45.95667" lon="4.75882">
        <ele>186</ele>
        <time>2018-02-19T11:28:11Z</time>
      </trkpt>
      <trkpt lat="45.95665" lon="4.75875">
        <ele>184</ele>
        <time>2018-02-19T11:28:12Z</time>
      </trkpt>
      <trkpt lat="45.95662" lon="4.75867">
        <ele>184</ele>
        <time>2018-02-19T11:28:13Z</time>
      </trkpt>
      <trkpt lat="45.9566" lon="4.7586">
        <ele>184</ele>
        <time>2018-02-19T11:28:14Z</time>
      </trkpt>
      <trkpt lat="45.95658" lon="4.75852">
        <ele>185</ele>
        <time>2018-02-19T11:28:15Z</time>
      </trkpt>
      <trkpt lat="45.95656" lon="4.75844">
        <ele>185</ele>
        <time>2018-02-19T11:28:16Z</time>
      </trkpt>
      <trkpt lat="45.95653" lon="4.75836">
        <ele>185</ele>
        <time>2018-02-19T11:28:17Z</time>
      </trkpt>
      <trkpt lat="45.95652" lon="4.75829">
        <ele>185</ele>
        <time>2018-02-19T11:28:18Z</time>
      </trkpt>
      <trkpt lat="45.9565" lon="4.7582">
        <ele>185</ele>
        <time>2018-02-19T11:28:19Z</time>
      </trkpt>
      <trkpt lat="45.95649" lon="4.75812">
        <ele>185</ele>
        <time>2018-02-19T11:28:20Z</time>
      </trkpt>
      <trkpt lat="45.95647" lon="4.75804">
        <ele>185</ele>
        <time>2018-02-19T11:28:21Z</time>
      </trkpt>
      <trkpt lat="45.95646" lon="4.75796">
        <ele>185</ele>
        <time>2018-02-19T11:28:22Z</time>
      </trkpt>
      <trkpt lat="45.95645" lon="4.75787">
        <ele>186</ele>
        <time>2018-02-19T11:28:23Z</time>
      </trkpt>
      <trkpt lat="45.95643" lon="4.75779">
        <ele>186</ele>
        <time>2018-02-19T11:28:24Z</time>
      </trkpt>
      <trkpt lat="45.95643" lon="4.7577">
        <ele>186</ele>
        <time>2018-02-19T11:28:25Z</time>
      </trkpt>
      <trkpt lat="45.95641" lon="4.75762">
        <ele>186</ele>
        <time>2018-02-19T11:28:26Z</time>
      </trkpt>
      <trkpt lat="45.9564" lon="4.75754">
        <ele>186</ele>
        <time>2018-02-19T11:28:27Z</time>
      </trkpt>
      <trkpt lat="45.95639" lon="4.75745">
        <ele>187</ele>
        <time>2018-02-19T11:28:28Z</time>
      </trkpt>
      <trkpt lat="45.95637" lon="4.75737">
        <ele>187</ele>
        <time>2018-02-19T11:28:29Z</time>
      </trkpt>
      <trkpt lat="45.95637" lon="4.75729">
        <ele>187</ele>
        <time>2018-02-19T11:28:30Z</time>
      </trkpt>
      <trkpt lat="45.95635" lon="4.75721">
        <ele>187</ele>
        <time>2018-02-19T11:28:31Z</time>
      </trkpt>
      <trkpt lat="45.95634" lon="4.75712">
        <ele>187</ele>
        <time>2018-02-19T11:28:32Z</time>
      </trkpt>
      <trkpt lat="45.95633" lon="4.75703">
        <ele>187</ele>
        <time>2018-02-19T11:28:33Z</time>
      </trkpt>
      <trkpt lat="45.95633" lon="4.75694">
        <ele>187</ele>
        <time>2018-02-19T11:28:34Z</time>
      </trkpt>
      <trkpt lat="45.95632" lon="4.75685">
        <ele>187</ele>
        <time>2018-02-19T11:28:35Z</time>
      </trkpt>
      <trkpt lat="45.95631" lon="4.75676">
        <ele>188</ele>
        <time>2018-02-19T11:28:36Z</time>
      </trkpt>
      <trkpt lat="45.95629" lon="4.75667">
        <ele>188</ele>
        <time>2018-02-19T11:28:37Z</time>
      </trkpt>
      <trkpt lat="45.95628" lon="4.75658">
        <ele>188</ele>
        <time>2018-02-19T11:28:38Z</time>
      </trkpt>
      <trkpt lat="45.95625" lon="4.7565">
        <ele>188</ele>
        <time>2018-02-19T11:28:39Z</time>
      </trkpt>
      <trkpt lat="45.95623" lon="4.75642">
        <ele>188</ele>
        <time>2018-02-19T11:28:40Z</time>
      </trkpt>
      <trkpt lat="45.9562" lon="4.75633">
        <ele>188</ele>
        <time>2018-02-19T11:28:41Z</time>
      </trkpt>
      <trkpt lat="45.95618" lon="4.75625">
        <ele>188</ele>
        <time>2018-02-19T11:28:42Z</time>
      </trkpt>
      <trkpt lat="45.95614" lon="4.75616">
        <ele>188</ele>
        <time>2018-02-19T11:28:43Z</time>
      </trkpt>
      <trkpt lat="45.95611" lon="4.75607">
        <ele>188</ele>
        <time>2018-02-19T11:28:44Z</time>
      </trkpt>
      <trkpt lat="45.95608" lon="4.75598">
        <ele>187</ele>
        <time>2018-02-19T11:28:45Z</time>
      </trkpt>
      <trkpt lat="45.95605" lon="4.7559">
        <ele>187</ele>
        <time>2018-02-19T11:28:46Z</time>
      </trkpt>
      <trkpt lat="45.95602" lon="4.75581">
        <ele>188</ele>
        <time>2018-02-19T11:28:47Z</time>
      </trkpt>
      <trkpt lat="45.95598" lon="4.75573">
        <ele>188</ele>
        <time>2018-02-19T11:28:48Z</time>
      </trkpt>
      <trkpt lat="45.95594" lon="4.75566">
        <ele>188</ele>
        <time>2018-02-19T11:28:49Z</time>
      </trkpt>
      <trkpt lat="45.9559" lon="4.75558">
        <ele>188</ele>
        <time>2018-02-19T11:28:50Z</time>
      </trkpt>
      <trkpt lat="45.95585" lon="4.75551">
        <ele>188</ele>
        <time>2018-02-19T11:28:51Z</time>
      </trkpt>
      <trkpt lat="45.95579" lon="4.75544">
        <ele>186</ele>
        <time>2018-02-19T11:28:52Z</time>
      </trkpt>
      <trkpt lat="45.95574" lon="4.75538">
        <ele>186</ele>
        <time>2018-02-19T11:28:53Z</time>
      </trkpt>
      <trkpt lat="45.95568" lon="4.75532">
        <ele>186</ele>
        <time>2018-02-19T11:28:54Z</time>
      </trkpt>
      <trkpt lat="45.95562" lon="4.75527">
        <ele>186</ele>
        <time>2018-02-19T11:28:55Z</time>
      </trkpt>
      <trkpt lat="45.95557" lon="4.75522">
        <ele>186</ele>
        <time>2018-02-19T11:28:56Z</time>
      </trkpt>
      <trkpt lat="45.95553" lon="4.75516">
        <ele>186</ele>
        <time>2018-02-19T11:28:57Z</time>
      </trkpt>
      <trkpt lat="45.95548" lon="4.7551">
        <ele>186</ele>
        <time>2018-02-19T11:28:58Z</time>
      </trkpt>
      <trkpt lat="45.95545" lon="4.75505">
        <ele>186</ele>
        <time>2018-02-19T11:28:59Z</time>
      </trkpt>
      <trkpt lat="45.95542" lon="4.75499">
        <ele>187</ele>
        <time>2018-02-19T11:29:00Z</time>
      </trkpt>
      <trkpt lat="45.95539" lon="4.75493">
        <ele>187</ele>
        <time>2018-02-19T11:29:01Z</time>
      </trkpt>
      <trkpt lat="45.9554" lon="4.75484">
        <ele>187</ele>
        <time>2018-02-19T11:29:02Z</time>
      </trkpt>
      <trkpt lat="45.95541" lon="4.75477">
        <ele>187</ele>
        <time>2018-02-19T11:29:03Z</time>
      </trkpt>
      <trkpt lat="45.95541" lon="4.75471">
        <ele>187</ele>
        <time>2018-02-19T11:29:04Z</time>
      </trkpt>
      <trkpt lat="45.95541" lon="4.75463">
        <ele>187</ele>
        <time>2018-02-19T11:29:05Z</time>
      </trkpt>
      <trkpt lat="45.95539" lon="4.75457">
        <ele>187</ele>
        <time>2018-02-19T11:29:06Z</time>
      </trkpt>
      <trkpt lat="45.95535" lon="4.75451">
        <ele>187</ele>
        <time>2018-02-19T11:29:07Z</time>
      </trkpt>
      <trkpt lat="45.95531" lon="4.75446">
        <ele>187</ele>
        <time>2018-02-19T11:29:08Z</time>
      </trkpt>
      <trkpt lat="45.95526" lon="4.75441">
        <ele>187</ele>
        <time>2018-02-19T11:29:09Z</time>
      </trkpt>
      <trkpt lat="45.95521" lon="4.75435">
        <ele>187</ele>
        <time>2018-02-19T11:29:10Z</time>
      </trkpt>
      <trkpt lat="45.95518" lon="4.75429">
        <ele>187</ele>
        <time>2018-02-19T11:29:11Z</time>
      </trkpt>
      <trkpt lat="45.95516" lon="4.75421">
        <ele>186</ele>
        <time>2018-02-19T11:29:12Z</time>
      </trkpt>
      <trkpt lat="45.95514" lon="4.75414">
        <ele>187</ele>
        <time>2018-02-19T11:29:13Z</time>
      </trkpt>
      <trkpt lat="45.95512" lon="4.75406">
        <ele>187</ele>
        <time>2018-02-19T11:29:14Z</time>
      </trkpt>
      <trkpt lat="45.95509" lon="4.754">
        <ele>187</ele>
        <time>2018-02-19T11:29:15Z</time>
      </trkpt>
      <trkpt lat="45.95506" lon="4.75393">
        <ele>188</ele>
        <time>2018-02-19T11:29:16Z</time>
      </trkpt>
      <trkpt lat="45.95504" lon="4.75386">
        <ele>188</ele>
        <time>2018-02-19T11:29:17Z</time>
      </trkpt>
      <trkpt lat="45.95501" lon="4.7538">
        <ele>188</ele>
        <time>2018-02-19T11:29:18Z</time>
      </trkpt>
      <trkpt lat="45.95498" lon="4.75374">
        <ele>185</ele>
        <time>2018-02-19T11:29:19Z</time>
      </trkpt>
      <trkpt lat="45.95494" lon="4.75368">
        <ele>186</ele>
        <time>2018-02-19T11:29:20Z</time>
      </trkpt>
      <trkpt lat="45.9549" lon="4.75361">
        <ele>186</ele>
        <time>2018-02-19T11:29:21Z</time>
      </trkpt>
      <trkpt lat="45.95487" lon="4.75355">
        <ele>186</ele>
        <time>2018-02-19T11:29:22Z</time>
      </trkpt>
      <trkpt lat="45.95484" lon="4.75349">
        <ele>186</ele>
        <time>2018-02-19T11:29:23Z</time>
      </trkpt>
      <trkpt lat="45.95481" lon="4.75342">
        <ele>186</ele>
        <time>2018-02-19T11:29:24Z</time>
      </trkpt>
      <trkpt lat="45.95477" lon="4.75337">
        <ele>186</ele>
        <time>2018-02-19T11:29:25Z</time>
      </trkpt>
      <trkpt lat="45.95474" lon="4.75331">
        <ele>188</ele>
        <time>2018-02-19T11:29:26Z</time>
      </trkpt>
      <trkpt lat="45.95471" lon="4.75324">
        <ele>188</ele>
        <time>2018-02-19T11:29:27Z</time>
      </trkpt>
      <trkpt lat="45.95468" lon="4.75318">
        <ele>188</ele>
        <time>2018-02-19T11:29:28Z</time>
      </trkpt>
      <trkpt lat="45.95465" lon="4.75312">
        <ele>188</ele>
        <time>2018-02-19T11:29:29Z</time>
      </trkpt>
      <trkpt lat="45.95462" lon="4.75307">
        <ele>188</ele>
        <time>2018-02-19T11:29:30Z</time>
      </trkpt>
      <trkpt lat="45.95459" lon="4.75301">
        <ele>188</ele>
        <time>2018-02-19T11:29:31Z</time>
      </trkpt>
      <trkpt lat="45.95455" lon="4.75296">
        <ele>188</ele>
        <time>2018-02-19T11:29:32Z</time>
      </trkpt>
      <trkpt lat="45.95452" lon="4.7529">
        <ele>188</ele>
        <time>2018-02-19T11:29:33Z</time>
      </trkpt>
      <trkpt lat="45.95449" lon="4.75285">
        <ele>188</ele>
        <time>2018-02-19T11:29:34Z</time>
      </trkpt>
      <trkpt lat="45.95446" lon="4.75279">
        <ele>189</ele>
        <time>2018-02-19T11:29:35Z</time>
      </trkpt>
      <trkpt lat="45.95443" lon="4.75273">
        <ele>189</ele>
        <time>2018-02-19T11:29:36Z</time>
      </trkpt>
      <trkpt lat="45.95441" lon="4.75266">
        <ele>189</ele>
        <time>2018-02-19T11:29:37Z</time>
      </trkpt>
      <trkpt lat="45.95438" lon="4.75262">
        <ele>189</ele>
        <time>2018-02-19T11:29:38Z</time>
      </trkpt>
      <trkpt lat="45.95433" lon="4.75256">
        <ele>189</ele>
        <time>2018-02-19T11:29:39Z</time>
      </trkpt>
      <trkpt lat="45.95431" lon="4.75252">
        <ele>189</ele>
        <time>2018-02-19T11:29:40Z</time>
      </trkpt>
      <trkpt lat="45.95428" lon="4.75245">
        <ele>190</ele>
        <time>2018-02-19T11:29:41Z</time>
      </trkpt>
      <trkpt lat="45.95423" lon="4.75235">
        <ele>190</ele>
        <time>2018-02-19T11:29:43Z</time>
      </trkpt>
      <trkpt lat="45.95421" lon="4.75228">
        <ele>191</ele>
        <time>2018-02-19T11:29:44Z</time>
      </trkpt>
      <trkpt lat="45.95418" lon="4.75223">
        <ele>191</ele>
        <time>2018-02-19T11:29:45Z</time>
      </trkpt>
      <trkpt lat="45.95414" lon="4.75217">
        <ele>189</ele>
        <time>2018-02-19T11:29:46Z</time>
      </trkpt>
      <trkpt lat="45.95408" lon="4.75208">
        <ele>189</ele>
        <time>2018-02-19T11:29:48Z</time>
      </trkpt>
      <trkpt lat="45.95405" lon="4.75202">
        <ele>189</ele>
        <time>2018-02-19T11:29:49Z</time>
      </trkpt>
      <trkpt lat="45.95402" lon="4.75197">
        <ele>189</ele>
        <time>2018-02-19T11:29:50Z</time>
      </trkpt>
      <trkpt lat="45.954" lon="4.75192">
        <ele>189</ele>
        <time>2018-02-19T11:29:51Z</time>
      </trkpt>
      <trkpt lat="45.95395" lon="4.75181">
        <ele>189</ele>
        <time>2018-02-19T11:29:53Z</time>
      </trkpt>
      <trkpt lat="45.95392" lon="4.75174">
        <ele>189</ele>
        <time>2018-02-19T11:29:54Z</time>
      </trkpt>
      <trkpt lat="45.95389" lon="4.7517">
        <ele>189</ele>
        <time>2018-02-19T11:29:55Z</time>
      </trkpt>
      <trkpt lat="45.95386" lon="4.75165">
        <ele>191</ele>
        <time>2018-02-19T11:29:56Z</time>
      </trkpt>
      <trkpt lat="45.95382" lon="4.7516">
        <ele>191</ele>
        <time>2018-02-19T11:29:57Z</time>
      </trkpt>
      <trkpt lat="45.95379" lon="4.75154">
        <ele>191</ele>
        <time>2018-02-19T11:29:58Z</time>
      </trkpt>
      <trkpt lat="45.95377" lon="4.75149">
        <ele>191</ele>
        <time>2018-02-19T11:29:59Z</time>
      </trkpt>
      <trkpt lat="45.95374" lon="4.75143">
        <ele>191</ele>
        <time>2018-02-19T11:30:00Z</time>
      </trkpt>
      <trkpt lat="45.95371" lon="4.75137">
        <ele>191</ele>
        <time>2018-02-19T11:30:01Z</time>
      </trkpt>
      <trkpt lat="45.95366" lon="4.7513">
        <ele>191</ele>
        <time>2018-02-19T11:30:02Z</time>
      </trkpt>
      <trkpt lat="45.95362" lon="4.75125">
        <ele>191</ele>
        <time>2018-02-19T11:30:03Z</time>
      </trkpt>
      <trkpt lat="45.95359" lon="4.75119">
        <ele>191</ele>
        <time>2018-02-19T11:30:04Z</time>
      </trkpt>
      <trkpt lat="45.95355" lon="4.75115">
        <ele>192</ele>
        <time>2018-02-19T11:30:05Z</time>
      </trkpt>
      <trkpt lat="45.95351" lon="4.75109">
        <ele>192</ele>
        <time>2018-02-19T11:30:06Z</time>
      </trkpt>
      <trkpt lat="45.95348" lon="4.75103">
        <ele>192</ele>
        <time>2018-02-19T11:30:07Z</time>
      </trkpt>
      <trkpt lat="45.95344" lon="4.75098">
        <ele>192</ele>
        <time>2018-02-19T11:30:08Z</time>
      </trkpt>
      <trkpt lat="45.9534" lon="4.75092">
        <ele>192</ele>
        <time>2018-02-19T11:30:09Z</time>
      </trkpt>
      <trkpt lat="45.95336" lon="4.75087">
        <ele>193</ele>
        <time>2018-02-19T11:30:10Z</time>
      </trkpt>
      <trkpt lat="45.95334" lon="4.75082">
        <ele>193</ele>
        <time>2018-02-19T11:30:11Z</time>
      </trkpt>
      <trkpt lat="45.95331" lon="4.75076">
        <ele>193</ele>
        <time>2018-02-19T11:30:12Z</time>
      </trkpt>
      <trkpt lat="45.95327" lon="4.7507">
        <ele>192</ele>
        <time>2018-02-19T11:30:13Z</time>
      </trkpt>
      <trkpt lat="45.95323" lon="4.75064">
        <ele>192</ele>
        <time>2018-02-19T11:30:14Z</time>
      </trkpt>
      <trkpt lat="45.95319" lon="4.75058">
        <ele>192</ele>
        <time>2018-02-19T11:30:15Z</time>
      </trkpt>
      <trkpt lat="45.95315" lon="4.75052">
        <ele>192</ele>
        <time>2018-02-19T11:30:16Z</time>
      </trkpt>
      <trkpt lat="45.95311" lon="4.75046">
        <ele>192</ele>
        <time>2018-02-19T11:30:17Z</time>
      </trkpt>
      <trkpt lat="45.95307" lon="4.7504">
        <ele>192</ele>
        <time>2018-02-19T11:30:18Z</time>
      </trkpt>
      <trkpt lat="45.95303" lon="4.75033">
        <ele>192</ele>
        <time>2018-02-19T11:30:19Z</time>
      </trkpt>
      <trkpt lat="45.95299" lon="4.75027">
        <ele>192</ele>
        <time>2018-02-19T11:30:20Z</time>
      </trkpt>
      <trkpt lat="45.95294" lon="4.75022">
        <ele>191</ele>
        <time>2018-02-19T11:30:21Z</time>
      </trkpt>
      <trkpt lat="45.95291" lon="4.75016">
        <ele>191</ele>
        <time>2018-02-19T11:30:22Z</time>
      </trkpt>
      <trkpt lat="45.95288" lon="4.75011">
        <ele>191</ele>
        <time>2018-02-19T11:30:23Z</time>
      </trkpt>
      <trkpt lat="45.95283" lon="4.75006">
        <ele>191</ele>
        <time>2018-02-19T11:30:24Z</time>
      </trkpt>
      <trkpt lat="45.9528" lon="4.75">
        <ele>191</ele>
        <time>2018-02-19T11:30:25Z</time>
      </trkpt>
      <trkpt lat="45.95276" lon="4.74995">
        <ele>192</ele>
        <time>2018-02-19T11:30:26Z</time>
      </trkpt>
      <trkpt lat="45.95273" lon="4.74988">
        <ele>192</ele>
        <time>2018-02-19T11:30:27Z</time>
      </trkpt>
      <trkpt lat="45.95269" lon="4.74982">
        <ele>192</ele>
        <time>2018-02-19T11:30:28Z</time>
      </trkpt>
      <trkpt lat="45.95266" lon="4.74977">
        <ele>192</ele>
        <time>2018-02-19T11:30:29Z</time>
      </trkpt>
      <trkpt lat="45.95263" lon="4.74971">
        <ele>192</ele>
        <time>2018-02-19T11:30:30Z</time>
      </trkpt>
      <trkpt lat="45.95259" lon="4.74966">
        <ele>192</ele>
        <time>2018-02-19T11:30:31Z</time>
      </trkpt>
      <trkpt lat="45.95256" lon="4.7496">
        <ele>192</ele>
        <time>2018-02-19T11:30:32Z</time>
      </trkpt>
      <trkpt lat="45.95253" lon="4.74956">
        <ele>192</ele>
        <time>2018-02-19T11:30:33Z</time>
      </trkpt>
      <trkpt lat="45.95249" lon="4.7495">
        <ele>192</ele>
        <time>2018-02-19T11:30:34Z</time>
      </trkpt>
      <trkpt lat="45.95245" lon="4.74944">
        <ele>192</ele>
        <time>2018-02-19T11:30:35Z</time>
      </trkpt>
      <trkpt lat="45.95243" lon="4.74939">
        <ele>192</ele>
        <time>2018-02-19T11:30:36Z</time>
      </trkpt>
      <trkpt lat="45.95239" lon="4.74933">
        <ele>192</ele>
        <time>2018-02-19T11:30:37Z</time>
      </trkpt>
      <trkpt lat="45.95233" lon="4.74927">
        <ele>192</ele>
        <time>2018-02-19T11:30:38Z</time>
      </trkpt>
      <trkpt lat="45.95229" lon="4.74922">
        <ele>192</ele>
        <time>2018-02-19T11:30:39Z</time>
      </trkpt>
      <trkpt lat="45.95226" lon="4.74916">
        <ele>193</ele>
        <time>2018-02-19T11:30:40Z</time>
      </trkpt>
      <trkpt lat="45.95222" lon="4.74911">
        <ele>193</ele>
        <time>2018-02-19T11:30:41Z</time>
      </trkpt>
      <trkpt lat="45.9522" lon="4.74905">
        <ele>193</ele>
        <time>2018-02-19T11:30:42Z</time>
      </trkpt>
      <trkpt lat="45.95216" lon="4.749">
        <ele>193</ele>
        <time>2018-02-19T11:30:43Z</time>
      </trkpt>
      <trkpt lat="45.95213" lon="4.74893">
        <ele>193</ele>
        <time>2018-02-19T11:30:44Z</time>
      </trkpt>
      <trkpt lat="45.9521" lon="4.74888">
        <ele>193</ele>
        <time>2018-02-19T11:30:45Z</time>
      </trkpt>
      <trkpt lat="45.95207" lon="4.74882">
        <ele>194</ele>
        <time>2018-02-19T11:30:46Z</time>
      </trkpt>
      <trkpt lat="45.95202" lon="4.74876">
        <ele>194</ele>
        <time>2018-02-19T11:30:47Z</time>
      </trkpt>
      <trkpt lat="45.95199" lon="4.74871">
        <ele>194</ele>
        <time>2018-02-19T11:30:48Z</time>
      </trkpt>
      <trkpt lat="45.95195" lon="4.74864">
        <ele>194</ele>
        <time>2018-02-19T11:30:49Z</time>
      </trkpt>
      <trkpt lat="45.9519" lon="4.74858">
        <ele>194</ele>
        <time>2018-02-19T11:30:50Z</time>
      </trkpt>
      <trkpt lat="45.95186" lon="4.74851">
        <ele>194</ele>
        <time>2018-02-19T11:30:51Z</time>
      </trkpt>
      <trkpt lat="45.95181" lon="4.74845">
        <ele>194</ele>
        <time>2018-02-19T11:30:52Z</time>
      </trkpt>
      <trkpt lat="45.95177" lon="4.74838">
        <ele>194</ele>
        <time>2018-02-19T11:30:53Z</time>
      </trkpt>
      <trkpt lat="45.95172" lon="4.74832">
        <ele>194</ele>
        <time>2018-02-19T11:30:54Z</time>
      </trkpt>
      <trkpt lat="45.95167" lon="4.74824">
        <ele>194</ele>
        <time>2018-02-19T11:30:55Z</time>
      </trkpt>
      <trkpt lat="45.95163" lon="4.74817">
        <ele>194</ele>
        <time>2018-02-19T11:30:56Z</time>
      </trkpt>
      <trkpt lat="45.95159" lon="4.74811">
        <ele>194</ele>
        <time>2018-02-19T11:30:57Z</time>
      </trkpt>
      <trkpt lat="45.95155" lon="4.74804">
        <ele>194</ele>
        <time>2018-02-19T11:30:58Z</time>
      </trkpt>
      <trkpt lat="45.9515" lon="4.74797">
        <ele>194</ele>
        <time>2018-02-19T11:30:59Z</time>
      </trkpt>
      <trkpt lat="45.95146" lon="4.74791">
        <ele>194</ele>
        <time>2018-02-19T11:31:00Z</time>
      </trkpt>
      <trkpt lat="45.95143" lon="4.74784">
        <ele>194</ele>
        <time>2018-02-19T11:31:01Z</time>
      </trkpt>
      <trkpt lat="45.95139" lon="4.74778">
        <ele>194</ele>
        <time>2018-02-19T11:31:02Z</time>
      </trkpt>
      <trkpt lat="45.95136" lon="4.74772">
        <ele>194</ele>
        <time>2018-02-19T11:31:03Z</time>
      </trkpt>
      <trkpt lat="45.95132" lon="4.74765">
        <ele>194</ele>
        <time>2018-02-19T11:31:04Z</time>
      </trkpt>
      <trkpt lat="45.95127" lon="4.74759">
        <ele>194</ele>
        <time>2018-02-19T11:31:05Z</time>
      </trkpt>
      <trkpt lat="45.95124" lon="4.74753">
        <ele>194</ele>
        <time>2018-02-19T11:31:06Z</time>
      </trkpt>
      <trkpt lat="45.9512" lon="4.74747">
        <ele>194</ele>
        <time>2018-02-19T11:31:07Z</time>
      </trkpt>
      <trkpt lat="45.95117" lon="4.7474">
        <ele>194</ele>
        <time>2018-02-19T11:31:08Z</time>
      </trkpt>
      <trkpt lat="45.95113" lon="4.74733">
        <ele>194</ele>
        <time>2018-02-19T11:31:09Z</time>
      </trkpt>
      <trkpt lat="45.9511" lon="4.74726">
        <ele>194</ele>
        <time>2018-02-19T11:31:10Z</time>
      </trkpt>
      <trkpt lat="45.95105" lon="4.74719">
        <ele>194</ele>
        <time>2018-02-19T11:31:11Z</time>
      </trkpt>
      <trkpt lat="45.95101" lon="4.74713">
        <ele>194</ele>
        <time>2018-02-19T11:31:12Z</time>
      </trkpt>
      <trkpt lat="45.95098" lon="4.74707">
        <ele>194</ele>
        <time>2018-02-19T11:31:13Z</time>
      </trkpt>
      <trkpt lat="45.95095" lon="4.747">
        <ele>194</ele>
        <time>2018-02-19T11:31:14Z</time>
      </trkpt>
      <trkpt lat="45.95091" lon="4.74694">
        <ele>194</ele>
        <time>2018-02-19T11:31:15Z</time>
      </trkpt>
      <trkpt lat="45.95086" lon="4.74689">
        <ele>195</ele>
        <time>2018-02-19T11:31:16Z</time>
      </trkpt>
      <trkpt lat="45.95083" lon="4.74683">
        <ele>195</ele>
        <time>2018-02-19T11:31:17Z</time>
      </trkpt>
      <trkpt lat="45.9508" lon="4.74676">
        <ele>194</ele>
        <time>2018-02-19T11:31:18Z</time>
      </trkpt>
      <trkpt lat="45.95076" lon="4.7467">
        <ele>195</ele>
        <time>2018-02-19T11:31:19Z</time>
      </trkpt>
      <trkpt lat="45.95073" lon="4.74664">
        <ele>195</ele>
        <time>2018-02-19T11:31:20Z</time>
      </trkpt>
      <trkpt lat="45.95069" lon="4.74657">
        <ele>195</ele>
        <time>2018-02-19T11:31:21Z</time>
      </trkpt>
      <trkpt lat="45.95066" lon="4.74651">
        <ele>195</ele>
        <time>2018-02-19T11:31:22Z</time>
      </trkpt>
      <trkpt lat="45.95062" lon="4.74644">
        <ele>194</ele>
        <time>2018-02-19T11:31:23Z</time>
      </trkpt>
      <trkpt lat="45.95059" lon="4.74638">
        <ele>194</ele>
        <time>2018-02-19T11:31:24Z</time>
      </trkpt>
      <trkpt lat="45.95056" lon="4.74631">
        <ele>194</ele>
        <time>2018-02-19T11:31:25Z</time>
      </trkpt>
      <trkpt lat="45.95052" lon="4.74625">
        <ele>194</ele>
        <time>2018-02-19T11:31:26Z</time>
      </trkpt>
      <trkpt lat="45.95048" lon="4.74618">
        <ele>194</ele>
        <time>2018-02-19T11:31:27Z</time>
      </trkpt>
      <trkpt lat="45.95044" lon="4.74612">
        <ele>194</ele>
        <time>2018-02-19T11:31:28Z</time>
      </trkpt>
      <trkpt lat="45.95039" lon="4.74604">
        <ele>194</ele>
        <time>2018-02-19T11:31:29Z</time>
      </trkpt>
      <trkpt lat="45.95034" lon="4.74597">
        <ele>194</ele>
        <time>2018-02-19T11:31:30Z</time>
      </trkpt>
      <trkpt lat="45.9503" lon="4.74589">
        <ele>194</ele>
        <time>2018-02-19T11:31:31Z</time>
      </trkpt>
      <trkpt lat="45.95026" lon="4.74582">
        <ele>194</ele>
        <time>2018-02-19T11:31:32Z</time>
      </trkpt>
      <trkpt lat="45.95023" lon="4.74575">
        <ele>194</ele>
        <time>2018-02-19T11:31:33Z</time>
      </trkpt>
      <trkpt lat="45.95019" lon="4.74568">
        <ele>194</ele>
        <time>2018-02-19T11:31:34Z</time>
      </trkpt>
      <trkpt lat="45.95016" lon="4.7456">
        <ele>194</ele>
        <time>2018-02-19T11:31:35Z</time>
      </trkpt>
      <trkpt lat="45.95012" lon="4.74552">
        <ele>194</ele>
        <time>2018-02-19T11:31:36Z</time>
      </trkpt>
      <trkpt lat="45.95008" lon="4.74544">
        <ele>194</ele>
        <time>2018-02-19T11:31:37Z</time>
      </trkpt>
      <trkpt lat="45.95003" lon="4.74536">
        <ele>194</ele>
        <time>2018-02-19T11:31:38Z</time>
      </trkpt>
      <trkpt lat="45.94999" lon="4.74527">
        <ele>193</ele>
        <time>2018-02-19T11:31:39Z</time>
      </trkpt>
      <trkpt lat="45.94995" lon="4.74518">
        <ele>193</ele>
        <time>2018-02-19T11:31:40Z</time>
      </trkpt>
      <trkpt lat="45.9499" lon="4.74509">
        <ele>193</ele>
        <time>2018-02-19T11:31:41Z</time>
      </trkpt>
      <trkpt lat="45.94986" lon="4.745">
        <ele>193</ele>
        <time>2018-02-19T11:31:42Z</time>
      </trkpt>
      <trkpt lat="45.94981" lon="4.7449">
        <ele>193</ele>
        <time>2018-02-19T11:31:43Z</time>
      </trkpt>
      <trkpt lat="45.94976" lon="4.74481">
        <ele>193</ele>
        <time>2018-02-19T11:31:44Z</time>
      </trkpt>
      <trkpt lat="45.94972" lon="4.74472">
        <ele>193</ele>
        <time>2018-02-19T11:31:45Z</time>
      </trkpt>
      <trkpt lat="45.94966" lon="4.74463">
        <ele>193</ele>
        <time>2018-02-19T11:31:46Z</time>
      </trkpt>
      <trkpt lat="45.94961" lon="4.74453">
        <ele>192</ele>
        <time>2018-02-19T11:31:47Z</time>
      </trkpt>
      <trkpt lat="45.94956" lon="4.74444">
        <ele>192</ele>
        <time>2018-02-19T11:31:48Z</time>
      </trkpt>
      <trkpt lat="45.94951" lon="4.74435">
        <ele>192</ele>
        <time>2018-02-19T11:31:49Z</time>
      </trkpt>
      <trkpt lat="45.94947" lon="4.74425">
        <ele>192</ele>
        <time>2018-02-19T11:31:50Z</time>
      </trkpt>
      <trkpt lat="45.9494" lon="4.74416">
        <ele>192</ele>
        <time>2018-02-19T11:31:51Z</time>
      </trkpt>
      <trkpt lat="45.94935" lon="4.74406">
        <ele>192</ele>
        <time>2018-02-19T11:31:52Z</time>
      </trkpt>
      <trkpt lat="45.9493" lon="4.74396">
        <ele>192</ele>
        <time>2018-02-19T11:31:53Z</time>
      </trkpt>
      <trkpt lat="45.94926" lon="4.74387">
        <ele>192</ele>
        <time>2018-02-19T11:31:54Z</time>
      </trkpt>
      <trkpt lat="45.94921" lon="4.74378">
        <ele>192</ele>
        <time>2018-02-19T11:31:55Z</time>
      </trkpt>
      <trkpt lat="45.94916" lon="4.74369">
        <ele>191</ele>
        <time>2018-02-19T11:31:56Z</time>
      </trkpt>
      <trkpt lat="45.9491" lon="4.7436">
        <ele>191</ele>
        <time>2018-02-19T11:31:57Z</time>
      </trkpt>
      <trkpt lat="45.94906" lon="4.7435">
        <ele>191</ele>
        <time>2018-02-19T11:31:58Z</time>
      </trkpt>
      <trkpt lat="45.94901" lon="4.74342">
        <ele>191</ele>
        <time>2018-02-19T11:31:59Z</time>
      </trkpt>
      <trkpt lat="45.94897" lon="4.74335">
        <ele>191</ele>
        <time>2018-02-19T11:32:00Z</time>
      </trkpt>
      <trkpt lat="45.94893" lon="4.74327">
        <ele>191</ele>
        <time>2018-02-19T11:32:01Z</time>
      </trkpt>
      <trkpt lat="45.94888" lon="4.74318">
        <ele>191</ele>
        <time>2018-02-19T11:32:02Z</time>
      </trkpt>
      <trkpt lat="45.94884" lon="4.74311">
        <ele>191</ele>
        <time>2018-02-19T11:32:03Z</time>
      </trkpt>
      <trkpt lat="45.94882" lon="4.74302">
        <ele>191</ele>
        <time>2018-02-19T11:32:04Z</time>
      </trkpt>
      <trkpt lat="45.94877" lon="4.74295">
        <ele>191</ele>
        <time>2018-02-19T11:32:05Z</time>
      </trkpt>
      <trkpt lat="45.94874" lon="4.74286">
        <ele>191</ele>
        <time>2018-02-19T11:32:06Z</time>
      </trkpt>
      <trkpt lat="45.94869" lon="4.74279">
        <ele>191</ele>
        <time>2018-02-19T11:32:07Z</time>
      </trkpt>
      <trkpt lat="45.94865" lon="4.74271">
        <ele>190</ele>
        <time>2018-02-19T11:32:08Z</time>
      </trkpt>
      <trkpt lat="45.94861" lon="4.74263">
        <ele>190</ele>
        <time>2018-02-19T11:32:09Z</time>
      </trkpt>
      <trkpt lat="45.94857" lon="4.74255">
        <ele>190</ele>
        <time>2018-02-19T11:32:10Z</time>
      </trkpt>
      <trkpt lat="45.94853" lon="4.74247">
        <ele>190</ele>
        <time>2018-02-19T11:32:11Z</time>
      </trkpt>
      <trkpt lat="45.9485" lon="4.74238">
        <ele>190</ele>
        <time>2018-02-19T11:32:12Z</time>
      </trkpt>
      <trkpt lat="45.94846" lon="4.7423">
        <ele>190</ele>
        <time>2018-02-19T11:32:13Z</time>
      </trkpt>
      <trkpt lat="45.94843" lon="4.74221">
        <ele>190</ele>
        <time>2018-02-19T11:32:14Z</time>
      </trkpt>
      <trkpt lat="45.94838" lon="4.74213">
        <ele>190</ele>
        <time>2018-02-19T11:32:15Z</time>
      </trkpt>
      <trkpt lat="45.94834" lon="4.74206">
        <ele>190</ele>
        <time>2018-02-19T11:32:16Z</time>
      </trkpt>
      <trkpt lat="45.9483" lon="4.74199">
        <ele>189</ele>
        <time>2018-02-19T11:32:17Z</time>
      </trkpt>
      <trkpt lat="45.94825" lon="4.74192">
        <ele>189</ele>
        <time>2018-02-19T11:32:18Z</time>
      </trkpt>
      <trkpt lat="45.94821" lon="4.74185">
        <ele>189</ele>
        <time>2018-02-19T11:32:19Z</time>
      </trkpt>
      <trkpt lat="45.94817" lon="4.74178">
        <ele>189</ele>
        <time>2018-02-19T11:32:20Z</time>
      </trkpt>
      <trkpt lat="45.94813" lon="4.74172">
        <ele>189</ele>
        <time>2018-02-19T11:32:21Z</time>
      </trkpt>
      <trkpt lat="45.94809" lon="4.74165">
        <ele>189</ele>
        <time>2018-02-19T11:32:22Z</time>
      </trkpt>
      <trkpt lat="45.94805" lon="4.74158">
        <ele>189</ele>
        <time>2018-02-19T11:32:23Z</time>
      </trkpt>
      <trkpt lat="45.94802" lon="4.74151">
        <ele>189</ele>
        <time>2018-02-19T11:32:24Z</time>
      </trkpt>
      <trkpt lat="45.94797" lon="4.74143">
        <ele>189</ele>
        <time>2018-02-19T11:32:25Z</time>
      </trkpt>
      <trkpt lat="45.94793" lon="4.74136">
        <ele>189</ele>
        <time>2018-02-19T11:32:26Z</time>
      </trkpt>
      <trkpt lat="45.94789" lon="4.7413">
        <ele>189</ele>
        <time>2018-02-19T11:32:27Z</time>
      </trkpt>
      <trkpt lat="45.94785" lon="4.74123">
        <ele>189</ele>
        <time>2018-02-19T11:32:28Z</time>
      </trkpt>
      <trkpt lat="45.9478" lon="4.74117">
        <ele>189</ele>
        <time>2018-02-19T11:32:29Z</time>
      </trkpt>
      <trkpt lat="45.94776" lon="4.7411">
        <ele>189</ele>
        <time>2018-02-19T11:32:30Z</time>
      </trkpt>
      <trkpt lat="45.94771" lon="4.74105">
        <ele>189</ele>
        <time>2018-02-19T11:32:31Z</time>
      </trkpt>
      <trkpt lat="45.94767" lon="4.74098">
        <ele>189</ele>
        <time>2018-02-19T11:32:32Z</time>
      </trkpt>
      <trkpt lat="45.94763" lon="4.74093">
        <ele>189</ele>
        <time>2018-02-19T11:32:33Z</time>
      </trkpt>
      <trkpt lat="45.94759" lon="4.74087">
        <ele>189</ele>
        <time>2018-02-19T11:32:34Z</time>
      </trkpt>
      <trkpt lat="45.94754" lon="4.74081">
        <ele>189</ele>
        <time>2018-02-19T11:32:35Z</time>
      </trkpt>
      <trkpt lat="45.94749" lon="4.74076">
        <ele>189</ele>
        <time>2018-02-19T11:32:36Z</time>
      </trkpt>
      <trkpt lat="45.94745" lon="4.7407">
        <ele>188</ele>
        <time>2018-02-19T11:32:37Z</time>
      </trkpt>
      <trkpt lat="45.9474" lon="4.74064">
        <ele>188</ele>
        <time>2018-02-19T11:32:38Z</time>
      </trkpt>
      <trkpt lat="45.94735" lon="4.74058">
        <ele>188</ele>
        <time>2018-02-19T11:32:39Z</time>
      </trkpt>
      <trkpt lat="45.94731" lon="4.74052">
        <ele>188</ele>
        <time>2018-02-19T11:32:40Z</time>
      </trkpt>
      <trkpt lat="45.94725" lon="4.74047">
        <ele>188</ele>
        <time>2018-02-19T11:32:41Z</time>
      </trkpt>
      <trkpt lat="45.94721" lon="4.74041">
        <ele>187</ele>
        <time>2018-02-19T11:32:42Z</time>
      </trkpt>
      <trkpt lat="45.94717" lon="4.74036">
        <ele>187</ele>
        <time>2018-02-19T11:32:43Z</time>
      </trkpt>
      <trkpt lat="45.94712" lon="4.7403">
        <ele>187</ele>
        <time>2018-02-19T11:32:44Z</time>
      </trkpt>
      <trkpt lat="45.94708" lon="4.74025">
        <ele>187</ele>
        <time>2018-02-19T11:32:45Z</time>
      </trkpt>
      <trkpt lat="45.94704" lon="4.74019">
        <ele>187</ele>
        <time>2018-02-19T11:32:46Z</time>
      </trkpt>
      <trkpt lat="45.947" lon="4.74014">
        <ele>187</ele>
        <time>2018-02-19T11:32:47Z</time>
      </trkpt>
      <trkpt lat="45.94696" lon="4.74008">
        <ele>187</ele>
        <time>2018-02-19T11:32:48Z</time>
      </trkpt>
      <trkpt lat="45.94692" lon="4.74002">
        <ele>187</ele>
        <time>2018-02-19T11:32:49Z</time>
      </trkpt>
      <trkpt lat="45.94688" lon="4.73996">
        <ele>187</ele>
        <time>2018-02-19T11:32:50Z</time>
      </trkpt>
      <trkpt lat="45.94685" lon="4.7399">
        <ele>187</ele>
        <time>2018-02-19T11:32:51Z</time>
      </trkpt>
      <trkpt lat="45.94681" lon="4.73982">
        <ele>187</ele>
        <time>2018-02-19T11:32:52Z</time>
      </trkpt>
      <trkpt lat="45.94677" lon="4.73976">
        <ele>187</ele>
        <time>2018-02-19T11:32:53Z</time>
      </trkpt>
      <trkpt lat="45.94672" lon="4.73969">
        <ele>187</ele>
        <time>2018-02-19T11:32:54Z</time>
      </trkpt>
      <trkpt lat="45.94667" lon="4.73963">
        <ele>187</ele>
        <time>2018-02-19T11:32:55Z</time>
      </trkpt>
      <trkpt lat="45.94662" lon="4.73957">
        <ele>187</ele>
        <time>2018-02-19T11:32:56Z</time>
      </trkpt>
      <trkpt lat="45.94657" lon="4.73952">
        <ele>187</ele>
        <time>2018-02-19T11:32:57Z</time>
      </trkpt>
      <trkpt lat="45.94653" lon="4.73945">
        <ele>187</ele>
        <time>2018-02-19T11:32:58Z</time>
      </trkpt>
      <trkpt lat="45.94648" lon="4.73939">
        <ele>187</ele>
        <time>2018-02-19T11:32:59Z</time>
      </trkpt>
      <trkpt lat="45.94643" lon="4.73931">
        <ele>187</ele>
        <time>2018-02-19T11:33:00Z</time>
      </trkpt>
      <trkpt lat="45.94637" lon="4.73925">
        <ele>187</ele>
        <time>2018-02-19T11:33:01Z</time>
      </trkpt>
      <trkpt lat="45.94632" lon="4.73918">
        <ele>187</ele>
        <time>2018-02-19T11:33:02Z</time>
      </trkpt>
      <trkpt lat="45.94627" lon="4.73911">
        <ele>187</ele>
        <time>2018-02-19T11:33:03Z</time>
      </trkpt>
      <trkpt lat="45.94621" lon="4.73905">
        <ele>187</ele>
        <time>2018-02-19T11:33:04Z</time>
      </trkpt>
      <trkpt lat="45.94616" lon="4.739">
        <ele>187</ele>
        <time>2018-02-19T11:33:05Z</time>
      </trkpt>
      <trkpt lat="45.94611" lon="4.73893">
        <ele>187</ele>
        <time>2018-02-19T11:33:06Z</time>
      </trkpt>
      <trkpt lat="45.94605" lon="4.73887">
        <ele>187</ele>
        <time>2018-02-19T11:33:07Z</time>
      </trkpt>
      <trkpt lat="45.94601" lon="4.73881">
        <ele>187</ele>
        <time>2018-02-19T11:33:08Z</time>
      </trkpt>
      <trkpt lat="45.94595" lon="4.73875">
        <ele>187</ele>
        <time>2018-02-19T11:33:09Z</time>
      </trkpt>
      <trkpt lat="45.94591" lon="4.73868">
        <ele>187</ele>
        <time>2018-02-19T11:33:10Z</time>
      </trkpt>
      <trkpt lat="45.94585" lon="4.73862">
        <ele>187</ele>
        <time>2018-02-19T11:33:11Z</time>
      </trkpt>
      <trkpt lat="45.9458" lon="4.73857">
        <ele>186</ele>
        <time>2018-02-19T11:33:12Z</time>
      </trkpt>
      <trkpt lat="45.94574" lon="4.73851">
        <ele>186</ele>
        <time>2018-02-19T11:33:13Z</time>
      </trkpt>
      <trkpt lat="45.94569" lon="4.73845">
        <ele>186</ele>
        <time>2018-02-19T11:33:14Z</time>
      </trkpt>
      <trkpt lat="45.94564" lon="4.7384">
        <ele>186</ele>
        <time>2018-02-19T11:33:15Z</time>
      </trkpt>
      <trkpt lat="45.94558" lon="4.73834">
        <ele>186</ele>
        <time>2018-02-19T11:33:16Z</time>
      </trkpt>
      <trkpt lat="45.94552" lon="4.73829">
        <ele>186</ele>
        <time>2018-02-19T11:33:17Z</time>
      </trkpt>
      <trkpt lat="45.94547" lon="4.73824">
        <ele>186</ele>
        <time>2018-02-19T11:33:18Z</time>
      </trkpt>
      <trkpt lat="45.94543" lon="4.73818">
        <ele>186</ele>
        <time>2018-02-19T11:33:19Z</time>
      </trkpt>
      <trkpt lat="45.94537" lon="4.73813">
        <ele>186</ele>
        <time>2018-02-19T11:33:20Z</time>
      </trkpt>
      <trkpt lat="45.94533" lon="4.73807">
        <ele>186</ele>
        <time>2018-02-19T11:33:21Z</time>
      </trkpt>
      <trkpt lat="45.94528" lon="4.73801">
        <ele>186</ele>
        <time>2018-02-19T11:33:22Z</time>
      </trkpt>
      <trkpt lat="45.94523" lon="4.73796">
        <ele>186</ele>
        <time>2018-02-19T11:33:23Z</time>
      </trkpt>
      <trkpt lat="45.94518" lon="4.73791">
        <ele>186</ele>
        <time>2018-02-19T11:33:24Z</time>
      </trkpt>
      <trkpt lat="45.94513" lon="4.73787">
        <ele>186</ele>
        <time>2018-02-19T11:33:25Z</time>
      </trkpt>
      <trkpt lat="45.94509" lon="4.73781">
        <ele>186</ele>
        <time>2018-02-19T11:33:26Z</time>
      </trkpt>
      <trkpt lat="45.94505" lon="4.73776">
        <ele>186</ele>
        <time>2018-02-19T11:33:27Z</time>
      </trkpt>
      <trkpt lat="45.94501" lon="4.7377">
        <ele>186</ele>
        <time>2018-02-19T11:33:28Z</time>
      </trkpt>
      <trkpt lat="45.94497" lon="4.73765">
        <ele>186</ele>
        <time>2018-02-19T11:33:29Z</time>
      </trkpt>
      <trkpt lat="45.94494" lon="4.73757">
        <ele>186</ele>
        <time>2018-02-19T11:33:30Z</time>
      </trkpt>
      <trkpt lat="45.94495" lon="4.73748">
        <ele>186</ele>
        <time>2018-02-19T11:33:31Z</time>
      </trkpt>
      <trkpt lat="45.94494" lon="4.7374">
        <ele>186</ele>
        <time>2018-02-19T11:33:32Z</time>
      </trkpt>
      <trkpt lat="45.94494" lon="4.73732">
        <ele>186</ele>
        <time>2018-02-19T11:33:33Z</time>
      </trkpt>
      <trkpt lat="45.94495" lon="4.73724">
        <ele>186</ele>
        <time>2018-02-19T11:33:34Z</time>
      </trkpt>
      <trkpt lat="45.94496" lon="4.73715">
        <ele>186</ele>
        <time>2018-02-19T11:33:35Z</time>
      </trkpt>
      <trkpt lat="45.94496" lon="4.73707">
        <ele>186</ele>
        <time>2018-02-19T11:33:36Z</time>
      </trkpt>
      <trkpt lat="45.94497" lon="4.73698">
        <ele>186</ele>
        <time>2018-02-19T11:33:37Z</time>
      </trkpt>
      <trkpt lat="45.94497" lon="4.73689">
        <ele>186</ele>
        <time>2018-02-19T11:33:38Z</time>
      </trkpt>
      <trkpt lat="45.94498" lon="4.7368">
        <ele>185</ele>
        <time>2018-02-19T11:33:39Z</time>
      </trkpt>
      <trkpt lat="45.94499" lon="4.73671">
        <ele>185</ele>
        <time>2018-02-19T11:33:40Z</time>
      </trkpt>
      <trkpt lat="45.945" lon="4.73662">
        <ele>185</ele>
        <time>2018-02-19T11:33:41Z</time>
      </trkpt>
      <trkpt lat="45.945" lon="4.73655">
        <ele>185</ele>
        <time>2018-02-19T11:33:42Z</time>
      </trkpt>
      <trkpt lat="45.94501" lon="4.73646">
        <ele>184</ele>
        <time>2018-02-19T11:33:43Z</time>
      </trkpt>
      <trkpt lat="45.94501" lon="4.7364">
        <ele>184</ele>
        <time>2018-02-19T11:33:44Z</time>
      </trkpt>
      <trkpt lat="45.94502" lon="4.73631">
        <ele>184</ele>
        <time>2018-02-19T11:33:45Z</time>
      </trkpt>
      <trkpt lat="45.94504" lon="4.73623">
        <ele>184</ele>
        <time>2018-02-19T11:33:46Z</time>
      </trkpt>
      <trkpt lat="45.94504" lon="4.73615">
        <ele>184</ele>
        <time>2018-02-19T11:33:47Z</time>
      </trkpt>
      <trkpt lat="45.94505" lon="4.73606">
        <ele>184</ele>
        <time>2018-02-19T11:33:48Z</time>
      </trkpt>
      <trkpt lat="45.94506" lon="4.73595">
        <ele>184</ele>
        <time>2018-02-19T11:33:49Z</time>
      </trkpt>
      <trkpt lat="45.94506" lon="4.73586">
        <ele>185</ele>
        <time>2018-02-19T11:33:50Z</time>
      </trkpt>
      <trkpt lat="45.94507" lon="4.73575">
        <ele>184</ele>
        <time>2018-02-19T11:33:51Z</time>
      </trkpt>
      <trkpt lat="45.94507" lon="4.73566">
        <ele>184</ele>
        <time>2018-02-19T11:33:52Z</time>
      </trkpt>
      <trkpt lat="45.94508" lon="4.73557">
        <ele>183</ele>
        <time>2018-02-19T11:33:53Z</time>
      </trkpt>
      <trkpt lat="45.94507" lon="4.73548">
        <ele>183</ele>
        <time>2018-02-19T11:33:54Z</time>
      </trkpt>
      <trkpt lat="45.94507" lon="4.73538">
        <ele>183</ele>
        <time>2018-02-19T11:33:55Z</time>
      </trkpt>
      <trkpt lat="45.94507" lon="4.73528">
        <ele>183</ele>
        <time>2018-02-19T11:33:56Z</time>
      </trkpt>
      <trkpt lat="45.94507" lon="4.73518">
        <ele>183</ele>
        <time>2018-02-19T11:33:57Z</time>
      </trkpt>
      <trkpt lat="45.94508" lon="4.73507">
        <ele>183</ele>
        <time>2018-02-19T11:33:58Z</time>
      </trkpt>
      <trkpt lat="45.94508" lon="4.73497">
        <ele>182</ele>
        <time>2018-02-19T11:33:59Z</time>
      </trkpt>
      <trkpt lat="45.94507" lon="4.73487">
        <ele>182</ele>
        <time>2018-02-19T11:34:00Z</time>
      </trkpt>
      <trkpt lat="45.94507" lon="4.73477">
        <ele>182</ele>
        <time>2018-02-19T11:34:01Z</time>
      </trkpt>
      <trkpt lat="45.94508" lon="4.73465">
        <ele>181</ele>
        <time>2018-02-19T11:34:02Z</time>
      </trkpt>
      <trkpt lat="45.94508" lon="4.73454">
        <ele>181</ele>
        <time>2018-02-19T11:34:03Z</time>
      </trkpt>
      <trkpt lat="45.94509" lon="4.73445">
        <ele>181</ele>
        <time>2018-02-19T11:34:04Z</time>
      </trkpt>
      <trkpt lat="45.94508" lon="4.73434">
        <ele>181</ele>
        <time>2018-02-19T11:34:05Z</time>
      </trkpt>
      <trkpt lat="45.94508" lon="4.73423">
        <ele>180</ele>
        <time>2018-02-19T11:34:06Z</time>
      </trkpt>
      <trkpt lat="45.94507" lon="4.73413">
        <ele>180</ele>
        <time>2018-02-19T11:34:07Z</time>
      </trkpt>
      <trkpt lat="45.94506" lon="4.73401">
        <ele>179</ele>
        <time>2018-02-19T11:34:08Z</time>
      </trkpt>
      <trkpt lat="45.94505" lon="4.73391">
        <ele>179</ele>
        <time>2018-02-19T11:34:09Z</time>
      </trkpt>
      <trkpt lat="45.94504" lon="4.73379">
        <ele>178</ele>
        <time>2018-02-19T11:34:10Z</time>
      </trkpt>
      <trkpt lat="45.94502" lon="4.73368">
        <ele>178</ele>
        <time>2018-02-19T11:34:11Z</time>
      </trkpt>
      <trkpt lat="45.94501" lon="4.73357">
        <ele>178</ele>
        <time>2018-02-19T11:34:12Z</time>
      </trkpt>
      <trkpt lat="45.94501" lon="4.73346">
        <ele>178</ele>
        <time>2018-02-19T11:34:13Z</time>
      </trkpt>
      <trkpt lat="45.945" lon="4.73335">
        <ele>177</ele>
        <time>2018-02-19T11:34:14Z</time>
      </trkpt>
      <trkpt lat="45.94499" lon="4.73324">
        <ele>177</ele>
        <time>2018-02-19T11:34:15Z</time>
      </trkpt>
      <trkpt lat="45.94497" lon="4.73313">
        <ele>177</ele>
        <time>2018-02-19T11:34:16Z</time>
      </trkpt>
      <trkpt lat="45.94496" lon="4.73303">
        <ele>177</ele>
        <time>2018-02-19T11:34:17Z</time>
      </trkpt>
      <trkpt lat="45.94495" lon="4.73292">
        <ele>177</ele>
        <time>2018-02-19T11:34:18Z</time>
      </trkpt>
      <trkpt lat="45.94494" lon="4.73281">
        <ele>177</ele>
        <time>2018-02-19T11:34:19Z</time>
      </trkpt>
      <trkpt lat="45.94492" lon="4.73271">
        <ele>177</ele>
        <time>2018-02-19T11:34:20Z</time>
      </trkpt>
      <trkpt lat="45.94491" lon="4.73262">
        <ele>176</ele>
        <time>2018-02-19T11:34:21Z</time>
      </trkpt>
      <trkpt lat="45.9449" lon="4.73253">
        <ele>176</ele>
        <time>2018-02-19T11:34:22Z</time>
      </trkpt>
      <trkpt lat="45.94489" lon="4.73244">
        <ele>175</ele>
        <time>2018-02-19T11:34:23Z</time>
      </trkpt>
      <trkpt lat="45.94488" lon="4.73235">
        <ele>175</ele>
        <time>2018-02-19T11:34:24Z</time>
      </trkpt>
      <trkpt lat="45.94487" lon="4.73227">
        <ele>175</ele>
        <time>2018-02-19T11:34:25Z</time>
      </trkpt>
      <trkpt lat="45.94485" lon="4.73218">
        <ele>175</ele>
        <time>2018-02-19T11:34:26Z</time>
      </trkpt>
      <trkpt lat="45.94483" lon="4.7321">
        <ele>175</ele>
        <time>2018-02-19T11:34:27Z</time>
      </trkpt>
      <trkpt lat="45.94482" lon="4.73201">
        <ele>174</ele>
        <time>2018-02-19T11:34:28Z</time>
      </trkpt>
      <trkpt lat="45.9448" lon="4.73192">
        <ele>174</ele>
        <time>2018-02-19T11:34:29Z</time>
      </trkpt>
      <trkpt lat="45.94479" lon="4.73183">
        <ele>174</ele>
        <time>2018-02-19T11:34:30Z</time>
      </trkpt>
      <trkpt lat="45.94477" lon="4.73175">
        <ele>174</ele>
        <time>2018-02-19T11:34:31Z</time>
      </trkpt>
      <trkpt lat="45.94475" lon="4.73167">
        <ele>174</ele>
        <time>2018-02-19T11:34:32Z</time>
      </trkpt>
      <trkpt lat="45.94474" lon="4.73159">
        <ele>173</ele>
        <time>2018-02-19T11:34:33Z</time>
      </trkpt>
      <trkpt lat="45.94473" lon="4.73152">
        <ele>172</ele>
        <time>2018-02-19T11:34:34Z</time>
      </trkpt>
      <trkpt lat="45.94473" lon="4.73145">
        <ele>172</ele>
        <time>2018-02-19T11:34:35Z</time>
      </trkpt>
      <trkpt lat="45.94472" lon="4.73138">
        <ele>172</ele>
        <time>2018-02-19T11:34:36Z</time>
      </trkpt>
      <trkpt lat="45.94471" lon="4.73129">
        <ele>172</ele>
        <time>2018-02-19T11:34:37Z</time>
      </trkpt>
      <trkpt lat="45.9447" lon="4.73122">
        <ele>172</ele>
        <time>2018-02-19T11:34:38Z</time>
      </trkpt>
      <trkpt lat="45.94469" lon="4.73114">
        <ele>172</ele>
        <time>2018-02-19T11:34:39Z</time>
      </trkpt>
      <trkpt lat="45.94467" lon="4.73107">
        <ele>172</ele>
        <time>2018-02-19T11:34:40Z</time>
      </trkpt>
      <trkpt lat="45.94467" lon="4.731">
        <ele>172</ele>
        <time>2018-02-19T11:34:41Z</time>
      </trkpt>
      <trkpt lat="45.94467" lon="4.73088">
        <ele>171</ele>
        <time>2018-02-19T11:34:43Z</time>
      </trkpt>
      <trkpt lat="45.94466" lon="4.73083">
        <ele>170</ele>
        <time>2018-02-19T11:34:44Z</time>
      </trkpt>
      <trkpt lat="45.94464" lon="4.73072">
        <ele>170</ele>
        <time>2018-02-19T11:34:49Z</time>
      </trkpt>
      <trkpt lat="45.94464" lon="4.7307">
        <ele>170</ele>
        <time>2018-02-19T11:34:50Z</time>
      </trkpt>
      <trkpt lat="45.94458" lon="4.7306">
        <ele>170</ele>
        <time>2018-02-19T11:35:14Z</time>
      </trkpt>
      <trkpt lat="45.94458" lon="4.73057">
        <ele>170</ele>
        <time>2018-02-19T11:35:15Z</time>
      </trkpt>
      <trkpt lat="45.94456" lon="4.73048">
        <ele>170</ele>
        <time>2018-02-19T11:35:18Z</time>
      </trkpt>
      <trkpt lat="45.94456" lon="4.73045">
        <ele>169</ele>
        <time>2018-02-19T11:35:19Z</time>
      </trkpt>
      <trkpt lat="45.94455" lon="4.73033">
        <ele>169</ele>
        <time>2018-02-19T11:35:22Z</time>
      </trkpt>
      <trkpt lat="45.94455" lon="4.73029">
        <ele>169</ele>
        <time>2018-02-19T11:35:23Z</time>
      </trkpt>
      <trkpt lat="45.94453" lon="4.73017">
        <ele>169</ele>
        <time>2018-02-19T11:35:26Z</time>
      </trkpt>
      <trkpt lat="45.94452" lon="4.73012">
        <ele>169</ele>
        <time>2018-02-19T11:35:27Z</time>
      </trkpt>
      <trkpt lat="45.94452" lon="4.73003">
        <ele>169</ele>
        <time>2018-02-19T11:35:29Z</time>
      </trkpt>
      <trkpt lat="45.94452" lon="4.72998">
        <ele>167</ele>
        <time>2018-02-19T11:35:30Z</time>
      </trkpt>
      <trkpt lat="45.94452" lon="4.72988">
        <ele>167</ele>
        <time>2018-02-19T11:35:32Z</time>
      </trkpt>
      <trkpt lat="45.94452" lon="4.72983">
        <ele>167</ele>
        <time>2018-02-19T11:35:33Z</time>
      </trkpt>
      <trkpt lat="45.94451" lon="4.72974">
        <ele>167</ele>
        <time>2018-02-19T11:35:35Z</time>
      </trkpt>
      <trkpt lat="45.94451" lon="4.72969">
        <ele>167</ele>
        <time>2018-02-19T11:35:36Z</time>
      </trkpt>
      <trkpt lat="45.9445" lon="4.72959">
        <ele>167</ele>
        <time>2018-02-19T11:35:38Z</time>
      </trkpt>
      <trkpt lat="45.94449" lon="4.72955">
        <ele>167</ele>
        <time>2018-02-19T11:35:39Z</time>
      </trkpt>
      <trkpt lat="45.94448" lon="4.72945">
        <ele>167</ele>
        <time>2018-02-19T11:35:41Z</time>
      </trkpt>
      <trkpt lat="45.94448" lon="4.72941">
        <ele>167</ele>
        <time>2018-02-19T11:35:42Z</time>
      </trkpt>
      <trkpt lat="45.94446" lon="4.72932">
        <ele>167</ele>
        <time>2018-02-19T11:35:44Z</time>
      </trkpt>
      <trkpt lat="45.94445" lon="4.72927">
        <ele>167</ele>
        <time>2018-02-19T11:35:45Z</time>
      </trkpt>
      <trkpt lat="45.94444" lon="4.72918">
        <ele>167</ele>
        <time>2018-02-19T11:35:47Z</time>
      </trkpt>
      <trkpt lat="45.94443" lon="4.72913">
        <ele>166</ele>
        <time>2018-02-19T11:35:48Z</time>
      </trkpt>
      <trkpt lat="45.94441" lon="4.72902">
        <ele>166</ele>
        <time>2018-02-19T11:35:50Z</time>
      </trkpt>
      <trkpt lat="45.9444" lon="4.72896">
        <ele>166</ele>
        <time>2018-02-19T11:35:51Z</time>
      </trkpt>
      <trkpt lat="45.94439" lon="4.7289">
        <ele>166</ele>
        <time>2018-02-19T11:35:52Z</time>
      </trkpt>
      <trkpt lat="45.94438" lon="4.72883">
        <ele>166</ele>
        <time>2018-02-19T11:35:53Z</time>
      </trkpt>
      <trkpt lat="45.94437" lon="4.72877">
        <ele>166</ele>
        <time>2018-02-19T11:35:54Z</time>
      </trkpt>
      <trkpt lat="45.94435" lon="4.7287">
        <ele>166</ele>
        <time>2018-02-19T11:35:55Z</time>
      </trkpt>
      <trkpt lat="45.94435" lon="4.72863">
        <ele>166</ele>
        <time>2018-02-19T11:35:56Z</time>
      </trkpt>
      <trkpt lat="45.94433" lon="4.72857">
        <ele>166</ele>
        <time>2018-02-19T11:35:57Z</time>
      </trkpt>
      <trkpt lat="45.94433" lon="4.7285">
        <ele>166</ele>
        <time>2018-02-19T11:35:58Z</time>
      </trkpt>
      <trkpt lat="45.94433" lon="4.72842">
        <ele>166</ele>
        <time>2018-02-19T11:35:59Z</time>
      </trkpt>
      <trkpt lat="45.94431" lon="4.72836">
        <ele>166</ele>
        <time>2018-02-19T11:36:00Z</time>
      </trkpt>
      <trkpt lat="45.94429" lon="4.72829">
        <ele>167</ele>
        <time>2018-02-19T11:36:01Z</time>
      </trkpt>
      <trkpt lat="45.94427" lon="4.72822">
        <ele>167</ele>
        <time>2018-02-19T11:36:02Z</time>
      </trkpt>
      <trkpt lat="45.94426" lon="4.72813">
        <ele>167</ele>
        <time>2018-02-19T11:36:03Z</time>
      </trkpt>
      <trkpt lat="45.94426" lon="4.72804">
        <ele>167</ele>
        <time>2018-02-19T11:36:04Z</time>
      </trkpt>
      <trkpt lat="45.94425" lon="4.72795">
        <ele>168</ele>
        <time>2018-02-19T11:36:05Z</time>
      </trkpt>
      <trkpt lat="45.94424" lon="4.72785">
        <ele>168</ele>
        <time>2018-02-19T11:36:06Z</time>
      </trkpt>
      <trkpt lat="45.94423" lon="4.72775">
        <ele>168</ele>
        <time>2018-02-19T11:36:07Z</time>
      </trkpt>
      <trkpt lat="45.94422" lon="4.72766">
        <ele>169</ele>
        <time>2018-02-19T11:36:08Z</time>
      </trkpt>
      <trkpt lat="45.94421" lon="4.72756">
        <ele>170</ele>
        <time>2018-02-19T11:36:09Z</time>
      </trkpt>
      <trkpt lat="45.9442" lon="4.72746">
        <ele>171</ele>
        <time>2018-02-19T11:36:10Z</time>
      </trkpt>
      <trkpt lat="45.94419" lon="4.72737">
        <ele>171</ele>
        <time>2018-02-19T11:36:11Z</time>
      </trkpt>
      <trkpt lat="45.9442" lon="4.72727">
        <ele>171</ele>
        <time>2018-02-19T11:36:12Z</time>
      </trkpt>
      <trkpt lat="45.94419" lon="4.72717">
        <ele>171</ele>
        <time>2018-02-19T11:36:13Z</time>
      </trkpt>
      <trkpt lat="45.94419" lon="4.72707">
        <ele>172</ele>
        <time>2018-02-19T11:36:14Z</time>
      </trkpt>
      <trkpt lat="45.94417" lon="4.72697">
        <ele>172</ele>
        <time>2018-02-19T11:36:15Z</time>
      </trkpt>
      <trkpt lat="45.94416" lon="4.72688">
        <ele>173</ele>
        <time>2018-02-19T11:36:16Z</time>
      </trkpt>
      <trkpt lat="45.94414" lon="4.7268">
        <ele>173</ele>
        <time>2018-02-19T11:36:17Z</time>
      </trkpt>
      <trkpt lat="45.94412" lon="4.72669">
        <ele>174</ele>
        <time>2018-02-19T11:36:18Z</time>
      </trkpt>
      <trkpt lat="45.94411" lon="4.7266">
        <ele>174</ele>
        <time>2018-02-19T11:36:19Z</time>
      </trkpt>
      <trkpt lat="45.94409" lon="4.72652">
        <ele>174</ele>
        <time>2018-02-19T11:36:20Z</time>
      </trkpt>
      <trkpt lat="45.94408" lon="4.72643">
        <ele>174</ele>
        <time>2018-02-19T11:36:21Z</time>
      </trkpt>
      <trkpt lat="45.94405" lon="4.72634">
        <ele>174</ele>
        <time>2018-02-19T11:36:22Z</time>
      </trkpt>
      <trkpt lat="45.94404" lon="4.72624">
        <ele>173</ele>
        <time>2018-02-19T11:36:23Z</time>
      </trkpt>
      <trkpt lat="45.94403" lon="4.72617">
        <ele>173</ele>
        <time>2018-02-19T11:36:24Z</time>
      </trkpt>
      <trkpt lat="45.94402" lon="4.72608">
        <ele>173</ele>
        <time>2018-02-19T11:36:25Z</time>
      </trkpt>
      <trkpt lat="45.94402" lon="4.726">
        <ele>173</ele>
        <time>2018-02-19T11:36:26Z</time>
      </trkpt>
      <trkpt lat="45.944" lon="4.72591">
        <ele>173</ele>
        <time>2018-02-19T11:36:27Z</time>
      </trkpt>
      <trkpt lat="45.944" lon="4.72581">
        <ele>173</ele>
        <time>2018-02-19T11:36:28Z</time>
      </trkpt>
      <trkpt lat="45.94399" lon="4.72573">
        <ele>173</ele>
        <time>2018-02-19T11:36:29Z</time>
      </trkpt>
      <trkpt lat="45.94399" lon="4.72565">
        <ele>173</ele>
        <time>2018-02-19T11:36:30Z</time>
      </trkpt>
      <trkpt lat="45.94396" lon="4.72558">
        <ele>173</ele>
        <time>2018-02-19T11:36:31Z</time>
      </trkpt>
      <trkpt lat="45.94394" lon="4.7255">
        <ele>173</ele>
        <time>2018-02-19T11:36:32Z</time>
      </trkpt>
      <trkpt lat="45.94393" lon="4.72541">
        <ele>174</ele>
        <time>2018-02-19T11:36:33Z</time>
      </trkpt>
      <trkpt lat="45.94389" lon="4.72532">
        <ele>174</ele>
        <time>2018-02-19T11:36:34Z</time>
      </trkpt>
      <trkpt lat="45.94386" lon="4.72524">
        <ele>174</ele>
        <time>2018-02-19T11:36:35Z</time>
      </trkpt>
      <trkpt lat="45.94383" lon="4.72516">
        <ele>174</ele>
        <time>2018-02-19T11:36:36Z</time>
      </trkpt>
      <trkpt lat="45.94381" lon="4.72509">
        <ele>174</ele>
        <time>2018-02-19T11:36:37Z</time>
      </trkpt>
      <trkpt lat="45.94379" lon="4.72501">
        <ele>174</ele>
        <time>2018-02-19T11:36:38Z</time>
      </trkpt>
      <trkpt lat="45.94375" lon="4.72495">
        <ele>173</ele>
        <time>2018-02-19T11:36:39Z</time>
      </trkpt>
      <trkpt lat="45.94372" lon="4.72488">
        <ele>173</ele>
        <time>2018-02-19T11:36:40Z</time>
      </trkpt>
      <trkpt lat="45.94369" lon="4.72481">
        <ele>173</ele>
        <time>2018-02-19T11:36:41Z</time>
      </trkpt>
      <trkpt lat="45.94368" lon="4.72473">
        <ele>173</ele>
        <time>2018-02-19T11:36:42Z</time>
      </trkpt>
      <trkpt lat="45.94366" lon="4.72466">
        <ele>173</ele>
        <time>2018-02-19T11:36:43Z</time>
      </trkpt>
      <trkpt lat="45.94363" lon="4.7246">
        <ele>173</ele>
        <time>2018-02-19T11:36:44Z</time>
      </trkpt>
      <trkpt lat="45.94359" lon="4.72452">
        <ele>173</ele>
        <time>2018-02-19T11:36:45Z</time>
      </trkpt>
      <trkpt lat="45.94354" lon="4.72445">
        <ele>173</ele>
        <time>2018-02-19T11:36:46Z</time>
      </trkpt>
      <trkpt lat="45.9435" lon="4.72438">
        <ele>173</ele>
        <time>2018-02-19T11:36:47Z</time>
      </trkpt>
      <trkpt lat="45.94347" lon="4.72431">
        <ele>173</ele>
        <time>2018-02-19T11:36:48Z</time>
      </trkpt>
      <trkpt lat="45.94344" lon="4.72423">
        <ele>173</ele>
        <time>2018-02-19T11:36:49Z</time>
      </trkpt>
      <trkpt lat="45.9434" lon="4.72416">
        <ele>173</ele>
        <time>2018-02-19T11:36:50Z</time>
      </trkpt>
      <trkpt lat="45.94337" lon="4.72408">
        <ele>173</ele>
        <time>2018-02-19T11:36:51Z</time>
      </trkpt>
      <trkpt lat="45.94333" lon="4.72402">
        <ele>173</ele>
        <time>2018-02-19T11:36:52Z</time>
      </trkpt>
      <trkpt lat="45.94331" lon="4.72394">
        <ele>172</ele>
        <time>2018-02-19T11:36:53Z</time>
      </trkpt>
      <trkpt lat="45.94328" lon="4.72387">
        <ele>172</ele>
        <time>2018-02-19T11:36:54Z</time>
      </trkpt>
      <trkpt lat="45.94326" lon="4.7238">
        <ele>172</ele>
        <time>2018-02-19T11:36:55Z</time>
      </trkpt>
      <trkpt lat="45.94323" lon="4.72372">
        <ele>172</ele>
        <time>2018-02-19T11:36:56Z</time>
      </trkpt>
      <trkpt lat="45.94318" lon="4.72366">
        <ele>172</ele>
        <time>2018-02-19T11:36:57Z</time>
      </trkpt>
      <trkpt lat="45.94316" lon="4.72358">
        <ele>172</ele>
        <time>2018-02-19T11:36:58Z</time>
      </trkpt>
      <trkpt lat="45.94313" lon="4.7235">
        <ele>172</ele>
        <time>2018-02-19T11:36:59Z</time>
      </trkpt>
      <trkpt lat="45.9431" lon="4.72343">
        <ele>172</ele>
        <time>2018-02-19T11:37:00Z</time>
      </trkpt>
      <trkpt lat="45.94307" lon="4.72337">
        <ele>172</ele>
        <time>2018-02-19T11:37:01Z</time>
      </trkpt>
      <trkpt lat="45.94302" lon="4.72332">
        <ele>171</ele>
        <time>2018-02-19T11:37:02Z</time>
      </trkpt>
      <trkpt lat="45.943" lon="4.72324">
        <ele>171</ele>
        <time>2018-02-19T11:37:03Z</time>
      </trkpt>
      <trkpt lat="45.94297" lon="4.72316">
        <ele>171</ele>
        <time>2018-02-19T11:37:04Z</time>
      </trkpt>
      <trkpt lat="45.94294" lon="4.72307">
        <ele>171</ele>
        <time>2018-02-19T11:37:05Z</time>
      </trkpt>
      <trkpt lat="45.94289" lon="4.72299">
        <ele>171</ele>
        <time>2018-02-19T11:37:06Z</time>
      </trkpt>
      <trkpt lat="45.94287" lon="4.72291">
        <ele>171</ele>
        <time>2018-02-19T11:37:07Z</time>
      </trkpt>
      <trkpt lat="45.94284" lon="4.72282">
        <ele>171</ele>
        <time>2018-02-19T11:37:08Z</time>
      </trkpt>
      <trkpt lat="45.94279" lon="4.72277">
        <ele>171</ele>
        <time>2018-02-19T11:37:09Z</time>
      </trkpt>
      <trkpt lat="45.94274" lon="4.72274">
        <ele>171</ele>
        <time>2018-02-19T11:37:10Z</time>
      </trkpt>
      <trkpt lat="45.94269" lon="4.72273">
        <ele>171</ele>
        <time>2018-02-19T11:37:11Z</time>
      </trkpt>
      <trkpt lat="45.94262" lon="4.72275">
        <ele>171</ele>
        <time>2018-02-19T11:37:12Z</time>
      </trkpt>
      <trkpt lat="45.94256" lon="4.72278">
        <ele>171</ele>
        <time>2018-02-19T11:37:13Z</time>
      </trkpt>
      <trkpt lat="45.9425" lon="4.72281">
        <ele>171</ele>
        <time>2018-02-19T11:37:14Z</time>
      </trkpt>
      <trkpt lat="45.94245" lon="4.72283">
        <ele>171</ele>
        <time>2018-02-19T11:37:15Z</time>
      </trkpt>
      <trkpt lat="45.94239" lon="4.72285">
        <ele>171</ele>
        <time>2018-02-19T11:37:16Z</time>
      </trkpt>
      <trkpt lat="45.94234" lon="4.72287">
        <ele>171</ele>
        <time>2018-02-19T11:37:17Z</time>
      </trkpt>
      <trkpt lat="45.94228" lon="4.72288">
        <ele>171</ele>
        <time>2018-02-19T11:37:18Z</time>
      </trkpt>
      <trkpt lat="45.94222" lon="4.72288">
        <ele>171</ele>
        <time>2018-02-19T11:37:19Z</time>
      </trkpt>
      <trkpt lat="45.94215" lon="4.72289">
        <ele>171</ele>
        <time>2018-02-19T11:37:20Z</time>
      </trkpt>
      <trkpt lat="45.9421" lon="4.72289">
        <ele>171</ele>
        <time>2018-02-19T11:37:21Z</time>
      </trkpt>
      <trkpt lat="45.94204" lon="4.72289">
        <ele>171</ele>
        <time>2018-02-19T11:37:22Z</time>
      </trkpt>
      <trkpt lat="45.94196" lon="4.7229">
        <ele>171</ele>
        <time>2018-02-19T11:37:23Z</time>
      </trkpt>
      <trkpt lat="45.9419" lon="4.72291">
        <ele>171</ele>
        <time>2018-02-19T11:37:24Z</time>
      </trkpt>
      <trkpt lat="45.94186" lon="4.7229">
        <ele>171</ele>
        <time>2018-02-19T11:37:25Z</time>
      </trkpt>
      <trkpt lat="45.9418" lon="4.7229">
        <ele>171</ele>
        <time>2018-02-19T11:37:26Z</time>
      </trkpt>
      <trkpt lat="45.94171" lon="4.7229">
        <ele>171</ele>
        <time>2018-02-19T11:37:27Z</time>
      </trkpt>
      <trkpt lat="45.94165" lon="4.72289">
        <ele>171</ele>
        <time>2018-02-19T11:37:28Z</time>
      </trkpt>
      <trkpt lat="45.94159" lon="4.72286">
        <ele>171</ele>
        <time>2018-02-19T11:37:29Z</time>
      </trkpt>
      <trkpt lat="45.94153" lon="4.72284">
        <ele>171</ele>
        <time>2018-02-19T11:37:30Z</time>
      </trkpt>
      <trkpt lat="45.94147" lon="4.72283">
        <ele>171</ele>
        <time>2018-02-19T11:37:31Z</time>
      </trkpt>
      <trkpt lat="45.94142" lon="4.72281">
        <ele>171</ele>
        <time>2018-02-19T11:37:32Z</time>
      </trkpt>
      <trkpt lat="45.94136" lon="4.72278">
        <ele>171</ele>
        <time>2018-02-19T11:37:33Z</time>
      </trkpt>
      <trkpt lat="45.9413" lon="4.72274">
        <ele>171</ele>
        <time>2018-02-19T11:37:34Z</time>
      </trkpt>
      <trkpt lat="45.94125" lon="4.72272">
        <ele>171</ele>
        <time>2018-02-19T11:37:35Z</time>
      </trkpt>
      <trkpt lat="45.94119" lon="4.7227">
        <ele>171</ele>
        <time>2018-02-19T11:37:36Z</time>
      </trkpt>
      <trkpt lat="45.94114" lon="4.72266">
        <ele>171</ele>
        <time>2018-02-19T11:37:37Z</time>
      </trkpt>
      <trkpt lat="45.94107" lon="4.72265">
        <ele>171</ele>
        <time>2018-02-19T11:37:38Z</time>
      </trkpt>
      <trkpt lat="45.94101" lon="4.72264">
        <ele>171</ele>
        <time>2018-02-19T11:37:39Z</time>
      </trkpt>
      <trkpt lat="45.94095" lon="4.72265">
        <ele>171</ele>
        <time>2018-02-19T11:37:40Z</time>
      </trkpt>
      <trkpt lat="45.94089" lon="4.72266">
        <ele>171</ele>
        <time>2018-02-19T11:37:41Z</time>
      </trkpt>
      <trkpt lat="45.94083" lon="4.72267">
        <ele>171</ele>
        <time>2018-02-19T11:37:42Z</time>
      </trkpt>
      <trkpt lat="45.94078" lon="4.7227">
        <ele>171</ele>
        <time>2018-02-19T11:37:43Z</time>
      </trkpt>
      <trkpt lat="45.94073" lon="4.72274">
        <ele>171</ele>
        <time>2018-02-19T11:37:44Z</time>
      </trkpt>
      <trkpt lat="45.94068" lon="4.72278">
        <ele>171</ele>
        <time>2018-02-19T11:37:45Z</time>
      </trkpt>
      <trkpt lat="45.94063" lon="4.72283">
        <ele>171</ele>
        <time>2018-02-19T11:37:46Z</time>
      </trkpt>
      <trkpt lat="45.94058" lon="4.7229">
        <ele>171</ele>
        <time>2018-02-19T11:37:47Z</time>
      </trkpt>
      <trkpt lat="45.94055" lon="4.72294">
        <ele>171</ele>
        <time>2018-02-19T11:37:48Z</time>
      </trkpt>
      <trkpt lat="45.9405" lon="4.72299">
        <ele>171</ele>
        <time>2018-02-19T11:37:49Z</time>
      </trkpt>
      <trkpt lat="45.94046" lon="4.72306">
        <ele>171</ele>
        <time>2018-02-19T11:37:50Z</time>
      </trkpt>
      <trkpt lat="45.9404" lon="4.7231">
        <ele>171</ele>
        <time>2018-02-19T11:37:51Z</time>
      </trkpt>
      <trkpt lat="45.94036" lon="4.72318">
        <ele>171</ele>
        <time>2018-02-19T11:37:52Z</time>
      </trkpt>
      <trkpt lat="45.94032" lon="4.72325">
        <ele>171</ele>
        <time>2018-02-19T11:37:53Z</time>
      </trkpt>
      <trkpt lat="45.94027" lon="4.72332">
        <ele>171</ele>
        <time>2018-02-19T11:37:54Z</time>
      </trkpt>
      <trkpt lat="45.94023" lon="4.72336">
        <ele>171</ele>
        <time>2018-02-19T11:37:55Z</time>
      </trkpt>
      <trkpt lat="45.94019" lon="4.72341">
        <ele>171</ele>
        <time>2018-02-19T11:37:56Z</time>
      </trkpt>
      <trkpt lat="45.94014" lon="4.72347">
        <ele>171</ele>
        <time>2018-02-19T11:37:57Z</time>
      </trkpt>
      <trkpt lat="45.94009" lon="4.72352">
        <ele>171</ele>
        <time>2018-02-19T11:37:58Z</time>
      </trkpt>
      <trkpt lat="45.94003" lon="4.72359">
        <ele>171</ele>
        <time>2018-02-19T11:37:59Z</time>
      </trkpt>
      <trkpt lat="45.93999" lon="4.72365">
        <ele>171</ele>
        <time>2018-02-19T11:38:00Z</time>
      </trkpt>
      <trkpt lat="45.93992" lon="4.72371">
        <ele>171</ele>
        <time>2018-02-19T11:38:01Z</time>
      </trkpt>
      <trkpt lat="45.93987" lon="4.72378">
        <ele>171</ele>
        <time>2018-02-19T11:38:02Z</time>
      </trkpt>
      <trkpt lat="45.93982" lon="4.72383">
        <ele>171</ele>
        <time>2018-02-19T11:38:03Z</time>
      </trkpt>
      <trkpt lat="45.93977" lon="4.72389">
        <ele>171</ele>
        <time>2018-02-19T11:38:04Z</time>
      </trkpt>
      <trkpt lat="45.93972" lon="4.72394">
        <ele>171</ele>
        <time>2018-02-19T11:38:05Z</time>
      </trkpt>
      <trkpt lat="45.93968" lon="4.724">
        <ele>171</ele>
        <time>2018-02-19T11:38:06Z</time>
      </trkpt>
      <trkpt lat="45.93963" lon="4.72405">
        <ele>171</ele>
        <time>2018-02-19T11:38:07Z</time>
      </trkpt>
      <trkpt lat="45.9396" lon="4.72409">
        <ele>171</ele>
        <time>2018-02-19T11:38:08Z</time>
      </trkpt>
      <trkpt lat="45.93956" lon="4.72415">
        <ele>171</ele>
        <time>2018-02-19T11:38:09Z</time>
      </trkpt>
      <trkpt lat="45.93952" lon="4.7242">
        <ele>171</ele>
        <time>2018-02-19T11:38:10Z</time>
      </trkpt>
      <trkpt lat="45.93947" lon="4.72425">
        <ele>171</ele>
        <time>2018-02-19T11:38:11Z</time>
      </trkpt>
      <trkpt lat="45.93943" lon="4.7243">
        <ele>171</ele>
        <time>2018-02-19T11:38:12Z</time>
      </trkpt>
      <trkpt lat="45.93938" lon="4.72436">
        <ele>171</ele>
        <time>2018-02-19T11:38:13Z</time>
      </trkpt>
      <trkpt lat="45.93934" lon="4.72442">
        <ele>171</ele>
        <time>2018-02-19T11:38:14Z</time>
      </trkpt>
      <trkpt lat="45.9393" lon="4.72447">
        <ele>171</ele>
        <time>2018-02-19T11:38:15Z</time>
      </trkpt>
      <trkpt lat="45.93926" lon="4.72453">
        <ele>171</ele>
        <time>2018-02-19T11:38:16Z</time>
      </trkpt>
      <trkpt lat="45.93921" lon="4.72458">
        <ele>171</ele>
        <time>2018-02-19T11:38:17Z</time>
      </trkpt>
      <trkpt lat="45.93917" lon="4.72462">
        <ele>171</ele>
        <time>2018-02-19T11:38:18Z</time>
      </trkpt>
      <trkpt lat="45.93912" lon="4.72468">
        <ele>172</ele>
        <time>2018-02-19T11:38:19Z</time>
      </trkpt>
      <trkpt lat="45.93908" lon="4.72473">
        <ele>172</ele>
        <time>2018-02-19T11:38:20Z</time>
      </trkpt>
      <trkpt lat="45.93903" lon="4.72478">
        <ele>172</ele>
        <time>2018-02-19T11:38:21Z</time>
      </trkpt>
      <trkpt lat="45.939" lon="4.72484">
        <ele>172</ele>
        <time>2018-02-19T11:38:22Z</time>
      </trkpt>
      <trkpt lat="45.93896" lon="4.7249">
        <ele>172</ele>
        <time>2018-02-19T11:38:23Z</time>
      </trkpt>
      <trkpt lat="45.93892" lon="4.72494">
        <ele>172</ele>
        <time>2018-02-19T11:38:24Z</time>
      </trkpt>
      <trkpt lat="45.93889" lon="4.72498">
        <ele>172</ele>
        <time>2018-02-19T11:38:25Z</time>
      </trkpt>
      <trkpt lat="45.93884" lon="4.72503">
        <ele>173</ele>
        <time>2018-02-19T11:38:26Z</time>
      </trkpt>
      <trkpt lat="45.93879" lon="4.72508">
        <ele>173</ele>
        <time>2018-02-19T11:38:27Z</time>
      </trkpt>
      <trkpt lat="45.93874" lon="4.7251">
        <ele>173</ele>
        <time>2018-02-19T11:38:28Z</time>
      </trkpt>
      <trkpt lat="45.93869" lon="4.72511">
        <ele>173</ele>
        <time>2018-02-19T11:38:29Z</time>
      </trkpt>
      <trkpt lat="45.93863" lon="4.7251">
        <ele>173</ele>
        <time>2018-02-19T11:38:30Z</time>
      </trkpt>
      <trkpt lat="45.93858" lon="4.72508">
        <ele>173</ele>
        <time>2018-02-19T11:38:31Z</time>
      </trkpt>
      <trkpt lat="45.93853" lon="4.72504">
        <ele>173</ele>
        <time>2018-02-19T11:38:32Z</time>
      </trkpt>
      <trkpt lat="45.93847" lon="4.72499">
        <ele>173</ele>
        <time>2018-02-19T11:38:34Z</time>
      </trkpt>
      <trkpt lat="45.93844" lon="4.72497">
        <ele>173</ele>
        <time>2018-02-19T11:38:37Z</time>
      </trkpt>
      <trkpt lat="45.93826" lon="4.72475">
        <ele>173</ele>
        <time>2018-02-19T11:38:38Z</time>
      </trkpt>
      <trkpt lat="45.93819" lon="4.72471">
        <ele>172</ele>
        <time>2018-02-19T11:38:39Z</time>
      </trkpt>
      <trkpt lat="45.93815" lon="4.72466">
        <ele>172</ele>
        <time>2018-02-19T11:38:40Z</time>
      </trkpt>
      <trkpt lat="45.93811" lon="4.72461">
        <ele>172</ele>
        <time>2018-02-19T11:38:41Z</time>
      </trkpt>
      <trkpt lat="45.93806" lon="4.72454">
        <ele>172</ele>
        <time>2018-02-19T11:38:42Z</time>
      </trkpt>
      <trkpt lat="45.93801" lon="4.72451">
        <ele>172</ele>
        <time>2018-02-19T11:38:43Z</time>
      </trkpt>
      <trkpt lat="45.93795" lon="4.72446">
        <ele>172</ele>
        <time>2018-02-19T11:38:44Z</time>
      </trkpt>
      <trkpt lat="45.93791" lon="4.72442">
        <ele>172</ele>
        <time>2018-02-19T11:38:45Z</time>
      </trkpt>
      <trkpt lat="45.93785" lon="4.72439">
        <ele>172</ele>
        <time>2018-02-19T11:38:46Z</time>
      </trkpt>
      <trkpt lat="45.93781" lon="4.72434">
        <ele>172</ele>
        <time>2018-02-19T11:38:47Z</time>
      </trkpt>
      <trkpt lat="45.93777" lon="4.7243">
        <ele>171</ele>
        <time>2018-02-19T11:38:48Z</time>
      </trkpt>
      <trkpt lat="45.93772" lon="4.72426">
        <ele>171</ele>
        <time>2018-02-19T11:38:49Z</time>
      </trkpt>
      <trkpt lat="45.93769" lon="4.72423">
        <ele>171</ele>
        <time>2018-02-19T11:38:50Z</time>
      </trkpt>
      <trkpt lat="45.93764" lon="4.7242">
        <ele>171</ele>
        <time>2018-02-19T11:38:51Z</time>
      </trkpt>
      <trkpt lat="45.9376" lon="4.72416">
        <ele>171</ele>
        <time>2018-02-19T11:38:52Z</time>
      </trkpt>
      <trkpt lat="45.93756" lon="4.72413">
        <ele>171</ele>
        <time>2018-02-19T11:38:53Z</time>
      </trkpt>
      <trkpt lat="45.93753" lon="4.72406">
        <ele>171</ele>
        <time>2018-02-19T11:38:54Z</time>
      </trkpt>
      <trkpt lat="45.93749" lon="4.72402">
        <ele>171</ele>
        <time>2018-02-19T11:38:55Z</time>
      </trkpt>
      <trkpt lat="45.93744" lon="4.72397">
        <ele>171</ele>
        <time>2018-02-19T11:38:56Z</time>
      </trkpt>
      <trkpt lat="45.9374" lon="4.72393">
        <ele>171</ele>
        <time>2018-02-19T11:38:57Z</time>
      </trkpt>
      <trkpt lat="45.93736" lon="4.72388">
        <ele>171</ele>
        <time>2018-02-19T11:38:58Z</time>
      </trkpt>
      <trkpt lat="45.93732" lon="4.72385">
        <ele>171</ele>
        <time>2018-02-19T11:38:59Z</time>
      </trkpt>
      <trkpt lat="45.93728" lon="4.72381">
        <ele>171</ele>
        <time>2018-02-19T11:39:00Z</time>
      </trkpt>
      <trkpt lat="45.93723" lon="4.72378">
        <ele>171</ele>
        <time>2018-02-19T11:39:01Z</time>
      </trkpt>
      <trkpt lat="45.93719" lon="4.72375">
        <ele>172</ele>
        <time>2018-02-19T11:39:02Z</time>
      </trkpt>
      <trkpt lat="45.93714" lon="4.72371">
        <ele>172</ele>
        <time>2018-02-19T11:39:03Z</time>
      </trkpt>
      <trkpt lat="45.93709" lon="4.72367">
        <ele>172</ele>
        <time>2018-02-19T11:39:04Z</time>
      </trkpt>
      <trkpt lat="45.93704" lon="4.72362">
        <ele>171</ele>
        <time>2018-02-19T11:39:05Z</time>
      </trkpt>
      <trkpt lat="45.937" lon="4.72357">
        <ele>171</ele>
        <time>2018-02-19T11:39:06Z</time>
      </trkpt>
      <trkpt lat="45.93695" lon="4.72353">
        <ele>171</ele>
        <time>2018-02-19T11:39:07Z</time>
      </trkpt>
      <trkpt lat="45.9369" lon="4.72347">
        <ele>171</ele>
        <time>2018-02-19T11:39:08Z</time>
      </trkpt>
      <trkpt lat="45.93685" lon="4.72346">
        <ele>171</ele>
        <time>2018-02-19T11:39:09Z</time>
      </trkpt>
      <trkpt lat="45.93681" lon="4.72343">
        <ele>171</ele>
        <time>2018-02-19T11:39:10Z</time>
      </trkpt>
      <trkpt lat="45.93677" lon="4.72339">
        <ele>171</ele>
        <time>2018-02-19T11:39:11Z</time>
      </trkpt>
      <trkpt lat="45.93673" lon="4.72335">
        <ele>171</ele>
        <time>2018-02-19T11:39:12Z</time>
      </trkpt>
      <trkpt lat="45.93669" lon="4.72331">
        <ele>171</ele>
        <time>2018-02-19T11:39:13Z</time>
      </trkpt>
      <trkpt lat="45.93665" lon="4.72326">
        <ele>171</ele>
        <time>2018-02-19T11:39:14Z</time>
      </trkpt>
      <trkpt lat="45.9366" lon="4.72322">
        <ele>172</ele>
        <time>2018-02-19T11:39:15Z</time>
      </trkpt>
      <trkpt lat="45.93655" lon="4.72317">
        <ele>172</ele>
        <time>2018-02-19T11:39:16Z</time>
      </trkpt>
      <trkpt lat="45.93651" lon="4.72312">
        <ele>172</ele>
        <time>2018-02-19T11:39:17Z</time>
      </trkpt>
      <trkpt lat="45.93645" lon="4.72306">
        <ele>172</ele>
        <time>2018-02-19T11:39:18Z</time>
      </trkpt>
      <trkpt lat="45.93639" lon="4.72302">
        <ele>172</ele>
        <time>2018-02-19T11:39:19Z</time>
      </trkpt>
      <trkpt lat="45.93634" lon="4.72299">
        <ele>172</ele>
        <time>2018-02-19T11:39:20Z</time>
      </trkpt>
      <trkpt lat="45.93631" lon="4.72294">
        <ele>172</ele>
        <time>2018-02-19T11:39:21Z</time>
      </trkpt>
      <trkpt lat="45.93626" lon="4.7229">
        <ele>172</ele>
        <time>2018-02-19T11:39:22Z</time>
      </trkpt>
      <trkpt lat="45.93622" lon="4.72285">
        <ele>172</ele>
        <time>2018-02-19T11:39:23Z</time>
      </trkpt>
      <trkpt lat="45.93618" lon="4.7228">
        <ele>172</ele>
        <time>2018-02-19T11:39:24Z</time>
      </trkpt>
      <trkpt lat="45.93612" lon="4.72278">
        <ele>172</ele>
        <time>2018-02-19T11:39:25Z</time>
      </trkpt>
      <trkpt lat="45.93607" lon="4.72274">
        <ele>172</ele>
        <time>2018-02-19T11:39:26Z</time>
      </trkpt>
      <trkpt lat="45.93603" lon="4.7227">
        <ele>173</ele>
        <time>2018-02-19T11:39:27Z</time>
      </trkpt>
      <trkpt lat="45.93599" lon="4.72266">
        <ele>173</ele>
        <time>2018-02-19T11:39:28Z</time>
      </trkpt>
      <trkpt lat="45.93596" lon="4.72261">
        <ele>173</ele>
        <time>2018-02-19T11:39:29Z</time>
      </trkpt>
      <trkpt lat="45.93592" lon="4.72258">
        <ele>173</ele>
        <time>2018-02-19T11:39:30Z</time>
      </trkpt>
      <trkpt lat="45.93587" lon="4.72254">
        <ele>173</ele>
        <time>2018-02-19T11:39:31Z</time>
      </trkpt>
      <trkpt lat="45.93582" lon="4.7225">
        <ele>173</ele>
        <time>2018-02-19T11:39:32Z</time>
      </trkpt>
      <trkpt lat="45.93577" lon="4.7224">
        <ele>173</ele>
        <time>2018-02-19T11:39:34Z</time>
      </trkpt>
      <trkpt lat="45.93574" lon="4.72236">
        <ele>173</ele>
        <time>2018-02-19T11:39:35Z</time>
      </trkpt>
      <trkpt lat="45.93568" lon="4.72227">
        <ele>173</ele>
        <time>2018-02-19T11:39:37Z</time>
      </trkpt>
      <trkpt lat="45.93565" lon="4.72225">
        <ele>173</ele>
        <time>2018-02-19T11:39:38Z</time>
      </trkpt>
      <trkpt lat="45.93559" lon="4.72222">
        <ele>173</ele>
        <time>2018-02-19T11:39:41Z</time>
      </trkpt>
      <trkpt lat="45.93556" lon="4.72221">
        <ele>173</ele>
        <time>2018-02-19T11:39:42Z</time>
      </trkpt>
      <trkpt lat="45.93548" lon="4.72224">
        <ele>172</ele>
        <time>2018-02-19T11:39:45Z</time>
      </trkpt>
      <trkpt lat="45.93545" lon="4.72227">
        <ele>172</ele>
        <time>2018-02-19T11:39:46Z</time>
      </trkpt>
      <trkpt lat="45.93542" lon="4.72236">
        <ele>172</ele>
        <time>2018-02-19T11:39:48Z</time>
      </trkpt>
      <trkpt lat="45.9354" lon="4.7224">
        <ele>172</ele>
        <time>2018-02-19T11:39:49Z</time>
      </trkpt>
      <trkpt lat="45.93536" lon="4.7225">
        <ele>172</ele>
        <time>2018-02-19T11:39:51Z</time>
      </trkpt>
      <trkpt lat="45.93534" lon="4.72255">
        <ele>172</ele>
        <time>2018-02-19T11:39:52Z</time>
      </trkpt>
      <trkpt lat="45.9353" lon="4.72266">
        <ele>172</ele>
        <time>2018-02-19T11:39:54Z</time>
      </trkpt>
      <trkpt lat="45.93528" lon="4.72271">
        <ele>172</ele>
        <time>2018-02-19T11:39:55Z</time>
      </trkpt>
      <trkpt lat="45.93526" lon="4.72277">
        <ele>172</ele>
        <time>2018-02-19T11:39:56Z</time>
      </trkpt>
      <trkpt lat="45.93523" lon="4.72283">
        <ele>172</ele>
        <time>2018-02-19T11:39:57Z</time>
      </trkpt>
      <trkpt lat="45.9352" lon="4.72289">
        <ele>172</ele>
        <time>2018-02-19T11:39:58Z</time>
      </trkpt>
      <trkpt lat="45.93517" lon="4.72296">
        <ele>172</ele>
        <time>2018-02-19T11:39:59Z</time>
      </trkpt>
      <trkpt lat="45.93513" lon="4.72301">
        <ele>172</ele>
        <time>2018-02-19T11:40:00Z</time>
      </trkpt>
      <trkpt lat="45.9351" lon="4.72306">
        <ele>173</ele>
        <time>2018-02-19T11:40:01Z</time>
      </trkpt>
      <trkpt lat="45.93506" lon="4.72313">
        <ele>173</ele>
        <time>2018-02-19T11:40:02Z</time>
      </trkpt>
      <trkpt lat="45.93501" lon="4.72318">
        <ele>173</ele>
        <time>2018-02-19T11:40:03Z</time>
      </trkpt>
      <trkpt lat="45.93497" lon="4.72323">
        <ele>173</ele>
        <time>2018-02-19T11:40:04Z</time>
      </trkpt>
      <trkpt lat="45.93493" lon="4.72329">
        <ele>173</ele>
        <time>2018-02-19T11:40:05Z</time>
      </trkpt>
      <trkpt lat="45.93489" lon="4.72336">
        <ele>173</ele>
        <time>2018-02-19T11:40:06Z</time>
      </trkpt>
      <trkpt lat="45.93484" lon="4.72342">
        <ele>173</ele>
        <time>2018-02-19T11:40:07Z</time>
      </trkpt>
      <trkpt lat="45.9348" lon="4.72348">
        <ele>173</ele>
        <time>2018-02-19T11:40:08Z</time>
      </trkpt>
      <trkpt lat="45.93476" lon="4.72353">
        <ele>173</ele>
        <time>2018-02-19T11:40:09Z</time>
      </trkpt>
      <trkpt lat="45.93472" lon="4.72359">
        <ele>173</ele>
        <time>2018-02-19T11:40:10Z</time>
      </trkpt>
      <trkpt lat="45.93468" lon="4.72364">
        <ele>173</ele>
        <time>2018-02-19T11:40:11Z</time>
      </trkpt>
      <trkpt lat="45.93464" lon="4.7237">
        <ele>173</ele>
        <time>2018-02-19T11:40:12Z</time>
      </trkpt>
      <trkpt lat="45.9346" lon="4.72375">
        <ele>173</ele>
        <time>2018-02-19T11:40:13Z</time>
      </trkpt>
      <trkpt lat="45.93457" lon="4.72379">
        <ele>173</ele>
        <time>2018-02-19T11:40:14Z</time>
      </trkpt>
      <trkpt lat="45.93453" lon="4.72385">
        <ele>173</ele>
        <time>2018-02-19T11:40:15Z</time>
      </trkpt>
      <trkpt lat="45.93448" lon="4.72389">
        <ele>173</ele>
        <time>2018-02-19T11:40:16Z</time>
      </trkpt>
      <trkpt lat="45.93443" lon="4.72391">
        <ele>173</ele>
        <time>2018-02-19T11:40:17Z</time>
      </trkpt>
      <trkpt lat="45.93438" lon="4.72395">
        <ele>173</ele>
        <time>2018-02-19T11:40:18Z</time>
      </trkpt>
      <trkpt lat="45.93433" lon="4.72398">
        <ele>173</ele>
        <time>2018-02-19T11:40:19Z</time>
      </trkpt>
      <trkpt lat="45.93427" lon="4.724">
        <ele>174</ele>
        <time>2018-02-19T11:40:20Z</time>
      </trkpt>
      <trkpt lat="45.93422" lon="4.72402">
        <ele>174</ele>
        <time>2018-02-19T11:40:21Z</time>
      </trkpt>
      <trkpt lat="45.93414" lon="4.72405">
        <ele>174</ele>
        <time>2018-02-19T11:40:23Z</time>
      </trkpt>
      <trkpt lat="45.93409" lon="4.72407">
        <ele>174</ele>
        <time>2018-02-19T11:40:24Z</time>
      </trkpt>
      <trkpt lat="45.93401" lon="4.72406">
        <ele>174</ele>
        <time>2018-02-19T11:40:26Z</time>
      </trkpt>
      <trkpt lat="45.93397" lon="4.72406">
        <ele>174</ele>
        <time>2018-02-19T11:40:27Z</time>
      </trkpt>
      <trkpt lat="45.93388" lon="4.72411">
        <ele>174</ele>
        <time>2018-02-19T11:40:29Z</time>
      </trkpt>
      <trkpt lat="45.93384" lon="4.72416">
        <ele>174</ele>
        <time>2018-02-19T11:40:30Z</time>
      </trkpt>
      <trkpt lat="45.93383" lon="4.72426">
        <ele>173</ele>
        <time>2018-02-19T11:40:32Z</time>
      </trkpt>
      <trkpt lat="45.93384" lon="4.72431">
        <ele>173</ele>
        <time>2018-02-19T11:40:33Z</time>
      </trkpt>
      <trkpt lat="45.93388" lon="4.72442">
        <ele>173</ele>
        <time>2018-02-19T11:40:35Z</time>
      </trkpt>
      <trkpt lat="45.9339" lon="4.72446">
        <ele>173</ele>
        <time>2018-02-19T11:40:36Z</time>
      </trkpt>
      <trkpt lat="45.9339" lon="4.72453">
        <ele>173</ele>
        <time>2018-02-19T11:40:37Z</time>
      </trkpt>
      <trkpt lat="45.93389" lon="4.7246">
        <ele>173</ele>
        <time>2018-02-19T11:40:38Z</time>
      </trkpt>
      <trkpt lat="45.93385" lon="4.7247">
        <ele>173</ele>
        <time>2018-02-19T11:40:40Z</time>
      </trkpt>
      <trkpt lat="45.93381" lon="4.72475">
        <ele>173</ele>
        <time>2018-02-19T11:40:41Z</time>
      </trkpt>
      <trkpt lat="45.93376" lon="4.72479">
        <ele>173</ele>
        <time>2018-02-19T11:40:42Z</time>
      </trkpt>
      <trkpt lat="45.93371" lon="4.72483">
        <ele>173</ele>
        <time>2018-02-19T11:40:43Z</time>
      </trkpt>
      <trkpt lat="45.93367" lon="4.72488">
        <ele>173</ele>
        <time>2018-02-19T11:40:44Z</time>
      </trkpt>
      <trkpt lat="45.93364" lon="4.72492">
        <ele>173</ele>
        <time>2018-02-19T11:40:45Z</time>
      </trkpt>
      <trkpt lat="45.9336" lon="4.72497">
        <ele>173</ele>
        <time>2018-02-19T11:40:46Z</time>
      </trkpt>
      <trkpt lat="45.93356" lon="4.72503">
        <ele>172</ele>
        <time>2018-02-19T11:40:47Z</time>
      </trkpt>
      <trkpt lat="45.93354" lon="4.72506">
        <ele>172</ele>
        <time>2018-02-19T11:40:48Z</time>
      </trkpt>
      <trkpt lat="45.93348" lon="4.72512">
        <ele>172</ele>
        <time>2018-02-19T11:40:49Z</time>
      </trkpt>
      <trkpt lat="45.93343" lon="4.72517">
        <ele>172</ele>
        <time>2018-02-19T11:40:50Z</time>
      </trkpt>
      <trkpt lat="45.93338" lon="4.72523">
        <ele>172</ele>
        <time>2018-02-19T11:40:51Z</time>
      </trkpt>
      <trkpt lat="45.93334" lon="4.72528">
        <ele>172</ele>
        <time>2018-02-19T11:40:52Z</time>
      </trkpt>
      <trkpt lat="45.93329" lon="4.72533">
        <ele>172</ele>
        <time>2018-02-19T11:40:53Z</time>
      </trkpt>
      <trkpt lat="45.93325" lon="4.72539">
        <ele>172</ele>
        <time>2018-02-19T11:40:54Z</time>
      </trkpt>
      <trkpt lat="45.93321" lon="4.72543">
        <ele>172</ele>
        <time>2018-02-19T11:40:55Z</time>
      </trkpt>
      <trkpt lat="45.93316" lon="4.72548">
        <ele>172</ele>
        <time>2018-02-19T11:40:56Z</time>
      </trkpt>
      <trkpt lat="45.93311" lon="4.72554">
        <ele>172</ele>
        <time>2018-02-19T11:40:57Z</time>
      </trkpt>
      <trkpt lat="45.93306" lon="4.72559">
        <ele>172</ele>
        <time>2018-02-19T11:40:58Z</time>
      </trkpt>
      <trkpt lat="45.93301" lon="4.72565">
        <ele>172</ele>
        <time>2018-02-19T11:40:59Z</time>
      </trkpt>
      <trkpt lat="45.93297" lon="4.72569">
        <ele>172</ele>
        <time>2018-02-19T11:41:00Z</time>
      </trkpt>
      <trkpt lat="45.93293" lon="4.72575">
        <ele>171</ele>
        <time>2018-02-19T11:41:01Z</time>
      </trkpt>
      <trkpt lat="45.93289" lon="4.72581">
        <ele>171</ele>
        <time>2018-02-19T11:41:02Z</time>
      </trkpt>
      <trkpt lat="45.93284" lon="4.72586">
        <ele>170</ele>
        <time>2018-02-19T11:41:03Z</time>
      </trkpt>
      <trkpt lat="45.9328" lon="4.72591">
        <ele>170</ele>
        <time>2018-02-19T11:41:04Z</time>
      </trkpt>
      <trkpt lat="45.93277" lon="4.72596">
        <ele>170</ele>
        <time>2018-02-19T11:41:05Z</time>
      </trkpt>
      <trkpt lat="45.93274" lon="4.72601">
        <ele>170</ele>
        <time>2018-02-19T11:41:06Z</time>
      </trkpt>
      <trkpt lat="45.9327" lon="4.72605">
        <ele>170</ele>
        <time>2018-02-19T11:41:07Z</time>
      </trkpt>
      <trkpt lat="45.93266" lon="4.72609">
        <ele>170</ele>
        <time>2018-02-19T11:41:08Z</time>
      </trkpt>
      <trkpt lat="45.93262" lon="4.72614">
        <ele>170</ele>
        <time>2018-02-19T11:41:09Z</time>
      </trkpt>
      <trkpt lat="45.93258" lon="4.72619">
        <ele>170</ele>
        <time>2018-02-19T11:41:10Z</time>
      </trkpt>
      <trkpt lat="45.93253" lon="4.72624">
        <ele>170</ele>
        <time>2018-02-19T11:41:11Z</time>
      </trkpt>
      <trkpt lat="45.9325" lon="4.72628">
        <ele>170</ele>
        <time>2018-02-19T11:41:12Z</time>
      </trkpt>
      <trkpt lat="45.93245" lon="4.72633">
        <ele>170</ele>
        <time>2018-02-19T11:41:13Z</time>
      </trkpt>
      <trkpt lat="45.93241" lon="4.72638">
        <ele>170</ele>
        <time>2018-02-19T11:41:14Z</time>
      </trkpt>
      <trkpt lat="45.93237" lon="4.72642">
        <ele>170</ele>
        <time>2018-02-19T11:41:15Z</time>
      </trkpt>
      <trkpt lat="45.93233" lon="4.72646">
        <ele>170</ele>
        <time>2018-02-19T11:41:16Z</time>
      </trkpt>
      <trkpt lat="45.93228" lon="4.72651">
        <ele>170</ele>
        <time>2018-02-19T11:41:17Z</time>
      </trkpt>
      <trkpt lat="45.93224" lon="4.72657">
        <ele>170</ele>
        <time>2018-02-19T11:41:18Z</time>
      </trkpt>
      <trkpt lat="45.9322" lon="4.72661">
        <ele>170</ele>
        <time>2018-02-19T11:41:19Z</time>
      </trkpt>
      <trkpt lat="45.93215" lon="4.72666">
        <ele>170</ele>
        <time>2018-02-19T11:41:20Z</time>
      </trkpt>
      <trkpt lat="45.93213" lon="4.72671">
        <ele>169</ele>
        <time>2018-02-19T11:41:21Z</time>
      </trkpt>
      <trkpt lat="45.93209" lon="4.72676">
        <ele>169</ele>
        <time>2018-02-19T11:41:22Z</time>
      </trkpt>
      <trkpt lat="45.93205" lon="4.72681">
        <ele>169</ele>
        <time>2018-02-19T11:41:23Z</time>
      </trkpt>
      <trkpt lat="45.93201" lon="4.72689">
        <ele>169</ele>
        <time>2018-02-19T11:41:24Z</time>
      </trkpt>
      <trkpt lat="45.93196" lon="4.72693">
        <ele>169</ele>
        <time>2018-02-19T11:41:25Z</time>
      </trkpt>
      <trkpt lat="45.9319" lon="4.72699">
        <ele>169</ele>
        <time>2018-02-19T11:41:26Z</time>
      </trkpt>
      <trkpt lat="45.93186" lon="4.72703">
        <ele>169</ele>
        <time>2018-02-19T11:41:27Z</time>
      </trkpt>
      <trkpt lat="45.93182" lon="4.72709">
        <ele>169</ele>
        <time>2018-02-19T11:41:28Z</time>
      </trkpt>
      <trkpt lat="45.93177" lon="4.72714">
        <ele>169</ele>
        <time>2018-02-19T11:41:29Z</time>
      </trkpt>
      <trkpt lat="45.93172" lon="4.7272">
        <ele>170</ele>
        <time>2018-02-19T11:41:30Z</time>
      </trkpt>
      <trkpt lat="45.93167" lon="4.72726">
        <ele>170</ele>
        <time>2018-02-19T11:41:31Z</time>
      </trkpt>
      <trkpt lat="45.93162" lon="4.72732">
        <ele>170</ele>
        <time>2018-02-19T11:41:32Z</time>
      </trkpt>
      <trkpt lat="45.93157" lon="4.72737">
        <ele>170</ele>
        <time>2018-02-19T11:41:33Z</time>
      </trkpt>
      <trkpt lat="45.93152" lon="4.72743">
        <ele>170</ele>
        <time>2018-02-19T11:41:34Z</time>
      </trkpt>
      <trkpt lat="45.93146" lon="4.72748">
        <ele>170</ele>
        <time>2018-02-19T11:41:35Z</time>
      </trkpt>
      <trkpt lat="45.93141" lon="4.72753">
        <ele>171</ele>
        <time>2018-02-19T11:41:36Z</time>
      </trkpt>
      <trkpt lat="45.93137" lon="4.72759">
        <ele>171</ele>
        <time>2018-02-19T11:41:37Z</time>
      </trkpt>
      <trkpt lat="45.93132" lon="4.72764">
        <ele>171</ele>
        <time>2018-02-19T11:41:38Z</time>
      </trkpt>
      <trkpt lat="45.93128" lon="4.7277">
        <ele>171</ele>
        <time>2018-02-19T11:41:39Z</time>
      </trkpt>
      <trkpt lat="45.93123" lon="4.72776">
        <ele>171</ele>
        <time>2018-02-19T11:41:40Z</time>
      </trkpt>
      <trkpt lat="45.93118" lon="4.72782">
        <ele>171</ele>
        <time>2018-02-19T11:41:41Z</time>
      </trkpt>
      <trkpt lat="45.93113" lon="4.72788">
        <ele>171</ele>
        <time>2018-02-19T11:41:42Z</time>
      </trkpt>
      <trkpt lat="45.93108" lon="4.72792">
        <ele>171</ele>
        <time>2018-02-19T11:41:43Z</time>
      </trkpt>
      <trkpt lat="45.93103" lon="4.72798">
        <ele>171</ele>
        <time>2018-02-19T11:41:44Z</time>
      </trkpt>
      <trkpt lat="45.93099" lon="4.72804">
        <ele>171</ele>
        <time>2018-02-19T11:41:45Z</time>
      </trkpt>
      <trkpt lat="45.93095" lon="4.72809">
        <ele>172</ele>
        <time>2018-02-19T11:41:46Z</time>
      </trkpt>
      <trkpt lat="45.9309" lon="4.72814">
        <ele>172</ele>
        <time>2018-02-19T11:41:47Z</time>
      </trkpt>
      <trkpt lat="45.93085" lon="4.72819">
        <ele>172</ele>
        <time>2018-02-19T11:41:48Z</time>
      </trkpt>
      <trkpt lat="45.9308" lon="4.72821">
        <ele>173</ele>
        <time>2018-02-19T11:41:49Z</time>
      </trkpt>
      <trkpt lat="45.93074" lon="4.72823">
        <ele>173</ele>
        <time>2018-02-19T11:41:52Z</time>
      </trkpt>
      <trkpt lat="45.93072" lon="4.72843">
        <ele>173</ele>
        <time>2018-02-19T11:41:53Z</time>
      </trkpt>
      <trkpt lat="45.93069" lon="4.72853">
        <ele>172</ele>
        <time>2018-02-19T11:41:54Z</time>
      </trkpt>
      <trkpt lat="45.9306" lon="4.72859">
        <ele>172</ele>
        <time>2018-02-19T11:41:55Z</time>
      </trkpt>
      <trkpt lat="45.93049" lon="4.72862">
        <ele>172</ele>
        <time>2018-02-19T11:41:56Z</time>
      </trkpt>
      <trkpt lat="45.93043" lon="4.72868">
        <ele>172</ele>
        <time>2018-02-19T11:41:57Z</time>
      </trkpt>
      <trkpt lat="45.93038" lon="4.72874">
        <ele>172</ele>
        <time>2018-02-19T11:41:58Z</time>
      </trkpt>
      <trkpt lat="45.93032" lon="4.72881">
        <ele>172</ele>
        <time>2018-02-19T11:41:59Z</time>
      </trkpt>
      <trkpt lat="45.93027" lon="4.72887">
        <ele>172</ele>
        <time>2018-02-19T11:42:00Z</time>
      </trkpt>
      <trkpt lat="45.93022" lon="4.72893">
        <ele>172</ele>
        <time>2018-02-19T11:42:01Z</time>
      </trkpt>
      <trkpt lat="45.93017" lon="4.72898">
        <ele>172</ele>
        <time>2018-02-19T11:42:02Z</time>
      </trkpt>
      <trkpt lat="45.93012" lon="4.72904">
        <ele>172</ele>
        <time>2018-02-19T11:42:03Z</time>
      </trkpt>
      <trkpt lat="45.93007" lon="4.72909">
        <ele>171</ele>
        <time>2018-02-19T11:42:04Z</time>
      </trkpt>
      <trkpt lat="45.93003" lon="4.72915">
        <ele>171</ele>
        <time>2018-02-19T11:42:05Z</time>
      </trkpt>
      <trkpt lat="45.92998" lon="4.72921">
        <ele>171</ele>
        <time>2018-02-19T11:42:06Z</time>
      </trkpt>
      <trkpt lat="45.92993" lon="4.72926">
        <ele>171</ele>
        <time>2018-02-19T11:42:07Z</time>
      </trkpt>
      <trkpt lat="45.9299" lon="4.7293">
        <ele>171</ele>
        <time>2018-02-19T11:42:08Z</time>
      </trkpt>
      <trkpt lat="45.92986" lon="4.72934">
        <ele>171</ele>
        <time>2018-02-19T11:42:09Z</time>
      </trkpt>
      <trkpt lat="45.92981" lon="4.72939">
        <ele>171</ele>
        <time>2018-02-19T11:42:10Z</time>
      </trkpt>
      <trkpt lat="45.92976" lon="4.72943">
        <ele>171</ele>
        <time>2018-02-19T11:42:11Z</time>
      </trkpt>
      <trkpt lat="45.92973" lon="4.7295">
        <ele>171</ele>
        <time>2018-02-19T11:42:12Z</time>
      </trkpt>
      <trkpt lat="45.92969" lon="4.72956">
        <ele>171</ele>
        <time>2018-02-19T11:42:13Z</time>
      </trkpt>
      <trkpt lat="45.92964" lon="4.7296">
        <ele>171</ele>
        <time>2018-02-19T11:42:14Z</time>
      </trkpt>
      <trkpt lat="45.9296" lon="4.72965">
        <ele>171</ele>
        <time>2018-02-19T11:42:15Z</time>
      </trkpt>
      <trkpt lat="45.92955" lon="4.72971">
        <ele>171</ele>
        <time>2018-02-19T11:42:16Z</time>
      </trkpt>
      <trkpt lat="45.92951" lon="4.72975">
        <ele>171</ele>
        <time>2018-02-19T11:42:17Z</time>
      </trkpt>
      <trkpt lat="45.92947" lon="4.72981">
        <ele>171</ele>
        <time>2018-02-19T11:42:18Z</time>
      </trkpt>
      <trkpt lat="45.92942" lon="4.72986">
        <ele>171</ele>
        <time>2018-02-19T11:42:19Z</time>
      </trkpt>
      <trkpt lat="45.92938" lon="4.72991">
        <ele>171</ele>
        <time>2018-02-19T11:42:20Z</time>
      </trkpt>
      <trkpt lat="45.92934" lon="4.72995">
        <ele>172</ele>
        <time>2018-02-19T11:42:21Z</time>
      </trkpt>
      <trkpt lat="45.92929" lon="4.73001">
        <ele>172</ele>
        <time>2018-02-19T11:42:22Z</time>
      </trkpt>
      <trkpt lat="45.92924" lon="4.73007">
        <ele>172</ele>
        <time>2018-02-19T11:42:23Z</time>
      </trkpt>
      <trkpt lat="45.9292" lon="4.73013">
        <ele>172</ele>
        <time>2018-02-19T11:42:24Z</time>
      </trkpt>
      <trkpt lat="45.92916" lon="4.73017">
        <ele>172</ele>
        <time>2018-02-19T11:42:25Z</time>
      </trkpt>
      <trkpt lat="45.92912" lon="4.73022">
        <ele>172</ele>
        <time>2018-02-19T11:42:26Z</time>
      </trkpt>
      <trkpt lat="45.92908" lon="4.73026">
        <ele>172</ele>
        <time>2018-02-19T11:42:27Z</time>
      </trkpt>
      <trkpt lat="45.92905" lon="4.73031">
        <ele>172</ele>
        <time>2018-02-19T11:42:28Z</time>
      </trkpt>
      <trkpt lat="45.92901" lon="4.73037">
        <ele>172</ele>
        <time>2018-02-19T11:42:29Z</time>
      </trkpt>
      <trkpt lat="45.92897" lon="4.73042">
        <ele>172</ele>
        <time>2018-02-19T11:42:30Z</time>
      </trkpt>
      <trkpt lat="45.92894" lon="4.73047">
        <ele>172</ele>
        <time>2018-02-19T11:42:31Z</time>
      </trkpt>
      <trkpt lat="45.92891" lon="4.73053">
        <ele>172</ele>
        <time>2018-02-19T11:42:32Z</time>
      </trkpt>
      <trkpt lat="45.92887" lon="4.73058">
        <ele>172</ele>
        <time>2018-02-19T11:42:33Z</time>
      </trkpt>
      <trkpt lat="45.92884" lon="4.73063">
        <ele>172</ele>
        <time>2018-02-19T11:42:34Z</time>
      </trkpt>
      <trkpt lat="45.92881" lon="4.73068">
        <ele>172</ele>
        <time>2018-02-19T11:42:35Z</time>
      </trkpt>
      <trkpt lat="45.92877" lon="4.73072">
        <ele>172</ele>
        <time>2018-02-19T11:42:36Z</time>
      </trkpt>
      <trkpt lat="45.92871" lon="4.7308">
        <ele>172</ele>
        <time>2018-02-19T11:42:38Z</time>
      </trkpt>
      <trkpt lat="45.92867" lon="4.73084">
        <ele>172</ele>
        <time>2018-02-19T11:42:39Z</time>
      </trkpt>
      <trkpt lat="45.92863" lon="4.7309">
        <ele>171</ele>
        <time>2018-02-19T11:42:40Z</time>
      </trkpt>
      <trkpt lat="45.9286" lon="4.73094">
        <ele>171</ele>
        <time>2018-02-19T11:42:41Z</time>
      </trkpt>
      <trkpt lat="45.92857" lon="4.73099">
        <ele>171</ele>
        <time>2018-02-19T11:42:42Z</time>
      </trkpt>
      <trkpt lat="45.92852" lon="4.73101">
        <ele>171</ele>
        <time>2018-02-19T11:42:43Z</time>
      </trkpt>
      <trkpt lat="45.92845" lon="4.73094">
        <ele>171</ele>
        <time>2018-02-19T11:42:45Z</time>
      </trkpt>
      <trkpt lat="45.92842" lon="4.7309">
        <ele>171</ele>
        <time>2018-02-19T11:42:46Z</time>
      </trkpt>
      <trkpt lat="45.92844" lon="4.7308">
        <ele>171</ele>
        <time>2018-02-19T11:42:47Z</time>
      </trkpt>
      <trkpt lat="45.92844" lon="4.73072">
        <ele>171</ele>
        <time>2018-02-19T11:42:48Z</time>
      </trkpt>
      <trkpt lat="45.92843" lon="4.73063">
        <ele>171</ele>
        <time>2018-02-19T11:42:49Z</time>
      </trkpt>
      <trkpt lat="45.92842" lon="4.73055">
        <ele>171</ele>
        <time>2018-02-19T11:42:50Z</time>
      </trkpt>
      <trkpt lat="45.9284" lon="4.73047">
        <ele>171</ele>
        <time>2018-02-19T11:42:51Z</time>
      </trkpt>
      <trkpt lat="45.92839" lon="4.73039">
        <ele>171</ele>
        <time>2018-02-19T11:42:52Z</time>
      </trkpt>
      <trkpt lat="45.92838" lon="4.73031">
        <ele>171</ele>
        <time>2018-02-19T11:42:53Z</time>
      </trkpt>
      <trkpt lat="45.92837" lon="4.73023">
        <ele>171</ele>
        <time>2018-02-19T11:42:54Z</time>
      </trkpt>
      <trkpt lat="45.92836" lon="4.73014">
        <ele>171</ele>
        <time>2018-02-19T11:42:55Z</time>
      </trkpt>
      <trkpt lat="45.92834" lon="4.73007">
        <ele>170</ele>
        <time>2018-02-19T11:42:56Z</time>
      </trkpt>
      <trkpt lat="45.92833" lon="4.72999">
        <ele>170</ele>
        <time>2018-02-19T11:42:57Z</time>
      </trkpt>
      <trkpt lat="45.92834" lon="4.72989">
        <ele>170</ele>
        <time>2018-02-19T11:42:58Z</time>
      </trkpt>
      <trkpt lat="45.92832" lon="4.72981">
        <ele>170</ele>
        <time>2018-02-19T11:42:59Z</time>
      </trkpt>
      <trkpt lat="45.92831" lon="4.72974">
        <ele>170</ele>
        <time>2018-02-19T11:43:00Z</time>
      </trkpt>
      <trkpt lat="45.92831" lon="4.72966">
        <ele>170</ele>
        <time>2018-02-19T11:43:01Z</time>
      </trkpt>
      <trkpt lat="45.9283" lon="4.7296">
        <ele>170</ele>
        <time>2018-02-19T11:43:02Z</time>
      </trkpt>
      <trkpt lat="45.92829" lon="4.72954">
        <ele>170</ele>
        <time>2018-02-19T11:43:03Z</time>
      </trkpt>
      <trkpt lat="45.92827" lon="4.72947">
        <ele>170</ele>
        <time>2018-02-19T11:43:04Z</time>
      </trkpt>
      <trkpt lat="45.92827" lon="4.7294">
        <ele>170</ele>
        <time>2018-02-19T11:43:05Z</time>
      </trkpt>
      <trkpt lat="45.92827" lon="4.72934">
        <ele>170</ele>
        <time>2018-02-19T11:43:06Z</time>
      </trkpt>
      <trkpt lat="45.92826" lon="4.72927">
        <ele>170</ele>
        <time>2018-02-19T11:43:07Z</time>
      </trkpt>
      <trkpt lat="45.92826" lon="4.72919">
        <ele>170</ele>
        <time>2018-02-19T11:43:08Z</time>
      </trkpt>
      <trkpt lat="45.92825" lon="4.72911">
        <ele>170</ele>
        <time>2018-02-19T11:43:09Z</time>
      </trkpt>
      <trkpt lat="45.92824" lon="4.72904">
        <ele>170</ele>
        <time>2018-02-19T11:43:10Z</time>
      </trkpt>
      <trkpt lat="45.92823" lon="4.72896">
        <ele>170</ele>
        <time>2018-02-19T11:43:11Z</time>
      </trkpt>
      <trkpt lat="45.92822" lon="4.72889">
        <ele>170</ele>
        <time>2018-02-19T11:43:12Z</time>
      </trkpt>
      <trkpt lat="45.92822" lon="4.72882">
        <ele>170</ele>
        <time>2018-02-19T11:43:13Z</time>
      </trkpt>
      <trkpt lat="45.9282" lon="4.72875">
        <ele>170</ele>
        <time>2018-02-19T11:43:14Z</time>
      </trkpt>
      <trkpt lat="45.92819" lon="4.72868">
        <ele>170</ele>
        <time>2018-02-19T11:43:15Z</time>
      </trkpt>
      <trkpt lat="45.92817" lon="4.72861">
        <ele>170</ele>
        <time>2018-02-19T11:43:16Z</time>
      </trkpt>
      <trkpt lat="45.92815" lon="4.72854">
        <ele>170</ele>
        <time>2018-02-19T11:43:17Z</time>
      </trkpt>
      <trkpt lat="45.92813" lon="4.72846">
        <ele>170</ele>
        <time>2018-02-19T11:43:18Z</time>
      </trkpt>
      <trkpt lat="45.92812" lon="4.72838">
        <ele>170</ele>
        <time>2018-02-19T11:43:19Z</time>
      </trkpt>
      <trkpt lat="45.92811" lon="4.7283">
        <ele>171</ele>
        <time>2018-02-19T11:43:20Z</time>
      </trkpt>
      <trkpt lat="45.92811" lon="4.72824">
        <ele>171</ele>
        <time>2018-02-19T11:43:21Z</time>
      </trkpt>
      <trkpt lat="45.9281" lon="4.72816">
        <ele>171</ele>
        <time>2018-02-19T11:43:22Z</time>
      </trkpt>
      <trkpt lat="45.92808" lon="4.72804">
        <ele>171</ele>
        <time>2018-02-19T11:43:24Z</time>
      </trkpt>
      <trkpt lat="45.92806" lon="4.72796">
        <ele>171</ele>
        <time>2018-02-19T11:43:25Z</time>
      </trkpt>
      <trkpt lat="45.92804" lon="4.72787">
        <ele>171</ele>
        <time>2018-02-19T11:43:27Z</time>
      </trkpt>
      <trkpt lat="45.92797" lon="4.72786">
        <ele>171</ele>
        <time>2018-02-19T11:43:28Z</time>
      </trkpt>
      <trkpt lat="45.92792" lon="4.72788">
        <ele>171</ele>
        <time>2018-02-19T11:43:29Z</time>
      </trkpt>
      <trkpt lat="45.92788" lon="4.72792">
        <ele>170</ele>
        <time>2018-02-19T11:43:30Z</time>
      </trkpt>
      <trkpt lat="45.92783" lon="4.72797">
        <ele>170</ele>
        <time>2018-02-19T11:43:31Z</time>
      </trkpt>
      <trkpt lat="45.92778" lon="4.728">
        <ele>170</ele>
        <time>2018-02-19T11:43:32Z</time>
      </trkpt>
      <trkpt lat="45.92774" lon="4.72805">
        <ele>170</ele>
        <time>2018-02-19T11:43:33Z</time>
      </trkpt>
      <trkpt lat="45.9277" lon="4.72807">
        <ele>170</ele>
        <time>2018-02-19T11:43:34Z</time>
      </trkpt>
      <trkpt lat="45.92765" lon="4.72811">
        <ele>170</ele>
        <time>2018-02-19T11:43:35Z</time>
      </trkpt>
      <trkpt lat="45.9276" lon="4.72815">
        <ele>170</ele>
        <time>2018-02-19T11:43:36Z</time>
      </trkpt>
      <trkpt lat="45.92755" lon="4.72818">
        <ele>170</ele>
        <time>2018-02-19T11:43:37Z</time>
      </trkpt>
      <trkpt lat="45.9275" lon="4.72822">
        <ele>170</ele>
        <time>2018-02-19T11:43:38Z</time>
      </trkpt>
      <trkpt lat="45.92745" lon="4.72826">
        <ele>169</ele>
        <time>2018-02-19T11:43:39Z</time>
      </trkpt>
      <trkpt lat="45.92741" lon="4.7283">
        <ele>169</ele>
        <time>2018-02-19T11:43:40Z</time>
      </trkpt>
      <trkpt lat="45.92736" lon="4.72833">
        <ele>169</ele>
        <time>2018-02-19T11:43:41Z</time>
      </trkpt>
      <trkpt lat="45.9273" lon="4.72837">
        <ele>169</ele>
        <time>2018-02-19T11:43:42Z</time>
      </trkpt>
      <trkpt lat="45.92725" lon="4.72842">
        <ele>169</ele>
        <time>2018-02-19T11:43:43Z</time>
      </trkpt>
      <trkpt lat="45.92721" lon="4.72845">
        <ele>169</ele>
        <time>2018-02-19T11:43:44Z</time>
      </trkpt>
      <trkpt lat="45.92716" lon="4.72848">
        <ele>169</ele>
        <time>2018-02-19T11:43:45Z</time>
      </trkpt>
      <trkpt lat="45.92712" lon="4.72852">
        <ele>169</ele>
        <time>2018-02-19T11:43:46Z</time>
      </trkpt>
      <trkpt lat="45.92707" lon="4.72854">
        <ele>169</ele>
        <time>2018-02-19T11:43:47Z</time>
      </trkpt>
      <trkpt lat="45.92703" lon="4.72858">
        <ele>169</ele>
        <time>2018-02-19T11:43:48Z</time>
      </trkpt>
      <trkpt lat="45.92699" lon="4.72862">
        <ele>169</ele>
        <time>2018-02-19T11:43:49Z</time>
      </trkpt>
      <trkpt lat="45.92694" lon="4.72865">
        <ele>169</ele>
        <time>2018-02-19T11:43:50Z</time>
      </trkpt>
      <trkpt lat="45.92689" lon="4.72868">
        <ele>169</ele>
        <time>2018-02-19T11:43:51Z</time>
      </trkpt>
      <trkpt lat="45.92684" lon="4.72873">
        <ele>169</ele>
        <time>2018-02-19T11:43:52Z</time>
      </trkpt>
      <trkpt lat="45.9268" lon="4.72876">
        <ele>170</ele>
        <time>2018-02-19T11:43:53Z</time>
      </trkpt>
      <trkpt lat="45.92675" lon="4.7288">
        <ele>170</ele>
        <time>2018-02-19T11:43:54Z</time>
      </trkpt>
      <trkpt lat="45.9267" lon="4.72884">
        <ele>170</ele>
        <time>2018-02-19T11:43:55Z</time>
      </trkpt>
      <trkpt lat="45.92665" lon="4.72888">
        <ele>169</ele>
        <time>2018-02-19T11:43:56Z</time>
      </trkpt>
      <trkpt lat="45.92661" lon="4.7289">
        <ele>169</ele>
        <time>2018-02-19T11:43:57Z</time>
      </trkpt>
      <trkpt lat="45.92656" lon="4.72894">
        <ele>170</ele>
        <time>2018-02-19T11:43:58Z</time>
      </trkpt>
      <trkpt lat="45.92651" lon="4.72898">
        <ele>170</ele>
        <time>2018-02-19T11:43:59Z</time>
      </trkpt>
      <trkpt lat="45.92646" lon="4.72902">
        <ele>169</ele>
        <time>2018-02-19T11:44:00Z</time>
      </trkpt>
      <trkpt lat="45.92641" lon="4.72905">
        <ele>169</ele>
        <time>2018-02-19T11:44:01Z</time>
      </trkpt>
      <trkpt lat="45.92636" lon="4.72908">
        <ele>169</ele>
        <time>2018-02-19T11:44:02Z</time>
      </trkpt>
      <trkpt lat="45.92631" lon="4.72912">
        <ele>169</ele>
        <time>2018-02-19T11:44:03Z</time>
      </trkpt>
      <trkpt lat="45.92626" lon="4.72916">
        <ele>169</ele>
        <time>2018-02-19T11:44:04Z</time>
      </trkpt>
      <trkpt lat="45.92621" lon="4.7292">
        <ele>169</ele>
        <time>2018-02-19T11:44:05Z</time>
      </trkpt>
      <trkpt lat="45.92617" lon="4.72924">
        <ele>169</ele>
        <time>2018-02-19T11:44:06Z</time>
      </trkpt>
      <trkpt lat="45.92613" lon="4.72927">
        <ele>169</ele>
        <time>2018-02-19T11:44:07Z</time>
      </trkpt>
      <trkpt lat="45.92609" lon="4.72931">
        <ele>169</ele>
        <time>2018-02-19T11:44:08Z</time>
      </trkpt>
      <trkpt lat="45.92603" lon="4.72936">
        <ele>169</ele>
        <time>2018-02-19T11:44:09Z</time>
      </trkpt>
      <trkpt lat="45.92599" lon="4.72942">
        <ele>169</ele>
        <time>2018-02-19T11:44:10Z</time>
      </trkpt>
      <trkpt lat="45.92595" lon="4.72946">
        <ele>169</ele>
        <time>2018-02-19T11:44:11Z</time>
      </trkpt>
      <trkpt lat="45.9259" lon="4.72952">
        <ele>169</ele>
        <time>2018-02-19T11:44:12Z</time>
      </trkpt>
      <trkpt lat="45.92586" lon="4.72957">
        <ele>169</ele>
        <time>2018-02-19T11:44:13Z</time>
      </trkpt>
      <trkpt lat="45.92581" lon="4.72963">
        <ele>169</ele>
        <time>2018-02-19T11:44:14Z</time>
      </trkpt>
      <trkpt lat="45.92577" lon="4.72967">
        <ele>169</ele>
        <time>2018-02-19T11:44:15Z</time>
      </trkpt>
      <trkpt lat="45.92572" lon="4.72972">
        <ele>169</ele>
        <time>2018-02-19T11:44:16Z</time>
      </trkpt>
      <trkpt lat="45.92567" lon="4.72977">
        <ele>169</ele>
        <time>2018-02-19T11:44:17Z</time>
      </trkpt>
      <trkpt lat="45.92563" lon="4.72982">
        <ele>169</ele>
        <time>2018-02-19T11:44:18Z</time>
      </trkpt>
      <trkpt lat="45.92558" lon="4.72987">
        <ele>169</ele>
        <time>2018-02-19T11:44:19Z</time>
      </trkpt>
      <trkpt lat="45.92554" lon="4.72991">
        <ele>169</ele>
        <time>2018-02-19T11:44:20Z</time>
      </trkpt>
      <trkpt lat="45.92549" lon="4.72996">
        <ele>169</ele>
        <time>2018-02-19T11:44:21Z</time>
      </trkpt>
      <trkpt lat="45.92544" lon="4.73001">
        <ele>169</ele>
        <time>2018-02-19T11:44:22Z</time>
      </trkpt>
      <trkpt lat="45.9254" lon="4.73006">
        <ele>169</ele>
        <time>2018-02-19T11:44:23Z</time>
      </trkpt>
      <trkpt lat="45.92535" lon="4.73011">
        <ele>169</ele>
        <time>2018-02-19T11:44:24Z</time>
      </trkpt>
      <trkpt lat="45.9253" lon="4.73016">
        <ele>169</ele>
        <time>2018-02-19T11:44:25Z</time>
      </trkpt>
      <trkpt lat="45.92525" lon="4.7302">
        <ele>169</ele>
        <time>2018-02-19T11:44:26Z</time>
      </trkpt>
      <trkpt lat="45.9252" lon="4.73024">
        <ele>169</ele>
        <time>2018-02-19T11:44:27Z</time>
      </trkpt>
      <trkpt lat="45.92515" lon="4.73028">
        <ele>169</ele>
        <time>2018-02-19T11:44:28Z</time>
      </trkpt>
      <trkpt lat="45.92511" lon="4.73032">
        <ele>169</ele>
        <time>2018-02-19T11:44:29Z</time>
      </trkpt>
      <trkpt lat="45.92506" lon="4.73037">
        <ele>169</ele>
        <time>2018-02-19T11:44:30Z</time>
      </trkpt>
      <trkpt lat="45.92501" lon="4.73041">
        <ele>169</ele>
        <time>2018-02-19T11:44:31Z</time>
      </trkpt>
      <trkpt lat="45.92496" lon="4.73046">
        <ele>170</ele>
        <time>2018-02-19T11:44:32Z</time>
      </trkpt>
      <trkpt lat="45.92491" lon="4.7305">
        <ele>170</ele>
        <time>2018-02-19T11:44:33Z</time>
      </trkpt>
      <trkpt lat="45.92485" lon="4.73056">
        <ele>170</ele>
        <time>2018-02-19T11:44:34Z</time>
      </trkpt>
      <trkpt lat="45.92479" lon="4.73061">
        <ele>170</ele>
        <time>2018-02-19T11:44:35Z</time>
      </trkpt>
      <trkpt lat="45.92474" lon="4.73065">
        <ele>170</ele>
        <time>2018-02-19T11:44:36Z</time>
      </trkpt>
      <trkpt lat="45.92469" lon="4.73069">
        <ele>170</ele>
        <time>2018-02-19T11:44:37Z</time>
      </trkpt>
      <trkpt lat="45.92464" lon="4.73073">
        <ele>170</ele>
        <time>2018-02-19T11:44:38Z</time>
      </trkpt>
      <trkpt lat="45.92459" lon="4.73078">
        <ele>170</ele>
        <time>2018-02-19T11:44:39Z</time>
      </trkpt>
      <trkpt lat="45.92454" lon="4.73083">
        <ele>170</ele>
        <time>2018-02-19T11:44:40Z</time>
      </trkpt>
      <trkpt lat="45.92449" lon="4.73088">
        <ele>170</ele>
        <time>2018-02-19T11:44:41Z</time>
      </trkpt>
      <trkpt lat="45.92444" lon="4.73093">
        <ele>170</ele>
        <time>2018-02-19T11:44:42Z</time>
      </trkpt>
      <trkpt lat="45.92439" lon="4.73096">
        <ele>170</ele>
        <time>2018-02-19T11:44:43Z</time>
      </trkpt>
      <trkpt lat="45.92434" lon="4.73098">
        <ele>171</ele>
        <time>2018-02-19T11:44:44Z</time>
      </trkpt>
      <trkpt lat="45.92429" lon="4.73101">
        <ele>171</ele>
        <time>2018-02-19T11:44:45Z</time>
      </trkpt>
      <trkpt lat="45.92424" lon="4.73106">
        <ele>171</ele>
        <time>2018-02-19T11:44:46Z</time>
      </trkpt>
      <trkpt lat="45.9242" lon="4.7311">
        <ele>170</ele>
        <time>2018-02-19T11:44:47Z</time>
      </trkpt>
      <trkpt lat="45.92415" lon="4.73115">
        <ele>171</ele>
        <time>2018-02-19T11:44:48Z</time>
      </trkpt>
      <trkpt lat="45.92411" lon="4.73122">
        <ele>171</ele>
        <time>2018-02-19T11:44:49Z</time>
      </trkpt>
      <trkpt lat="45.9241" lon="4.7313">
        <ele>171</ele>
        <time>2018-02-19T11:44:50Z</time>
      </trkpt>
      <trkpt lat="45.92409" lon="4.73139">
        <ele>171</ele>
        <time>2018-02-19T11:44:51Z</time>
      </trkpt>
      <trkpt lat="45.92409" lon="4.73147">
        <ele>171</ele>
        <time>2018-02-19T11:44:52Z</time>
      </trkpt>
      <trkpt lat="45.92409" lon="4.73154">
        <ele>170</ele>
        <time>2018-02-19T11:44:53Z</time>
      </trkpt>
      <trkpt lat="45.9241" lon="4.73162">
        <ele>170</ele>
        <time>2018-02-19T11:44:54Z</time>
      </trkpt>
      <trkpt lat="45.92409" lon="4.7317">
        <ele>170</ele>
        <time>2018-02-19T11:44:55Z</time>
      </trkpt>
      <trkpt lat="45.92408" lon="4.73178">
        <ele>171</ele>
        <time>2018-02-19T11:44:56Z</time>
      </trkpt>
      <trkpt lat="45.92407" lon="4.73187">
        <ele>171</ele>
        <time>2018-02-19T11:44:57Z</time>
      </trkpt>
      <trkpt lat="45.92407" lon="4.73194">
        <ele>171</ele>
        <time>2018-02-19T11:44:58Z</time>
      </trkpt>
      <trkpt lat="45.92407" lon="4.73202">
        <ele>171</ele>
        <time>2018-02-19T11:44:59Z</time>
      </trkpt>
      <trkpt lat="45.92407" lon="4.7321">
        <ele>171</ele>
        <time>2018-02-19T11:45:00Z</time>
      </trkpt>
      <trkpt lat="45.92408" lon="4.73218">
        <ele>171</ele>
        <time>2018-02-19T11:45:01Z</time>
      </trkpt>
      <trkpt lat="45.92409" lon="4.73225">
        <ele>171</ele>
        <time>2018-02-19T11:45:02Z</time>
      </trkpt>
      <trkpt lat="45.92408" lon="4.73233">
        <ele>171</ele>
        <time>2018-02-19T11:45:03Z</time>
      </trkpt>
      <trkpt lat="45.92409" lon="4.73244">
        <ele>171</ele>
        <time>2018-02-19T11:45:04Z</time>
      </trkpt>
      <trkpt lat="45.9241" lon="4.73251">
        <ele>171</ele>
        <time>2018-02-19T11:45:05Z</time>
      </trkpt>
      <trkpt lat="45.92411" lon="4.73258">
        <ele>171</ele>
        <time>2018-02-19T11:45:06Z</time>
      </trkpt>
      <trkpt lat="45.92412" lon="4.73267">
        <ele>171</ele>
        <time>2018-02-19T11:45:07Z</time>
      </trkpt>
      <trkpt lat="45.92412" lon="4.73275">
        <ele>171</ele>
        <time>2018-02-19T11:45:08Z</time>
      </trkpt>
      <trkpt lat="45.92413" lon="4.73283">
        <ele>171</ele>
        <time>2018-02-19T11:45:09Z</time>
      </trkpt>
      <trkpt lat="45.92413" lon="4.73289">
        <ele>171</ele>
        <time>2018-02-19T11:45:10Z</time>
      </trkpt>
      <trkpt lat="45.92413" lon="4.73297">
        <ele>171</ele>
        <time>2018-02-19T11:45:11Z</time>
      </trkpt>
      <trkpt lat="45.92414" lon="4.73304">
        <ele>171</ele>
        <time>2018-02-19T11:45:12Z</time>
      </trkpt>
      <trkpt lat="45.92414" lon="4.73311">
        <ele>171</ele>
        <time>2018-02-19T11:45:13Z</time>
      </trkpt>
      <trkpt lat="45.92415" lon="4.73319">
        <ele>171</ele>
        <time>2018-02-19T11:45:14Z</time>
      </trkpt>
      <trkpt lat="45.92416" lon="4.73325">
        <ele>171</ele>
        <time>2018-02-19T11:45:15Z</time>
      </trkpt>
      <trkpt lat="45.92417" lon="4.73333">
        <ele>171</ele>
        <time>2018-02-19T11:45:16Z</time>
      </trkpt>
      <trkpt lat="45.92417" lon="4.7334">
        <ele>171</ele>
        <time>2018-02-19T11:45:17Z</time>
      </trkpt>
      <trkpt lat="45.92417" lon="4.73349">
        <ele>171</ele>
        <time>2018-02-19T11:45:18Z</time>
      </trkpt>
      <trkpt lat="45.92419" lon="4.73356">
        <ele>171</ele>
        <time>2018-02-19T11:45:19Z</time>
      </trkpt>
      <trkpt lat="45.92421" lon="4.73364">
        <ele>172</ele>
        <time>2018-02-19T11:45:20Z</time>
      </trkpt>
      <trkpt lat="45.92423" lon="4.73376">
        <ele>172</ele>
        <time>2018-02-19T11:45:22Z</time>
      </trkpt>
      <trkpt lat="45.92424" lon="4.73383">
        <ele>172</ele>
        <time>2018-02-19T11:45:23Z</time>
      </trkpt>
      <trkpt lat="45.92426" lon="4.7339">
        <ele>172</ele>
        <time>2018-02-19T11:45:24Z</time>
      </trkpt>
      <trkpt lat="45.92428" lon="4.73397">
        <ele>172</ele>
        <time>2018-02-19T11:45:25Z</time>
      </trkpt>
      <trkpt lat="45.9243" lon="4.73403">
        <ele>172</ele>
        <time>2018-02-19T11:45:26Z</time>
      </trkpt>
      <trkpt lat="45.92433" lon="4.73408">
        <ele>172</ele>
        <time>2018-02-19T11:45:27Z</time>
      </trkpt>
      <trkpt lat="45.92437" lon="4.73414">
        <ele>172</ele>
        <time>2018-02-19T11:45:28Z</time>
      </trkpt>
      <trkpt lat="45.92441" lon="4.73418">
        <ele>173</ele>
        <time>2018-02-19T11:45:29Z</time>
      </trkpt>
      <trkpt lat="45.92449" lon="4.73423">
        <ele>173</ele>
        <time>2018-02-19T11:45:31Z</time>
      </trkpt>
      <trkpt lat="45.92453" lon="4.73426">
        <ele>173</ele>
        <time>2018-02-19T11:45:32Z</time>
      </trkpt>
      <trkpt lat="45.92458" lon="4.73432">
        <ele>173</ele>
        <time>2018-02-19T11:45:33Z</time>
      </trkpt>
      <trkpt lat="45.92461" lon="4.73437">
        <ele>173</ele>
        <time>2018-02-19T11:45:34Z</time>
      </trkpt>
      <trkpt lat="45.92464" lon="4.73443">
        <ele>173</ele>
        <time>2018-02-19T11:45:35Z</time>
      </trkpt>
      <trkpt lat="45.92466" lon="4.7345">
        <ele>173</ele>
        <time>2018-02-19T11:45:36Z</time>
      </trkpt>
      <trkpt lat="45.92469" lon="4.73458">
        <ele>173</ele>
        <time>2018-02-19T11:45:37Z</time>
      </trkpt>
      <trkpt lat="45.9247" lon="4.73466">
        <ele>173</ele>
        <time>2018-02-19T11:45:38Z</time>
      </trkpt>
      <trkpt lat="45.9247" lon="4.73479">
        <ele>173</ele>
        <time>2018-02-19T11:45:40Z</time>
      </trkpt>
      <trkpt lat="45.92471" lon="4.73485">
        <ele>173</ele>
        <time>2018-02-19T11:45:41Z</time>
      </trkpt>
      <trkpt lat="45.92469" lon="4.73495">
        <ele>173</ele>
        <time>2018-02-19T11:45:43Z</time>
      </trkpt>
      <trkpt lat="45.9247" lon="4.73501">
        <ele>174</ele>
        <time>2018-02-19T11:45:44Z</time>
      </trkpt>
      <trkpt lat="45.92469" lon="4.73514">
        <ele>174</ele>
        <time>2018-02-19T11:45:46Z</time>
      </trkpt>
      <trkpt lat="45.92468" lon="4.73522">
        <ele>174</ele>
        <time>2018-02-19T11:45:47Z</time>
      </trkpt>
      <trkpt lat="45.92466" lon="4.73532">
        <ele>174</ele>
        <time>2018-02-19T11:45:49Z</time>
      </trkpt>
      <trkpt lat="45.92466" lon="4.73537">
        <ele>174</ele>
        <time>2018-02-19T11:45:50Z</time>
      </trkpt>
      <trkpt lat="45.92465" lon="4.73549">
        <ele>173</ele>
        <time>2018-02-19T11:45:52Z</time>
      </trkpt>
      <trkpt lat="45.92465" lon="4.73555">
        <ele>173</ele>
        <time>2018-02-19T11:45:53Z</time>
      </trkpt>
      <trkpt lat="45.92465" lon="4.73562">
        <ele>173</ele>
        <time>2018-02-19T11:45:54Z</time>
      </trkpt>
      <trkpt lat="45.92465" lon="4.73569">
        <ele>173</ele>
        <time>2018-02-19T11:45:55Z</time>
      </trkpt>
      <trkpt lat="45.92464" lon="4.73577">
        <ele>173</ele>
        <time>2018-02-19T11:45:56Z</time>
      </trkpt>
      <trkpt lat="45.92465" lon="4.73584">
        <ele>174</ele>
        <time>2018-02-19T11:45:57Z</time>
      </trkpt>
      <trkpt lat="45.92466" lon="4.73591">
        <ele>174</ele>
        <time>2018-02-19T11:45:58Z</time>
      </trkpt>
      <trkpt lat="45.92466" lon="4.73597">
        <ele>174</ele>
        <time>2018-02-19T11:45:59Z</time>
      </trkpt>
      <trkpt lat="45.92466" lon="4.73604">
        <ele>174</ele>
        <time>2018-02-19T11:46:00Z</time>
      </trkpt>
      <trkpt lat="45.92467" lon="4.7361">
        <ele>174</ele>
        <time>2018-02-19T11:46:01Z</time>
      </trkpt>
      <trkpt lat="45.92468" lon="4.73617">
        <ele>174</ele>
        <time>2018-02-19T11:46:02Z</time>
      </trkpt>
      <trkpt lat="45.92469" lon="4.73627">
        <ele>174</ele>
        <time>2018-02-19T11:46:03Z</time>
      </trkpt>
      <trkpt lat="45.92471" lon="4.73634">
        <ele>174</ele>
        <time>2018-02-19T11:46:04Z</time>
      </trkpt>
      <trkpt lat="45.92471" lon="4.73641">
        <ele>174</ele>
        <time>2018-02-19T11:46:05Z</time>
      </trkpt>
      <trkpt lat="45.92469" lon="4.73652">
        <ele>174</ele>
        <time>2018-02-19T11:46:07Z</time>
      </trkpt>
      <trkpt lat="45.92468" lon="4.73658">
        <ele>174</ele>
        <time>2018-02-19T11:46:08Z</time>
      </trkpt>
      <trkpt lat="45.92469" lon="4.73667">
        <ele>174</ele>
        <time>2018-02-19T11:46:10Z</time>
      </trkpt>
      <trkpt lat="45.92468" lon="4.73672">
        <ele>174</ele>
        <time>2018-02-19T11:46:11Z</time>
      </trkpt>
      <trkpt lat="45.92469" lon="4.73683">
        <ele>174</ele>
        <time>2018-02-19T11:46:13Z</time>
      </trkpt>
      <trkpt lat="45.92468" lon="4.73688">
        <ele>174</ele>
        <time>2018-02-19T11:46:14Z</time>
      </trkpt>
      <trkpt lat="45.92466" lon="4.73699">
        <ele>174</ele>
        <time>2018-02-19T11:46:17Z</time>
      </trkpt>
      <trkpt lat="45.92466" lon="4.73702">
        <ele>174</ele>
        <time>2018-02-19T11:46:18Z</time>
      </trkpt>
      <trkpt lat="45.92465" lon="4.73711">
        <ele>174</ele>
        <time>2018-02-19T11:47:09.418Z</time>
      </trkpt>
    </trkseg>
  </trk>
</gpx>